JPL-Sats

  Home –  History –  Credit –  Support –  Last_Sats –  Future_Sats –  C95_Ephs –  M58_Ephs –  I98_Ephs(T18) –  Q62_Ephs(T33) –  U94_Ephs(T68) –  Legal –  Privacy
Home   
History   
Credit   
Support   
Last_Sats   
Future_Sats   
C95_Ephs   
M58_Ephs   
I98_Ephs(T18)   
Q62_Ephs(T33)   
U94_Ephs(T68)   
Legal   
Privacy   

Index of all used observable objects

Wind (-8) TESS (-95) Chandra Observatory (-151) James Webb Space Telescope (-170) INTEGRAL (-198) Spektr-R Observatory (-557) Euclid (-680) CAPSTONE (-1176) Titan-3C RB (-102770) Gaia (-139479) MMS-1 (-140482) MMS-2 (-140483) MMS-3 (-140484) MMS-4 (-140485)

Missions with actual ephemerides

The ephemeris are downloaded by JPL Horizont:

  • Start of interval: 2024-03-04 00:00:00.
  • End of interval: 2024-03-18 00:00:00.
  • Time of interval: 10 min.
  • Station: Q62.
  • Created: 2024-Mar-04 03:15:51 UTC.

Wind (JPL-ID: -8)

   Date (UTC) HH:MM   RA              Dec         delta   r     elong SM  mag  '/hr    PA   alt  az moo ill
   ---- -- -- -----  -------------   -----------  ------ ------ ----- --  --- ------ ------ --- --- --- ---
   2024 03 04 18:10  21 31 41.82    -15 26 10.9   0.0096 0.9830  24.0  m  20?   3.71  91.6    0 107  51  37
   2024 03 04 18:20  21 31 44.34    -15 26 12.0   0.0096 0.9830  24.0  m  20?   3.57  91.7    2 106  51  37
   2024 03 04 18:30  21 31 46.75    -15 26 13.2   0.0096 0.9830  24.0  m  20?   3.42  91.9    4 105  51  37
   2024 03 04 18:40  21 31 49.06    -15 26 14.4   0.0096 0.9830  24.0 Am  20?   3.27  92.0    6 103  51  37
   2024 03 04 18:50  21 31 51.27    -15 26 15.6   0.0096 0.9830  24.0 Am  20?   3.12  92.1    8 102  51  37
   2024 03 04 19:00  21 31 53.38    -15 26 16.7   0.0096 0.9830  24.0 Am  20?   2.98  92.1   11 101  51  37
   2024 03 04 19:10  21 31 55.39    -15 26 17.9   0.0096 0.9830  24.0 Nm  20?   2.83  92.2   13 100  51  37
   2024 03 04 19:20  21 31 57.29    -15 26 19.0   0.0096 0.9830  24.0 Nm  20?   2.68  92.2   15  98  51  37
   2024 03 04 19:30  21 31 59.10    -15 26 20.0   0.0096 0.9830  24.0 Nm  20?   2.54  92.1   17  97  51  37
   2024 03 04 19:40  21 32 00.80    -15 26 20.9   0.0096 0.9830  24.0 Cm  20?   2.39  92.1   19  96  51  37
   2024 03 04 19:50  21 32 02.41    -15 26 21.8   0.0096 0.9830  24.0 Cm  20?   2.25  91.9   21  95  51  37
   ................
   2024 03 05 18:10  21 37 04.71    -15 06 46.8   0.0096 0.9833  23.7  r  20?   3.83  90.5    0 107  39  27
   2024 03 05 18:20  21 37 07.31    -15 06 47.2   0.0096 0.9833  23.7  m  20?   3.68  90.6    2 106  39  27
   2024 03 05 18:30  21 37 09.80    -15 06 47.7   0.0096 0.9833  23.7  m  20?   3.53  90.7    4 104  39  27
   2024 03 05 18:40  21 37 12.19    -15 06 48.2   0.0096 0.9833  23.7 Am  20?   3.39  90.8    6 103  39  27
   2024 03 05 18:50  21 37 14.47    -15 06 48.7   0.0096 0.9833  23.7 Am  20?   3.24  90.8    8 102  39  27
   2024 03 05 19:00  21 37 16.66    -15 06 49.2   0.0096 0.9833  23.7 Am  20?   3.09  90.8   10 101  39  27
   2024 03 05 19:10  21 37 18.74    -15 06 49.6   0.0096 0.9833  23.7 Nm  20?   2.94  90.8   12 100  39  27
   2024 03 05 19:20  21 37 20.72    -15 06 50.0   0.0096 0.9833  23.7 Nm  20?   2.79  90.7   14  98  39  27
   2024 03 05 19:30  21 37 22.60    -15 06 50.4   0.0096 0.9833  23.7 Nm  20?   2.65  90.6   16  97  38  27
   2024 03 05 19:40  21 37 24.37    -15 06 50.7   0.0096 0.9833  23.7 Cm  20?   2.50  90.4   19  96  38  27
   2024 03 05 19:50  21 37 26.05    -15 06 50.9   0.0096 0.9833  23.7 Cm  20?   2.36  90.2   21  95  38  26
   ................
   2024 03 06 18:10  21 42 36.22    -14 46 04.2   0.0095 0.9836  23.3  r  20?   3.95  89.5    0 107  26  17
   2024 03 06 18:20  21 42 38.89    -14 46 03.9   0.0095 0.9836  23.3  m  20?   3.80  89.5    1 106  26  17
   2024 03 06 18:30  21 42 41.46    -14 46 03.7   0.0095 0.9836  23.3  m  20?   3.65  89.6    3 104  26  17
   2024 03 06 18:40  21 42 43.92    -14 46 03.5   0.0095 0.9836  23.3 Am  20?   3.50  89.6    5 103  26  17
   2024 03 06 18:50  21 42 46.28    -14 46 03.3   0.0095 0.9836  23.3 Am  20?   3.35  89.6    7 102  26  17
   2024 03 06 19:00  21 42 48.54    -14 46 03.1   0.0095 0.9836  23.3 Am  20?   3.20  89.5   10 101  26  17
   2024 03 06 19:10  21 42 50.70    -14 46 02.9   0.0095 0.9836  23.3 Nm  20?   3.05  89.4   12  99  26  17
   2024 03 06 19:20  21 42 52.75    -14 46 02.6   0.0095 0.9836  23.3 Nm  20?   2.90  89.3   14  98  26  17
   2024 03 06 19:30  21 42 54.70    -14 46 02.2   0.0095 0.9836  23.3 Nm  20?   2.76  89.2   16  97  26  17
   2024 03 06 19:40  21 42 56.55    -14 46 01.8   0.0095 0.9836  23.3 Cm  20?   2.61  88.9   18  96  26  17
   2024 03 06 19:50  21 42 58.30    -14 46 01.3   0.0095 0.9836  23.3 Cm  20?   2.46  88.6   20  95  25  17
   ................
   2024 03 07 18:20  21 48 18.74    -14 24 01.6   0.0095 0.9839  22.9  m  20?   3.91  88.5    1 106  13   9
   2024 03 07 18:30  21 48 21.38    -14 24 00.7   0.0095 0.9839  22.9  m  20?   3.76  88.5    3 104  13   9
   2024 03 07 18:40  21 48 23.92    -14 23 59.7   0.0095 0.9839  22.9 Am  20?   3.62  88.5    5 103  13   9
   2024 03 07 18:50  21 48 26.36    -14 23 58.8   0.0095 0.9839  22.9 Am  20?   3.46  88.4    7 102  13   9
   2024 03 07 19:00  21 48 28.69    -14 23 57.9   0.0095 0.9839  22.9 Am  20?   3.31  88.3    9 100  13   9
   2024 03 07 19:10  21 48 30.92    -14 23 57.0   0.0095 0.9839  22.9 Nm  20?   3.16  88.2   11  99  13   9
   2024 03 07 19:20  21 48 33.04    -14 23 56.0   0.0095 0.9839  22.9 Nm  20?   3.02  88.0   13  98  12   9
   2024 03 07 19:30  21 48 35.07    -14 23 54.9   0.0095 0.9839  22.9 Nm  20?   2.87  87.8   15  97  12   9
   2024 03 07 19:40  21 48 36.99    -14 23 53.8   0.0095 0.9839  22.9 Cm  20?   2.72  87.5   17  96  12   9
   2024 03 07 19:50  21 48 38.81    -14 23 52.6   0.0095 0.9839  22.9 Cm  20?   2.57  87.2   20  94  12   9
   ................
   2024 03 08 18:20  21 54 06.42    -14 00 40.5   0.0094 0.9841  22.5  m  20?   4.03  87.5    0 105   3   3
   2024 03 08 18:30  21 54 09.14    -14 00 38.8   0.0094 0.9842  22.5  m  20?   3.88  87.5    2 104   3   3
   2024 03 08 18:40  21 54 11.75    -14 00 37.2   0.0094 0.9842  22.5 Am  20?   3.73  87.4    4 103   3   3
   2024 03 08 18:50  21 54 14.26    -14 00 35.5   0.0094 0.9842  22.4 Am  20?   3.58  87.3    6 102   3   3
   2024 03 08 19:00  21 54 16.66    -14 00 33.9   0.0094 0.9842  22.4 Am  20?   3.43  87.2    8 100   3   3
   2024 03 08 19:10  21 54 18.96    -14 00 32.2   0.0094 0.9842  22.4 Nm  20?   3.28  87.0   11  99   3   3
   2024 03 08 19:20  21 54 21.16    -14 00 30.5   0.0094 0.9842  22.4 Nm  20?   3.13  86.8   13  98   3   3
   2024 03 08 19:30  21 54 23.25    -14 00 28.8   0.0094 0.9842  22.4 Nm  20?   2.98  86.5   15  97   3   3
   2024 03 08 19:40  21 54 25.24    -14 00 27.0   0.0094 0.9842  22.4 Cm  20?   2.83  86.2   17  95   3   3
   2024 03 08 19:50  21 54 27.13    -14 00 25.1   0.0094 0.9842  22.4 Cm  20?   2.68  85.8   19  94   3   3
   ................
   2024 03 09 18:20  22 00 01.43    -13 36 01.8   0.0094 0.9844  22.0  r  20?   4.14  86.6    0 105  14   0
   2024 03 09 18:30  22 00 04.22    -13 35 59.4   0.0094 0.9844  22.0     20?   3.99  86.5    2 104  14   0
   2024 03 09 18:40  22 00 06.90    -13 35 57.0   0.0094 0.9844  22.0 A   20?   3.84  86.4    4 103  14   0
   2024 03 09 18:50  22 00 09.48    -13 35 54.6   0.0094 0.9844  22.0 A   20?   3.69  86.3    6 102  14   0
   2024 03 09 19:00  22 00 11.95    -13 35 52.3   0.0094 0.9844  22.0 A   20?   3.54  86.1    8 100  14   0
   2024 03 09 19:10  22 00 14.32    -13 35 49.9   0.0094 0.9844  22.0 N   20?   3.39  85.9   10  99  14   0
   2024 03 09 19:20  22 00 16.59    -13 35 47.4   0.0094 0.9844  22.0 Nm  20?   3.24  85.6   12  98  14   0
   2024 03 09 19:30  22 00 18.75    -13 35 45.0   0.0093 0.9844  22.0 Nm  20?   3.09  85.3   14  97  15   0
   2024 03 09 19:40  22 00 20.81    -13 35 42.5   0.0093 0.9845  22.0 Cm  20?   2.94  84.9   16  95  15   0
   2024 03 09 19:50  22 00 22.76    -13 35 39.8   0.0093 0.9845  22.0 Cm  20?   2.79  84.5   18  94  15   0
   ................
   2024 03 10 18:30  22 06 06.09    -13 10 04.2   0.0093 0.9847  21.5     20?   4.10  85.6    1 104  28   0
   2024 03 10 18:40  22 06 08.84    -13 10 01.1   0.0093 0.9847  21.4 A   20?   3.95  85.4    3 103  28   0
   2024 03 10 18:50  22 06 11.49    -13 09 58.0   0.0093 0.9847  21.4 A   20?   3.80  85.3    5 101  28   0
   2024 03 10 19:00  22 06 14.03    -13 09 54.9   0.0093 0.9847  21.4 A   20?   3.65  85.1    7 100  28   0
   2024 03 10 19:10  22 06 16.47    -13 09 51.8   0.0093 0.9847  21.4 N   20?   3.50  84.8    9  99  28   0
   2024 03 10 19:20  22 06 18.80    -13 09 48.6   0.0093 0.9847  21.4 N   20?   3.34  84.5   11  98  28   0
   2024 03 10 19:30  22 06 21.02    -13 09 45.4   0.0093 0.9847  21.4 N   20?   3.19  84.2   14  96  28   0
   2024 03 10 19:40  22 06 23.15    -13 09 42.2   0.0093 0.9847  21.4 C   20?   3.04  83.8   16  95  28   0
   2024 03 10 19:50  22 06 25.17    -13 09 38.9   0.0093 0.9847  21.4 C   20?   2.89  83.3   18  94  28   0
   ................
   2024 03 11 18:30  22 12 14.23    -12 42 55.5   0.0092 0.9850  20.9     20?   4.21  84.7    0 104  41   3
   2024 03 11 18:40  22 12 17.04    -12 42 51.7   0.0092 0.9850  20.9 A   20?   4.06  84.5    2 103  41   3
   2024 03 11 18:50  22 12 19.75    -12 42 47.8   0.0092 0.9850  20.9 A   20?   3.91  84.3    4 101  41   3
   2024 03 11 19:00  22 12 22.36    -12 42 44.0   0.0092 0.9850  20.9 A   20?   3.76  84.1    6 100  41   3
   2024 03 11 19:10  22 12 24.86    -12 42 40.2   0.0092 0.9850  20.9 N   20?   3.60  83.8    9  99  41   3
   2024 03 11 19:20  22 12 27.26    -12 42 36.3   0.0092 0.9850  20.9 N   20?   3.45  83.5   11  98  42   3
   2024 03 11 19:30  22 12 29.55    -12 42 32.4   0.0092 0.9850  20.9 N   20?   3.30  83.1   13  96  42   3
   2024 03 11 19:40  22 12 31.73    -12 42 28.5   0.0092 0.9850  20.9 C   20?   3.15  82.7   15  95  42   3
   2024 03 11 19:50  22 12 33.81    -12 42 24.5   0.0092 0.9850  20.9 C   20?   3.00  82.2   17  94  42   3
   ................
   2024 03 12 18:30  22 18 28.15    -12 14 35.7   0.0092 0.9853  20.3  r  20?   4.32  83.8    0 104  54   8
   2024 03 12 18:40  22 18 31.03    -12 14 31.1   0.0092 0.9853  20.3     20?   4.17  83.7    2 102  54   8
   2024 03 12 18:50  22 18 33.81    -12 14 26.5   0.0092 0.9853  20.3 A   20?   4.02  83.4    4 101  54   8
   2024 03 12 19:00  22 18 36.48    -12 14 22.0   0.0092 0.9853  20.3 A   20?   3.86  83.2    6 100  55   8
   2024 03 12 19:10  22 18 39.04    -12 14 17.4   0.0092 0.9853  20.3 N   20?   3.71  82.9    8  99  55   8
   2024 03 12 19:20  22 18 41.50    -12 14 12.9   0.0092 0.9853  20.3 N   20?   3.55  82.5   10  97  55   9
   2024 03 12 19:30  22 18 43.85    -12 14 08.3   0.0092 0.9853  20.3 N   20?   3.40  82.1   12  96  55   9
   2024 03 12 19:40  22 18 46.10    -12 14 03.6   0.0092 0.9853  20.3 C   20?   3.25  81.7   14  95  55   9
   2024 03 12 19:50  22 18 48.24    -12 13 58.9   0.0092 0.9853  20.3 C   20?   3.10  81.1   16  94  55   9
   ................
   2024 03 13 18:40  22 24 50.43    -11 45 01.4   0.0091 0.9856  19.7     20?   4.28  82.8    1 102  67  16
   2024 03 13 18:50  22 24 53.27    -11 44 56.1   0.0091 0.9856  19.7 A   20?   4.12  82.6    3 101  67  16
   2024 03 13 19:00  22 24 56.00    -11 44 50.8   0.0091 0.9856  19.7 A   20?   3.97  82.3    5 100  67  16
   2024 03 13 19:10  22 24 58.63    -11 44 45.6   0.0091 0.9856  19.7 A   20?   3.81  82.0    7  99  67  16
   2024 03 13 19:20  22 25 01.15    -11 44 40.3   0.0091 0.9856  19.7 N   20?   3.66  81.6    9  97  67  16
   2024 03 13 19:30  22 25 03.56    -11 44 34.9   0.0091 0.9856  19.7 N   20?   3.51  81.2   11  96  68  16
   2024 03 13 19:40  22 25 05.87    -11 44 29.6   0.0091 0.9856  19.7 C   20?   3.35  80.7   13  95  68  16
   2024 03 13 19:50  22 25 08.07    -11 44 24.1   0.0091 0.9856  19.7 C   20?   3.20  80.1   16  94  68  16
   ................
   2024 03 14 18:40  22 31 14.97    -11 14 24.1   0.0091 0.9859  19.1     20?   4.39  82.0    0 102  79  25
   2024 03 14 18:50  22 31 17.87    -11 14 18.1   0.0091 0.9859  19.1 A   20?   4.23  81.8    2 101  79  25
   2024 03 14 19:00  22 31 20.66    -11 14 12.1   0.0091 0.9859  19.1 A   20?   4.08  81.5    4 100  80  25
   2024 03 14 19:10  22 31 23.35    -11 14 06.1   0.0091 0.9859  19.0 A   20?   3.92  81.1    6  98  80  25
   2024 03 14 19:20  22 31 25.93    -11 14 00.0   0.0091 0.9859  19.0 N   20?   3.77  80.7    8  97  80  25
   2024 03 14 19:30  22 31 28.40    -11 13 54.0   0.0090 0.9859  19.0 N   20?   3.61  80.3   11  96  80  26
   2024 03 14 19:40  22 31 30.77    -11 13 47.9   0.0090 0.9859  19.0 C   20?   3.46  79.8   13  95  80  26
   2024 03 14 19:50  22 31 33.03    -11 13 41.8   0.0090 0.9859  19.0 C   20?   3.31  79.2   15  93  80  26
   ................
   2024 03 15 18:40  22 37 44.46    -10 42 40.3   0.0090 0.9862  18.4  r  20?   4.50  81.3    0 102  91  35
   2024 03 15 18:50  22 37 47.42    -10 42 33.5   0.0090 0.9862  18.4 A   20?   4.34  81.0    1 101  91  35
   2024 03 15 19:00  22 37 50.27    -10 42 26.7   0.0090 0.9862  18.4 A   20?   4.18  80.7    3 100  91  35
   2024 03 15 19:10  22 37 53.02    -10 42 20.0   0.0090 0.9862  18.4 A   20?   4.03  80.3    6  98  91  35
   2024 03 15 19:20  22 37 55.66    -10 42 13.2   0.0090 0.9862  18.4 N   20?   3.87  79.9    8  97  91  35
   2024 03 15 19:30  22 37 58.20    -10 42 06.4   0.0090 0.9862  18.4 N   20?   3.72  79.4   10  96  92  36
   2024 03 15 19:40  22 38 00.62    -10 41 59.6   0.0090 0.9862  18.4 N   20?   3.56  78.9   12  94  92  36
   2024 03 15 19:50  22 38 02.94    -10 41 52.7   0.0090 0.9862  18.4 C   20?   3.41  78.3   14  93  92  36
   ................
   2024 03 16 18:50  22 44 21.81    -10 09 42.8   0.0089 0.9865  17.7 A   20?   4.45  80.2    0 101 102  45
   2024 03 16 19:00  22 44 24.73    -10 09 35.3   0.0089 0.9865  17.7 A   20?   4.29  79.9    3  99 103  46
   2024 03 16 19:10  22 44 27.54    -10 09 27.8   0.0089 0.9865  17.7 A   20?   4.14  79.5    5  98 103  46
   2024 03 16 19:20  22 44 30.24    -10 09 20.2   0.0089 0.9865  17.7 N   20?   3.98  79.0    7  97 103  46
   2024 03 16 19:30  22 44 32.84    -10 09 12.7   0.0089 0.9865  17.7 N   20?   3.83  78.6    9  96 103  46
   2024 03 16 19:40  22 44 35.32    -10 09 05.1   0.0089 0.9865  17.7 N   20?   3.67  78.0   11  94 103  46
   2024 03 16 19:50  22 44 37.70    -10 08 57.5   0.0089 0.9865  17.7 C   20?   3.52  77.4   13  93 103  46
   ................
   2024 03 17 18:50  22 51 00.99    -09 35 46.3   0.0089 0.9867  17.0 Ar  20?   4.57  79.5    0 101 113  56
   2024 03 17 19:00  22 51 03.97    -09 35 38.0   0.0089 0.9867  17.0 A   20?   4.41  79.1    2  99 113  56
   2024 03 17 19:10  22 51 06.85    -09 35 29.7   0.0089 0.9867  17.0 A   20?   4.25  78.7    4  98 114  56
   2024 03 17 19:20  22 51 09.61    -09 35 21.4   0.0089 0.9868  17.0 N   20?   4.09  78.2    6  97 114  56
   2024 03 17 19:30  22 51 12.27    -09 35 13.1   0.0089 0.9868  17.0 N   20?   3.94  77.7    8  95 114  56
   2024 03 17 19:40  22 51 14.82    -09 35 04.7   0.0089 0.9868  17.0 N   20?   3.78  77.2   10  94 114  56
   2024 03 17 19:50  22 51 17.26    -09 34 56.3   0.0089 0.9868  16.9 C   20?   3.63  76.6   12  93 114  56
   2024 03 17 20:00  22 51 19.59    -09 34 47.9   0.0089 0.9868  16.9 C   20?   3.48  75.9   14  92 114  56
   ................
   

TESS (JPL-ID: -95)

   Date (UTC) HH:MM   RA              Dec         delta   r     elong SM  mag  '/hr    PA   alt  az moo ill
   ---- -- -- -----  -------------   -----------  ------ ------ ----- --  --- ------ ------ --- --- --- ---
   2024 03 04 08:40  02 16 54.21    -28 11 22.7   337198 0.9903  51.2 C   14?  28.15  32.1   49 261 108  42
   2024 03 04 08:50  02 17 05.66    -28 07 23.1   337386 0.9903  51.2 C   14?  28.54  32.7   47 261 108  42
   2024 03 04 09:00  02 17 17.44    -28 03 21.7   337580 0.9903  51.2 N   14?  28.94  33.3   45 260 108  42
   2024 03 04 09:10  02 17 29.58    -27 59 18.6   337779 0.9903  51.2 N   14?  29.34  33.9   42 259 108  42
   2024 03 04 09:20  02 17 42.08    -27 55 14.1   337983 0.9903  51.3 N   14?  29.74  34.5   40 258 108  42
   2024 03 04 09:30  02 17 54.95    -27 51 08.1   338191 0.9903  51.3 A   14?  30.14  35.2   38 257 108  42
   2024 03 04 09:40  02 18 08.21    -27 47 00.9   338403 0.9903  51.3 A   14?  30.54  35.8   36 256 108  41
   2024 03 04 09:50  02 18 21.85    -27 42 52.4   338620 0.9903  51.3 A   14?  30.95  36.5   34 256 108  41
   2024 03 04 10:00  02 18 35.89    -27 38 42.9   338839 0.9903  51.4     14?  31.35  37.2   32 255 108  41
   2024 03 04 10:10  02 18 50.33    -27 34 32.5   339062 0.9903  51.4     14?  31.76  37.9   30 254 108  41
   2024 03 04 10:20  02 19 05.18    -27 30 21.2   339288 0.9903  51.4     14?  32.17  38.6   28 253 108  41
   2024 03 04 10:30  02 19 20.45    -27 26 09.2   339517 0.9903  51.4     14?  32.57  39.3   26 252 108  41
   2024 03 04 10:40  02 19 36.13    -27 21 56.7   339747 0.9903  51.5     14?  32.98  40.0   24 251 108  41
   2024 03 04 10:50  02 19 52.24    -27 17 43.6   339980 0.9903  51.5     14?  33.38  40.7   22 250 108  41
   2024 03 04 11:00  02 20 08.77    -27 13 30.3   340214 0.9903  51.6     14?  33.78  41.5   20 249 108  41
   2024 03 04 11:10  02 20 25.72    -27 09 16.7   340448 0.9903  51.6     14?  34.18  42.2   18 249 108  41
   2024 03 04 11:20  02 20 43.10    -27 05 03.0   340684 0.9903  51.6     14?  34.58  42.9   16 248 108  40
   2024 03 04 11:30  02 21 00.91    -27 00 49.3   340920 0.9903  51.7     14?  34.98  43.6   14 247 108  40
   2024 03 04 11:40  02 21 19.14    -26 56 35.8   341156 0.9903  51.7     14?  35.37  44.3   12 246 108  40
   2024 03 04 11:50  02 21 37.80    -26 52 22.4   341391 0.9903  51.8     14?  35.75  45.0   10 245 108  40
   2024 03 04 12:00  02 21 56.88    -26 48 09.5   341626 0.9903  51.8     14?  36.14  45.7    8 244 108  40
   2024 03 04 12:10  02 22 16.37    -26 43 56.9   341859 0.9903  51.9     14?  36.51  46.4    6 242 108  40
   2024 03 04 12:20  02 22 36.29    -26 39 45.0   342091 0.9903  51.9     14?  36.88  47.1    5 241 108  40
   2024 03 04 12:30  02 22 56.61    -26 35 33.7   342321 0.9903  52.0     14?  37.25  47.7    3 240 108  40
   2024 03 04 12:40  02 23 17.33    -26 31 23.2   342549 0.9904  52.0     14?  37.61  48.4    1 239 108  40
   2024 03 04 12:50  02 23 38.46    -26 27 13.6   342774 0.9904  52.1     14?  37.96  49.1    0 238 108  40
   ................
   2024 03 05 08:40  02 58 55.54    -20 15 56.9   336852 0.9908  58.5 C   14?  26.58  26.2   54 279 110  32
   2024 03 05 08:50  02 59 03.99    -20 11 57.4   336956 0.9908  58.5 C   14?  26.90  26.8   52 277 110  32
   2024 03 05 09:00  02 59 12.71    -20 07 56.2   337068 0.9908  58.5 N   14?  27.22  27.4   50 275 110  32
   2024 03 05 09:10  02 59 21.73    -20 03 53.6   337186 0.9908  58.6 N   14?  27.55  28.1   48 274 110  31
   2024 03 05 09:20  02 59 31.06    -19 59 49.6   337310 0.9908  58.6 N   14?  27.88  28.7   46 273 110  31
   2024 03 05 09:30  02 59 40.70    -19 55 44.3   337440 0.9908  58.6 A   14?  28.22  29.4   43 271 110  31
   2024 03 05 09:40  02 59 50.68    -19 51 37.6   337576 0.9908  58.6 A   14?  28.56  30.2   41 270 110  31
   2024 03 05 09:50  03 00 00.99    -19 47 29.9   337718 0.9908  58.7 A   14?  28.91  30.9   39 269 110  31
   2024 03 05 10:00  03 00 11.66    -19 43 21.0   337864 0.9908  58.7     14?  29.27  31.7   37 268 110  31
   2024 03 05 10:10  03 00 22.69    -19 39 11.1   338016 0.9908  58.7     14?  29.62  32.4   35 267 110  31
   2024 03 05 10:20  03 00 34.09    -19 35 00.4   338171 0.9908  58.8     14?  29.99  33.2   33 266 110  31
   2024 03 05 10:30  03 00 45.87    -19 30 48.8   338331 0.9908  58.8     14?  30.35  34.0   31 264 110  31
   2024 03 05 10:40  03 00 58.04    -19 26 36.5   338495 0.9908  58.8     14?  30.73  34.8   28 263 110  31
   2024 03 05 10:50  03 01 10.59    -19 22 23.5   338662 0.9908  58.9     14?  31.10  35.6   26 262 110  30
   2024 03 05 11:00  03 01 23.55    -19 18 10.0   338831 0.9908  58.9     14?  31.48  36.4   24 261 110  30
   2024 03 05 11:10  03 01 36.91    -19 13 56.0   339004 0.9908  59.0     14?  31.86  37.2   22 260 110  30
   2024 03 05 11:20  03 01 50.67    -19 09 41.6   339178 0.9908  59.0     14?  32.24  38.0   20 259 110  30
   2024 03 05 11:30  03 02 04.85    -19 05 26.9   339355 0.9908  59.0     14?  32.63  38.8   18 258 110  30
   2024 03 05 11:40  03 02 19.44    -19 01 12.1   339533 0.9908  59.1     14?  33.02  39.6   16 257 110  30
   2024 03 05 11:50  03 02 34.45    -18 56 57.1   339711 0.9908  59.1     14?  33.41  40.3   14 256 110  30
   2024 03 05 12:00  03 02 49.87    -18 52 42.1   339891 0.9908  59.2     14?  33.80  41.1   12 255 110  30
   2024 03 05 12:10  03 03 05.71    -18 48 27.1   340071 0.9909  59.2     14?  34.19  41.9   10 254 110  30
   2024 03 05 12:20  03 03 21.96    -18 44 12.3   340250 0.9909  59.3     14?  34.58  42.7    8 253 110  30
   2024 03 05 12:30  03 03 38.63    -18 39 57.7   340429 0.9909  59.3     14?  34.97  43.4    6 251 110  29
   2024 03 05 12:40  03 03 55.71    -18 35 43.4   340607 0.9909  59.4     14?  35.35  44.1    4 250 110  29
   2024 03 05 12:50  03 04 13.20    -18 31 29.5   340784 0.9909  59.5     14?  35.74  44.9    2 249 110  29
   2024 03 05 13:00  03 04 31.10    -18 27 16.0   340958 0.9909  59.5     14?  36.12  45.6    0 248 110  29
   ................
   2024 03 06 08:40  03 37 40.63    -11 27 46.2   326855 0.9913  66.7 C   13?  26.85  22.9   56 300 112  22
   2024 03 06 08:50  03 37 47.80    -11 23 38.0   326869 0.9913  66.7 C   13?  27.08  23.4   54 297 112  22
   2024 03 06 09:00  03 37 55.20    -11 19 28.7   326891 0.9914  66.8 N   13?  27.32  24.0   52 295 112  22
   2024 03 06 09:10  03 38 02.85    -11 15 18.3   326921 0.9914  66.8 N   13?  27.57  24.6   50 292 112  22
   2024 03 06 09:20  03 38 10.75    -11 11 07.0   326959 0.9914  66.8 N   13?  27.83  25.3   48 290 112  21
   2024 03 06 09:30  03 38 18.93    -11 06 54.6   327004 0.9914  66.8 A   13?  28.09  26.0   46 288 112  21
   2024 03 06 09:40  03 38 27.40    -11 02 41.4   327056 0.9914  66.9 A   13?  28.36  26.7   44 286 112  21
   2024 03 06 09:50  03 38 36.17    -10 58 27.3   327115 0.9914  66.9 A   13?  28.65  27.4   42 285 112  21
   2024 03 06 10:00  03 38 45.26    -10 54 12.4   327180 0.9914  66.9     13?  28.94  28.2   40 283 112  21
   2024 03 06 10:10  03 38 54.67    -10 49 56.7   327251 0.9914  67.0     13?  29.24  29.0   38 281 112  21
   2024 03 06 10:20  03 39 04.43    -10 45 40.4   327328 0.9914  67.0     13?  29.54  29.8   36 280 112  21
   2024 03 06 10:30  03 39 14.53    -10 41 23.4   327410 0.9914  67.1     13?  29.86  30.6   34 278 111  21
   2024 03 06 10:40  03 39 25.00    -10 37 05.9   327498 0.9914  67.1     13?  30.19  31.4   32 277 111  21
   2024 03 06 10:50  03 39 35.83    -10 32 47.8   327590 0.9914  67.1     13?  30.52  32.3   30 276 111  21
   2024 03 06 11:00  03 39 47.05    -10 28 29.2   327687 0.9914  67.2     13?  30.87  33.1   27 274 111  21
   2024 03 06 11:10  03 39 58.65    -10 24 10.2   327788 0.9914  67.2     13?  31.22  34.0   25 273 111  20
   2024 03 06 11:20  03 40 10.64    -10 19 50.8   327892 0.9914  67.3     13?  31.58  34.8   23 272 111  20
   2024 03 06 11:30  03 40 23.04    -10 15 31.1   327999 0.9914  67.3     13?  31.95  35.7   21 271 111  20
   2024 03 06 11:40  03 40 35.84    -10 11 11.2   328110 0.9914  67.4     13?  32.33  36.6   19 269 111  20
   2024 03 06 11:50  03 40 49.06    -10 06 51.0   328223 0.9914  67.4     13?  32.71  37.4   17 268 111  20
   2024 03 06 12:00  03 41 02.69    -10 02 30.7   328337 0.9914  67.5     13?  33.10  38.2   15 267 111  20
   2024 03 06 12:10  03 41 16.74    -09 58 10.3   328454 0.9914  67.5     13?  33.50  39.1   13 266 111  20
   2024 03 06 12:20  03 41 31.21    -09 53 49.8   328572 0.9914  67.6     13?  33.90  39.9   10 265 111  20
   2024 03 06 12:30  03 41 46.11    -09 49 29.4   328690 0.9914  67.6     13?  34.31  40.7    8 263 111  20
   2024 03 06 12:40  03 42 01.43    -09 45 08.9   328809 0.9914  67.7     13?  34.72  41.5    6 262 111  20
   2024 03 06 12:50  03 42 17.17    -09 40 48.5   328928 0.9915  67.7     13?  35.13  42.3    4 261 111  20
   2024 03 06 13:00  03 42 33.35    -09 36 28.3   329046 0.9915  67.8     13?  35.55  43.1    2 260 111  19
   2024 03 06 13:10  03 42 49.94    -09 32 08.2   329164 0.9915  67.9     13?  35.97  43.8    0 259 111  19
   ................
   2024 03 07 08:40  04 17 21.41    -01 25 21.8   307179 0.9920  76.2 C   13?  29.37  22.2   54 323 113  13
   2024 03 07 08:50  04 17 28.85    -01 20 49.5   307095 0.9920  76.3 C   13?  29.49  22.6   53 320 113  13
   2024 03 07 09:00  04 17 36.47    -01 16 16.9   307020 0.9920  76.3 N   13?  29.63  23.1   51 317 113  13
   2024 03 07 09:10  04 17 44.29    -01 11 44.0   306953 0.9920  76.3 N   13?  29.78  23.7   50 313 113  13
   2024 03 07 09:20  04 17 52.34    -01 07 10.9   306895 0.9920  76.4 N   13?  29.94  24.2   48 311 113  13
   2024 03 07 09:30  04 18 00.62    -01 02 37.5   306845 0.9920  76.4 A   13?  30.11  24.9   46 308 113  13
   2024 03 07 09:40  04 18 09.15    -00 58 03.9   306803 0.9920  76.4 A   13?  30.30  25.5   45 305 113  13
   2024 03 07 09:50  04 18 17.95    -00 53 30.1   306768 0.9920  76.5 A   13?  30.49  26.2   43 303 113  12
   2024 03 07 10:00  04 18 27.03    -00 48 56.2   306742 0.9920  76.5     13?  30.70  26.9   41 301 113  12
   2024 03 07 10:10  04 18 36.42    -00 44 22.1   306722 0.9920  76.6     13?  30.92  27.7   39 299 113  12
   2024 03 07 10:20  04 18 46.12    -00 39 47.9   306710 0.9920  76.6     13?  31.16  28.5   37 297 113  12
   2024 03 07 10:30  04 18 56.15    -00 35 13.6   306704 0.9920  76.6     13?  31.41  29.3   35 295 113  12
   2024 03 07 10:40  04 19 06.53    -00 30 39.3   306704 0.9920  76.7     13?  31.68  30.1   33 293 113  12
   2024 03 07 10:50  04 19 17.26    -00 26 04.9   306711 0.9920  76.7     13?  31.96  30.9   31 291 113  12
   2024 03 07 11:00  04 19 28.36    -00 21 30.4   306723 0.9920  76.8     13?  32.25  31.8   29 290 113  12
   2024 03 07 11:10  04 19 39.85    -00 16 56.0   306740 0.9920  76.8     13?  32.56  32.7   27 288 113  12
   2024 03 07 11:20  04 19 51.72    -00 12 21.5   306763 0.9921  76.9     13?  32.88  33.5   25 286 113  12
   2024 03 07 11:30  04 20 03.99    -00 07 47.0   306790 0.9921  76.9     13?  33.22  34.4   23 285 113  12
   2024 03 07 11:40  04 20 16.68    -00 03 12.6   306821 0.9921  77.0     13?  33.57  35.3   21 283 112  12
   2024 03 07 11:50  04 20 29.78    +00 01 21.8   306856 0.9921  77.0     13?  33.94  36.2   19 282 112  12
   2024 03 07 12:00  04 20 43.32    +00 05 56.2   306894 0.9921  77.1     13?  34.32  37.1   17 281 112  11
   2024 03 07 12:10  04 20 57.28    +00 10 30.5   306936 0.9921  77.1     13?  34.72  37.9   15 279 112  11
   2024 03 07 12:20  04 21 11.69    +00 15 04.8   306980 0.9921  77.2     13?  35.12  38.8   13 278 112  11
   2024 03 07 12:30  04 21 26.54    +00 19 39.0   307026 0.9921  77.3     13?  35.54  39.6   11 277 112  11
   2024 03 07 12:40  04 21 41.85    +00 24 13.1   307075 0.9921  77.3     13?  35.97  40.5    9 276 112  11
   2024 03 07 12:50  04 21 57.61    +00 28 47.2   307124 0.9921  77.4     13?  36.41  41.3    6 274 112  11
   2024 03 07 13:00  04 22 13.83    +00 33 21.1   307175 0.9921  77.5     13?  36.87  42.1    4 273 112  11
   2024 03 07 13:10  04 22 30.51    +00 37 55.0   307226 0.9921  77.5     13?  37.33  42.9    2 272 112  11
   2024 03 07 13:20  04 22 47.65    +00 42 28.9   307277 0.9921  77.6     13?  37.80  43.7    0 271 112  11
   ................
   2024 03 08 08:40  05 03 41.15    +10 29 41.1   277968 0.9927  87.9 C   12?  35.57  24.9   47 346 115   6
   2024 03 08 08:50  05 03 51.31    +10 35 03.6   277776 0.9927  87.9 C   12?  35.56  25.2   46 342 115   6
   2024 03 08 09:00  05 04 01.61    +10 40 25.1   277593 0.9927  88.0 N   12?  35.55  25.6   45 339 115   6
   2024 03 08 09:10  05 04 12.05    +10 45 45.6   277419 0.9927  88.0 N   12?  35.56  26.0   44 336 115   6
   2024 03 08 09:20  05 04 22.67    +10 51 05.2   277254 0.9927  88.1 N   12?  35.59  26.4   43 333 115   6
   2024 03 08 09:30  05 04 33.47    +10 56 23.7   277098 0.9927  88.1 A   12?  35.63  26.9   42 330 115   6
   2024 03 08 09:40  05 04 44.50    +11 01 41.2   276950 0.9927  88.2 A   12?  35.69  27.5   41 327 115   6
   2024 03 08 09:50  05 04 55.75    +11 06 57.7   276811 0.9927  88.2 A   12?  35.76  28.1   40 324 115   6
   2024 03 08 10:00  05 05 07.26    +11 12 13.1   276680 0.9927  88.3     12?  35.85  28.7   39 322 115   5
   2024 03 08 10:10  05 05 19.05    +11 17 27.5   276557 0.9927  88.3     12?  35.96  29.3   37 319 114   5
   2024 03 08 10:20  05 05 31.13    +11 22 40.8   276441 0.9927  88.4     12?  36.09  30.0   36 317 114   5
   2024 03 08 10:30  05 05 43.53    +11 27 53.1   276333 0.9927  88.4     12?  36.24  30.8   34 314 114   5
   2024 03 08 10:40  05 05 56.25    +11 33 04.4   276233 0.9927  88.5     12?  36.41  31.5   33 312 114   5
   2024 03 08 10:50  05 06 09.33    +11 38 14.7   276139 0.9927  88.5     12?  36.60  32.3   31 310 114   5
   2024 03 08 11:00  05 06 22.78    +11 43 24.1   276052 0.9927  88.6     12?  36.81  33.1   29 308 114   5
   2024 03 08 11:10  05 06 36.61    +11 48 32.4   275972 0.9927  88.6     12?  37.04  33.9   28 306 114   5
   2024 03 08 11:20  05 06 50.84    +11 53 39.8   275897 0.9927  88.7     12?  37.30  34.8   26 304 114   5
   2024 03 08 11:30  05 07 05.49    +11 58 46.3   275829 0.9927  88.8     12?  37.58  35.6   24 303 114   5
   2024 03 08 11:40  05 07 20.57    +12 03 51.8   275766 0.9927  88.8     12?  37.88  36.5   22 301 114   5
   2024 03 08 11:50  05 07 36.09    +12 08 56.6   275708 0.9928  88.9     12?  38.20  37.3   20 299 114   5
   2024 03 08 12:00  05 07 52.07    +12 14 00.5   275655 0.9928  88.9     12?  38.55  38.2   19 298 114   5
   2024 03 08 12:10  05 08 08.53    +12 19 03.6   275606 0.9928  89.0     12?  38.92  39.1   17 296 114   5
   2024 03 08 12:20  05 08 25.46    +12 24 06.0   275561 0.9928  89.1     12?  39.32  39.9   15 295 114   5
   2024 03 08 12:30  05 08 42.89    +12 29 07.6   275520 0.9928  89.2     12?  39.73  40.8   13 293 114   5
   2024 03 08 12:40  05 09 00.82    +12 34 08.7   275483 0.9928  89.2     12?  40.17  41.7   11 292 114   5
   2024 03 08 12:50  05 09 19.27    +12 39 09.1   275448 0.9928  89.3     12?  40.62  42.5    9 291 114   5
   2024 03 08 13:00  05 09 38.24    +12 44 09.0   275416 0.9928  89.4     12?  41.10  43.3    7 289 114   5
   2024 03 08 13:10  05 09 57.73    +12 49 08.4   275386 0.9928  89.5     12?  41.60  44.1    5 288 113   5
   2024 03 08 13:20  05 10 17.76    +12 54 07.4   275358 0.9928  89.5     12?  42.11  44.9    3 287 113   4
   2024 03 08 13:30  05 10 38.33    +12 59 06.0   275331 0.9928  89.6     12?  42.65  45.7    1 286 113   4
   ................
   2024 03 09 08:40  06 09 02.51    +25 09 06.3   240212 0.9934 103.1 C   12?  49.32  33.1   33   6 118   1
   2024 03 09 08:50  06 09 22.28    +25 15 58.7   239908 0.9934 103.1 C   12?  49.09  33.3   33   3 118   1
   2024 03 09 09:00  06 09 42.10    +25 22 48.2   239612 0.9934 103.2 Ne  12?  48.88  33.6   33   1 118   1
   2024 03 09 09:10  06 10 02.00    +25 29 34.7   239325 0.9934 103.3 Nt  12?  48.67  33.8   33 358 118   1
   2024 03 09 09:20  06 10 21.99    +25 36 18.2   239046 0.9934 103.3 N   12?  48.49  34.2   33 356 118   1
   2024 03 09 09:30  06 10 42.12    +25 42 58.6   238775 0.9934 103.4 A   12?  48.33  34.5   32 353 117   1
   2024 03 09 09:40  06 11 02.39    +25 49 35.8   238512 0.9934 103.5 A   12?  48.18  34.9   32 350 117   1
   2024 03 09 09:50  06 11 22.85    +25 56 09.9   238257 0.9934 103.5 A   12?  48.06  35.4   31 348 117   1
   2024 03 09 10:00  06 11 43.52    +26 02 40.8   238011 0.9934 103.6     12?  47.96  35.9   31 345 117   1
   2024 03 09 10:10  06 12 04.43    +26 09 08.4   237772 0.9934 103.7     12?  47.88  36.4   30 343 117   1
   2024 03 09 10:20  06 12 25.60    +26 15 32.8   237542 0.9934 103.7     12?  47.83  37.0   29 341 117   1
   2024 03 09 10:30  06 12 47.06    +26 21 54.0   237319 0.9934 103.8     12?  47.80  37.6   29 338 117   1
   2024 03 09 10:40  06 13 08.84    +26 28 12.0   237103 0.9934 103.9     12?  47.80  38.2   28 336 117   1
   2024 03 09 10:50  06 13 30.96    +26 34 26.7   236895 0.9934 103.9     12?  47.83  38.9   27 334 117   1
   2024 03 09 11:00  06 13 53.45    +26 40 38.3   236695 0.9934 104.0     12?  47.89  39.6   26 332 117   1
   2024 03 09 11:10  06 14 16.34    +26 46 46.7   236501 0.9934 104.1     12?  47.98  40.3   25 330 117   1
   2024 03 09 11:20  06 14 39.65    +26 52 51.9   236314 0.9934 104.2     12?  48.10  41.0   24 328 117   1
   2024 03 09 11:30  06 15 03.41    +26 58 54.0   236134 0.9934 104.2     12?  48.26  41.8   22 326 117   1
   2024 03 09 11:40  06 15 27.64    +27 04 53.1   235960 0.9934 104.3     12?  48.44  42.6   21 324 117   1
   2024 03 09 11:50  06 15 52.37    +27 10 49.2   235792 0.9934 104.4     12?  48.67  43.4   20 322 117   1
   2024 03 09 12:00  06 16 17.61    +27 16 42.4   235630 0.9934 104.5     12?  48.92  44.2   18 320 117   1
   2024 03 09 12:10  06 16 43.39    +27 22 32.7   235474 0.9935 104.6     12?  49.22  45.0   17 319 117   1
   2024 03 09 12:20  06 17 09.74    +27 28 20.2   235323 0.9935 104.6     12?  49.54  45.8   16 317 117   1
   2024 03 09 12:30  06 17 36.67    +27 34 05.0   235178 0.9935 104.7     12?  49.91  46.7   14 315 117   1
   2024 03 09 12:40  06 18 04.20    +27 39 47.2   235037 0.9935 104.8     12?  50.30  47.5   13 314 117   1
   2024 03 09 12:50  06 18 32.36    +27 45 26.9   234900 0.9935 104.9     12?  50.74  48.3   11 312 117   1
   2024 03 09 13:00  06 19 01.15    +27 51 04.2   234768 0.9935 105.0     12?  51.20  49.1    9 311 117   1
   2024 03 09 13:10  06 19 30.61    +27 56 39.1   234640 0.9935 105.1     12?  51.70  49.9    8 310 116   1
   2024 03 09 13:20  06 20 00.75    +28 02 11.9   234516 0.9935 105.2     12?  52.24  50.7    6 308 116   1
   2024 03 09 13:30  06 20 31.57    +28 07 42.6   234395 0.9935 105.3     12?  52.80  51.5    5 307 116   1
   2024 03 09 13:40  06 21 03.11    +28 13 11.3   234276 0.9935 105.4     12?  53.40  52.3    3 306 116   1
   2024 03 09 13:50  06 21 35.36    +28 18 38.1   234161 0.9935 105.5     13?  54.02  53.0    1 304 116   0
   2024 03 09 14:00  06 22 08.36    +28 24 03.3   234048 0.9935 105.6     13?  54.68  53.8    0 303 116   0
   ................
   2024 03 10 08:40  08 12 26.67    +41 45 56.5   198009 0.9940 123.2 C   13?  79.93  54.3    9  26 124   0
   2024 03 10 08:50  08 13 24.55    +41 53 41.4   197621 0.9940 123.3 C   13?  79.40  54.6   10  24 124   0
   2024 03 10 09:00  08 14 22.36    +42 01 20.2   197239 0.9940 123.3 N   13?  78.88  54.9   11  23 124   0
   2024 03 10 09:10  08 15 20.12    +42 08 52.8   196863 0.9940 123.4 N   13?  78.38  55.2   11  21 124   0
   2024 03 10 09:20  08 16 17.85    +42 16 19.0   196493 0.9940 123.5 N   13?  77.89  55.5   12  20 124   0
   2024 03 10 09:30  08 17 15.58    +42 23 38.6   196128 0.9940 123.6 A   13?  77.42  55.9   13  18 124   0
   2024 03 10 09:40  08 18 13.34    +42 30 51.3   195770 0.9940 123.7 A   13?  76.97  56.3   13  16 124   0
   2024 03 10 09:50  08 19 11.16    +42 37 56.9   195418 0.9940 123.8     13?  76.54  56.7   13  15 124   0
   2024 03 10 10:00  08 20 09.06    +42 44 55.4   195073 0.9940 123.9     13?  76.13  57.1   14  13 124   0
   2024 03 10 10:10  08 21 07.08    +42 51 46.4   194733 0.9940 124.0     13?  75.75  57.6   14  11 124   0
   2024 03 10 10:20  08 22 05.25    +42 58 29.8   194400 0.9940 124.1     13?  75.39  58.1   14  10 124   0
   2024 03 10 10:30  08 23 03.60    +43 05 05.5   194073 0.9940 124.1     13?  75.07  58.7   15   8 124   0
   2024 03 10 10:40  08 24 02.16    +43 11 33.3   193753 0.9940 124.2     13?  74.77  59.3   15   6 124   0
   2024 03 10 10:50  08 25 00.96    +43 17 53.0   193438 0.9940 124.3     13?  74.51  59.9   15   4 124   0
   2024 03 10 11:00  08 26 00.05    +43 24 04.6   193130 0.9940 124.4     13?  74.29  60.5   15   3 124   0
   2024 03 10 11:10  08 26 59.45    +43 30 07.9   192829 0.9940 124.5  e  13?  74.10  61.2   15   1 124   0
   2024 03 10 11:20  08 27 59.20    +43 36 02.8   192533 0.9940 124.6  t  13?  73.95  61.8   15 359 124   0
   2024 03 10 11:30  08 28 59.34    +43 41 49.3   192244 0.9940 124.7     13?  73.84  62.6   15 358 124   0
   2024 03 10 11:40  08 29 59.89    +43 47 27.1   191961 0.9940 124.8     13?  73.78  63.3   14 356 124   0
   2024 03 10 11:50  08 31 00.90    +43 52 56.3   191685 0.9940 124.9     13?  73.75  64.0   14 354 124   0
   2024 03 10 12:00  08 32 02.40    +43 58 16.7   191414 0.9940 125.0     13?  73.78  64.8   14 353 124   0
   2024 03 10 12:10  08 33 04.42    +44 03 28.4   191149 0.9941 125.1     13?  73.85  65.6   14 351 124   0
   2024 03 10 12:20  08 34 07.00    +44 08 31.2   190891 0.9941 125.2     13?  73.97  66.3   13 349 124   0
   2024 03 10 12:30  08 35 10.18    +44 13 25.2   190638 0.9941 125.3     13?  74.13  67.2   13 348 124   0
   2024 03 10 12:40  08 36 13.99    +44 18 10.2   190391 0.9941 125.4     13?  74.35  68.0   12 346 124   0
   2024 03 10 12:50  08 37 18.46    +44 22 46.4   190149 0.9941 125.5     13?  74.61  68.8   12 345 124   0
   2024 03 10 13:00  08 38 23.64    +44 27 13.7   189914 0.9941 125.6     13?  74.93  69.6   11 343 124   0
   2024 03 10 13:10  08 39 29.55    +44 31 32.0   189683 0.9941 125.7     13?  75.30  70.4   10 342 124   0
   2024 03 10 13:20  08 40 36.22    +44 35 41.5   189458 0.9941 125.8     13?  75.71  71.3   10 340 124   0
   2024 03 10 13:30  08 41 43.70    +44 39 42.2   189239 0.9941 125.9     13?  76.18  72.1    9 339 124   0
   2024 03 10 13:40  08 42 52.01    +44 43 34.0   189024 0.9941 126.1     13?  76.70  72.9    8 337 124   0
   2024 03 10 13:50  08 44 01.18    +44 47 17.1   188814 0.9941 126.2     13?  77.27  73.7    8 336 124   0
   2024 03 10 14:00  08 45 11.24    +44 50 51.4   188609 0.9941 126.3     13?  77.88  74.5    7 335 124   0
   2024 03 10 14:10  08 46 22.23    +44 54 17.1   188409 0.9941 126.4     13?  78.55  75.3    6 333 124   0
   2024 03 10 14:20  08 47 34.17    +44 57 34.3   188213 0.9941 126.5     13?  79.26  76.1    5 332 124   0
   2024 03 10 14:30  08 48 47.10    +45 00 42.9   188022 0.9941 126.7     13?  80.02  76.8    4 331 124   0
   2024 03 10 14:40  08 50 01.03    +45 03 43.2   187835 0.9941 126.8     13?  80.82  77.6    3 329 124   0
   2024 03 10 14:50  08 51 15.99    +45 06 35.2   187652 0.9941 126.9     13?  81.66  78.3    2 328 124   0
   2024 03 10 15:00  08 52 32.02    +45 09 18.9   187473 0.9941 127.1     13?  82.55  79.0    1 327 124   0
   2024 03 10 15:10  08 53 49.13    +45 11 54.6   187297 0.9941 127.2     13?  83.47  79.7    0 326 124   0
   ................
   2024 03 11 12:00  13 03 28.56    +40 50 11.9   158839 0.9944 136.8     13? 121.55 113.2    0  39 135   1
   2024 03 11 12:10  13 05 06.45    +40 42 06.3   158570 0.9944 136.7     13? 121.13 113.8    1  38 135   1
   2024 03 11 12:20  13 06 43.29    +40 33 49.2   158305 0.9944 136.7     13? 120.75 114.5    3  37 135   1
   2024 03 11 12:30  13 08 19.12    +40 25 20.4   158045 0.9944 136.6     13? 120.40 115.2    4  36 135   1
   2024 03 11 12:40  13 09 53.93    +40 16 39.6   157790 0.9944 136.5     13? 120.10 115.9    5  35 135   1
   2024 03 11 12:50  13 11 27.75    +40 07 46.8   157539 0.9944 136.4     13? 119.84 116.6    6  34 135   1
   2024 03 11 13:00  13 13 00.59    +39 58 41.8   157293 0.9944 136.4     13? 119.62 117.3    7  33 135   2
   2024 03 11 13:10  13 14 32.48    +39 49 24.6   157053 0.9944 136.3     13? 119.44 118.0    8  31 135   2
   2024 03 11 13:20  13 16 03.44    +39 39 54.9   156818 0.9944 136.2     13? 119.31 118.8    9  30 136   2
   2024 03 11 13:30  13 17 33.48    +39 30 12.7   156589 0.9944 136.2     13? 119.23 119.5   10  29 136   2
   2024 03 11 13:40  13 19 02.64    +39 20 18.0   156365 0.9944 136.1     13? 119.19 120.2   11  27 136   2
   2024 03 11 13:50  13 20 30.92    +39 10 10.5   156148 0.9944 136.0     13? 119.20 120.9   12  26 136   2
   2024 03 11 14:00  13 21 58.37    +38 59 50.3   155936 0.9944 136.0     13? 119.25 121.6   13  25 136   2
   2024 03 11 14:10  13 23 25.01    +38 49 17.2   155731 0.9944 135.9     13? 119.36 122.3   14  23 136   2
   2024 03 11 14:20  13 24 50.85    +38 38 31.3   155533 0.9944 135.8     13? 119.50 123.0   15  22 136   2
   2024 03 11 14:30  13 26 15.94    +38 27 32.4   155341 0.9944 135.8     13? 119.70 123.7   16  20 136   2
   2024 03 11 14:40  13 27 40.30    +38 16 20.7   155155 0.9944 135.7     13? 119.94 124.3   17  19 136   2
   2024 03 11 14:50  13 29 03.96    +38 04 55.9   154977 0.9944 135.6     13? 120.23 125.0   17  17 136   2
   2024 03 11 15:00  13 30 26.94    +37 53 18.3   154806 0.9944 135.6     13? 120.56 125.6   18  15 136   2
   2024 03 11 15:10  13 31 49.29    +37 41 27.7   154642 0.9944 135.5     13? 120.93 126.3   19  14 136   2
   2024 03 11 15:20  13 33 11.03    +37 29 24.2   154486 0.9944 135.4     13? 121.35 126.9   19  12 136   2
   2024 03 11 15:30  13 34 32.20    +37 17 07.8   154337 0.9944 135.4     13? 121.80 127.5   20  10 136   2
   2024 03 11 15:40  13 35 52.82    +37 04 38.6   154196 0.9944 135.3     13? 122.30 128.0   21   8 136   2
   2024 03 11 15:50  13 37 12.93    +36 51 56.8   154062 0.9944 135.3     13? 122.84 128.6   21   7 137   2
   2024 03 11 16:00  13 38 32.57    +36 39 02.2   153937 0.9944 135.2     13? 123.41 129.1   21   5 137   2
   2024 03 11 16:10  13 39 51.76    +36 25 55.1   153819 0.9944 135.1     13? 124.01 129.7   22   3 137   2
   2024 03 11 16:20  13 41 10.54    +36 12 35.6   153709 0.9944 135.1     13? 124.65 130.2   22   1 137   2
   2024 03 11 16:30  13 42 28.95    +35 59 03.8   153608 0.9944 135.0  t  13? 125.32 130.6   22 359 137   2
   2024 03 11 16:40  13 43 47.01    +35 45 19.9   153515 0.9944 134.9     13? 126.02 131.1   23 357 137   2
   2024 03 11 16:50  13 45 04.76    +35 31 23.9   153430 0.9944 134.9     13? 126.75 131.5   23 355 137   2
   2024 03 11 17:00  13 46 22.24    +35 17 16.1   153353 0.9944 134.8     13? 127.50 131.9   23 353 137   2
   2024 03 11 17:10  13 47 39.48    +35 02 56.7   153285 0.9944 134.7  e  12? 128.28 132.3   23 351 137   2
   2024 03 11 17:20  13 48 56.50    +34 48 25.8   153226 0.9944 134.7     12? 129.07 132.7   23 349 137   2
   2024 03 11 17:30  13 50 13.34    +34 33 43.6   153175 0.9944 134.6     12? 129.89 133.0   23 347 137   2
   2024 03 11 17:40  13 51 30.04    +34 18 50.5   153132 0.9944 134.5     12? 130.73 133.3   22 345 138   3
   2024 03 11 17:50  13 52 46.62    +34 03 46.6   153098 0.9944 134.5     12? 131.58 133.6   22 343 138   3
   2024 03 11 18:00  13 54 03.12    +33 48 32.1   153073 0.9944 134.4     12? 132.44 133.9   22 341 138   3
   2024 03 11 18:10  13 55 19.57    +33 33 07.4   153056 0.9944 134.3     12? 133.32 134.1   21 339 138   3
   2024 03 11 18:20  13 56 35.99    +33 17 32.6   153047 0.9944 134.2     12? 134.20 134.3   21 338 138   3
   2024 03 11 18:30  13 57 52.41    +33 01 48.1   153047 0.9944 134.2     12? 135.09 134.5   21 336 138   3
   2024 03 11 18:40  13 59 08.87    +32 45 54.2   153056 0.9943 134.1 A   12? 135.99 134.7   20 334 138   3
   2024 03 11 18:50  14 00 25.38    +32 29 51.1   153072 0.9943 134.0 A   12? 136.90 134.8   19 332 138   3
   2024 03 11 19:00  14 01 41.98    +32 13 39.2   153098 0.9943 133.9 A   12? 137.80 135.0   19 330 138   3
   2024 03 11 19:10  14 02 58.69    +31 57 18.8   153131 0.9943 133.8 N   12? 138.71 135.1   18 328 139   3
   2024 03 11 19:20  14 04 15.53    +31 40 50.1   153173 0.9943 133.7 N   12? 139.62 135.2   17 326 139   3
   2024 03 11 19:30  14 05 32.53    +31 24 13.6   153222 0.9943 133.6 N   12? 140.53 135.3   16 325 139   3
   2024 03 11 19:40  14 06 49.72    +31 07 29.5   153280 0.9943 133.5 C   12? 141.43 135.3   16 323 139   3
   2024 03 11 19:50  14 08 07.10    +30 50 38.1   153346 0.9943 133.4 C   12? 142.33 135.4   15 321 139   3
   ................
   2024 03 12 13:20  16 33 00.18    +01 09 50.8   163946 0.9941 104.5     12? 133.83 136.1    0  88 131   6
   2024 03 12 13:30  16 34 01.49    +00 53 44.2   163906 0.9941 104.2     12? 132.99 136.5    2  87 130   6
   2024 03 12 13:40  16 35 01.95    +00 37 37.2   163869 0.9941 104.0     12? 132.15 136.9    4  86 130   6
   2024 03 12 13:50  16 36 01.58    +00 21 29.9   163833 0.9941 103.7     12? 131.33 137.3    6  85 130   7
   2024 03 12 14:00  16 37 00.37    +00 05 22.3   163801 0.9941 103.5     12? 130.50 137.7    8  84 130   7
   2024 03 12 14:10  16 37 58.33    -00 10 45.5   163772 0.9941 103.2     12? 129.69 138.1   10  83 130   7
   2024 03 12 14:20  16 38 55.46    -00 26 53.4   163746 0.9941 103.0     12? 128.88 138.5   12  82 130   7
   2024 03 12 14:30  16 39 51.78    -00 43 01.4   163724 0.9941 102.7     12? 128.08 138.9   14  81 130   7
   2024 03 12 14:40  16 40 47.29    -00 59 09.4   163706 0.9941 102.5     12? 127.28 139.3   16  80 130   7
   2024 03 12 14:50  16 41 42.01    -01 15 17.3   163693 0.9941 102.3     12? 126.50 139.7   19  79 130   7
   2024 03 12 15:00  16 42 35.93    -01 31 25.0   163684 0.9941 102.0     12? 125.72 140.1   21  78 130   7
   2024 03 12 15:10  16 43 29.08    -01 47 32.3   163680 0.9941 101.8     12? 124.95 140.5   23  77 130   7
   2024 03 12 15:20  16 44 21.47    -02 03 39.3   163682 0.9941 101.6     12? 124.19 140.9   25  76 130   7
   2024 03 12 15:30  16 45 13.12    -02 19 45.7   163690 0.9941 101.3     12? 123.44 141.3   27  75 130   7
   2024 03 12 15:40  16 46 04.03    -02 35 51.4   163703 0.9941 101.1     12? 122.70 141.7   29  73 130   7
   2024 03 12 15:50  16 46 54.22    -02 51 56.3   163723 0.9941 100.9     12? 121.97 142.1   31  72 130   7
   2024 03 12 16:00  16 47 43.72    -03 08 00.3   163749 0.9941 100.7     12? 121.25 142.4   33  71 130   7
   2024 03 12 16:10  16 48 32.53    -03 24 03.2   163782 0.9941 100.5     12? 120.54 142.8   35  69 130   7
   2024 03 12 16:20  16 49 20.69    -03 40 04.9   163823 0.9941 100.3     12? 119.84 143.1   37  68 130   7
   2024 03 12 16:30  16 50 08.20    -03 56 05.1   163871 0.9941 100.0     12? 119.15 143.5   39  66 130   7
   2024 03 12 16:40  16 50 55.10    -04 12 03.9   163926 0.9941  99.8     11? 118.47 143.8   41  65 130   8
   2024 03 12 16:50  16 51 41.40    -04 28 00.9   163990 0.9941  99.6     11? 117.80 144.1   43  63 130   8
   2024 03 12 17:00  16 52 27.13    -04 43 56.0   164061 0.9941  99.4     11? 117.13 144.4   45  61 130   8
   2024 03 12 17:10  16 53 12.31    -04 59 49.1   164141 0.9941  99.2     11? 116.48 144.6   47  59 130   8
   2024 03 12 17:20  16 53 56.97    -05 15 40.0   164230 0.9941  99.0     11? 115.84 144.9   48  57 130   8
   2024 03 12 17:30  16 54 41.14    -05 31 28.4   164327 0.9941  98.8     11? 115.21 145.1   50  55 130   8
   2024 03 12 17:40  16 55 24.83    -05 47 14.3   164433 0.9941  98.7     11? 114.58 145.3   52  53 130   8
   2024 03 12 17:50  16 56 08.08    -06 02 57.4   164548 0.9941  98.5     11? 113.97 145.5   54  50 130   8
   2024 03 12 18:00  16 56 50.92    -06 18 37.6   164673 0.9941  98.3     11? 113.37 145.7   56  47 130   8
   2024 03 12 18:10  16 57 33.37    -06 34 14.6   164807 0.9941  98.1     11? 112.77 145.9   57  44 130   8
   2024 03 12 18:20  16 58 15.47    -06 49 48.4   164951 0.9941  97.9     11? 112.19 146.0   59  41 130   8
   2024 03 12 18:30  16 58 57.24    -07 05 18.6   165104 0.9941  97.7     11? 111.62 146.1   60  37 130   8
   2024 03 12 18:40  16 59 38.71    -07 20 45.2   165267 0.9940  97.5     11? 111.05 146.2   62  34 130   8
   2024 03 12 18:50  17 00 19.92    -07 36 08.0   165440 0.9940  97.4 A   11? 110.50 146.3   63  29 130   8
   2024 03 12 19:00  17 01 00.90    -07 51 26.8   165623 0.9940  97.2 A   11? 109.96 146.3   64  25 130   8
   2024 03 12 19:10  17 01 41.67    -08 06 41.3   165816 0.9940  97.0 N   11? 109.43 146.3   65  20 130   8
   2024 03 12 19:20  17 02 22.28    -08 21 51.5   166019 0.9940  96.8 N   11? 108.91 146.3   66  14 130   9
   2024 03 12 19:30  17 03 02.74    -08 36 57.2   166232 0.9940  96.6 N   11? 108.41 146.3   67   9 130   9
   2024 03 12 19:40  17 03 43.10    -08 51 58.3   166455 0.9940  96.5 C   11? 107.92 146.2   67   3 130   9
   2024 03 12 19:50  17 04 23.39    -09 06 54.5   166688 0.9940  96.3 Ct  11? 107.44 146.1   67 357 129   9
   ................
   2024 03 13 14:10  18 53 40.28    -29 44 01.7   204087 0.9937  71.5  r  12? 100.26 127.8    0 125 115  14
   2024 03 13 14:20  18 54 40.62    -29 54 18.5   204210 0.9937  71.3     12?  99.46 128.1    1 124 115  14
   2024 03 13 14:30  18 55 40.34    -30 04 34.4   204332 0.9937  71.2     12?  98.65 128.4    3 123 115  14
   2024 03 13 14:40  18 56 39.41    -30 14 49.3   204453 0.9937  71.0     12?  97.82 128.7    4 122 115  14
   2024 03 13 14:50  18 57 37.84    -30 25 03.0   204573 0.9937  70.8     12?  96.98 129.0    6 121 115  14
   2024 03 13 15:00  18 58 35.60    -30 35 15.3   204692 0.9937  70.6     12?  96.13 129.3    8 120 115  14
   2024 03 13 15:10  18 59 32.70    -30 45 26.2   204810 0.9937  70.5     12?  95.26 129.6   10 119 115  14
   2024 03 13 15:20  19 00 29.13    -30 55 35.4   204929 0.9937  70.3     12?  94.39 129.9   11 119 115  14
   2024 03 13 15:30  19 01 24.88    -31 05 42.7   205048 0.9937  70.1     12?  93.50 130.2   13 118 115  14
   2024 03 13 15:40  19 02 19.95    -31 15 48.0   205167 0.9937  70.0     12?  92.60 130.5   15 117 115  15
   2024 03 13 15:50  19 03 14.33    -31 25 51.1   205287 0.9937  69.8     12?  91.69 130.8   17 116 115  15
   2024 03 13 16:00  19 04 08.03    -31 35 51.8   205408 0.9937  69.7     12?  90.78 131.1   19 115 115  15
   2024 03 13 16:10  19 05 01.05    -31 45 49.9   205530 0.9937  69.5     12?  89.85 131.4   20 115 115  15
   2024 03 13 16:20  19 05 53.38    -31 55 45.2   205654 0.9937  69.4     12?  88.92 131.7   22 114 115  15
   2024 03 13 16:30  19 06 45.02    -32 05 37.5   205779 0.9937  69.2     12?  87.98 132.0   24 113 115  15
   2024 03 13 16:40  19 07 35.98    -32 15 26.7   205907 0.9937  69.1     12?  87.03 132.3   26 113 115  15
   2024 03 13 16:50  19 08 26.26    -32 25 12.5   206037 0.9937  68.9     12?  86.08 132.5   28 112 115  15
   2024 03 13 17:00  19 09 15.87    -32 34 54.7   206170 0.9937  68.8     12?  85.13 132.8   30 111 115  15
   2024 03 13 17:10  19 10 04.81    -32 44 33.1   206306 0.9937  68.7     12?  84.17 133.0   32 111 115  15
   2024 03 13 17:20  19 10 53.09    -32 54 07.6   206445 0.9937  68.6     12?  83.21 133.3   34 110 114  15
   2024 03 13 17:30  19 11 40.72    -33 03 37.9   206588 0.9937  68.4     12?  82.24 133.5   35 110 114  15
   2024 03 13 17:40  19 12 27.70    -33 13 03.8   206734 0.9937  68.3     12?  81.28 133.7   37 109 114  15
   2024 03 13 17:50  19 13 14.05    -33 22 25.2   206885 0.9937  68.2     12?  80.31 133.9   39 109 114  16
   2024 03 13 18:00  19 13 59.78    -33 31 41.8   207039 0.9937  68.1     12?  79.35 134.1   41 108 114  16
   2024 03 13 18:10  19 14 44.90    -33 40 53.4   207198 0.9937  68.0     12?  78.39 134.3   43 108 114  16
   2024 03 13 18:20  19 15 29.42    -33 49 59.8   207362 0.9936  67.8     12?  77.43 134.4   45 108 114  16
   2024 03 13 18:30  19 16 13.37    -33 59 00.9   207531 0.9936  67.7     12?  76.47 134.5   47 107 114  16
   2024 03 13 18:40  19 16 56.75    -34 07 56.5   207704 0.9936  67.6     12?  75.51 134.7   49 107 114  16
   2024 03 13 18:50  19 17 39.58    -34 16 46.3   207883 0.9936  67.5 A   12?  74.57 134.8   51 107 114  16
   2024 03 13 19:00  19 18 21.89    -34 25 30.2   208068 0.9936  67.4 A   12?  73.62 134.8   53 106 114  16
   2024 03 13 19:10  19 19 03.69    -34 34 08.0   208258 0.9936  67.3 A   13?  72.69 134.9   55 106 114  16
   2024 03 13 19:20  19 19 45.01    -34 42 39.6   208454 0.9936  67.2 N   13?  71.76 134.9   57 106 114  16
   2024 03 13 19:30  19 20 25.85    -34 51 04.8   208656 0.9936  67.1 N   13?  70.85 134.9   58 106 114  16
   2024 03 13 19:40  19 21 06.26    -34 59 23.4   208865 0.9936  67.0 C   13?  69.94 134.9   60 106 114  16
   2024 03 13 19:50  19 21 46.24    -35 07 35.3   209079 0.9936  66.9 C   13?  69.05 134.8   62 106 114  16
   ................
   2024 03 14 15:30  21 09 10.54    -42 56 49.7   250527 0.9934  52.5     13?  71.11 110.6    0 142 105  23
   2024 03 14 15:40  21 10 10.80    -43 01 02.1   250677 0.9934  52.4     13?  70.46 110.9    1 141 105  23
   2024 03 14 15:50  21 11 10.46    -43 05 15.3   250823 0.9934  52.3     13?  69.78 111.1    2 140 105  24
   2024 03 14 16:00  21 12 09.50    -43 09 29.0   250966 0.9934  52.2     13?  69.10 111.4    4 139 105  24
   2024 03 14 16:10  21 13 07.91    -43 13 43.2   251107 0.9934  52.1     13?  68.39 111.7    5 138 105  24
   2024 03 14 16:20  21 14 05.68    -43 17 57.6   251244 0.9934  52.1     13?  67.67 111.9    6 137 105  24
   2024 03 14 16:30  21 15 02.79    -43 22 12.1   251379 0.9934  52.0     13?  66.94 112.2    8 136 105  24
   2024 03 14 16:40  21 15 59.23    -43 26 26.5   251512 0.9934  51.9     13?  66.19 112.4    9 135 105  24
   2024 03 14 16:50  21 16 55.00    -43 30 40.7   251643 0.9934  51.8     13?  65.42 112.7   11 134 105  24
   2024 03 14 17:00  21 17 50.07    -43 34 54.4   251773 0.9934  51.8     13?  64.65 112.9   12 133 105  24
   2024 03 14 17:10  21 18 44.46    -43 39 07.6   251900 0.9934  51.7     13?  63.86 113.1   14 132 105  24
   2024 03 14 17:20  21 19 38.14    -43 43 19.9   252027 0.9934  51.6     13?  63.06 113.4   15 131 105  24
   2024 03 14 17:30  21 20 31.12    -43 47 31.3   252152 0.9934  51.6     13?  62.25 113.6   17 131 105  24
   2024 03 14 17:40  21 21 23.38    -43 51 41.5   252277 0.9934  51.5     13?  61.43 113.8   18 130 105  25
   2024 03 14 17:50  21 22 14.93    -43 55 50.4   252401 0.9934  51.5     13?  60.61 114.0   20 129 105  25
   2024 03 14 18:00  21 23 05.75    -43 59 57.7   252525 0.9934  51.4     13?  59.77 114.2   21 129 105  25
   2024 03 14 18:10  21 23 55.86    -44 04 03.3   252649 0.9934  51.3     13?  58.93 114.4   23 128 105  25
   2024 03 14 18:20  21 24 45.24    -44 08 06.9   252774 0.9934  51.3     13?  58.08 114.5   24 128 105  25
   2024 03 14 18:30  21 25 33.89    -44 12 08.4   252898 0.9934  51.2     13?  57.23 114.7   26 127 105  25
   2024 03 14 18:40  21 26 21.83    -44 16 07.5   253024 0.9934  51.2     13?  56.37 114.8   27 126 105  25
   2024 03 14 18:50  21 27 09.04    -44 20 04.2   253150 0.9934  51.2 A   13?  55.51 114.9   29 126 105  25
   2024 03 14 19:00  21 27 55.54    -44 23 58.1   253278 0.9934  51.1 A   13?  54.64 115.0   31 126 105  25
   2024 03 14 19:10  21 28 41.32    -44 27 49.1   253407 0.9934  51.1 A   13?  53.78 115.1   32 125 105  25
   2024 03 14 19:20  21 29 26.40    -44 31 36.9   253538 0.9934  51.0 N   13?  52.91 115.1   34 125 105  25
   2024 03 14 19:30  21 30 10.79    -44 35 21.5   253671 0.9934  51.0 N   13?  52.05 115.2   35 124 105  26
   2024 03 14 19:40  21 30 54.48    -44 39 02.5   253806 0.9934  50.9 C   13?  51.19 115.2   37 124 105  26
   2024 03 14 19:50  21 31 37.49    -44 42 39.8   253943 0.9934  50.9 C   13?  50.33 115.2   39 124 105  26
   ................
   2024 03 15 08:30  22 20 00.25    -45 01 54.4   277300 0.9933  46.5 Cm  14?  55.71  79.2    6 220 103  31
   2024 03 15 08:40  22 20 52.12    -45 00 11.3   277689 0.9933  46.4 Cm  14?  56.20  79.4    5 219 103  31
   2024 03 15 08:50  22 21 44.44    -44 58 29.5   278075 0.9933  46.4 Nm  14?  56.66  79.6    4 218 103  31
   2024 03 15 09:00  22 22 37.20    -44 56 49.1   278458 0.9933  46.3 Nm  14?  57.12  79.9    2 217 103  31
   2024 03 15 09:10  22 23 30.39    -44 55 10.3   278837 0.9933  46.2 Nm  14?  57.55  80.1    1 216 103  31
   2024 03 15 09:20  22 24 23.98    -44 53 33.2   279212 0.9933  46.1 Am  14?  57.96  80.4    0 215 103  31
   ................
   2024 03 15 17:10  23 07 48.53    -44 32 26.5   290352 0.9933  43.3     14?  52.70  94.4    0 145  99  34
   2024 03 15 17:20  23 08 37.39    -44 33 08.5   290449 0.9933  43.3     14?  52.09  94.7    0 143  99  34
   2024 03 15 17:30  23 09 25.67    -44 33 52.1   290541 0.9933  43.3     14?  51.47  94.9    2 142  99  34
   2024 03 15 17:40  23 10 13.35    -44 34 37.2   290629 0.9933  43.3     14?  50.83  95.1    3 141  99  34
   2024 03 15 17:50  23 11 00.42    -44 35 23.6   290713 0.9933  43.2     14?  50.17  95.3    4 140  99  35
   2024 03 15 18:00  23 11 46.87    -44 36 11.2   290794 0.9933  43.2     14?  49.51  95.5    5 139  99  35
   2024 03 15 18:10  23 12 32.69    -44 36 59.8   290872 0.9933  43.2     14?  48.83  95.7    7 138  99  35
   2024 03 15 18:20  23 13 17.87    -44 37 49.3   290947 0.9933  43.2     14?  48.14  95.9    8 137  99  35
   2024 03 15 18:30  23 14 02.40    -44 38 39.5   291019 0.9933  43.2     14?  47.44  96.1    9 136  99  35
   2024 03 15 18:40  23 14 46.27    -44 39 30.2   291089 0.9933  43.2     14?  46.73  96.2   11 135  99  35
   2024 03 15 18:50  23 15 29.47    -44 40 21.3   291156 0.9933  43.2 A   14?  46.01  96.3   12 134  99  35
   2024 03 15 19:00  23 16 12.00    -44 41 12.5   291221 0.9933  43.2 A   14?  45.29  96.5   14 133  99  35
   2024 03 15 19:10  23 16 53.86    -44 42 03.8   291284 0.9933  43.2 A   14?  44.56  96.6   15 133  99  35
   2024 03 15 19:20  23 17 35.03    -44 42 54.9   291346 0.9933  43.2 N   14?  43.82  96.7   17 132  99  35
   2024 03 15 19:30  23 18 15.51    -44 43 45.7   291407 0.9933  43.2 N   14?  43.07  96.7   18 131  99  36
   2024 03 15 19:40  23 18 55.31    -44 44 36.0   291467 0.9933  43.2 N   14?  42.33  96.7   20 130  99  36
   2024 03 15 19:50  23 19 34.42    -44 45 25.6   291526 0.9933  43.2 C   14?  41.58  96.8   21 130  99  36
   ................
   2024 03 16 08:30  23 53 45.94    -42 53 20.3   306957 0.9933  41.3 Cm  14?  43.10  60.6   19 230  99  41
   2024 03 16 08:40  23 54 20.36    -42 49 48.9   307306 0.9933  41.2 Cm  14?  43.59  61.0   17 230  99  41
   2024 03 16 08:50  23 54 55.27    -42 46 17.8   307654 0.9933  41.2 Nm  14?  44.08  61.4   15 229  99  41
   2024 03 16 09:00  23 55 30.66    -42 42 47.1   308001 0.9933  41.1 Nm  14?  44.56  61.8   14 228  99  41
   2024 03 16 09:10  23 56 06.53    -42 39 16.8   308347 0.9933  41.1 Nm  14?  45.03  62.2   12 227  98  41
   2024 03 16 09:20  23 56 42.88    -42 35 47.3   308691 0.9933  41.0 Am  14?  45.48  62.6   11 226  98  41
   2024 03 16 09:30  23 57 19.69    -42 32 18.7   309034 0.9933  41.0 Am  14?  45.92  63.0    9 225  98  41
   2024 03 16 09:40  23 57 56.95    -42 28 51.1   309374 0.9933  40.9 Am  14?  46.35  63.5    8 225  98  41
   2024 03 16 09:50  23 58 34.66    -42 25 24.7   309711 0.9933  40.9  m  14?  46.77  63.9    6 224  98  41
   2024 03 16 10:00  23 59 12.80    -42 21 59.6   310046 0.9933  40.8  m  14?  47.17  64.3    5 223  98  41
   2024 03 16 10:10  23 59 51.37    -42 18 36.0   310379 0.9933  40.8  m  14?  47.55  64.8    4 221  98  41
   2024 03 16 10:20  00 00 30.34    -42 15 14.0   310707 0.9933  40.8  m  14?  47.92  65.2    2 220  98  41
   2024 03 16 10:30  00 01 09.72    -42 11 53.8   311033 0.9933  40.7  m  14?  48.28  65.6    1 219  98  42
   2024 03 16 10:40  00 01 49.48    -42 08 35.6   311354 0.9933  40.7  m  14?  48.61  66.1    0 218  98  42
   ................
   2024 03 16 19:00  00 36 29.40    -40 27 19.7   319540 0.9934  40.6 A   14?  40.62  82.9    0 138  95  46
   2024 03 16 19:10  00 37 04.45    -40 26 30.0   319543 0.9934  40.6 A   14?  40.01  83.0    1 137  95  46
   2024 03 16 19:20  00 37 38.97    -40 25 41.8   319543 0.9934  40.6 N   14?  39.39  83.1    3 136  95  46
   2024 03 16 19:30  00 38 12.94    -40 24 54.8   319538 0.9934  40.6 N   14?  38.76  83.2    4 135  95  46
   2024 03 16 19:40  00 38 46.35    -40 24 08.9   319530 0.9934  40.7 N   14?  38.12  83.2    5 134  95  46
   2024 03 16 19:50  00 39 19.20    -40 23 23.9   319518 0.9934  40.7 C   14?  37.47  83.2    7 133  95  46
   ................
   2024 03 17 08:30  01 03 28.73    -37 38 52.6   327265 0.9934  40.2 Cm  14?  35.59  47.2   28 241  95  51
   2024 03 17 08:40  01 03 50.94    -37 34 50.3   327557 0.9935  40.2 Cm  14?  36.06  47.8   26 240  95  51
   2024 03 17 08:50  01 04 13.60    -37 30 47.4   327851 0.9935  40.2 Nm  14?  36.52  48.3   25 240  95  52
   2024 03 17 09:00  01 04 36.73    -37 26 43.9   328146 0.9935  40.2 Nm  14?  36.98  48.8   23 239  95  52
   2024 03 17 09:10  01 05 00.32    -37 22 40.1   328441 0.9935  40.2 Nm  14?  37.43  49.4   21 238  95  52
   2024 03 17 09:20  01 05 24.38    -37 18 36.1   328737 0.9935  40.1 Am  14?  37.88  49.9   19 237  95  52
   2024 03 17 09:30  01 05 48.89    -37 14 32.1   329033 0.9935  40.1 Am  14?  38.32  50.5   18 237  95  52
   2024 03 17 09:40  01 06 13.87    -37 10 28.2   329329 0.9935  40.1  m  14?  38.75  51.1   16 236  95  52
   2024 03 17 09:50  01 06 39.30    -37 06 24.6   329624 0.9935  40.1  m  14?  39.17  51.6   14 235  95  52
   2024 03 17 10:00  01 07 05.18    -37 02 21.4   329918 0.9935  40.1  m  14?  39.59  52.2   12 234  95  52
   2024 03 17 10:10  01 07 31.51    -36 58 18.8   330211 0.9935  40.1  m  14?  40.00  52.8   11 233  94  52
   2024 03 17 10:20  01 07 58.28    -36 54 16.9   330503 0.9935  40.0  m  14?  40.39  53.3    9 232  94  52
   2024 03 17 10:30  01 08 25.49    -36 50 15.8   330793 0.9935  40.0  m  14?  40.78  53.9    7 231  94  52
   2024 03 17 10:40  01 08 53.13    -36 46 15.8   331080 0.9935  40.0  m  14?  41.15  54.5    6 230  94  52
   2024 03 17 10:50  01 09 21.19    -36 42 16.9   331366 0.9935  40.0  m  14?  41.51  55.0    4 229  94  52
   2024 03 17 11:00  01 09 49.66    -36 38 19.2   331648 0.9935  40.0  m  14?  41.87  55.6    3 228  94  52
   2024 03 17 11:10  01 10 18.54    -36 34 23.0   331927 0.9935  40.0  m  14?  42.20  56.1    1 227  94  52
   2024 03 17 11:20  01 10 47.81    -36 30 28.3   332203 0.9935  40.0  m  14?  42.53  56.7    0 226  94  52
   ................
   

Chandra Observatory (JPL-ID: -151)

   Date (UTC) HH:MM   RA              Dec         delta   r     elong SM  mag  '/hr    PA   alt  az moo ill
   ---- -- -- -----  -------------   -----------  ------ ------ ----- --  --- ------ ------ --- --- --- ---
   2024 03 04 18:20  10 48 00.91    +28 25 46.7    14755 0.9919 157.4  m  11? 4293.0  65.3    4 307 116  37
   2024 03 04 18:30  11 30 46.96    +32 26 55.8    17325 0.9919 152.8  m  11? 3046.0  67.8    6 314 109  37
   2024 03 04 18:40  12 03 34.88    +35 04 47.1    19914 0.9919 147.8 Am  11? 2271.3  70.1    8 320 104  37
   2024 03 04 18:50  12 29 35.71    +36 52 53.3    22462 0.9919 143.3 Am  11? 1766.6  72.1    9 323 100  37
   2024 03 04 19:00  12 50 49.33    +38 09 51.4    24945 0.9919 139.6 Am  11? 1421.4  73.9    9 326  97  37
   2024 03 04 19:10  13 08 33.18    +39 06 23.4    27356 0.9919 136.4 Nm  12? 1175.1  75.6    9 328  94  37
   2024 03 04 19:20  13 23 39.09    +39 48 55.2    29696 0.9919 133.7 Ne  12? 992.86  77.0    9 329  92  37
   2024 03 04 19:30  13 36 42.91    +40 21 29.9    31967 0.9919 131.4 Nm  12? 854.05  78.3    9 330  91  37
   2024 03 04 19:40  13 48 10.26    +40 46 47.0    34174 0.9919 129.3 Cm  12? 745.65  79.6    9 330  89  37
   2024 03 04 19:50  13 58 19.91    +41 06 34.5    36320 0.9919 127.5 Cm  12? 659.20  80.8    8 330  88  37
   ................
   2024 03 05 17:20  18 11 53.38    +39 39 17.0   146835 0.9919  81.1  m  14?  28.23  74.0    0  41  68  27
   2024 03 05 17:30  18 12 16.35    +39 40 31.7   146955 0.9919  81.1  m  14?  26.88  74.2    1  40  68  27
   2024 03 05 17:40  18 12 38.24    +39 41 41.3   147074 0.9919  81.0  m  14?  25.56  74.6    2  39  68  27
   2024 03 05 17:50  18 12 59.09    +39 42 45.5   147190 0.9919  81.0  m  14?  24.26  75.1    3  37  68  27
   2024 03 05 18:00  18 13 18.93    +39 43 44.1   147305 0.9919  80.9  m  14?  22.99  75.8    4  36  68  27
   2024 03 05 18:10  18 13 37.78    +39 44 36.8   147418 0.9919  80.8  m  14?  21.77  76.6    6  35  68  27
   2024 03 05 18:20  18 13 55.69    +39 45 23.3   147531 0.9919  80.8  m  14?  20.58  77.7    7  33  68  27
   2024 03 05 18:30  18 14 12.69    +39 46 03.3   147643 0.9919  80.8  m  14?  19.44  78.9    8  32  68  27
   2024 03 05 18:40  18 14 28.82    +39 46 36.6   147754 0.9919  80.7 Am  14?  18.35  80.4    9  30  68  27
   2024 03 05 18:50  18 14 44.12    +39 47 03.1   147865 0.9919  80.7 Am  14?  17.33  82.2   10  28  68  27
   2024 03 05 19:00  18 14 58.64    +39 47 22.3   147975 0.9919  80.6 Am  14?  16.36  84.3   11  27  68  27
   2024 03 05 19:10  18 15 12.40    +39 47 34.3   148086 0.9919  80.6 Nm  14?  15.47  86.8   12  25  68  27
   2024 03 05 19:20  18 15 25.46    +39 47 38.6   148198 0.9919  80.6 Nm  14?  14.67  89.6   13  23  68  27
   2024 03 05 19:30  18 15 37.87    +39 47 35.3   148309 0.9919  80.5 Nm  14?  13.96  92.8   14  22  68  27
   2024 03 05 19:40  18 15 49.67    +39 47 24.0   148422 0.9919  80.5 Cm  14?  13.35  96.4   14  20  68  27
   2024 03 05 19:50  18 16 00.90    +39 47 04.6   148535 0.9919  80.4 Cm  14?  12.86 100.3   15  18  68  26
   ................
   2024 03 06 18:30  19 45 55.42    +33 47 32.1   122272 0.9919  62.0  m  14?  47.74  95.8    0  48  59  17
   2024 03 06 18:40  19 46 33.14    +33 46 40.0   121451 0.9919  61.9 Am  14?  46.90  96.6    2  47  59  17
   2024 03 06 18:50  19 47 10.14    +33 45 42.5   120624 0.9919  61.7 Am  14?  46.09  97.4    3  46  59  17
   2024 03 06 19:00  19 47 46.43    +33 44 39.1   119792 0.9919  61.6 Am  14?  45.32  98.3    4  45  59  17
   2024 03 06 19:10  19 48 22.03    +33 43 29.6   118956 0.9919  61.5 Nm  14?  44.59  99.3    6  43  59  17
   2024 03 06 19:20  19 48 56.96    +33 42 13.4   118114 0.9919  61.4 Nm  14?  43.91 100.3    7  42  59  17
   2024 03 06 19:30  19 49 31.24    +33 40 50.1   117269 0.9919  61.3 Nm  14?  43.28 101.4    9  40  59  17
   2024 03 06 19:40  19 50 04.90    +33 39 19.2   116419 0.9919  61.2 Cm  14?  42.71 102.6   10  39  59  17
   2024 03 06 19:50  19 50 37.96    +33 37 40.4   115565 0.9920  61.1 Cm  14?  42.20 103.9   11  37  59  17
   ................
   2024 03 07 08:50  23 34 31.31    -15 50 13.6     8072 0.9924  12.0 Cr  10? 6020.7 138.1    5 254  43  13
   2024 03 07 09:00  01 01 54.56    -37 15 20.8     3884 0.9925  40.7 N    7?  18969 135.2   30 242  59  13
   2024 03 07 09:10  10 00 48.15    -28 25 20.3     2985 0.9925 142.3 Nt   7?  30561  39.7   39 102 124  13
   2024 03 07 09:20  11 48 30.24    +04 14 51.9     7069 0.9925 170.8 N   10? 7579.5  41.4    4  82 129  13
   ................
   2024 03 07 15:40  16 29 51.28    +42 10 04.0    78716 0.9927 101.3     13? 111.21  75.6    0  38  88  10
   2024 03 07 15:50  16 31 26.16    +42 14 27.3    79818 0.9927 101.0     13? 106.15  76.0    0  37  88  10
   2024 03 07 16:00  16 32 56.98    +42 18 32.1    80904 0.9927 100.7     13? 101.35  76.4    1  36  88  10
   2024 03 07 16:10  16 34 23.94    +42 22 18.8    81975 0.9927 100.5     13?  96.80  76.8    2  35  88  10
   2024 03 07 16:20  16 35 47.26    +42 25 48.0    83031 0.9927 100.2     13?  92.49  77.3    3  34  87  10
   2024 03 07 16:30  16 37 07.10    +42 29 00.0    84074 0.9927 100.0     13?  88.40  77.8    4  32  87  10
   2024 03 07 16:40  16 38 23.65    +42 31 55.3    85103 0.9927  99.7     13?  84.53  78.4    5  31  87  10
   2024 03 07 16:50  16 39 37.09    +42 34 34.3    86119 0.9927  99.5     13?  80.87  79.1    6  30  87  10
   2024 03 07 17:00  16 40 47.56    +42 36 57.1    87124 0.9927  99.3  m  13?  77.41  79.8    7  28  87  10
   2024 03 07 17:10  16 41 55.24    +42 39 04.2    88117 0.9927  99.1  m  13?  74.14  80.6    8  27  87  10
   2024 03 07 17:20  16 43 00.26    +42 40 55.7    89099 0.9927  98.9  m  13?  71.06  81.4    9  25  87   9
   2024 03 07 17:30  16 44 02.79    +42 42 32.0    90071 0.9927  98.7  m  13?  68.17  82.3    9  24  87   9
   2024 03 07 17:40  16 45 02.96    +42 43 53.2    91033 0.9927  98.5  m  13?  65.46  83.3   10  22  87   9
   2024 03 07 17:50  16 46 00.90    +42 44 59.6    91985 0.9927  98.4  m  13?  62.93  84.4   11  21  86   9
   2024 03 07 18:00  16 46 56.75    +42 45 51.4    92929 0.9927  98.2  m  13?  60.57  85.6   11  19  86   9
   2024 03 07 18:10  16 47 50.65    +42 46 28.8    93864 0.9927  98.0  m  13?  58.38  86.8   12  18  86   9
   2024 03 07 18:20  16 48 42.70    +42 46 52.0    94791 0.9927  97.9  m  13?  56.37  88.2   13  16  86   9
   2024 03 07 18:30  16 49 33.05    +42 47 01.3    95710 0.9927  97.7  m  13?  54.52  89.6   13  15  86   9
   2024 03 07 18:40  16 50 21.79    +42 46 56.8    96622 0.9927  97.6 Am  13?  52.84  91.1   14  13  86   9
   2024 03 07 18:50  16 51 09.06    +42 46 38.8    97527 0.9927  97.4 Am  13?  51.33  92.6   14  11  86   9
   2024 03 07 19:00  16 51 54.96    +42 46 07.4    98425 0.9927  97.3 Am  13?  49.97  94.2   15   9  86   9
   2024 03 07 19:10  16 52 39.59    +42 45 23.0    99317 0.9927  97.2 Nm  13?  48.77  95.8   15   8  86   9
   2024 03 07 19:20  16 53 23.07    +42 44 25.7   100203 0.9927  97.0 Nm  13?  47.73  97.5   15   6  86   9
   2024 03 07 19:30  16 54 05.50    +42 43 15.7   101083 0.9927  96.9 Nm  13?  46.83  99.2   15   4  86   9
   2024 03 07 19:40  16 54 46.97    +42 41 53.4   101958 0.9927  96.8 Cm  13?  46.09 100.8   15   2  86   9
   2024 03 07 19:50  16 55 27.59    +42 40 19.0   102828 0.9927  96.7 Cm  13?  45.48 102.5   16   1  86   9
   ................
   2024 03 08 17:30  18 42 16.73    +38 06 55.5   153284 0.9926  76.3  r  14?  26.31  78.2    0  44  71   3
   2024 03 08 17:40  18 42 38.08    +38 07 46.4   153101 0.9926  76.3     14?  25.10  78.6    0  42  71   3
   2024 03 08 17:50  18 42 58.48    +38 08 33.1   152917 0.9926  76.2     14?  23.92  79.1    2  41  71   3
   2024 03 08 18:00  18 43 17.94    +38 09 15.2   152731 0.9926  76.2     14?  22.76  79.8    3  40  71   3
   2024 03 08 18:10  18 43 36.49    +38 09 52.5   152543 0.9926  76.1  m  14?  21.63  80.6    4  38  71   3
   2024 03 08 18:20  18 43 54.16    +38 10 24.7   152355 0.9926  76.1  m  14?  20.53  81.6    6  37  71   3
   2024 03 08 18:30  18 44 10.96    +38 10 51.4   152166 0.9926  76.0  m  14?  19.47  82.8    7  35  71   3
   2024 03 08 18:40  18 44 26.94    +38 11 12.5   151977 0.9926  76.0 Am  14?  18.45  84.2    8  34  71   3
   2024 03 08 18:50  18 44 42.12    +38 11 27.6   151787 0.9926  75.9 Am  14?  17.48  85.9    9  32  71   3
   2024 03 08 19:00  18 44 56.53    +38 11 36.5   151597 0.9926  75.9 Am  14?  16.56  87.9   10  31  71   3
   2024 03 08 19:10  18 45 10.21    +38 11 38.8   151408 0.9926  75.8 Nm  14?  15.71  90.2   12  29  71   3
   2024 03 08 19:20  18 45 23.19    +38 11 34.5   151219 0.9926  75.8 Nm  14?  14.93  92.8   13  27  71   3
   2024 03 08 19:30  18 45 35.51    +38 11 23.1   151030 0.9926  75.8 Nm  14?  14.23  95.8   13  26  71   3
   2024 03 08 19:40  18 45 47.21    +38 11 04.6   150842 0.9926  75.7 Cm  14?  13.63  99.2   14  24  71   3
   2024 03 08 19:50  18 45 58.34    +38 10 38.6   150655 0.9926  75.7 Cm  14?  13.13 102.9   15  22  71   3
   ................
   2024 03 09 19:10  21 00 23.93    +26 58 48.1    69525 0.9928  46.0 N   14? 187.88 109.7    0  57  46   0
   2024 03 09 19:20  21 02 38.07    +26 47 52.1    67973 0.9928  45.5 Nm  14? 194.37 110.2    2  56  46   0
   2024 03 09 19:30  21 04 56.33    +26 36 16.8    66399 0.9928  45.0 Nm  13? 201.52 110.7    3  55  45   0
   2024 03 09 19:40  21 07 19.14    +26 23 58.9    64803 0.9928  44.5 Cm  13? 209.43 111.1    5  54  45   0
   2024 03 09 19:50  21 09 46.97    +26 10 54.3    63185 0.9928  43.9 Cm  13? 218.19 111.6    6  53  44   0
   ................
   2024 03 10 16:40  17 39 09.45    +40 59 27.8   127678 0.9934  89.7     13?  37.77  74.3    0  39  93   0
   2024 03 10 16:50  17 39 40.89    +41 01 05.6   128112 0.9934  89.6     13?  36.06  74.7    1  38  93   0
   2024 03 10 17:00  17 40 10.97    +41 02 36.3   128542 0.9934  89.5     13?  34.41  75.1    3  36  93   0
   2024 03 10 17:10  17 40 39.75    +41 03 59.9   128968 0.9934  89.4     13?  32.80  75.7    4  35  93   0
   2024 03 10 17:20  17 41 07.26    +41 05 15.9   129391 0.9934  89.3     13?  31.25  76.5    5  33  93   0
   2024 03 10 17:30  17 41 33.56    +41 06 24.2   129812 0.9934  89.2     13?  29.76  77.3    6  32  93   0
   2024 03 10 17:40  17 41 58.69    +41 07 24.6   130230 0.9934  89.2     14?  28.33  78.3    7  31  93   0
   2024 03 10 17:50  17 42 22.72    +41 08 16.8   130645 0.9934  89.1     14?  26.96  79.5    8  29  93   0
   2024 03 10 18:00  17 42 45.68    +41 09 00.7   131058 0.9934  89.0     14?  25.67  80.9    9  27  93   0
   2024 03 10 18:10  17 43 07.64    +41 09 36.1   131470 0.9934  89.0     14?  24.45  82.5   10  26  93   0
   2024 03 10 18:20  17 43 28.66    +41 10 02.8   131880 0.9934  88.9     14?  23.32  84.3   11  24  93   0
   2024 03 10 18:30  17 43 48.78    +41 10 20.6   132288 0.9934  88.8     14?  22.27  86.4   12  23  93   0
   2024 03 10 18:40  17 44 08.06    +41 10 29.5   132696 0.9934  88.8 A   14?  21.33  88.7   13  21  93   0
   2024 03 10 18:50  17 44 26.56    +41 10 29.2   133102 0.9934  88.7 A   14?  20.48  91.2   13  19  93   0
   2024 03 10 19:00  17 44 44.35    +41 10 19.7   133508 0.9934  88.7 A   14?  19.75  93.9   14  17  93   0
   2024 03 10 19:10  17 45 01.47    +41 10 01.0   133913 0.9934  88.6 N   14?  19.13  96.9   15  16  93   0
   2024 03 10 19:20  17 45 17.99    +41 09 32.8   134318 0.9934  88.6 N   14?  18.63 100.0   15  14  93   0
   2024 03 10 19:30  17 45 33.96    +41 08 55.2   134722 0.9934  88.5 N   14?  18.26 103.2   16  12  93   0
   2024 03 10 19:40  17 45 49.45    +41 08 08.1   135127 0.9934  88.5 C   14?  18.01 106.5   16  10  93   0
   2024 03 10 19:50  17 46 04.52    +41 07 11.4   135532 0.9934  88.4 C   14?  17.89 109.8   16   8  93   0
   ................
   2024 03 11 17:40  19 12 37.21    +36 11 38.1   144420 0.9933  71.3  r  14?  31.49  86.2    0  46  81   3
   2024 03 11 17:50  19 13 02.73    +36 11 56.4   143930 0.9933  71.2     14?  30.38  86.8    0  45  81   3
   2024 03 11 18:00  19 13 27.34    +36 12 10.6   143438 0.9933  71.2     14?  29.28  87.5    2  44  81   3
   2024 03 11 18:10  19 13 51.08    +36 12 20.5   142943 0.9933  71.1     14?  28.22  88.3    3  42  81   3
   2024 03 11 18:20  19 14 13.95    +36 12 25.6   142446 0.9933  71.0     14?  27.18  89.3    5  41  81   3
   2024 03 11 18:30  19 14 35.99    +36 12 25.7   141947 0.9933  71.0     14?  26.17  90.4    6  40  81   3
   2024 03 11 18:40  19 14 57.20    +36 12 20.4   141446 0.9933  70.9 A   14?  25.20  91.7    7  38  81   3
   2024 03 11 18:50  19 15 17.62    +36 12 09.3   140944 0.9933  70.8 A   14?  24.28  93.1    9  37  81   3
   2024 03 11 19:00  19 15 37.27    +36 11 52.3   140441 0.9933  70.8 A   14?  23.42  94.8   10  35  81   3
   2024 03 11 19:10  19 15 56.18    +36 11 28.8   139937 0.9933  70.7 N   14?  22.61  96.6   11  33  81   3
   2024 03 11 19:20  19 16 14.38    +36 10 58.7   139431 0.9933  70.7 N   14?  21.87  98.7   12  32  81   3
   2024 03 11 19:30  19 16 31.89    +36 10 21.7   138925 0.9933  70.6 N   14?  21.20 100.8   13  30  81   3
   2024 03 11 19:40  19 16 48.76    +36 09 37.3   138419 0.9933  70.6 C   14?  20.62 103.3   14  28  81   3
   2024 03 11 19:50  19 17 05.01    +36 08 45.4   137912 0.9933  70.5 C   14?  20.12 105.9   15  27  81   3
   ................
   2024 03 12 16:20  08 33 12.69    +14 07 26.3     9017 0.9939 134.6  r   9?  10506  62.6    4 289 102   7
   2024 03 12 16:30  10 02 17.91    +24 47 39.0    11091 0.9940 149.4     10? 6631.6  64.3   12 309 118   7
   2024 03 12 16:40  11 03 15.65    +30 55 26.4    13699 0.9940 151.3     11? 4248.2  67.1   15 321 125   8
   2024 03 12 16:50  11 46 30.87    +34 32 20.0    16426 0.9940 148.3     11? 2920.1  69.7   16 330 128   8
   2024 03 12 17:00  12 18 47.15    +36 49 44.7    19126 0.9940 144.5  e  11? 2140.5  71.8   16 335 129   8
   2024 03 12 17:10  12 43 56.22    +38 22 32.1    21750 0.9940 141.0     11? 1649.4  73.7   16 338 129   8
   2024 03 12 17:20  13 04 13.86    +39 28 20.8    24286 0.9940 137.9     11? 1320.2  75.2   16 341 129   8
   2024 03 12 17:30  13 21 03.53    +40 16 46.3    26732 0.9940 135.3     12? 1088.3  76.6   15 342 128   8
   2024 03 12 17:40  13 35 19.07    +40 53 22.9    29094 0.9940 133.0     12? 917.99  77.9   15 343 128   8
   2024 03 12 17:50  13 47 36.80    +41 21 37.1    31378 0.9940 131.0     12? 788.82  79.0   15 344 127   8
   2024 03 12 18:00  13 58 22.15    +41 43 42.1    33589 0.9940 129.2     12? 688.17  80.1   14 344 126   8
   2024 03 12 18:10  14 07 53.47    +42 01 08.0    35733 0.9940 127.7     12? 607.99  81.1   14 344 126   8
   2024 03 12 18:20  14 16 24.40    +42 14 57.6    37816 0.9941 126.3     12? 542.91  82.1   14 344 125   8
   2024 03 12 18:30  14 24 05.33    +42 25 55.9    39843 0.9941 125.0     12? 489.27  83.0   13 344 125   8
   2024 03 12 18:40  14 31 04.29    +42 34 36.3    41818 0.9941 123.8     12? 444.45  84.0   13 343 124   8
   2024 03 12 18:50  14 37 27.64    +42 41 23.7    43744 0.9941 122.8 A   12? 406.58  84.8   13 342 124   8
   2024 03 12 19:00  14 43 20.47    +42 46 37.4    45626 0.9941 121.8 A   12? 374.26  85.7   12 342 123   8
   2024 03 12 19:10  14 48 46.93    +42 50 32.3    47466 0.9941 120.9 N   12? 346.45  86.6   12 341 123   8
   2024 03 12 19:20  14 53 50.44    +42 53 20.3    49268 0.9941 120.1 N   12? 322.32  87.4   12 340 122   9
   2024 03 12 19:30  14 58 33.82    +42 55 11.0    51033 0.9941 119.3 N   12? 301.27  88.3   11 339 122   9
   2024 03 12 19:40  15 02 59.47    +42 56 12.2    52764 0.9941 118.5 C   13? 282.79  89.1   11 338 122   9
   2024 03 12 19:50  15 07 09.41    +42 56 30.3    54463 0.9941 117.8 C   13? 266.48  89.9   10 337 121   9
   ................
   2024 03 13 16:50  18 15 28.17    +39 28 46.5   148576 0.9941  83.9  r  14?  27.73  74.7    0  42 102  15
   2024 03 13 17:00  18 15 50.76    +39 29 56.4   148654 0.9941  83.9     14?  26.41  75.0    0  41 102  15
   2024 03 13 17:10  18 16 12.30    +39 31 01.4   148730 0.9941  83.8     14?  25.11  75.4    2  39 102  15
   2024 03 13 17:20  18 16 32.80    +39 32 01.3   148804 0.9941  83.7     14?  23.83  76.0    3  38 102  15
   2024 03 13 17:30  18 16 52.31    +39 32 55.7   148876 0.9941  83.7     14?  22.59  76.6    4  36 102  15
   2024 03 13 17:40  18 17 10.85    +39 33 44.3   148947 0.9941  83.6     14?  21.39  77.5    6  35 102  15
   2024 03 13 17:50  18 17 28.46    +39 34 26.9   149018 0.9941  83.6     14?  20.23  78.6    7  34 102  16
   2024 03 13 18:00  18 17 45.17    +39 35 03.3   149088 0.9941  83.5     14?  19.11  79.8    8  32 102  16
   2024 03 13 18:10  18 18 01.03    +39 35 33.1   149157 0.9941  83.5     14?  18.04  81.4    9  31 102  16
   2024 03 13 18:20  18 18 16.06    +39 35 56.1   149226 0.9941  83.4     14?  17.03  83.2   10  29 102  16
   2024 03 13 18:30  18 18 30.31    +39 36 12.2   149295 0.9941  83.4     14?  16.08  85.4   11  27 102  16
   2024 03 13 18:40  18 18 43.82    +39 36 21.1   149364 0.9941  83.4     14?  15.21  87.9   12  26 102  16
   2024 03 13 18:50  18 18 56.63    +39 36 22.5   149434 0.9941  83.3 A   14?  14.42  90.7   13  24 102  16
   2024 03 13 19:00  18 19 08.79    +39 36 16.4   149504 0.9941  83.3 A   14?  13.73  94.0   14  22 102  16
   2024 03 13 19:10  18 19 20.35    +39 36 02.5   149575 0.9941  83.3 A   14?  13.14  97.6   14  20 102  16
   2024 03 13 19:20  18 19 31.34    +39 35 40.6   149648 0.9941  83.2 N   14?  12.67 101.6   15  19 102  16
   2024 03 13 19:30  18 19 41.82    +39 35 10.6   149721 0.9941  83.2 N   14?  12.31 105.8   16  17 102  16
   2024 03 13 19:40  18 19 51.83    +39 34 32.4   149795 0.9941  83.2 C   14?  12.09 110.3   16  15 102  16
   2024 03 13 19:50  18 20 01.42    +39 33 45.9   149871 0.9941  83.1 C   14?  12.00 114.8   17  13 102  16
   ................
   2024 03 14 18:00  19 51 25.29    +33 13 09.4   117572 0.9941  64.2     14?  53.22  97.7    0  49  95  25
   2024 03 14 18:10  19 52 06.98    +33 11 54.4   116688 0.9941  64.1     14?  52.49  98.4    1  48  95  25
   2024 03 14 18:20  19 52 48.01    +33 10 33.5   115799 0.9941  63.9     14?  51.79  99.2    3  47  95  25
   2024 03 14 18:30  19 53 28.40    +33 09 06.4   114903 0.9941  63.8     14?  51.14 100.0    4  46  95  25
   2024 03 14 18:40  19 54 08.17    +33 07 32.5   114002 0.9941  63.6     14?  50.53 100.9    6  44  95  25
   2024 03 14 18:50  19 54 47.34    +33 05 51.4   113095 0.9941  63.5 A   14?  49.97 101.9    7  43  95  25
   2024 03 14 19:00  19 55 25.94    +33 04 02.6   112183 0.9941  63.4 A   14?  49.47 103.0    8  42  95  25
   2024 03 14 19:10  19 56 03.99    +33 02 05.6   111266 0.9941  63.2 A   14?  49.03 104.1   10  40  95  25
   2024 03 14 19:20  19 56 41.52    +33 00 00.0   110343 0.9941  63.1 N   14?  48.66 105.3   11  39  95  25
   2024 03 14 19:30  19 57 18.55    +32 57 45.3   109416 0.9941  63.0 N   14?  48.37 106.6   12  37  95  26
   2024 03 14 19:40  19 57 55.13    +32 55 20.9   108484 0.9941  62.8 C   14?  48.16 107.9   14  35  95  26
   2024 03 14 19:50  19 58 31.28    +32 52 46.4   107547 0.9941  62.7 C   14?  48.03 109.2   15  34  95  26
   ................
   2024 03 15 15:30  16 45 05.03    +42 12 15.6    88928 0.9948 101.8     13?  84.54  76.1    0  38 111  33
   2024 03 15 15:40  16 46 17.42    +42 15 29.0    89878 0.9948 101.6     13?  80.89  76.5    1  36 111  33
   2024 03 15 15:50  16 47 26.87    +42 18 28.4    90817 0.9948 101.4     13?  77.40  77.0    2  35 111  33
   2024 03 15 16:00  16 48 33.50    +42 21 14.0    91744 0.9948 101.2     13?  74.07  77.5    3  34 111  34
   2024 03 15 16:10  16 49 37.45    +42 23 45.7    92661 0.9948 101.0     13?  70.90  78.0    4  33 111  34
   2024 03 15 16:20  16 50 38.83    +42 26 03.8    93567 0.9948 100.8     13?  67.87  78.7    5  31 111  34
   2024 03 15 16:30  16 51 37.79    +42 28 08.4    94464 0.9948 100.6     13?  65.00  79.4    6  30 111  34
   2024 03 15 16:40  16 52 34.43    +42 29 59.5    95352 0.9948 100.4     13?  62.28  80.2    7  28 111  34
   2024 03 15 16:50  16 53 28.87    +42 31 37.2    96230 0.9948 100.3     13?  59.71  81.1    8  27 111  34
   2024 03 15 17:00  16 54 21.22    +42 33 01.7    97101 0.9948 100.1     13?  57.28  82.0    9  25 111  34
   2024 03 15 17:10  16 55 11.61    +42 34 12.9    97963 0.9948  99.9     13?  54.99  83.1    9  24 111  34
   2024 03 15 17:20  16 56 00.13    +42 35 11.0    98818 0.9948  99.8     13?  52.85  84.2   10  22 111  34
   2024 03 15 17:30  16 56 46.90    +42 35 56.1    99666 0.9948  99.7     13?  50.86  85.5   11  21 111  34
   2024 03 15 17:40  16 57 32.02    +42 36 28.1   100507 0.9948  99.5     13?  49.01  86.8   12  19 111  34
   2024 03 15 17:50  16 58 15.59    +42 36 47.4   101342 0.9948  99.4     13?  47.30  88.3   12  18 111  35
   2024 03 15 18:00  16 58 57.72    +42 36 53.8   102170 0.9948  99.3     13?  45.75  89.8   13  16 111  35
   2024 03 15 18:10  16 59 38.51    +42 36 47.6   102993 0.9948  99.1     13?  44.34  91.4   13  14 111  35
   2024 03 15 18:20  17 00 18.05    +42 36 28.9   103810 0.9948  99.0     13?  43.07  93.1   14  13 110  35
   2024 03 15 18:30  17 00 56.44    +42 35 57.8   104623 0.9948  98.9     13?  41.96  94.9   14  11 110  35
   2024 03 15 18:40  17 01 33.78    +42 35 14.4   105430 0.9948  98.8     13?  40.98  96.8   15   9 110  35
   2024 03 15 18:50  17 02 10.15    +42 34 18.9   106233 0.9948  98.7 A   13?  40.15  98.6   15   7 110  35
   2024 03 15 19:00  17 02 45.64    +42 33 11.5   107031 0.9948  98.6 A   13?  39.46 100.5   15   6 110  35
   2024 03 15 19:10  17 03 20.35    +42 31 52.2   107826 0.9948  98.5 A   13?  38.90 102.4   16   4 110  35
   2024 03 15 19:20  17 03 54.36    +42 30 21.4   108616 0.9948  98.4 N   13?  38.48 104.3   16   2 110  35
   2024 03 15 19:30  17 04 27.75    +42 28 39.2   109403 0.9948  98.3 N   13?  38.18 106.2   16   0 110  36
   2024 03 15 19:40  17 05 00.60    +42 26 45.9   110186 0.9948  98.2 Nt  13?  38.01 108.0   16 358 110  36
   2024 03 15 19:50  17 05 33.00    +42 24 41.6   110966 0.9948  98.1 C   13?  37.94 109.8   16 357 110  36
   ................
   2024 03 16 17:00  18 45 36.94    +37 50 24.0   153056 0.9948  79.2  r  14?  26.49  79.5    0  44 110  44
   2024 03 16 17:10  18 45 58.46    +37 51 09.5   152835 0.9948  79.2     14?  25.30  79.9    0  43 110  44
   2024 03 16 17:20  18 46 19.04    +37 51 50.8   152612 0.9948  79.1     14?  24.13  80.5    2  42 110  45
   2024 03 16 17:30  18 46 38.68    +37 52 27.6   152387 0.9948  79.0     14?  22.98  81.2    3  40 110  45
   2024 03 16 17:40  18 46 57.43    +37 52 59.7   152160 0.9948  79.0     14?  21.86  82.0    4  39 110  45
   2024 03 16 17:50  18 47 15.29    +37 53 26.8   151933 0.9948  78.9     14?  20.78  83.1    6  37 110  45
   2024 03 16 18:00  18 47 32.29    +37 53 48.5   151705 0.9948  78.9     14?  19.73  84.3    7  36 110  45
   2024 03 16 18:10  18 47 48.47    +37 54 04.6   151476 0.9948  78.8     14?  18.72  85.8    8  34 110  45
   2024 03 16 18:20  18 48 03.85    +37 54 14.8   151248 0.9948  78.8     14?  17.76  87.5    9  33 110  45
   2024 03 16 18:30  18 48 18.47    +37 54 18.8   151018 0.9948  78.7     14?  16.86  89.6   10  31 110  45
   2024 03 16 18:40  18 48 32.35    +37 54 16.4   150790 0.9948  78.7     14?  16.02  91.9   12  30 110  45
   2024 03 16 18:50  18 48 45.54    +37 54 07.2   150561 0.9948  78.7 A   14?  15.26  94.6   13  28 111  45
   2024 03 16 19:00  18 48 58.07    +37 53 51.1   150333 0.9948  78.6 A   14?  14.58  97.6   14  26 111  46
   2024 03 16 19:10  18 49 09.97    +37 53 27.9   150105 0.9948  78.6 A   14?  14.00 100.9   14  24 111  46
   2024 03 16 19:20  18 49 21.29    +37 52 57.2   149879 0.9948  78.5 N   14?  13.52 104.5   15  23 111  46
   2024 03 16 19:30  18 49 32.07    +37 52 18.9   149654 0.9948  78.5 N   14?  13.15 108.5   16  21 111  46
   2024 03 16 19:40  18 49 42.35    +37 51 32.9   149429 0.9948  78.5 N   14?  12.90 112.6   17  19 111  46
   2024 03 16 19:50  18 49 52.17    +37 50 38.8   149206 0.9948  78.4 C   14?  12.78 116.8   18  17 111  46
   ................
   2024 03 17 18:50  21 21 22.98    +24 27 21.3    58243 0.9950  44.1 A   13? 280.79 111.9    0  60 111  56
   2024 03 17 19:00  21 24 38.15    +24 09 07.5    56489 0.9950  43.3 A   13? 296.21 112.3    1  59 110  56
   2024 03 17 19:10  21 28 03.30    +23 49 32.1    54705 0.9950  42.5 A   13? 313.59 112.7    3  59 110  56
   2024 03 17 19:20  21 31 39.71    +23 28 25.0    52890 0.9950  41.6 N   13? 333.27 113.1    4  58 110  56
   2024 03 17 19:30  21 35 28.90    +23 05 34.8    51043 0.9950  40.7 N   13? 355.68 113.5    6  58 110  56
   2024 03 17 19:40  21 39 32.66    +22 40 47.7    49162 0.9950  39.7 N   13? 381.34 113.9    7  57 110  56
   2024 03 17 19:50  21 43 53.14    +22 13 47.5    47246 0.9950  38.6 C   13? 410.91 114.2    8  57 109  56
   2024 03 17 20:00  21 48 32.92    +21 44 14.7    45292 0.9950  37.4 C   13? 445.24 114.5    9  56 109  56
   ................
   

James Webb Space Telescope (JPL-ID: -170)

   Date (UTC) HH:MM   RA              Dec         delta   r     elong SM  mag  '/hr    PA   alt  az moo ill
   ---- -- -- -----  -------------   -----------  ------ ------ ----- --  --- ------ ------ --- --- --- ---
   2024 03 04 08:40  09 40 34.19    +21 30 37.0   0.0089 0.9997 155.3 C   15?   3.08  67.7    9  57 122  42
   2024 03 04 08:50  09 40 36.18    +21 30 48.6   0.0089 0.9997 155.3 C   15?   2.94  67.2   11  56 122  42
   2024 03 04 09:00  09 40 38.07    +21 30 59.9   0.0089 0.9997 155.3 N   15?   2.80  66.6   12  54 122  42
   2024 03 04 09:10  09 40 39.87    +21 31 10.9   0.0089 0.9997 155.3 N   15?   2.66  66.1   14  53 122  42
   2024 03 04 09:20  09 40 41.56    +21 31 21.6   0.0089 0.9997 155.3 N   15?   2.53  65.6   16  51 123  42
   2024 03 04 09:30  09 40 43.17    +21 31 31.9   0.0088 0.9997 155.3 A   15?   2.40  65.1   17  49 123  42
   2024 03 04 09:40  09 40 44.68    +21 31 41.9   0.0088 0.9998 155.3 A   15?   2.27  64.6   19  48 123  41
   2024 03 04 09:50  09 40 46.10    +21 31 51.4   0.0088 0.9998 155.3 A   15?   2.14  64.2   21  46 123  41
   2024 03 04 10:00  09 40 47.44    +21 32 00.5   0.0088 0.9998 155.3     15?   2.02  63.9   22  44 123  41
   2024 03 04 10:10  09 40 48.71    +21 32 09.3   0.0088 0.9998 155.3     15?   1.91  63.6   24  42 123  41
   2024 03 04 10:20  09 40 49.89    +21 32 17.5   0.0088 0.9998 155.3     15?   1.79  63.5   25  40 123  41
   2024 03 04 10:30  09 40 51.00    +21 32 25.3   0.0088 0.9998 155.3     15?   1.68  63.4   26  38 123  41
   2024 03 04 10:40  09 40 52.05    +21 32 32.6   0.0088 0.9998 155.3     15?   1.58  63.5   28  35 124  41
   2024 03 04 10:50  09 40 53.03    +21 32 39.5   0.0088 0.9998 155.3     15?   1.48  63.7   29  33 124  41
   2024 03 04 11:00  09 40 53.95    +21 32 45.8   0.0088 0.9998 155.3     15?   1.38  64.1   30  31 124  41
   2024 03 04 11:10  09 40 54.81    +21 32 51.6   0.0088 0.9998 155.3     15?   1.29  64.8   31  28 124  41
   2024 03 04 11:20  09 40 55.62    +21 32 56.8   0.0088 0.9998 155.3     15?   1.21  65.7   32  26 124  40
   2024 03 04 11:30  09 40 56.39    +21 33 01.5   0.0088 0.9998 155.3     15?   1.13  66.9   33  23 124  40
   2024 03 04 11:40  09 40 57.11    +21 33 05.7   0.0088 0.9998 155.3     15?   1.05  68.6   34  21 124  40
   2024 03 04 11:50  09 40 57.80    +21 33 09.3   0.0088 0.9998 155.3     15?   0.99  70.6   35  18 124  40
   2024 03 04 12:00  09 40 58.45    +21 33 12.3   0.0088 0.9998 155.2     15?   0.93  73.1   35  15 124  40
   2024 03 04 12:10  09 40 59.07    +21 33 14.7   0.0088 0.9998 155.2     15?   0.88  76.1   36  13 125  40
   2024 03 04 12:20  09 40 59.68    +21 33 16.6   0.0088 0.9998 155.2     15?   0.84  79.5   36  10 125  40
   2024 03 04 12:30  09 41 00.26    +21 33 17.8   0.0088 0.9998 155.2     15?   0.81  83.3   36   7 125  40
   2024 03 04 12:40  09 41 00.84    +21 33 18.5   0.0088 0.9998 155.2     15?   0.79  87.5   37   4 125  40
   2024 03 04 12:50  09 41 01.40    +21 33 18.5   0.0088 0.9998 155.2     15?   0.79  91.8   37   1 125  40
   2024 03 04 13:00  09 41 01.96    +21 33 18.0   0.0088 0.9998 155.2  t  15?   0.79  96.1   37 358 125  40
   2024 03 04 13:10  09 41 02.53    +21 33 16.9   0.0088 0.9998 155.2     15?   0.81 100.3   37 355 125  39
   2024 03 04 13:20  09 41 03.10    +21 33 15.1   0.0088 0.9998 155.2     15?   0.83 104.1   36 352 125  39
   2024 03 04 13:30  09 41 03.69    +21 33 12.8   0.0088 0.9998 155.2     15?   0.87 107.6   36 349 125  39
   2024 03 04 13:40  09 41 04.29    +21 33 09.9   0.0088 0.9998 155.2  m  15?   0.92 110.5   36 346 126  39
   2024 03 04 13:50  09 41 04.92    +21 33 06.4   0.0088 0.9998 155.2  m  15?   0.97 113.0   35 344 126  39
   2024 03 04 14:00  09 41 05.58    +21 33 02.3   0.0088 0.9998 155.2  m  15?   1.03 115.1   35 341 126  39
   2024 03 04 14:10  09 41 06.27    +21 32 57.6   0.0088 0.9998 155.2  m  15?   1.10 116.7   34 338 126  39
   2024 03 04 14:20  09 41 06.99    +21 32 52.4   0.0088 0.9998 155.2  m  15?   1.18 117.9   33 336 126  39
   2024 03 04 14:30  09 41 07.76    +21 32 46.6   0.0088 0.9998 155.2  m  15?   1.26 118.8   32 333 126  39
   2024 03 04 14:40  09 41 08.58    +21 32 40.3   0.0088 0.9998 155.2  m  15?   1.35 119.4   31 331 126  39
   2024 03 04 14:50  09 41 09.45    +21 32 33.5   0.0088 0.9998 155.2  m  15?   1.44 119.7   30 328 126  39
   2024 03 04 15:00  09 41 10.37    +21 32 26.1   0.0088 0.9998 155.2  m  15?   1.53 119.9   29 326 126  39
   2024 03 04 15:10  09 41 11.36    +21 32 18.2   0.0088 0.9998 155.2  m  15?   1.64 119.9   28 324 126  39
   2024 03 04 15:20  09 41 12.41    +21 32 09.8   0.0088 0.9998 155.2  m  15?   1.74 119.7   26 321 127  38
   2024 03 04 15:30  09 41 13.53    +21 32 00.9   0.0088 0.9998 155.2  m  15?   1.85 119.5   25 319 127  38
   2024 03 04 15:40  09 41 14.72    +21 31 51.6   0.0088 0.9998 155.2  m  15?   1.97 119.1   24 317 127  38
   2024 03 04 15:50  09 41 15.99    +21 31 41.8   0.0088 0.9998 155.2  m  15?   2.08 118.7   22 315 127  38
   2024 03 04 16:00  09 41 17.34    +21 31 31.6   0.0088 0.9998 155.2  m  15?   2.20 118.2   21 313 127  38
   2024 03 04 16:10  09 41 18.77    +21 31 21.0   0.0088 0.9998 155.2  m  15?   2.33 117.7   19 311 127  38
   2024 03 04 16:20  09 41 20.30    +21 31 10.0   0.0088 0.9998 155.2  m  15?   2.46 117.1   17 310 127  38
   2024 03 04 16:30  09 41 21.91    +21 30 58.6   0.0088 0.9998 155.2  m  15?   2.59 116.5   16 308 127  38
   2024 03 04 16:40  09 41 23.62    +21 30 46.9   0.0088 0.9998 155.2  m  15?   2.72 115.9   14 306 127  38
   2024 03 04 16:50  09 41 25.42    +21 30 34.8   0.0088 0.9998 155.2  m  15?   2.86 115.3   12 305 127  38
   2024 03 04 17:00  09 41 27.33    +21 30 22.5   0.0088 0.9998 155.2  m  15?   3.00 114.7   11 303 127  38
   2024 03 04 17:10  09 41 29.34    +21 30 09.8   0.0088 0.9998 155.2  m  15?   3.14 114.0    9 302 127  38
   2024 03 04 17:20  09 41 31.45    +21 29 56.9   0.0088 0.9998 155.2  m  15?   3.29 113.4    7 300 127  38
   2024 03 04 17:30  09 41 33.67    +21 29 43.8   0.0088 0.9998 155.2  m  15?   3.44 112.7    5 299 127  38
   2024 03 04 17:40  09 41 35.99    +21 29 30.4   0.0088 0.9998 155.2  m  15?   3.59 112.1    3 297 128  38
   2024 03 04 17:50  09 41 38.43    +21 29 16.9   0.0088 0.9998 155.2  m  15?   3.74 111.4    1 296 128  38
   2024 03 04 18:00  09 41 40.98    +21 29 03.1   0.0088 0.9998 155.2  m  15?   3.89 110.8    0 295 128  37
   ................
   2024 03 05 08:40  09 48 21.93    +21 28 45.4   0.0088 1.0000 155.9 C   15?   3.18  69.7    8  58 134  32
   2024 03 05 08:50  09 48 24.02    +21 28 56.4   0.0088 1.0000 155.9 C   15?   3.04  69.2   10  56 134  32
   2024 03 05 09:00  09 48 26.00    +21 29 07.1   0.0088 1.0000 155.9 N   15?   2.90  68.7   12  55 134  32
   2024 03 05 09:10  09 48 27.88    +21 29 17.5   0.0088 1.0000 155.9 N   15?   2.76  68.3   13  53 134  31
   2024 03 05 09:20  09 48 29.67    +21 29 27.6   0.0088 1.0000 155.8 N   15?   2.62  67.8   15  52 134  31
   2024 03 05 09:30  09 48 31.36    +21 29 37.3   0.0088 1.0000 155.8 A   15?   2.48  67.5   17  50 134  31
   2024 03 05 09:40  09 48 32.96    +21 29 46.7   0.0088 1.0000 155.8 A   15?   2.35  67.1   18  48 134  31
   2024 03 05 09:50  09 48 34.46    +21 29 55.7   0.0088 1.0000 155.8 A   15?   2.23  66.8   20  46 134  31
   2024 03 05 10:00  09 48 35.89    +21 30 04.3   0.0088 1.0000 155.8     15?   2.10  66.6   22  45 135  31
   2024 03 05 10:10  09 48 37.23    +21 30 12.4   0.0088 1.0000 155.8     15?   1.98  66.5   23  43 135  31
   2024 03 05 10:20  09 48 38.49    +21 30 20.1   0.0088 1.0000 155.8     15?   1.86  66.4   24  41 135  31
   2024 03 05 10:30  09 48 39.68    +21 30 27.4   0.0088 1.0000 155.8     15?   1.75  66.5   26  39 135  31
   2024 03 05 10:40  09 48 40.79    +21 30 34.1   0.0088 1.0000 155.8     15?   1.65  66.7   27  36 135  31
   2024 03 05 10:50  09 48 41.84    +21 30 40.4   0.0088 1.0000 155.8     15?   1.54  67.1   28  34 135  30
   2024 03 05 11:00  09 48 42.83    +21 30 46.2   0.0088 1.0000 155.8     15?   1.45  67.7   30  32 135  30
   2024 03 05 11:10  09 48 43.76    +21 30 51.4   0.0088 1.0000 155.8     15?   1.35  68.5   31  29 135  30
   2024 03 05 11:20  09 48 44.64    +21 30 56.1   0.0088 1.0000 155.8     15?   1.27  69.6   32  27 136  30
   2024 03 05 11:30  09 48 45.46    +21 31 00.3   0.0088 1.0000 155.8     15?   1.19  71.0   33  24 136  30
   2024 03 05 11:40  09 48 46.25    +21 31 03.9   0.0088 1.0000 155.8     15?   1.11  72.7   34  22 136  30
   2024 03 05 11:50  09 48 46.99    +21 31 06.9   0.0088 1.0000 155.8     15?   1.05  74.8   34  19 136  30
   2024 03 05 12:00  09 48 47.70    +21 31 09.4   0.0088 1.0000 155.8     15?   0.99  77.4   35  16 136  30
   2024 03 05 12:10  09 48 48.38    +21 31 11.3   0.0088 1.0000 155.8     15?   0.94  80.4   36  14 136  30
   2024 03 05 12:20  09 48 49.03    +21 31 12.6   0.0088 1.0000 155.8     15?   0.90  83.7   36  11 136  30
   2024 03 05 12:30  09 48 49.67    +21 31 13.3   0.0088 1.0000 155.8     15?   0.88  87.4   36   8 136  29
   2024 03 05 12:40  09 48 50.29    +21 31 13.4   0.0088 1.0000 155.8     15?   0.86  91.4   37   5 137  29
   2024 03 05 12:50  09 48 50.90    +21 31 12.9   0.0088 1.0000 155.8     15?   0.85  95.4   37   2 137  29
   2024 03 05 13:00  09 48 51.50    +21 31 11.8   0.0088 1.0000 155.8  t  15?   0.86  99.5   37 359 137  29
   2024 03 05 13:10  09 48 52.11    +21 31 10.1   0.0088 1.0000 155.7     15?   0.87 103.3   37 356 137  29
   2024 03 05 13:20  09 48 52.72    +21 31 07.8   0.0088 1.0000 155.7     15?   0.90 106.8   37 353 137  29
   2024 03 05 13:30  09 48 53.35    +21 31 04.9   0.0088 1.0000 155.7     15?   0.94 110.0   36 350 137  29
   2024 03 05 13:40  09 48 53.99    +21 31 01.4   0.0088 1.0000 155.7     15?   0.98 112.7   36 348 137  29
   2024 03 05 13:50  09 48 54.65    +21 30 57.3   0.0088 1.0000 155.7     15?   1.04 115.0   35 345 137  29
   2024 03 05 14:00  09 48 55.34    +21 30 52.6   0.0088 1.0000 155.7     15?   1.10 116.9   35 342 138  29
   2024 03 05 14:10  09 48 56.06    +21 30 47.4   0.0088 1.0000 155.7     15?   1.17 118.4   34 339 138  29
   2024 03 05 14:20  09 48 56.81    +21 30 41.6   0.0088 1.0000 155.7     15?   1.24 119.5   33 337 138  29
   2024 03 05 14:30  09 48 57.61    +21 30 35.2   0.0088 1.0000 155.7     15?   1.32 120.3   32 334 138  28
   2024 03 05 14:40  09 48 58.45    +21 30 28.2   0.0088 1.0000 155.7  m  15?   1.41 120.9   32 332 138  28
   2024 03 05 14:50  09 48 59.34    +21 30 20.7   0.0088 1.0000 155.7  m  15?   1.50 121.2   30 329 138  28
   2024 03 05 15:00  09 49 00.29    +21 30 12.7   0.0088 1.0000 155.7  m  15?   1.59 121.3   29 327 138  28
   2024 03 05 15:10  09 49 01.30    +21 30 04.2   0.0088 1.0000 155.7  m  15?   1.69 121.3   28 324 138  28
   2024 03 05 15:20  09 49 02.37    +21 29 55.1   0.0088 1.0000 155.7  m  15?   1.80 121.1   27 322 138  28
   2024 03 05 15:30  09 49 03.51    +21 29 45.6   0.0088 1.0000 155.7  m  15?   1.91 120.8   26 320 138  28
   2024 03 05 15:40  09 49 04.72    +21 29 35.6   0.0088 1.0000 155.7  m  15?   2.02 120.4   24 318 139  28
   2024 03 05 15:50  09 49 06.00    +21 29 25.2   0.0088 1.0000 155.7  m  15?   2.14 120.0   23 316 139  28
   2024 03 05 16:00  09 49 07.37    +21 29 14.3   0.0088 1.0000 155.7  m  15?   2.26 119.5   21 314 139  28
   2024 03 05 16:10  09 49 08.82    +21 29 02.9   0.0088 1.0000 155.7  m  15?   2.38 118.9   20 312 139  28
   2024 03 05 16:20  09 49 10.36    +21 28 51.2   0.0088 1.0000 155.7  m  15?   2.51 118.4   18 310 139  28
   2024 03 05 16:30  09 49 11.99    +21 28 39.1   0.0088 1.0000 155.7  m  15?   2.64 117.7   16 309 139  28
   2024 03 05 16:40  09 49 13.71    +21 28 26.7   0.0088 1.0000 155.7  m  15?   2.78 117.1   15 307 139  27
   2024 03 05 16:50  09 49 15.53    +21 28 13.9   0.0088 1.0001 155.7  m  15?   2.91 116.5   13 305 139  27
   2024 03 05 17:00  09 49 17.45    +21 28 00.8   0.0088 1.0001 155.7  m  15?   3.05 115.8   11 304 139  27
   2024 03 05 17:10  09 49 19.47    +21 27 47.3   0.0088 1.0001 155.7  m  15?   3.19 115.1   10 302 139  27
   2024 03 05 17:20  09 49 21.59    +21 27 33.7   0.0088 1.0001 155.7  m  15?   3.34 114.5    8 301 139  27
   2024 03 05 17:30  09 49 23.83    +21 27 19.7   0.0088 1.0001 155.7  m  15?   3.49 113.8    6 299 139  27
   2024 03 05 17:40  09 49 26.16    +21 27 05.6   0.0088 1.0001 155.7  m  15?   3.63 113.1    4 298 140  27
   2024 03 05 17:50  09 49 28.61    +21 26 51.2   0.0088 1.0001 155.7  m  15?   3.78 112.5    2 297 140  27
   2024 03 05 18:00  09 49 31.18    +21 26 36.7   0.0088 1.0001 155.7  m  15?   3.94 111.8    0 295 140  27
   ................
   2024 03 06 08:40  09 56 18.60    +21 24 56.8   0.0087 1.0002 156.4 C   15?   3.29  71.6    7  59 146  22
   2024 03 06 08:50  09 56 20.78    +21 25 07.1   0.0087 1.0002 156.4 C   15?   3.14  71.2    9  57 146  22
   2024 03 06 09:00  09 56 22.85    +21 25 17.1   0.0087 1.0002 156.4 N   15?   3.00  70.8   11  56 146  22
   2024 03 06 09:10  09 56 24.83    +21 25 26.9   0.0087 1.0002 156.4 N   15?   2.85  70.4   13  54 146  22
   2024 03 06 09:20  09 56 26.70    +21 25 36.3   0.0087 1.0002 156.4 N   15?   2.71  70.1   15  52 146  21
   2024 03 06 09:30  09 56 28.48    +21 25 45.4   0.0087 1.0002 156.4 A   15?   2.57  69.8   16  51 146  21
   2024 03 06 09:40  09 56 30.16    +21 25 54.1   0.0087 1.0002 156.4 A   15?   2.44  69.6   18  49 146  21
   2024 03 06 09:50  09 56 31.76    +21 26 02.5   0.0087 1.0002 156.4 A   15?   2.31  69.4   19  47 146  21
   2024 03 06 10:00  09 56 33.26    +21 26 10.4   0.0087 1.0002 156.4     15?   2.18  69.3   21  45 147  21
   2024 03 06 10:10  09 56 34.68    +21 26 17.9   0.0087 1.0002 156.4     15?   2.06  69.3   23  43 147  21
   2024 03 06 10:20  09 56 36.02    +21 26 25.0   0.0087 1.0002 156.4     15?   1.94  69.4   24  41 147  21
   2024 03 06 10:30  09 56 37.29    +21 26 31.6   0.0087 1.0002 156.4     15?   1.83  69.6   25  39 147  21
   2024 03 06 10:40  09 56 38.48    +21 26 37.8   0.0087 1.0002 156.4     15?   1.72  70.0   27  37 147  21
   2024 03 06 10:50  09 56 39.60    +21 26 43.4   0.0087 1.0002 156.4     15?   1.61  70.5   28  35 147  21
   2024 03 06 11:00  09 56 40.66    +21 26 48.6   0.0087 1.0002 156.4     15?   1.51  71.2   29  33 147  21
   2024 03 06 11:10  09 56 41.66    +21 26 53.2   0.0087 1.0002 156.4     15?   1.42  72.2   30  30 147  20
   2024 03 06 11:20  09 56 42.60    +21 26 57.3   0.0087 1.0002 156.4     15?   1.33  73.4   31  28 148  20
   2024 03 06 11:30  09 56 43.49    +21 27 00.9   0.0087 1.0002 156.3     15?   1.25  74.9   32  25 148  20
   2024 03 06 11:40  09 56 44.33    +21 27 03.9   0.0087 1.0002 156.3     15?   1.18  76.7   33  23 148  20
   2024 03 06 11:50  09 56 45.13    +21 27 06.3   0.0087 1.0002 156.3     15?   1.11  78.9   34  20 148  20
   2024 03 06 12:00  09 56 45.90    +21 27 08.2   0.0087 1.0002 156.3     15?   1.06  81.5   35  18 148  20
   2024 03 06 12:10  09 56 46.63    +21 27 09.5   0.0087 1.0002 156.3     15?   1.01  84.5   35  15 148  20
   2024 03 06 12:20  09 56 47.34    +21 27 10.2   0.0087 1.0002 156.3     15?   0.97  87.7   36  12 148  20
   2024 03 06 12:30  09 56 48.03    +21 27 10.3   0.0087 1.0002 156.3     15?   0.94  91.3   36   9 148  20
   2024 03 06 12:40  09 56 48.69    +21 27 09.8   0.0087 1.0002 156.3     15?   0.93  95.0   37   6 149  20
   2024 03 06 12:50  09 56 49.35    +21 27 08.7   0.0087 1.0002 156.3     15?   0.92  98.8   37   3 149  20
   2024 03 06 13:00  09 56 50.00    +21 27 07.0   0.0087 1.0002 156.3     15?   0.93 102.5   37   0 149  19
   2024 03 06 13:10  09 56 50.65    +21 27 04.6   0.0087 1.0002 156.3  t  15?   0.94 106.1   37 357 149  19
   2024 03 06 13:20  09 56 51.30    +21 27 01.7   0.0087 1.0003 156.3     15?   0.97 109.4   37 354 149  19
   2024 03 06 13:30  09 56 51.96    +21 26 58.2   0.0087 1.0003 156.3     15?   1.01 112.3   36 352 149  19
   2024 03 06 13:40  09 56 52.64    +21 26 54.1   0.0087 1.0003 156.3     15?   1.05 114.8   36 349 149  19
   2024 03 06 13:50  09 56 53.34    +21 26 49.4   0.0087 1.0003 156.3     15?   1.11 117.0   36 346 149  19
   2024 03 06 14:00  09 56 54.06    +21 26 44.1   0.0087 1.0003 156.3     15?   1.17 118.7   35 343 150  19
   2024 03 06 14:10  09 56 54.80    +21 26 38.2   0.0087 1.0003 156.3     15?   1.23 120.1   34 340 150  19
   2024 03 06 14:20  09 56 55.59    +21 26 31.7   0.0087 1.0003 156.3     15?   1.31 121.1   34 338 150  19
   2024 03 06 14:30  09 56 56.41    +21 26 24.7   0.0087 1.0003 156.3     15?   1.39 121.9   33 335 150  19
   2024 03 06 14:40  09 56 57.28    +21 26 17.1   0.0087 1.0003 156.3     15?   1.47 122.4   32 332 150  19
   2024 03 06 14:50  09 56 58.19    +21 26 08.9   0.0087 1.0003 156.3     15?   1.56 122.7   31 330 150  19
   2024 03 06 15:00  09 56 59.16    +21 26 00.2   0.0087 1.0003 156.3     15?   1.66 122.7   30 328 150  19
   2024 03 06 15:10  09 57 00.19    +21 25 51.0   0.0087 1.0003 156.3     15?   1.76 122.7   29 325 150  18
   2024 03 06 15:20  09 57 01.28    +21 25 41.3   0.0087 1.0003 156.3     15?   1.86 122.5   27 323 150  18
   2024 03 06 15:30  09 57 02.44    +21 25 31.1   0.0087 1.0003 156.3     15?   1.97 122.2   26 321 151  18
   2024 03 06 15:40  09 57 03.67    +21 25 20.4   0.0087 1.0003 156.3  m  15?   2.08 121.8   25 319 151  18
   2024 03 06 15:50  09 57 04.97    +21 25 09.2   0.0087 1.0003 156.3  m  15?   2.19 121.3   23 317 151  18
   2024 03 06 16:00  09 57 06.35    +21 24 57.6   0.0087 1.0003 156.3  m  15?   2.31 120.8   22 315 151  18
   2024 03 06 16:10  09 57 07.82    +21 24 45.5   0.0087 1.0003 156.3  m  15?   2.44 120.2   20 313 151  18
   2024 03 06 16:20  09 57 09.37    +21 24 33.1   0.0087 1.0003 156.3  m  15?   2.56 119.6   19 311 151  18
   2024 03 06 16:30  09 57 11.01    +21 24 20.2   0.0087 1.0003 156.3  m  15?   2.69 119.0   17 309 151  18
   2024 03 06 16:40  09 57 12.75    +21 24 07.0   0.0087 1.0003 156.3  m  15?   2.83 118.3   16 308 151  18
   2024 03 06 16:50  09 57 14.58    +21 23 53.4   0.0087 1.0003 156.3  m  15?   2.96 117.7   14 306 151  18
   2024 03 06 17:00  09 57 16.51    +21 23 39.5   0.0087 1.0003 156.3  m  15?   3.10 117.0   12 304 151  18
   2024 03 06 17:10  09 57 18.54    +21 23 25.3   0.0087 1.0003 156.3  m  15?   3.24 116.3   10 303 152  18
   2024 03 06 17:20  09 57 20.67    +21 23 10.8   0.0087 1.0003 156.3  m  15?   3.39 115.6    9 301 152  18
   2024 03 06 17:30  09 57 22.92    +21 22 56.1   0.0087 1.0003 156.3  m  15?   3.53 114.9    7 300 152  18
   2024 03 06 17:40  09 57 25.27    +21 22 41.1   0.0087 1.0003 156.3  m  15?   3.68 114.2    5 298 152  18
   2024 03 06 17:50  09 57 27.73    +21 22 25.9   0.0087 1.0003 156.3  m  15?   3.83 113.5    3 297 152  17
   2024 03 06 18:00  09 57 30.30    +21 22 10.5   0.0087 1.0003 156.3  m  15?   3.98 112.9    1 296 152  17
   2024 03 06 18:10  09 57 32.98    +21 21 55.0   0.0087 1.0003 156.3  m  15?   4.14 112.2    0 294 152  17
   ................
   2024 03 07 08:40  10 04 24.00    +21 19 02.5   0.0087 1.0004 157.0 C   15?   3.40  73.6    7  59 158  13
   2024 03 07 08:50  10 04 26.28    +21 19 12.0   0.0087 1.0004 157.0 C   15?   3.25  73.2    9  58 158  13
   2024 03 07 09:00  10 04 28.45    +21 19 21.3   0.0087 1.0004 157.0 N   15?   3.10  72.9   10  56 158  13
   2024 03 07 09:10  10 04 30.52    +21 19 30.3   0.0087 1.0004 157.0 N   15?   2.95  72.7   12  55 158  13
   2024 03 07 09:20  10 04 32.48    +21 19 39.0   0.0087 1.0004 157.0 N   15?   2.81  72.4   14  53 158  13
   2024 03 07 09:30  10 04 34.35    +21 19 47.3   0.0087 1.0005 157.0 A   15?   2.67  72.2   16  52 158  13
   2024 03 07 09:40  10 04 36.12    +21 19 55.3   0.0087 1.0005 157.0 A   15?   2.53  72.1   17  50 158  13
   2024 03 07 09:50  10 04 37.80    +21 20 02.9   0.0087 1.0005 156.9 A   15?   2.40  72.1   19  48 159  12
   2024 03 07 10:00  10 04 39.39    +21 20 10.2   0.0086 1.0005 156.9     15?   2.27  72.1   20  46 159  12
   2024 03 07 10:10  10 04 40.90    +21 20 17.0   0.0086 1.0005 156.9     15?   2.15  72.2   22  44 159  12
   2024 03 07 10:20  10 04 42.32    +21 20 23.4   0.0086 1.0005 156.9     15?   2.03  72.4   23  42 159  12
   2024 03 07 10:30  10 04 43.66    +21 20 29.3   0.0086 1.0005 156.9     15?   1.91  72.7   25  40 159  12
   2024 03 07 10:40  10 04 44.93    +21 20 34.7   0.0086 1.0005 156.9     15?   1.80  73.2   26  38 159  12
   2024 03 07 10:50  10 04 46.12    +21 20 39.7   0.0086 1.0005 156.9     15?   1.69  73.8   28  36 159  12
   2024 03 07 11:00  10 04 47.25    +21 20 44.2   0.0086 1.0005 156.9     15?   1.59  74.7   29  34 159  12
   2024 03 07 11:10  10 04 48.32    +21 20 48.2   0.0086 1.0005 156.9     15?   1.50  75.8   30  31 160  12
   2024 03 07 11:20  10 04 49.33    +21 20 51.6   0.0086 1.0005 156.9     15?   1.41  77.1   31  29 160  12
   2024 03 07 11:30  10 04 50.28    +21 20 54.5   0.0086 1.0005 156.9     15?   1.33  78.7   32  27 160  12
   2024 03 07 11:40  10 04 51.19    +21 20 56.8   0.0086 1.0005 156.9     15?   1.25  80.6   33  24 160  12
   2024 03 07 11:50  10 04 52.05    +21 20 58.6   0.0086 1.0005 156.9     15?   1.19  82.9   34  21 160  12
   2024 03 07 12:00  10 04 52.88    +21 20 59.8   0.0086 1.0005 156.9     15?   1.13  85.4   35  19 160  11
   2024 03 07 12:10  10 04 53.67    +21 21 00.4   0.0086 1.0005 156.9     15?   1.08  88.3   35  16 160  11
   2024 03 07 12:20  10 04 54.43    +21 21 00.4   0.0086 1.0005 156.9     15?   1.05  91.5   36  13 160  11
   2024 03 07 12:30  10 04 55.17    +21 20 59.9   0.0086 1.0005 156.9     15?   1.02  94.9   36  10 161  11
   2024 03 07 12:40  10 04 55.88    +21 20 58.7   0.0086 1.0005 156.9     15?   1.00  98.5   37   7 161  11
   2024 03 07 12:50  10 04 56.59    +21 20 56.9   0.0086 1.0005 156.9     15?   1.00 102.0   37   5 161  11
   2024 03 07 13:00  10 04 57.28    +21 20 54.6   0.0086 1.0005 156.9     15?   1.00 105.5   37   2 161  11
   2024 03 07 13:10  10 04 57.97    +21 20 51.6   0.0086 1.0005 156.9  t  15?   1.02 108.8   37 359 161  11
   2024 03 07 13:20  10 04 58.67    +21 20 48.0   0.0086 1.0005 156.9     15?   1.05 111.8   37 356 161  11
   2024 03 07 13:30  10 04 59.37    +21 20 43.8   0.0086 1.0005 156.9     15?   1.08 114.5   37 353 161  11
   2024 03 07 13:40  10 05 00.08    +21 20 39.0   0.0086 1.0005 156.9     15?   1.13 116.9   36 350 161  11
   2024 03 07 13:50  10 05 00.81    +21 20 33.6   0.0086 1.0005 156.9     15?   1.18 118.8   36 347 162  11
   2024 03 07 14:00  10 05 01.56    +21 20 27.7   0.0086 1.0005 156.8     15?   1.24 120.5   35 344 162  11
   2024 03 07 14:10  10 05 02.34    +21 20 21.1   0.0086 1.0005 156.8     15?   1.31 121.8   35 341 162  11
   2024 03 07 14:20  10 05 03.15    +21 20 13.9   0.0086 1.0005 156.8     15?   1.38 122.7   34 339 162  11
   2024 03 07 14:30  10 05 04.00    +21 20 06.2   0.0086 1.0005 156.8     15?   1.46 123.4   33 336 162  10
   2024 03 07 14:40  10 05 04.90    +21 19 57.9   0.0086 1.0005 156.8     15?   1.54 123.9   32 333 162  10
   2024 03 07 14:50  10 05 05.84    +21 19 49.0   0.0086 1.0005 156.8     15?   1.63 124.1   31 331 162  10
   2024 03 07 15:00  10 05 06.83    +21 19 39.6   0.0086 1.0005 156.8     15?   1.72 124.2   30 329 162  10
   2024 03 07 15:10  10 05 07.88    +21 19 29.7   0.0086 1.0005 156.8     15?   1.82 124.1   29 326 163  10
   2024 03 07 15:20  10 05 08.99    +21 19 19.2   0.0086 1.0005 156.8     15?   1.92 123.9   28 324 163  10
   2024 03 07 15:30  10 05 10.16    +21 19 08.3   0.0086 1.0005 156.8     15?   2.03 123.6   27 322 163  10
   2024 03 07 15:40  10 05 11.41    +21 18 56.8   0.0086 1.0005 156.8     15?   2.14 123.2   25 320 163  10
   2024 03 07 15:50  10 05 12.72    +21 18 44.9   0.0086 1.0005 156.8     15?   2.25 122.7   24 317 163  10
   2024 03 07 16:00  10 05 14.12    +21 18 32.5   0.0086 1.0005 156.8     15?   2.37 122.1   23 315 163  10
   2024 03 07 16:10  10 05 15.60    +21 18 19.7   0.0086 1.0005 156.8     15?   2.49 121.5   21 314 163  10
   2024 03 07 16:20  10 05 17.16    +21 18 06.5   0.0086 1.0005 156.8     15?   2.62 120.9   20 312 163  10
   2024 03 07 16:30  10 05 18.82    +21 17 52.8   0.0086 1.0005 156.8     15?   2.75 120.3   18 310 163  10
   2024 03 07 16:40  10 05 20.56    +21 17 38.8   0.0086 1.0005 156.8     15?   2.88 119.6   16 308 164  10
   2024 03 07 16:50  10 05 22.40    +21 17 24.4   0.0086 1.0005 156.8     15?   3.01 118.9   15 306 164  10
   2024 03 07 17:00  10 05 24.34    +21 17 09.7   0.0086 1.0005 156.8  m  15?   3.15 118.2   13 305 164  10
   2024 03 07 17:10  10 05 26.38    +21 16 54.7   0.0086 1.0005 156.8  m  15?   3.29 117.5   11 303 164  10
   2024 03 07 17:20  10 05 28.52    +21 16 39.4   0.0086 1.0005 156.8  m  15?   3.44 116.8    9 302 164   9
   2024 03 07 17:30  10 05 30.77    +21 16 23.8   0.0086 1.0005 156.8  m  15?   3.58 116.0    8 300 164   9
   2024 03 07 17:40  10 05 33.13    +21 16 07.9   0.0086 1.0005 156.8  m  15?   3.73 115.3    6 299 164   9
   2024 03 07 17:50  10 05 35.60    +21 15 51.9   0.0086 1.0005 156.9  m  15?   3.88 114.6    4 297 164   9
   2024 03 07 18:00  10 05 38.18    +21 15 35.6   0.0086 1.0005 156.9  m  15?   4.03 113.9    2 296 164   9
   2024 03 07 18:10  10 05 40.87    +21 15 19.2   0.0086 1.0005 156.9  m  15?   4.18 113.3    0 295 164   9
   ................
   2024 03 08 08:40  10 12 37.97    +21 10 53.1   0.0086 1.0007 157.5 C   15?   3.51  75.6    6  60 169   6
   2024 03 08 08:50  10 12 40.35    +21 11 01.7   0.0086 1.0007 157.5 C   15?   3.36  75.3    8  59 169   6
   2024 03 08 09:00  10 12 42.62    +21 11 10.2   0.0086 1.0007 157.5 N   15?   3.21  75.1   10  57 169   6
   2024 03 08 09:10  10 12 44.78    +21 11 18.3   0.0086 1.0007 157.5 N   15?   3.06  74.9   11  56 169   6
   2024 03 08 09:20  10 12 46.85    +21 11 26.2   0.0086 1.0007 157.5 N   15?   2.91  74.8   13  54 169   6
   2024 03 08 09:30  10 12 48.81    +21 11 33.7   0.0086 1.0007 157.5 A   15?   2.77  74.7   15  52 170   6
   2024 03 08 09:40  10 12 50.67    +21 11 40.9   0.0086 1.0007 157.5 A   15?   2.63  74.6   17  51 170   6
   2024 03 08 09:50  10 12 52.44    +21 11 47.7   0.0086 1.0007 157.5 A   15?   2.50  74.7   18  49 170   6
   2024 03 08 10:00  10 12 54.11    +21 11 54.1   0.0086 1.0007 157.5     15?   2.37  74.8   20  47 170   5
   2024 03 08 10:10  10 12 55.70    +21 12 00.1   0.0086 1.0007 157.5     15?   2.24  75.0   21  45 170   5
   2024 03 08 10:20  10 12 57.21    +21 12 05.7   0.0086 1.0007 157.5     15?   2.12  75.3   23  43 170   5
   2024 03 08 10:30  10 12 58.63    +21 12 10.9   0.0086 1.0007 157.5     15?   2.00  75.8   24  41 170   5
   2024 03 08 10:40  10 12 59.97    +21 12 15.6   0.0086 1.0007 157.5     15?   1.88  76.4   26  39 170   5
   2024 03 08 10:50  10 13 01.25    +21 12 19.8   0.0086 1.0007 157.5     15?   1.78  77.2   27  37 170   5
   2024 03 08 11:00  10 13 02.45    +21 12 23.5   0.0086 1.0007 157.5     15?   1.67  78.1   28  35 170   5
   2024 03 08 11:10  10 13 03.59    +21 12 26.7   0.0086 1.0007 157.5     15?   1.58  79.3   30  33 171   5
   2024 03 08 11:20  10 13 04.67    +21 12 29.4   0.0086 1.0007 157.5     15?   1.49  80.7   31  30 171   5
   2024 03 08 11:30  10 13 05.69    +21 12 31.5   0.0086 1.0007 157.5     15?   1.41  82.4   32  28 171   5
   2024 03 08 11:40  10 13 06.66    +21 12 33.1   0.0086 1.0007 157.5     15?   1.33  84.4   33  25 171   5
   2024 03 08 11:50  10 13 07.59    +21 12 34.2   0.0086 1.0007 157.5     15?   1.27  86.7   34  23 171   5
   2024 03 08 12:00  10 13 08.48    +21 12 34.6   0.0086 1.0007 157.5     15?   1.21  89.2   34  20 171   5
   2024 03 08 12:10  10 13 09.32    +21 12 34.5   0.0086 1.0007 157.5     15?   1.16  92.1   35  17 171   5
   2024 03 08 12:20  10 13 10.14    +21 12 33.8   0.0086 1.0007 157.5     15?   1.13  95.1   36  14 171   5
   2024 03 08 12:30  10 13 10.93    +21 12 32.5   0.0086 1.0007 157.5     15?   1.10  98.4   36  12 171   5
   2024 03 08 12:40  10 13 11.70    +21 12 30.6   0.0086 1.0007 157.5     15?   1.08 101.7   37   9 171   5
   2024 03 08 12:50  10 13 12.45    +21 12 28.2   0.0086 1.0007 157.5     15?   1.08 105.0   37   6 172   5
   2024 03 08 13:00  10 13 13.19    +21 12 25.1   0.0086 1.0007 157.5     15?   1.09 108.2   37   3 172   5
   2024 03 08 13:10  10 13 13.93    +21 12 21.4   0.0086 1.0007 157.4     15?   1.10 111.3   37   0 172   5
   2024 03 08 13:20  10 13 14.66    +21 12 17.1   0.0086 1.0007 157.4  t  15?   1.13 114.1   37 357 172   4
   2024 03 08 13:30  10 13 15.40    +21 12 12.1   0.0086 1.0007 157.4     15?   1.16 116.6   37 354 172   4
   2024 03 08 13:40  10 13 16.15    +21 12 06.6   0.0086 1.0007 157.4     15?   1.21 118.8   37 351 172   4
   2024 03 08 13:50  10 13 16.92    +21 12 00.5   0.0086 1.0007 157.4     15?   1.26 120.7   36 348 172   4
   2024 03 08 14:00  10 13 17.71    +21 11 53.8   0.0086 1.0007 157.4     15?   1.32 122.2   36 345 172   4
   2024 03 08 14:10  10 13 18.52    +21 11 46.5   0.0086 1.0007 157.4     15?   1.38 123.4   35 343 172   4
   2024 03 08 14:20  10 13 19.36    +21 11 38.6   0.0086 1.0007 157.4     15?   1.45 124.3   35 340 172   4
   2024 03 08 14:30  10 13 20.24    +21 11 30.1   0.0086 1.0007 157.4     15?   1.53 125.0   34 337 172   4
   2024 03 08 14:40  10 13 21.16    +21 11 21.0   0.0086 1.0007 157.4     15?   1.61 125.4   33 335 172   4
   2024 03 08 14:50  10 13 22.12    +21 11 11.4   0.0086 1.0007 157.4     15?   1.70 125.6   32 332 173   4
   2024 03 08 15:00  10 13 23.13    +21 11 01.3   0.0086 1.0007 157.4     15?   1.79 125.6   31 329 173   4
   2024 03 08 15:10  10 13 24.20    +21 10 50.6   0.0086 1.0008 157.4     15?   1.89 125.5   30 327 173   4
   2024 03 08 15:20  10 13 25.33    +21 10 39.3   0.0086 1.0008 157.4     15?   1.99 125.3   29 325 173   4
   2024 03 08 15:30  10 13 26.52    +21 10 27.6   0.0086 1.0008 157.4     15?   2.09 125.0   27 323 173   4
   2024 03 08 15:40  10 13 27.78    +21 10 15.4   0.0086 1.0008 157.4     15?   2.20 124.5   26 320 173   4
   2024 03 08 15:50  10 13 29.12    +21 10 02.7   0.0086 1.0008 157.4     15?   2.31 124.0   25 318 173   4
   2024 03 08 16:00  10 13 30.53    +21 09 49.5   0.0086 1.0008 157.4     15?   2.43 123.5   23 316 173   4
   2024 03 08 16:10  10 13 32.02    +21 09 35.9   0.0086 1.0008 157.4     15?   2.55 122.9   22 314 173   4
   2024 03 08 16:20  10 13 33.59    +21 09 21.8   0.0086 1.0008 157.4     15?   2.68 122.2   20 312 173   4
   2024 03 08 16:30  10 13 35.25    +21 09 07.3   0.0086 1.0008 157.4     15?   2.80 121.6   19 311 173   4
   2024 03 08 16:40  10 13 37.01    +21 08 52.5   0.0086 1.0008 157.4     15?   2.93 120.9   17 309 173   4
   2024 03 08 16:50  10 13 38.86    +21 08 37.3   0.0086 1.0008 157.4     15?   3.07 120.1   15 307 173   4
   2024 03 08 17:00  10 13 40.80    +21 08 21.7   0.0086 1.0008 157.4     15?   3.21 119.4   14 305 173   4
   2024 03 08 17:10  10 13 42.85    +21 08 05.8   0.0086 1.0008 157.4     15?   3.35 118.7   12 304 173   3
   2024 03 08 17:20  10 13 45.00    +21 07 49.6   0.0086 1.0008 157.4     15?   3.49 117.9   10 302 173   3
   2024 03 08 17:30  10 13 47.26    +21 07 33.2   0.0086 1.0008 157.4     15?   3.63 117.2    8 301 174   3
   2024 03 08 17:40  10 13 49.62    +21 07 16.4   0.0086 1.0008 157.4     15?   3.78 116.5    7 299 174   3
   2024 03 08 17:50  10 13 52.09    +21 06 59.5   0.0086 1.0008 157.4     15?   3.93 115.8    5 298 174   3
   2024 03 08 18:00  10 13 54.68    +21 06 42.3   0.0086 1.0008 157.4     15?   4.08 115.1    3 297 174   3
   2024 03 08 18:10  10 13 57.38    +21 06 24.9   0.0086 1.0008 157.4  m  15?   4.23 114.3    1 295 174   3
   2024 03 08 18:20  10 14 00.19    +21 06 07.4   0.0086 1.0008 157.5  m  15?   4.39 113.6    0 294 174   3
   ................
   2024 03 09 08:40  10 21 00.37    +21 00 18.7   0.0085 1.0009 158.1 C   15?   3.63  77.6    5  61 171   1
   2024 03 09 08:50  10 21 02.85    +21 00 26.4   0.0085 1.0009 158.1 C   15?   3.48  77.4    7  59 171   1
   2024 03 09 09:00  10 21 05.22    +21 00 33.9   0.0085 1.0009 158.1 N   15?   3.32  77.3    9  58 171   1
   2024 03 09 09:10  10 21 07.48    +21 00 41.1   0.0085 1.0009 158.1 N   15?   3.17  77.2   11  56 171   1
   2024 03 09 09:20  10 21 09.64    +21 00 48.0   0.0085 1.0009 158.1 N   15?   3.03  77.1   13  55 171   1
   2024 03 09 09:30  10 21 11.70    +21 00 54.6   0.0085 1.0009 158.1 A   15?   2.88  77.1   14  53 171   1
   2024 03 09 09:40  10 21 13.65    +21 01 00.9   0.0085 1.0009 158.1 A   15?   2.74  77.2   16  52 170   1
   2024 03 09 09:50  10 21 15.51    +21 01 06.8   0.0085 1.0009 158.1 A   15?   2.60  77.3   18  50 170   1
   2024 03 09 10:00  10 21 17.28    +21 01 12.4   0.0085 1.0009 158.1     15?   2.47  77.6   19  48 170   1
   2024 03 09 10:10  10 21 18.95    +21 01 17.5   0.0085 1.0009 158.1     15?   2.34  77.9   21  46 170   1
   2024 03 09 10:20  10 21 20.54    +21 01 22.2   0.0085 1.0009 158.1     15?   2.21  78.3   22  44 170   1
   2024 03 09 10:30  10 21 22.05    +21 01 26.5   0.0085 1.0009 158.1     15?   2.09  78.9   24  42 170   1
   2024 03 09 10:40  10 21 23.48    +21 01 30.4   0.0085 1.0009 158.1     15?   1.98  79.6   25  40 170   1
   2024 03 09 10:50  10 21 24.83    +21 01 33.7   0.0085 1.0010 158.1     15?   1.87  80.5   27  38 170   1
   2024 03 09 11:00  10 21 26.11    +21 01 36.6   0.0085 1.0010 158.1     15?   1.76  81.5   28  36 170   1
   2024 03 09 11:10  10 21 27.32    +21 01 39.0   0.0085 1.0010 158.1     15?   1.67  82.8   29  34 170   1
   2024 03 09 11:20  10 21 28.47    +21 01 40.8   0.0085 1.0010 158.1     15?   1.58  84.3   30  31 170   1
   2024 03 09 11:30  10 21 29.57    +21 01 42.1   0.0085 1.0010 158.1     15?   1.50  86.0   31  29 170   1
   2024 03 09 11:40  10 21 30.61    +21 01 42.9   0.0085 1.0010 158.1     15?   1.42  88.0   32  26 169   1
   2024 03 09 11:50  10 21 31.60    +21 01 43.1   0.0085 1.0010 158.1     15?   1.36  90.3   33  24 169   1
   2024 03 09 12:00  10 21 32.54    +21 01 42.8   0.0085 1.0010 158.1     15?   1.30  92.8   34  21 169   1
   2024 03 09 12:10  10 21 33.45    +21 01 41.9   0.0085 1.0010 158.1     15?   1.25  95.6   35  18 169   1
   2024 03 09 12:20  10 21 34.33    +21 01 40.4   0.0085 1.0010 158.1     15?   1.22  98.5   36  16 169   1
   2024 03 09 12:30  10 21 35.17    +21 01 38.3   0.0085 1.0010 158.1     15?   1.19 101.6   36  13 169   1
   2024 03 09 12:40  10 21 35.99    +21 01 35.6   0.0085 1.0010 158.0     15?   1.17 104.7   37  10 169   1
   2024 03 09 12:50  10 21 36.80    +21 01 32.3   0.0085 1.0010 158.0     15?   1.17 107.8   37   7 169   1
   2024 03 09 13:00  10 21 37.59    +21 01 28.5   0.0085 1.0010 158.0     15?   1.18 110.9   37   4 169   1
   2024 03 09 13:10  10 21 38.37    +21 01 24.0   0.0085 1.0010 158.0     15?   1.19 113.7   37   1 169   1
   2024 03 09 13:20  10 21 39.15    +21 01 18.9   0.0085 1.0010 158.0  t  15?   1.22 116.3   37 358 169   1
   2024 03 09 13:30  10 21 39.93    +21 01 13.2   0.0085 1.0010 158.0     15?   1.25 118.7   37 355 168   1
   2024 03 09 13:40  10 21 40.72    +21 01 06.9   0.0085 1.0010 158.0     15?   1.29 120.7   37 352 168   1
   2024 03 09 13:50  10 21 41.52    +21 01 00.0   0.0085 1.0010 158.0     15?   1.34 122.4   37 349 168   0
   2024 03 09 14:00  10 21 42.34    +21 00 52.5   0.0085 1.0010 158.0     15?   1.40 123.9   36 347 168   0
   2024 03 09 14:10  10 21 43.19    +21 00 44.4   0.0085 1.0010 158.0     15?   1.46 125.0   36 344 168   0
   2024 03 09 14:20  10 21 44.06    +21 00 35.7   0.0085 1.0010 158.0     15?   1.53 125.9   35 341 168   0
   2024 03 09 14:30  10 21 44.96    +21 00 26.4   0.0085 1.0010 158.0     15?   1.61 126.5   34 338 168   0
   2024 03 09 14:40  10 21 45.91    +21 00 16.6   0.0085 1.0010 158.0     15?   1.69 126.9   34 336 168   0
   2024 03 09 14:50  10 21 46.90    +21 00 06.1   0.0085 1.0010 158.0     15?   1.77 127.1   33 333 168   0
   2024 03 09 15:00  10 21 47.93    +20 59 55.2   0.0085 1.0010 158.0     15?   1.86 127.1   32 330 168   0
   2024 03 09 15:10  10 21 49.02    +20 59 43.7   0.0085 1.0010 158.0     15?   1.96 127.0   31 328 168   0
   2024 03 09 15:20  10 21 50.17    +20 59 31.6   0.0085 1.0010 158.0     15?   2.06 126.7   29 326 167   0
   2024 03 09 15:30  10 21 51.38    +20 59 19.1   0.0085 1.0010 158.0     15?   2.16 126.4   28 323 167   0
   2024 03 09 15:40  10 21 52.66    +20 59 06.0   0.0085 1.0010 158.0     15?   2.27 125.9   27 321 167   0
   2024 03 09 15:50  10 21 54.00    +20 58 52.5   0.0085 1.0010 158.0     15?   2.38 125.4   26 319 167   0
   2024 03 09 16:00  10 21 55.43    +20 58 38.5   0.0085 1.0010 158.0     15?   2.49 124.8   24 317 167   0
   2024 03 09 16:10  10 21 56.93    +20 58 24.0   0.0085 1.0010 158.0     15?   2.61 124.2   23 315 167   0
   2024 03 09 16:20  10 21 58.51    +20 58 09.1   0.0085 1.0010 158.0     15?   2.74 123.6   21 313 167   0
   2024 03 09 16:30  10 22 00.19    +20 57 53.8   0.0085 1.0010 158.0     15?   2.86 122.9   20 311 167   0
   2024 03 09 16:40  10 22 01.95    +20 57 38.0   0.0085 1.0010 158.0     15?   2.99 122.1   18 309 167   0
   2024 03 09 16:50  10 22 03.80    +20 57 22.0   0.0085 1.0010 158.0     15?   3.12 121.4   16 308 167   0
   2024 03 09 17:00  10 22 05.76    +20 57 05.5   0.0085 1.0010 158.0     15?   3.26 120.7   15 306 166   0
   2024 03 09 17:10  10 22 07.81    +20 56 48.7   0.0085 1.0010 158.0     15?   3.40 119.9   13 304 166   0
   2024 03 09 17:20  10 22 09.96    +20 56 31.6   0.0085 1.0010 158.0     15?   3.54 119.2   11 303 166   0
   2024 03 09 17:30  10 22 12.22    +20 56 14.2   0.0085 1.0010 158.0     15?   3.68 118.4    9 301 166   0
   2024 03 09 17:40  10 22 14.59    +20 55 56.6   0.0085 1.0010 158.0     15?   3.83 117.7    8 300 166   0
   2024 03 09 17:50  10 22 17.07    +20 55 38.7   0.0085 1.0010 158.0     15?   3.98 116.9    6 298 166   0
   2024 03 09 18:00  10 22 19.66    +20 55 20.6   0.0085 1.0010 158.0     15?   4.13 116.2    4 297 166   0
   2024 03 09 18:10  10 22 22.36    +20 55 02.2   0.0085 1.0010 158.0     15?   4.28 115.5    2 296 166   0
   2024 03 09 18:20  10 22 25.18    +20 54 43.8   0.0085 1.0010 158.1     15?   4.43 114.7    0 294 166   0
   ................
   2024 03 10 08:40  10 29 31.03    +20 47 09.6   0.0085 1.0012 158.7 C   15?   3.76  79.7    5  62 160   0
   2024 03 10 08:50  10 29 33.61    +20 47 16.3   0.0085 1.0012 158.7 C   15?   3.60  79.6    6  60 160   0
   2024 03 10 09:00  10 29 36.08    +20 47 22.7   0.0085 1.0012 158.7 N   15?   3.45  79.5    8  59 160   0
   2024 03 10 09:10  10 29 38.44    +20 47 28.9   0.0085 1.0012 158.7 N   15?   3.29  79.5   10  57 159   0
   2024 03 10 09:20  10 29 40.70    +20 47 34.7   0.0085 1.0012 158.7 N   15?   3.14  79.5   12  56 159   0
   2024 03 10 09:30  10 29 42.85    +20 47 40.3   0.0085 1.0012 158.7 A   15?   3.00  79.6   14  54 159   0
   2024 03 10 09:40  10 29 44.90    +20 47 45.6   0.0085 1.0012 158.7 A   15?   2.85  79.8   15  52 159   0
   2024 03 10 09:50  10 29 46.86    +20 47 50.5   0.0085 1.0012 158.7     15?   2.71  80.0   17  51 159   0
   2024 03 10 10:00  10 29 48.71    +20 47 55.1   0.0085 1.0012 158.7     15?   2.58  80.3   19  49 159   0
   2024 03 10 10:10  10 29 50.48    +20 47 59.3   0.0085 1.0012 158.7     15?   2.44  80.7   20  47 159   0
   2024 03 10 10:20  10 29 52.15    +20 48 03.0   0.0085 1.0012 158.7     15?   2.32  81.3   22  45 159   0
   2024 03 10 10:30  10 29 53.75    +20 48 06.3   0.0085 1.0012 158.7     15?   2.20  81.9   23  43 159   0
   2024 03 10 10:40  10 29 55.26    +20 48 09.2   0.0085 1.0012 158.7     15?   2.08  82.7   25  41 158   0
   2024 03 10 10:50  10 29 56.69    +20 48 11.7   0.0085 1.0012 158.7     15?   1.97  83.7   26  39 158   0
   2024 03 10 11:00  10 29 58.05    +20 48 13.6   0.0085 1.0012 158.7     15?   1.86  84.8   28  37 158   0
   2024 03 10 11:10  10 29 59.34    +20 48 15.1   0.0085 1.0012 158.7     15?   1.77  86.2   29  35 158   0
   2024 03 10 11:20  10 30 00.56    +20 48 16.0   0.0085 1.0012 158.7     15?   1.68  87.7   30  33 158   0
   2024 03 10 11:30  10 30 01.73    +20 48 16.4   0.0085 1.0012 158.7     15?   1.59  89.5   31  30 158   0
   2024 03 10 11:40  10 30 02.84    +20 48 16.3   0.0085 1.0012 158.7     15?   1.52  91.5   32  28 158   0
   2024 03 10 11:50  10 30 03.90    +20 48 15.6   0.0085 1.0012 158.7     15?   1.45  93.8   33  25 158   0
   2024 03 10 12:00  10 30 04.91    +20 48 14.4   0.0085 1.0012 158.7     15?   1.40  96.2   34  23 158   0
   2024 03 10 12:10  10 30 05.88    +20 48 12.6   0.0085 1.0012 158.7     15?   1.35  98.9   35  20 157   0
   2024 03 10 12:20  10 30 06.81    +20 48 10.3   0.0085 1.0012 158.7     15?   1.31 101.7   36  17 157   0
   2024 03 10 12:30  10 30 07.72    +20 48 07.3   0.0085 1.0012 158.7     15?   1.29 104.6   36  14 157   0
   2024 03 10 12:40  10 30 08.59    +20 48 03.8   0.0085 1.0012 158.7     15?   1.27 107.6   37  11 157   0
   2024 03 10 12:50  10 30 09.45    +20 47 59.6   0.0085 1.0012 158.6     15?   1.27 110.5   37   9 157   0
   2024 03 10 13:00  10 30 10.29    +20 47 54.9   0.0085 1.0012 158.6     15?   1.27 113.3   37   6 157   0
   2024 03 10 13:10  10 30 11.12    +20 47 49.6   0.0085 1.0012 158.6     15?   1.29 116.0   37   3 157   0
   2024 03 10 13:20  10 30 11.94    +20 47 43.6   0.0085 1.0012 158.6     15?   1.31 118.4   38   0 157   0
   2024 03 10 13:30  10 30 12.77    +20 47 37.1   0.0085 1.0012 158.6  t  15?   1.35 120.6   38 357 156   0
   2024 03 10 13:40  10 30 13.60    +20 47 29.9   0.0085 1.0012 158.6     15?   1.39 122.5   37 354 156   0
   2024 03 10 13:50  10 30 14.44    +20 47 22.2   0.0085 1.0012 158.6     15?   1.44 124.1   37 351 156   0
   2024 03 10 14:00  10 30 15.30    +20 47 13.8   0.0085 1.0012 158.6     15?   1.49 125.5   37 348 156   0
   2024 03 10 14:10  10 30 16.17    +20 47 04.9   0.0085 1.0012 158.6     15?   1.55 126.5   36 345 156   0
   2024 03 10 14:20  10 30 17.08    +20 46 55.4   0.0085 1.0012 158.6     15?   1.62 127.3   36 342 156   0
   2024 03 10 14:30  10 30 18.01    +20 46 45.3   0.0085 1.0012 158.6     15?   1.69 127.9   35 339 156   0
   2024 03 10 14:40  10 30 18.98    +20 46 34.6   0.0085 1.0012 158.6     15?   1.77 128.3   34 337 156   0
   2024 03 10 14:50  10 30 20.00    +20 46 23.3   0.0085 1.0012 158.6     15?   1.85 128.5   33 334 156   0
   2024 03 10 15:00  10 30 21.06    +20 46 11.5   0.0085 1.0012 158.6     15?   1.94 128.5   32 332 155   0
   2024 03 10 15:10  10 30 22.17    +20 45 59.1   0.0085 1.0012 158.6     15?   2.03 128.4   31 329 155   0
   2024 03 10 15:20  10 30 23.33    +20 45 46.2   0.0085 1.0012 158.6     15?   2.13 128.1   30 327 155   0
   2024 03 10 15:30  10 30 24.56    +20 45 32.8   0.0085 1.0012 158.6     15?   2.23 127.8   29 324 155   0
   2024 03 10 15:40  10 30 25.85    +20 45 18.9   0.0085 1.0013 158.6     15?   2.34 127.3   28 322 155   0
   2024 03 10 15:50  10 30 27.21    +20 45 04.5   0.0085 1.0013 158.6     15?   2.45 126.8   26 320 155   0
   2024 03 10 16:00  10 30 28.65    +20 44 49.6   0.0085 1.0013 158.6     15?   2.56 126.2   25 318 155   0
   2024 03 10 16:10  10 30 30.16    +20 44 34.3   0.0085 1.0013 158.6     15?   2.68 125.6   24 316 155   0
   2024 03 10 16:20  10 30 31.76    +20 44 18.5   0.0085 1.0013 158.6     15?   2.80 124.9   22 314 154   0
   2024 03 10 16:30  10 30 33.44    +20 44 02.3   0.0085 1.0013 158.6     15?   2.92 124.2   21 312 154   0
   2024 03 10 16:40  10 30 35.20    +20 43 45.6   0.0085 1.0013 158.6     15?   3.05 123.5   19 310 154   0
   2024 03 10 16:50  10 30 37.07    +20 43 28.6   0.0085 1.0013 158.6     15?   3.18 122.7   17 308 154   0
   2024 03 10 17:00  10 30 39.02    +20 43 11.3   0.0085 1.0013 158.6     15?   3.32 121.9   16 307 154   0
   2024 03 10 17:10  10 30 41.08    +20 42 53.6   0.0085 1.0013 158.6     15?   3.45 121.2   14 305 154   0
   2024 03 10 17:20  10 30 43.24    +20 42 35.5   0.0085 1.0013 158.6     15?   3.59 120.4   12 303 154   0
   2024 03 10 17:30  10 30 45.50    +20 42 17.2   0.0085 1.0013 158.6     15?   3.74 119.6   10 302 154   0
   2024 03 10 17:40  10 30 47.87    +20 41 58.6   0.0085 1.0013 158.6     15?   3.88 118.9    9 300 154   0
   2024 03 10 17:50  10 30 50.35    +20 41 39.7   0.0085 1.0013 158.7     15?   4.03 118.1    7 299 153   0
   2024 03 10 18:00  10 30 52.94    +20 41 20.7   0.0085 1.0013 158.7     15?   4.18 117.3    5 297 153   0
   2024 03 10 18:10  10 30 55.64    +20 41 01.4   0.0085 1.0013 158.7     15?   4.33 116.6    3 296 153   0
   2024 03 10 18:20  10 30 58.46    +20 40 41.9   0.0085 1.0013 158.7     15?   4.48 115.9    1 295 153   0
   2024 03 10 18:30  10 31 01.39    +20 40 22.3   0.0085 1.0013 158.7     15?   4.64 115.1    0 293 153   0
   ................
   2024 03 11 08:40  10 38 09.71    +20 31 16.5   0.0084 1.0014 159.3 Cm  15?   3.89  81.8    4  62 147   1
   2024 03 11 08:50  10 38 12.39    +20 31 22.0   0.0084 1.0014 159.3 Cm  15?   3.73  81.7    6  61 147   1
   2024 03 11 09:00  10 38 14.97    +20 31 27.3   0.0084 1.0014 159.3 Nm  15?   3.57  81.7    8  60 147   1
   2024 03 11 09:10  10 38 17.43    +20 31 32.3   0.0084 1.0014 159.3 N   15?   3.42  81.8    9  58 147   1
   2024 03 11 09:20  10 38 19.78    +20 31 37.1   0.0084 1.0014 159.3 A   15?   3.27  81.9   11  57 147   1
   2024 03 11 09:30  10 38 22.03    +20 31 41.6   0.0084 1.0014 159.3 A   15?   3.12  82.1   13  55 146   1
   2024 03 11 09:40  10 38 24.18    +20 31 45.7   0.0084 1.0014 159.3 A   15?   2.97  82.3   15  53 146   1
   2024 03 11 09:50  10 38 26.23    +20 31 49.6   0.0084 1.0014 159.3     15?   2.83  82.6   16  52 146   1
   2024 03 11 10:00  10 38 28.18    +20 31 53.0   0.0084 1.0014 159.3     15?   2.69  83.0   18  50 146   1
   2024 03 11 10:10  10 38 30.04    +20 31 56.2   0.0084 1.0014 159.3     15?   2.56  83.5   20  48 146   1
   2024 03 11 10:20  10 38 31.80    +20 31 58.9   0.0084 1.0014 159.3     15?   2.43  84.1   21  46 146   1
   2024 03 11 10:30  10 38 33.48    +20 32 01.2   0.0084 1.0014 159.3     15?   2.31  84.9   23  45 146   1
   2024 03 11 10:40  10 38 35.08    +20 32 03.0   0.0084 1.0015 159.3     15?   2.19  85.8   24  43 146   1
   2024 03 11 10:50  10 38 36.59    +20 32 04.4   0.0084 1.0015 159.3     15?   2.08  86.8   26  40 146   1
   2024 03 11 11:00  10 38 38.03    +20 32 05.4   0.0084 1.0015 159.3     15?   1.97  88.0   27  38 146   1
   2024 03 11 11:10  10 38 39.40    +20 32 05.8   0.0084 1.0015 159.3     15?   1.87  89.4   28  36 145   1
   2024 03 11 11:20  10 38 40.70    +20 32 05.8   0.0084 1.0015 159.3     15?   1.78  91.0   30  34 145   1
   2024 03 11 11:30  10 38 41.94    +20 32 05.2   0.0084 1.0015 159.3     15?   1.70  92.8   31  31 145   1
   2024 03 11 11:40  10 38 43.12    +20 32 04.1   0.0084 1.0015 159.3     15?   1.63  94.8   32  29 145   1
   2024 03 11 11:50  10 38 44.25    +20 32 02.5   0.0084 1.0015 159.3     15?   1.56  97.0   33  26 145   1
   2024 03 11 12:00  10 38 45.33    +20 32 00.3   0.0084 1.0015 159.3     15?   1.50  99.4   34  24 145   1
   2024 03 11 12:10  10 38 46.36    +20 31 57.6   0.0084 1.0015 159.3     15?   1.46 102.0   35  21 145   1
   2024 03 11 12:20  10 38 47.36    +20 31 54.3   0.0084 1.0015 159.3     15?   1.42 104.6   36  18 145   1
   2024 03 11 12:30  10 38 48.32    +20 31 50.4   0.0084 1.0015 159.3     15?   1.39 107.4   36  16 144   1
   2024 03 11 12:40  10 38 49.25    +20 31 46.0   0.0084 1.0015 159.3     15?   1.38 110.2   37  13 144   1
   2024 03 11 12:50  10 38 50.16    +20 31 40.9   0.0084 1.0015 159.3     15?   1.37 112.9   37  10 144   1
   2024 03 11 13:00  10 38 51.05    +20 31 35.3   0.0084 1.0015 159.3     15?   1.38 115.6   37   7 144   2
   2024 03 11 13:10  10 38 51.93    +20 31 29.0   0.0084 1.0015 159.3     15?   1.39 118.1   38   4 144   2
   2024 03 11 13:20  10 38 52.80    +20 31 22.2   0.0084 1.0015 159.3     15?   1.41 120.3   38   1 144   2
   2024 03 11 13:30  10 38 53.67    +20 31 14.7   0.0084 1.0015 159.3  t  15?   1.45 122.4   38 358 144   2
   2024 03 11 13:40  10 38 54.54    +20 31 06.7   0.0084 1.0015 159.2     15?   1.48 124.2   38 355 144   2
   2024 03 11 13:50  10 38 55.42    +20 30 58.1   0.0084 1.0015 159.2     15?   1.53 125.7   37 352 144   2
   2024 03 11 14:00  10 38 56.31    +20 30 48.8   0.0084 1.0015 159.2     15?   1.58 127.0   37 349 143   2
   2024 03 11 14:10  10 38 57.23    +20 30 39.0   0.0084 1.0015 159.2     15?   1.64 128.0   37 346 143   2
   2024 03 11 14:20  10 38 58.16    +20 30 28.6   0.0084 1.0015 159.2     15?   1.71 128.8   36 343 143   2
   2024 03 11 14:30  10 38 59.13    +20 30 17.6   0.0084 1.0015 159.2     15?   1.78 129.3   36 341 143   2
   2024 03 11 14:40  10 39 00.12    +20 30 06.0   0.0084 1.0015 159.2     15?   1.86 129.7   35 338 143   2
   2024 03 11 14:50  10 39 01.16    +20 29 53.9   0.0084 1.0015 159.2     15?   1.94 129.9   34 335 143   2
   2024 03 11 15:00  10 39 02.24    +20 29 41.2   0.0084 1.0015 159.2     15?   2.02 129.9   33 333 143   2
   2024 03 11 15:10  10 39 03.38    +20 29 27.9   0.0084 1.0015 159.2     15?   2.11 129.7   32 330 143   2
   2024 03 11 15:20  10 39 04.56    +20 29 14.1   0.0084 1.0015 159.2     15?   2.21 129.5   31 328 142   2
   2024 03 11 15:30  10 39 05.80    +20 28 59.8   0.0084 1.0015 159.2     15?   2.31 129.1   30 325 142   2
   2024 03 11 15:40  10 39 07.11    +20 28 45.0   0.0084 1.0015 159.2     15?   2.41 128.7   29 323 142   2
   2024 03 11 15:50  10 39 08.49    +20 28 29.7   0.0084 1.0015 159.2     15?   2.52 128.1   27 321 142   2
   2024 03 11 16:00  10 39 09.93    +20 28 13.9   0.0084 1.0015 159.2     15?   2.63 127.5   26 319 142   2
   2024 03 11 16:10  10 39 11.45    +20 27 57.7   0.0084 1.0015 159.2     15?   2.74 126.9   24 317 142   2
   2024 03 11 16:20  10 39 13.06    +20 27 41.0   0.0084 1.0015 159.2     15?   2.86 126.2   23 315 142   2
   2024 03 11 16:30  10 39 14.74    +20 27 23.8   0.0084 1.0015 159.2     15?   2.99 125.5   21 313 142   2
   2024 03 11 16:40  10 39 16.52    +20 27 06.3   0.0084 1.0015 159.2     15?   3.11 124.8   20 311 141   2
   2024 03 11 16:50  10 39 18.38    +20 26 48.4   0.0084 1.0015 159.2     15?   3.24 124.0   18 309 141   2
   2024 03 11 17:00  10 39 20.34    +20 26 30.1   0.0084 1.0015 159.3     15?   3.37 123.2   17 307 141   2
   2024 03 11 17:10  10 39 22.40    +20 26 11.4   0.0084 1.0015 159.3     15?   3.51 122.4   15 306 141   2
   2024 03 11 17:20  10 39 24.56    +20 25 52.4   0.0084 1.0015 159.3     15?   3.65 121.6   13 304 141   2
   2024 03 11 17:30  10 39 26.82    +20 25 33.1   0.0084 1.0015 159.3     15?   3.79 120.9   11 302 141   2
   2024 03 11 17:40  10 39 29.19    +20 25 13.6   0.0084 1.0015 159.3     15?   3.93 120.1   10 301 141   3
   2024 03 11 17:50  10 39 31.67    +20 24 53.7   0.0084 1.0015 159.3     15?   4.08 119.3    8 299 141   3
   2024 03 11 18:00  10 39 34.25    +20 24 33.7   0.0084 1.0015 159.3     15?   4.23 118.5    6 298 141   3
   2024 03 11 18:10  10 39 36.95    +20 24 13.4   0.0084 1.0015 159.3     15?   4.38 117.7    4 297 140   3
   2024 03 11 18:20  10 39 39.77    +20 23 52.9   0.0084 1.0015 159.3     15?   4.53 117.0    2 295 140   3
   2024 03 11 18:30  10 39 42.70    +20 23 32.3   0.0084 1.0015 159.3     15?   4.68 116.2    0 294 140   3
   ................
   2024 03 12 08:30  10 46 53.15    +20 12 27.0   0.0084 1.0017 159.9 Cm  15?   4.19  83.8    1  65 134   5
   2024 03 12 08:40  10 46 56.06    +20 12 31.4   0.0084 1.0017 159.9 Cm  15?   4.03  83.8    3  63 134   5
   2024 03 12 08:50  10 46 58.85    +20 12 35.7   0.0084 1.0017 159.9 Nm  15?   3.87  83.9    5  62 134   5
   2024 03 12 09:00  10 47 01.52    +20 12 39.7   0.0084 1.0017 159.9 Nm  15?   3.71  84.0    7  61 134   5
   2024 03 12 09:10  10 47 04.09    +20 12 43.5   0.0084 1.0017 159.9 Nm  15?   3.55  84.1    9  59 134   5
   2024 03 12 09:20  10 47 06.54    +20 12 47.1   0.0084 1.0017 159.9 Am  15?   3.40  84.3   11  58 134   5
   2024 03 12 09:30  10 47 08.89    +20 12 50.4   0.0084 1.0017 159.9 Am  15?   3.25  84.5   12  56 134   5
   2024 03 12 09:40  10 47 11.14    +20 12 53.4   0.0084 1.0017 159.9 Am  15?   3.10  84.8   14  54 134   5
   2024 03 12 09:50  10 47 13.28    +20 12 56.1   0.0084 1.0017 159.9     15?   2.96  85.2   16  53 133   5
   2024 03 12 10:00  10 47 15.32    +20 12 58.4   0.0084 1.0017 159.9     15?   2.82  85.7   18  51 133   5
   2024 03 12 10:10  10 47 17.27    +20 13 00.3   0.0084 1.0017 159.9     15?   2.68  86.3   19  49 133   6
   2024 03 12 10:20  10 47 19.13    +20 13 01.9   0.0084 1.0017 159.9     15?   2.55  86.9   21  48 133   6
   2024 03 12 10:30  10 47 20.89    +20 13 03.1   0.0084 1.0017 159.9     15?   2.43  87.8   22  46 133   6
   2024 03 12 10:40  10 47 22.57    +20 13 03.9   0.0084 1.0017 159.9     15?   2.31  88.7   24  44 133   6
   2024 03 12 10:50  10 47 24.17    +20 13 04.2   0.0084 1.0017 159.9     15?   2.20  89.8   25  42 133   6
   2024 03 12 11:00  10 47 25.70    +20 13 04.0   0.0084 1.0017 159.9     15?   2.09  91.1   27  40 133   6
   2024 03 12 11:10  10 47 27.14    +20 13 03.4   0.0084 1.0017 159.9     15?   1.99  92.5   28  37 133   6
   2024 03 12 11:20  10 47 28.52    +20 13 02.3   0.0084 1.0017 159.9     15?   1.90  94.1   29  35 133   6
   2024 03 12 11:30  10 47 29.83    +20 13 00.7   0.0084 1.0017 159.9     15?   1.81  95.9   31  33 132   6
   2024 03 12 11:40  10 47 31.09    +20 12 58.6   0.0084 1.0017 159.9     15?   1.74  97.9   32  30 132   6
   2024 03 12 11:50  10 47 32.28    +20 12 55.9   0.0084 1.0017 159.9     15?   1.67 100.0   33  28 132   6
   2024 03 12 12:00  10 47 33.43    +20 12 52.8   0.0084 1.0017 159.9     15?   1.62 102.4   34  25 132   6
   2024 03 12 12:10  10 47 34.53    +20 12 49.0   0.0084 1.0017 159.9     15?   1.57 104.8   35  23 132   6
   2024 03 12 12:20  10 47 35.59    +20 12 44.7   0.0084 1.0017 159.9     15?   1.53 107.4   35  20 132   6
   2024 03 12 12:30  10 47 36.61    +20 12 39.9   0.0084 1.0017 159.9     15?   1.51 110.0   36  17 132   6
   2024 03 12 12:40  10 47 37.60    +20 12 34.4   0.0084 1.0017 159.9     15?   1.49 112.6   37  14 132   6
   2024 03 12 12:50  10 47 38.56    +20 12 28.4   0.0084 1.0017 159.9     15?   1.48 115.2   37  11 132   6
   2024 03 12 13:00  10 47 39.51    +20 12 21.8   0.0084 1.0017 159.9     15?   1.49 117.7   38   8 131   6
   2024 03 12 13:10  10 47 40.43    +20 12 14.6   0.0084 1.0017 159.9     15?   1.50 120.0   38   6 131   6
   2024 03 12 13:20  10 47 41.35    +20 12 06.8   0.0084 1.0017 159.9     15?   1.52 122.2   38   3 131   6
   2024 03 12 13:30  10 47 42.26    +20 11 58.4   0.0084 1.0017 159.9     15?   1.55 124.1   38   0 131   6
   2024 03 12 13:40  10 47 43.17    +20 11 49.4   0.0084 1.0017 159.9  t  15?   1.59 125.8   38 356 131   6
   2024 03 12 13:50  10 47 44.09    +20 11 39.9   0.0084 1.0017 159.9     15?   1.63 127.2   38 353 131   7
   2024 03 12 14:00  10 47 45.02    +20 11 29.7   0.0084 1.0017 159.9     15?   1.68 128.4   38 351 131   7
   2024 03 12 14:10  10 47 45.97    +20 11 19.0   0.0084 1.0017 159.9     15?   1.74 129.4   37 348 131   7
   2024 03 12 14:20  10 47 46.93    +20 11 07.6   0.0084 1.0017 159.9     15?   1.80 130.1   37 345 131   7
   2024 03 12 14:30  10 47 47.93    +20 10 55.7   0.0084 1.0017 159.9     15?   1.87 130.7   36 342 130   7
   2024 03 12 14:40  10 47 48.95    +20 10 43.2   0.0084 1.0017 159.9     15?   1.95 131.0   35 339 130   7
   2024 03 12 14:50  10 47 50.01    +20 10 30.2   0.0084 1.0018 159.9     15?   2.02 131.2   35 336 130   7
   2024 03 12 15:00  10 47 51.12    +20 10 16.6   0.0084 1.0018 159.9     15?   2.11 131.2   34 334 130   7
   2024 03 12 15:10  10 47 52.27    +20 10 02.4   0.0084 1.0018 159.9     15?   2.20 131.1   33 331 130   7
   2024 03 12 15:20  10 47 53.47    +20 09 47.7   0.0084 1.0018 159.9     15?   2.29 130.8   32 329 130   7
   2024 03 12 15:30  10 47 54.73    +20 09 32.5   0.0084 1.0018 159.9     15?   2.38 130.5   31 326 130   7
   2024 03 12 15:40  10 47 56.05    +20 09 16.8   0.0084 1.0018 159.9     15?   2.49 130.0   29 324 130   7
   2024 03 12 15:50  10 47 57.44    +20 09 00.5   0.0084 1.0018 159.9     15?   2.59 129.5   28 322 129   7
   2024 03 12 16:00  10 47 58.89    +20 08 43.8   0.0084 1.0018 159.9     15?   2.70 128.9   27 319 129   7
   2024 03 12 16:10  10 48 00.42    +20 08 26.7   0.0084 1.0018 159.9     15?   2.81 128.2   25 317 129   7
   2024 03 12 16:20  10 48 02.03    +20 08 09.0   0.0084 1.0018 159.9     15?   2.93 127.5   24 315 129   7
   2024 03 12 16:30  10 48 03.72    +20 07 51.0   0.0084 1.0018 159.9     15?   3.05 126.8   22 313 129   7
   2024 03 12 16:40  10 48 05.50    +20 07 32.5   0.0084 1.0018 159.9     15?   3.17 126.1   21 311 129   8
   2024 03 12 16:50  10 48 07.36    +20 07 13.6   0.0084 1.0018 159.9     15?   3.30 125.3   19 310 129   8
   2024 03 12 17:00  10 48 09.32    +20 06 54.4   0.0084 1.0018 159.9     15?   3.43 124.5   18 308 129   8
   2024 03 12 17:10  10 48 11.38    +20 06 34.8   0.0084 1.0018 159.9     15?   3.56 123.7   16 306 129   8
   2024 03 12 17:20  10 48 13.54    +20 06 14.8   0.0084 1.0018 159.9     15?   3.70 122.9   14 304 128   8
   2024 03 12 17:30  10 48 15.79    +20 05 54.6   0.0084 1.0018 159.9     15?   3.84 122.1   12 303 128   8
   2024 03 12 17:40  10 48 18.16    +20 05 34.0   0.0084 1.0018 159.9     15?   3.98 121.3   11 301 128   8
   2024 03 12 17:50  10 48 20.63    +20 05 13.2   0.0084 1.0018 159.9     15?   4.13 120.5    9 300 128   8
   2024 03 12 18:00  10 48 23.21    +20 04 52.2   0.0084 1.0018 159.9     15?   4.28 119.7    7 298 128   8
   2024 03 12 18:10  10 48 25.90    +20 04 30.9   0.0084 1.0018 159.9     15?   4.42 118.9    5 297 128   8
   2024 03 12 18:20  10 48 28.71    +20 04 09.4   0.0084 1.0018 159.9     15?   4.58 118.1    3 296 128   8
   2024 03 12 18:30  10 48 31.63    +20 03 47.7   0.0084 1.0018 159.9     15?   4.73 117.4    1 294 128   8
   2024 03 12 18:40  10 48 34.67    +20 03 25.9   0.0084 1.0018 159.9     15?   4.88 116.6    0 293 127   8
   ................
   2024 03 13 08:30  10 55 46.58    +19 50 45.2   0.0084 1.0019 160.5 Cm  15?   4.34  85.8    0  66 122  12
   2024 03 13 08:40  10 55 49.58    +19 50 48.3   0.0084 1.0019 160.5 Cm  15?   4.17  85.9    2  64 121  12
   2024 03 13 08:50  10 55 52.48    +19 50 51.2   0.0084 1.0019 160.5 Nm  15?   4.01  86.0    4  63 121  12
   2024 03 13 09:00  10 55 55.25    +19 50 54.0   0.0084 1.0019 160.5 Nm  15?   3.85  86.1    6  62 121  12
   2024 03 13 09:10  10 55 57.92    +19 50 56.5   0.0084 1.0019 160.5 Nm  15?   3.69  86.3    8  60 121  12
   2024 03 13 09:20  10 56 00.47    +19 50 58.8   0.0084 1.0019 160.5 Am  15?   3.53  86.5   10  59 121  12
   2024 03 13 09:30  10 56 02.92    +19 51 00.8   0.0084 1.0020 160.5 Am  15?   3.38  86.8   12  57 121  12
   2024 03 13 09:40  10 56 05.26    +19 51 02.5   0.0084 1.0020 160.5 Am  15?   3.23  87.2   14  56 121  12
   2024 03 13 09:50  10 56 07.50    +19 51 04.0   0.0084 1.0020 160.5  m  15?   3.09  87.7   15  54 121  12
   2024 03 13 10:00  10 56 09.64    +19 51 05.1   0.0084 1.0020 160.5  m  15?   2.95  88.2   17  52 121  12
   2024 03 13 10:10  10 56 11.67    +19 51 05.8   0.0084 1.0020 160.5  m  15?   2.81  88.9   19  51 121  12
   2024 03 13 10:20  10 56 13.62    +19 51 06.2   0.0084 1.0020 160.5     15?   2.68  89.6   20  49 121  12
   2024 03 13 10:30  10 56 15.47    +19 51 06.2   0.0084 1.0020 160.5     15?   2.55  90.5   22  47 121  13
   2024 03 13 10:40  10 56 17.24    +19 51 05.8   0.0083 1.0020 160.5     15?   2.43  91.5   23  45 121  13
   2024 03 13 10:50  10 56 18.92    +19 51 04.9   0.0083 1.0020 160.5     15?   2.32  92.7   25  43 120  13
   2024 03 13 11:00  10 56 20.52    +19 51 03.7   0.0083 1.0020 160.5     15?   2.21  94.0   26  41 120  13
   2024 03 13 11:10  10 56 22.05    +19 51 01.9   0.0083 1.0020 160.5     15?   2.11  95.4   28  39 120  13
   2024 03 13 11:20  10 56 23.50    +19 50 59.7   0.0083 1.0020 160.5     15?   2.02  97.0   29  36 120  13
   2024 03 13 11:30  10 56 24.89    +19 50 57.0   0.0083 1.0020 160.5     15?   1.93  98.8   30  34 120  13
   2024 03 13 11:40  10 56 26.22    +19 50 53.8   0.0083 1.0020 160.5     15?   1.86 100.7   32  32 120  13
   2024 03 13 11:50  10 56 27.48    +19 50 50.0   0.0083 1.0020 160.5     15?   1.79 102.9   33  29 120  13
   2024 03 13 12:00  10 56 28.69    +19 50 45.8   0.0083 1.0020 160.5     15?   1.73 105.1   34  27 120  13
   2024 03 13 12:10  10 56 29.86    +19 50 41.0   0.0083 1.0020 160.5     15?   1.69 107.5   35  24 120  13
   2024 03 13 12:20  10 56 30.98    +19 50 35.7   0.0083 1.0020 160.5     15?   1.65 109.9   35  21 120  13
   2024 03 13 12:30  10 56 32.06    +19 50 29.8   0.0083 1.0020 160.5     15?   1.62 112.4   36  19 119  13
   2024 03 13 12:40  10 56 33.10    +19 50 23.3   0.0083 1.0020 160.5     15?   1.60 114.9   37  16 119  13
   2024 03 13 12:50  10 56 34.12    +19 50 16.3   0.0083 1.0020 160.5     15?   1.60 117.3   37  13 119  13
   2024 03 13 13:00  10 56 35.12    +19 50 08.7   0.0083 1.0020 160.5     15?   1.60 119.6   38  10 119  13
   2024 03 13 13:10  10 56 36.09    +19 50 00.5   0.0083 1.0020 160.5     15?   1.61 121.8   38   7 119  13
   2024 03 13 13:20  10 56 37.05    +19 49 51.7   0.0083 1.0020 160.5     15?   1.63 123.8   38   4 119  14
   2024 03 13 13:30  10 56 38.01    +19 49 42.3   0.0083 1.0020 160.5     15?   1.66 125.7   39   1 119  14
   2024 03 13 13:40  10 56 38.96    +19 49 32.4   0.0083 1.0020 160.5  t  15?   1.69 127.3   39 358 119  14
   2024 03 13 13:50  10 56 39.92    +19 49 21.9   0.0083 1.0020 160.5     15?   1.73 128.7   38 355 119  14
   2024 03 13 14:00  10 56 40.88    +19 49 10.7   0.0083 1.0020 160.5     15?   1.78 129.8   38 352 119  14
   2024 03 13 14:10  10 56 41.86    +19 48 59.0   0.0083 1.0020 160.5     15?   1.84 130.7   38 349 118  14
   2024 03 13 14:20  10 56 42.86    +19 48 46.8   0.0083 1.0020 160.5     15?   1.90 131.5   37 346 118  14
   2024 03 13 14:30  10 56 43.88    +19 48 33.9   0.0083 1.0020 160.5     15?   1.96 132.0   37 343 118  14
   2024 03 13 14:40  10 56 44.93    +19 48 20.5   0.0083 1.0020 160.5     15?   2.04 132.3   36 340 118  14
   2024 03 13 14:50  10 56 46.01    +19 48 06.5   0.0083 1.0020 160.5     15?   2.11 132.5   35 338 118  14
   2024 03 13 15:00  10 56 47.13    +19 47 52.0   0.0083 1.0020 160.5     15?   2.19 132.5   35 335 118  14
   2024 03 13 15:10  10 56 48.30    +19 47 36.9   0.0083 1.0020 160.5     15?   2.28 132.4   34 332 118  14
   2024 03 13 15:20  10 56 49.52    +19 47 21.3   0.0083 1.0020 160.5     15?   2.37 132.1   33 330 118  14
   2024 03 13 15:30  10 56 50.79    +19 47 05.1   0.0083 1.0020 160.5     15?   2.46 131.8   32 327 118  14
   2024 03 13 15:40  10 56 52.12    +19 46 48.5   0.0083 1.0020 160.5     15?   2.56 131.3   30 325 117  15
   2024 03 13 15:50  10 56 53.52    +19 46 31.4   0.0083 1.0020 160.5     15?   2.66 130.8   29 322 117  15
   2024 03 13 16:00  10 56 54.98    +19 46 13.7   0.0083 1.0020 160.5     15?   2.77 130.2   28 320 117  15
   2024 03 13 16:10  10 56 56.51    +19 45 55.6   0.0083 1.0020 160.5     15?   2.88 129.5   26 318 117  15
   2024 03 13 16:20  10 56 58.13    +19 45 37.1   0.0083 1.0020 160.5     15?   2.99 128.8   25 316 117  15
   2024 03 13 16:30  10 56 59.82    +19 45 18.1   0.0083 1.0020 160.5     15?   3.11 128.1   24 314 117  15
   2024 03 13 16:40  10 57 01.59    +19 44 58.7   0.0083 1.0020 160.5     15?   3.23 127.3   22 312 117  15
   2024 03 13 16:50  10 57 03.46    +19 44 38.9   0.0083 1.0020 160.5     15?   3.36 126.6   20 310 117  15
   2024 03 13 17:00  10 57 05.41    +19 44 18.7   0.0083 1.0020 160.5     15?   3.49 125.8   19 308 116  15
   2024 03 13 17:10  10 57 07.47    +19 43 58.1   0.0083 1.0020 160.5     15?   3.62 124.9   17 307 116  15
   2024 03 13 17:20  10 57 09.61    +19 43 37.3   0.0083 1.0020 160.5     15?   3.75 124.1   15 305 116  15
   2024 03 13 17:30  10 57 11.87    +19 43 16.1   0.0083 1.0020 160.5     15?   3.89 123.3   14 303 116  15
   2024 03 13 17:40  10 57 14.22    +19 42 54.5   0.0083 1.0020 160.5     15?   4.03 122.5   12 302 116  15
   2024 03 13 17:50  10 57 16.68    +19 42 32.8   0.0083 1.0020 160.5     15?   4.17 121.7   10 300 116  16
   2024 03 13 18:00  10 57 19.25    +19 42 10.7   0.0083 1.0020 160.5     15?   4.32 120.9    8 299 116  16
   2024 03 13 18:10  10 57 21.93    +19 41 48.4   0.0084 1.0020 160.5     15?   4.47 120.1    6 297 116  16
   2024 03 13 18:20  10 57 24.73    +19 41 26.0   0.0084 1.0020 160.5     15?   4.62 119.3    4 296 116  16
   2024 03 13 18:30  10 57 27.64    +19 41 03.3   0.0084 1.0020 160.5     15?   4.77 118.5    2 295 115  16
   2024 03 13 18:40  10 57 30.66    +19 40 40.5   0.0084 1.0021 160.6     15?   4.92 117.7    1 293 115  16
   ................
   2024 03 14 08:30  11 04 46.51    +19 26 01.6   0.0083 1.0022 161.1 Cr  15?   4.48  87.8    0  67 109  21
   2024 03 14 08:40  11 04 49.62    +19 26 03.3   0.0083 1.0022 161.1 Cm  15?   4.32  87.9    2  65 109  21
   2024 03 14 08:50  11 04 52.61    +19 26 04.8   0.0083 1.0022 161.1 Nm  15?   4.15  88.0    4  64 109  21
   2024 03 14 09:00  11 04 55.49    +19 26 06.2   0.0083 1.0022 161.1 Nm  15?   3.99  88.2    5  63 109  21
   2024 03 14 09:10  11 04 58.25    +19 26 07.3   0.0083 1.0022 161.1 Nm  15?   3.83  88.5    7  61 109  21
   2024 03 14 09:20  11 05 00.91    +19 26 08.3   0.0083 1.0022 161.1 Am  15?   3.67  88.8    9  60 109  21
   2024 03 14 09:30  11 05 03.45    +19 26 09.0   0.0083 1.0022 161.1 Am  15?   3.52  89.1   11  58 109  21
   2024 03 14 09:40  11 05 05.88    +19 26 09.4   0.0083 1.0022 161.1 Am  15?   3.37  89.6   13  57 109  21
   2024 03 14 09:50  11 05 08.21    +19 26 09.5   0.0083 1.0022 161.1  m  15?   3.22  90.1   15  55 109  21
   2024 03 14 10:00  11 05 10.44    +19 26 09.3   0.0083 1.0022 161.1  m  15?   3.08  90.7   16  53 109  21
   2024 03 14 10:10  11 05 12.57    +19 26 08.8   0.0083 1.0022 161.1  m  15?   2.94  91.4   18  52 109  21
   2024 03 14 10:20  11 05 14.60    +19 26 07.9   0.0083 1.0022 161.1  m  15?   2.81  92.2   20  50 109  21
   2024 03 14 10:30  11 05 16.54    +19 26 06.7   0.0083 1.0022 161.1  m  15?   2.68  93.1   21  48 109  21
   2024 03 14 10:40  11 05 18.39    +19 26 05.1   0.0083 1.0022 161.1  m  15?   2.56  94.2   23  46 109  21
   2024 03 14 10:50  11 05 20.15    +19 26 03.0   0.0083 1.0022 161.1  m  15?   2.45  95.3   25  44 108  21
   2024 03 14 11:00  11 05 21.83    +19 26 00.5   0.0083 1.0022 161.1     15?   2.34  96.7   26  42 108  21
   2024 03 14 11:10  11 05 23.44    +19 25 57.6   0.0083 1.0022 161.1     15?   2.24  98.1   27  40 108  21
   2024 03 14 11:20  11 05 24.97    +19 25 54.2   0.0083 1.0022 161.1     15?   2.14  99.7   29  38 108  22
   2024 03 14 11:30  11 05 26.43    +19 25 50.4   0.0083 1.0022 161.1     15?   2.06 101.5   30  36 108  22
   2024 03 14 11:40  11 05 27.82    +19 25 46.0   0.0083 1.0022 161.1     15?   1.98 103.4   31  33 108  22
   2024 03 14 11:50  11 05 29.15    +19 25 41.2   0.0083 1.0022 161.1     15?   1.91 105.4   32  31 108  22
   2024 03 14 12:00  11 05 30.43    +19 25 35.8   0.0083 1.0022 161.1     15?   1.86 107.6   34  28 108  22
   2024 03 14 12:10  11 05 31.66    +19 25 29.9   0.0083 1.0022 161.1     15?   1.81 109.9   34  26 108  22
   2024 03 14 12:20  11 05 32.83    +19 25 23.5   0.0083 1.0022 161.1     15?   1.77 112.2   35  23 108  22
   2024 03 14 12:30  11 05 33.97    +19 25 16.6   0.0083 1.0022 161.1     15?   1.74 114.6   36  20 108  22
   2024 03 14 12:40  11 05 35.07    +19 25 09.0   0.0083 1.0022 161.1     15?   1.72 116.9   37  17 108  22
   2024 03 14 12:50  11 05 36.14    +19 25 01.0   0.0083 1.0022 161.1     15?   1.71 119.2   38  15 107  22
   2024 03 14 13:00  11 05 37.19    +19 24 52.3   0.0083 1.0023 161.1     15?   1.71 121.4   38  12 107  22
   2024 03 14 13:10  11 05 38.21    +19 24 43.1   0.0083 1.0023 161.1     15?   1.72 123.5   38   9 107  22
   2024 03 14 13:20  11 05 39.22    +19 24 33.3   0.0083 1.0023 161.1     15?   1.74 125.4   39   6 107  22
   2024 03 14 13:30  11 05 40.21    +19 24 23.0   0.0083 1.0023 161.1     15?   1.76 127.1   39   3 107  22
   2024 03 14 13:40  11 05 41.20    +19 24 12.1   0.0083 1.0023 161.1     15?   1.79 128.7   39   0 107  22
   2024 03 14 13:50  11 05 42.19    +19 24 00.6   0.0083 1.0023 161.1  t  15?   1.83 130.0   39 356 107  23
   2024 03 14 14:00  11 05 43.19    +19 23 48.5   0.0083 1.0023 161.1     15?   1.88 131.1   39 353 107  23
   2024 03 14 14:10  11 05 44.20    +19 23 35.8   0.0083 1.0023 161.1     15?   1.93 132.0   38 350 107  23
   2024 03 14 14:20  11 05 45.22    +19 23 22.6   0.0083 1.0023 161.1     15?   1.99 132.7   38 347 107  23
   2024 03 14 14:30  11 05 46.27    +19 23 08.8   0.0083 1.0023 161.1     15?   2.05 133.2   38 344 106  23
   2024 03 14 14:40  11 05 47.34    +19 22 54.4   0.0083 1.0023 161.1     15?   2.12 133.6   37 342 106  23
   2024 03 14 14:50  11 05 48.44    +19 22 39.5   0.0083 1.0023 161.1     15?   2.20 133.7   36 339 106  23
   2024 03 14 15:00  11 05 49.58    +19 22 24.0   0.0083 1.0023 161.1     15?   2.27 133.8   35 336 106  23
   2024 03 14 15:10  11 05 50.77    +19 22 08.0   0.0083 1.0023 161.1     15?   2.36 133.6   35 333 106  23
   2024 03 14 15:20  11 05 52.00    +19 21 51.5   0.0083 1.0023 161.1     15?   2.44 133.4   34 331 106  23
   2024 03 14 15:30  11 05 53.28    +19 21 34.5   0.0083 1.0023 161.1     15?   2.54 133.0   33 328 106  23
   2024 03 14 15:40  11 05 54.62    +19 21 16.9   0.0083 1.0023 161.1     15?   2.63 132.6   31 326 106  23
   2024 03 14 15:50  11 05 56.02    +19 20 58.8   0.0083 1.0023 161.1     15?   2.73 132.1   30 323 106  24
   2024 03 14 16:00  11 05 57.48    +19 20 40.3   0.0083 1.0023 161.1     15?   2.83 131.5   29 321 105  24
   2024 03 14 16:10  11 05 59.02    +19 20 21.3   0.0083 1.0023 161.1     15?   2.94 130.8   27 319 105  24
   2024 03 14 16:20  11 06 00.63    +19 20 01.8   0.0083 1.0023 161.1     15?   3.05 130.1   26 317 105  24
   2024 03 14 16:30  11 06 02.31    +19 19 41.9   0.0083 1.0023 161.1     15?   3.17 129.4   25 315 105  24
   2024 03 14 16:40  11 06 04.09    +19 19 21.6   0.0083 1.0023 161.1     15?   3.29 128.6   23 313 105  24
   2024 03 14 16:50  11 06 05.94    +19 19 00.9   0.0083 1.0023 161.1     15?   3.41 127.8   22 311 105  24
   2024 03 14 17:00  11 06 07.89    +19 18 39.8   0.0083 1.0023 161.1     15?   3.54 127.0   20 309 105  24
   2024 03 14 17:10  11 06 09.93    +19 18 18.3   0.0083 1.0023 161.1     15?   3.66 126.2   18 307 105  24
   2024 03 14 17:20  11 06 12.07    +19 17 56.5   0.0083 1.0023 161.1     15?   3.80 125.4   17 305 105  24
   2024 03 14 17:30  11 06 14.31    +19 17 34.4   0.0083 1.0023 161.1     15?   3.93 124.5   15 304 104  24
   2024 03 14 17:40  11 06 16.65    +19 17 11.9   0.0083 1.0023 161.1     15?   4.07 123.7   13 302 104  25
   2024 03 14 17:50  11 06 19.09    +19 16 49.2   0.0083 1.0023 161.1     15?   4.21 122.9   11 301 104  25
   2024 03 14 18:00  11 06 21.65    +19 16 26.2   0.0083 1.0023 161.1     15?   4.36 122.0    9 299 104  25
   2024 03 14 18:10  11 06 24.31    +19 16 03.0   0.0083 1.0023 161.2     15?   4.50 121.2    7 298 104  25
   2024 03 14 18:20  11 06 27.09    +19 15 39.6   0.0083 1.0023 161.2     15?   4.65 120.4    6 296 104  25
   2024 03 14 18:30  11 06 29.98    +19 15 15.9   0.0083 1.0023 161.2     15?   4.80 119.6    4 295 104  25
   2024 03 14 18:40  11 06 32.98    +19 14 52.1   0.0083 1.0023 161.2     15?   4.95 118.8    2 294 104  25
   2024 03 14 18:50  11 06 36.10    +19 14 28.2   0.0083 1.0023 161.2 A   15?   5.11 118.0    0 292 104  25
   ................
   2024 03 15 08:40  11 13 55.35    +18 58 14.8   0.0083 1.0025 161.7 Cm  15?   4.46  89.8    1  66  98  31
   2024 03 15 08:50  11 13 58.44    +18 58 14.9   0.0083 1.0025 161.7 Nm  15?   4.30  90.0    3  65  98  31
   2024 03 15 09:00  11 14 01.41    +18 58 14.8   0.0083 1.0025 161.7 Nm  15?   4.13  90.2    5  64  98  31
   2024 03 15 09:10  11 14 04.27    +18 58 14.6   0.0083 1.0025 161.7 Nm  15?   3.97  90.5    7  62  98  31
   2024 03 15 09:20  11 14 07.01    +18 58 14.1   0.0083 1.0025 161.7 Am  15?   3.81  90.9    9  61  97  31
   2024 03 15 09:30  11 14 09.64    +18 58 13.4   0.0083 1.0025 161.7 Am  15?   3.66  91.3   10  59  97  31
   2024 03 15 09:40  11 14 12.17    +18 58 12.5   0.0083 1.0025 161.7 Am  15?   3.51  91.8   12  58  97  31
   2024 03 15 09:50  11 14 14.59    +18 58 11.3   0.0083 1.0025 161.7  m  15?   3.36  92.3   14  56  97  31
   2024 03 15 10:00  11 14 16.90    +18 58 09.8   0.0083 1.0025 161.7  m  15?   3.22  93.0   16  55  97  31
   2024 03 15 10:10  11 14 19.12    +18 58 07.9   0.0083 1.0025 161.7  m  15?   3.08  93.8   18  53  97  31
   2024 03 15 10:20  11 14 21.23    +18 58 05.8   0.0083 1.0025 161.7  m  15?   2.94  94.6   19  51  97  31
   2024 03 15 10:30  11 14 23.25    +18 58 03.2   0.0083 1.0025 161.7  m  15?   2.81  95.6   21  49  97  31
   2024 03 15 10:40  11 14 25.18    +18 58 00.3   0.0083 1.0025 161.7  m  15?   2.69  96.6   23  48  97  31
   2024 03 15 10:50  11 14 27.02    +18 57 57.0   0.0083 1.0025 161.7  m  15?   2.58  97.8   24  46  97  31
   2024 03 15 11:00  11 14 28.78    +18 57 53.3   0.0083 1.0025 161.7  m  15?   2.47  99.2   26  44  97  31
   2024 03 15 11:10  11 14 30.46    +18 57 49.2   0.0083 1.0025 161.7  m  15?   2.36 100.6   27  42  97  31
   2024 03 15 11:20  11 14 32.06    +18 57 44.6   0.0083 1.0025 161.7  m  15?   2.27 102.2   28  39  97  31
   2024 03 15 11:30  11 14 33.59    +18 57 39.6   0.0083 1.0025 161.7  m  15?   2.18 103.9   30  37  97  31
   2024 03 15 11:40  11 14 35.05    +18 57 34.1   0.0083 1.0025 161.7     15?   2.11 105.8   31  35  97  32
   2024 03 15 11:50  11 14 36.45    +18 57 28.1   0.0083 1.0025 161.7     15?   2.04 107.8   32  32  97  32
   2024 03 15 12:00  11 14 37.79    +18 57 21.6   0.0083 1.0025 161.7     15?   1.98 109.9   33  30  96  32
   2024 03 15 12:10  11 14 39.07    +18 57 14.6   0.0083 1.0025 161.7     15?   1.93 112.1   34  27  96  32
   2024 03 15 12:20  11 14 40.31    +18 57 07.1   0.0083 1.0025 161.7     15?   1.89 114.3   35  25  96  32
   2024 03 15 12:30  11 14 41.50    +18 56 59.0   0.0083 1.0025 161.7     15?   1.86 116.6   36  22  96  32
   2024 03 15 12:40  11 14 42.65    +18 56 50.4   0.0083 1.0025 161.7     15?   1.84 118.8   37  19  96  32
   2024 03 15 12:50  11 14 43.77    +18 56 41.3   0.0083 1.0025 161.7     15?   1.83 121.0   38  16  96  32
   2024 03 15 13:00  11 14 44.86    +18 56 31.6   0.0083 1.0025 161.7     15?   1.82 123.1   38  13  96  32
   2024 03 15 13:10  11 14 45.93    +18 56 21.4   0.0083 1.0025 161.7     15?   1.83 125.1   39  10  96  32
   2024 03 15 13:20  11 14 46.98    +18 56 10.6   0.0083 1.0025 161.7     15?   1.84 126.9   39   7  96  32
   2024 03 15 13:30  11 14 48.01    +18 55 59.2   0.0083 1.0025 161.7     15?   1.87 128.5   39   4  96  32
   2024 03 15 13:40  11 14 49.04    +18 55 47.3   0.0083 1.0025 161.7     15?   1.90 130.0   39   1  96  32
   2024 03 15 13:50  11 14 50.06    +18 55 34.8   0.0083 1.0025 161.7  t  15?   1.93 131.3   39 358  96  32
   2024 03 15 14:00  11 14 51.09    +18 55 21.8   0.0083 1.0025 161.7     15?   1.98 132.4   39 355  95  32
   2024 03 15 14:10  11 14 52.12    +18 55 08.1   0.0083 1.0025 161.7     15?   2.03 133.3   39 352  95  33
   2024 03 15 14:20  11 14 53.17    +18 54 54.0   0.0083 1.0025 161.7     15?   2.08 133.9   39 349  95  33
   2024 03 15 14:30  11 14 54.24    +18 54 39.2   0.0083 1.0025 161.7     15?   2.14 134.5   38 346  95  33
   2024 03 15 14:40  11 14 55.33    +18 54 23.9   0.0083 1.0025 161.7     15?   2.21 134.8   38 343  95  33
   2024 03 15 14:50  11 14 56.45    +18 54 08.1   0.0083 1.0025 161.7     15?   2.28 135.0   37 340  95  33
   2024 03 15 15:00  11 14 57.60    +18 53 51.7   0.0083 1.0025 161.7     15?   2.35 135.0   36 337  95  33
   2024 03 15 15:10  11 14 58.79    +18 53 34.8   0.0083 1.0025 161.7     15?   2.43 134.9   35 334  95  33
   2024 03 15 15:20  11 15 00.03    +18 53 17.4   0.0083 1.0025 161.7     15?   2.52 134.6   35 332  95  33
   2024 03 15 15:30  11 15 01.32    +18 52 59.4   0.0083 1.0025 161.7     15?   2.61 134.3   34 329  95  33
   2024 03 15 15:40  11 15 02.66    +18 52 41.0   0.0083 1.0025 161.7     15?   2.70 133.9   32 327  94  33
   2024 03 15 15:50  11 15 04.06    +18 52 22.0   0.0083 1.0025 161.7     15?   2.79 133.3   31 324  94  33
   2024 03 15 16:00  11 15 05.52    +18 52 02.6   0.0083 1.0025 161.7     15?   2.90 132.8   30 322  94  34
   2024 03 15 16:10  11 15 07.06    +18 51 42.7   0.0083 1.0026 161.7     15?   3.00 132.1   29 320  94  34
   2024 03 15 16:20  11 15 08.66    +18 51 22.4   0.0083 1.0026 161.7     15?   3.11 131.4   27 318  94  34
   2024 03 15 16:30  11 15 10.34    +18 51 01.6   0.0083 1.0026 161.7     15?   3.22 130.7   26 315  94  34
   2024 03 15 16:40  11 15 12.10    +18 50 40.4   0.0083 1.0026 161.7     15?   3.34 129.9   24 313  94  34
   2024 03 15 16:50  11 15 13.95    +18 50 18.8   0.0083 1.0026 161.7     15?   3.46 129.1   23 311  94  34
   2024 03 15 17:00  11 15 15.88    +18 49 56.8   0.0083 1.0026 161.7     15?   3.58 128.3   21 310  94  34
   2024 03 15 17:10  11 15 17.91    +18 49 34.4   0.0083 1.0026 161.7     15?   3.71 127.4   19 308  94  34
   2024 03 15 17:20  11 15 20.03    +18 49 11.7   0.0083 1.0026 161.7     15?   3.84 126.6   18 306  93  34
   2024 03 15 17:30  11 15 22.25    +18 48 48.7   0.0083 1.0026 161.7     15?   3.97 125.7   16 304  93  34
   2024 03 15 17:40  11 15 24.57    +18 48 25.4   0.0083 1.0026 161.7     15?   4.11 124.9   14 303  93  34
   2024 03 15 17:50  11 15 26.99    +18 48 01.7   0.0083 1.0026 161.7     15?   4.24 124.0   12 301  93  35
   2024 03 15 18:00  11 15 29.52    +18 47 37.8   0.0083 1.0026 161.8     15?   4.39 123.2   11 300  93  35
   2024 03 15 18:10  11 15 32.16    +18 47 13.7   0.0083 1.0026 161.8     15?   4.53 122.3    9 298  93  35
   2024 03 15 18:20  11 15 34.91    +18 46 49.4   0.0083 1.0026 161.8     15?   4.68 121.5    7 297  93  35
   2024 03 15 18:30  11 15 37.78    +18 46 24.8   0.0083 1.0026 161.8     15?   4.83 120.7    5 295  93  35
   2024 03 15 18:40  11 15 40.76    +18 46 00.1   0.0083 1.0026 161.8     15?   4.98 119.9    3 294  93  35
   2024 03 15 18:50  11 15 43.85    +18 45 35.2   0.0083 1.0026 161.8 A   15?   5.13 119.1    1 292  92  35
   2024 03 15 19:00  11 15 47.07    +18 45 10.1   0.0083 1.0026 161.8 A   15?   5.28 118.3    0 291  92  35
   ................
   2024 03 16 08:40  11 23 05.81    +18 27 23.6   0.0083 1.0027 162.3 Cm  15?   4.61  91.6    0  68  87  41
   2024 03 16 08:50  11 23 08.99    +18 27 22.2   0.0083 1.0027 162.3 Nm  15?   4.44  91.9    2  66  87  41
   2024 03 16 09:00  11 23 12.05    +18 27 20.7   0.0083 1.0027 162.3 Nm  15?   4.28  92.2    4  65  86  41
   2024 03 16 09:10  11 23 15.00    +18 27 19.0   0.0083 1.0027 162.3 Nm  15?   4.11  92.5    6  63  86  41
   2024 03 16 09:20  11 23 17.83    +18 27 17.1   0.0083 1.0027 162.3 Am  15?   3.96  92.9    8  62  86  41
   2024 03 16 09:30  11 23 20.55    +18 27 15.0   0.0083 1.0027 162.3 Am  15?   3.80  93.4   10  61  86  41
   2024 03 16 09:40  11 23 23.16    +18 27 12.7   0.0083 1.0027 162.3 Am  15?   3.65  93.9   12  59  86  41
   2024 03 16 09:50  11 23 25.66    +18 27 10.1   0.0083 1.0027 162.3  m  15?   3.50  94.5   13  58  86  41
   2024 03 16 10:00  11 23 28.06    +18 27 07.2   0.0083 1.0027 162.3  m  15?   3.35  95.2   15  56  86  41
   2024 03 16 10:10  11 23 30.36    +18 27 04.0   0.0083 1.0028 162.3  m  15?   3.21  96.0   17  54  86  41
   2024 03 16 10:20  11 23 32.55    +18 27 00.5   0.0083 1.0028 162.3  m  15?   3.08  96.9   19  53  86  41
   2024 03 16 10:30  11 23 34.65    +18 26 56.7   0.0083 1.0028 162.3  m  15?   2.95  97.8   20  51  86  42
   2024 03 16 10:40  11 23 36.66    +18 26 52.5   0.0083 1.0028 162.3  m  15?   2.82  98.9   22  49  86  42
   2024 03 16 10:50  11 23 38.57    +18 26 47.9   0.0083 1.0028 162.3  m  15?   2.71 100.1   24  47  86  42
   2024 03 16 11:00  11 23 40.40    +18 26 43.0   0.0083 1.0028 162.3  m  15?   2.60 101.5   25  45  86  42
   2024 03 16 11:10  11 23 42.15    +18 26 37.6   0.0083 1.0028 162.3  m  15?   2.49 102.9   27  43  86  42
   2024 03 16 11:20  11 23 43.82    +18 26 31.8   0.0083 1.0028 162.3  m  15?   2.40 104.5   28  41  86  42
   2024 03 16 11:30  11 23 45.42    +18 26 25.6   0.0083 1.0028 162.3  m  15?   2.31 106.2   30  39  86  42
   2024 03 16 11:40  11 23 46.94    +18 26 18.9   0.0082 1.0028 162.3  m  15?   2.23 108.0   31  36  86  42
   2024 03 16 11:50  11 23 48.40    +18 26 11.7   0.0082 1.0028 162.3  m  15?   2.16 110.0   32  34  86  42
   2024 03 16 12:00  11 23 49.80    +18 26 04.1   0.0082 1.0028 162.3  m  15?   2.10 112.0   33  32  85  42
   2024 03 16 12:10  11 23 51.14    +18 25 55.9   0.0082 1.0028 162.3  m  15?   2.05 114.1   34  29  85  42
   2024 03 16 12:20  11 23 52.43    +18 25 47.3   0.0082 1.0028 162.3  m  15?   2.01 116.2   35  26  85  42
   2024 03 16 12:30  11 23 53.67    +18 25 38.2   0.0082 1.0028 162.3     15?   1.98 118.4   36  24  85  42
   2024 03 16 12:40  11 23 54.87    +18 25 28.5   0.0082 1.0028 162.3     15?   1.95 120.5   37  21  85  42
   2024 03 16 12:50  11 23 56.04    +18 25 18.3   0.0082 1.0028 162.3     15?   1.94 122.6   38  18  85  42
   2024 03 16 13:00  11 23 57.17    +18 25 07.6   0.0082 1.0028 162.3     15?   1.93 124.6   38  15  85  42
   2024 03 16 13:10  11 23 58.27    +18 24 56.3   0.0082 1.0028 162.3     15?   1.94 126.5   39  12  85  42
   2024 03 16 13:20  11 23 59.36    +18 24 44.5   0.0082 1.0028 162.3     15?   1.95 128.3   39   9  85  43
   2024 03 16 13:30  11 24 00.43    +18 24 32.1   0.0082 1.0028 162.3     15?   1.97 129.9   40   6  85  43
   2024 03 16 13:40  11 24 01.49    +18 24 19.2   0.0082 1.0028 162.3     15?   2.00 131.3   40   3  85  43
   2024 03 16 13:50  11 24 02.54    +18 24 05.8   0.0082 1.0028 162.3     15?   2.03 132.5   40   0  85  43
   2024 03 16 14:00  11 24 03.59    +18 23 51.7   0.0082 1.0028 162.3  t  15?   2.07 133.6   40 357  85  43
   2024 03 16 14:10  11 24 04.65    +18 23 37.2   0.0082 1.0028 162.3     15?   2.12 134.5   40 353  85  43
   2024 03 16 14:20  11 24 05.71    +18 23 22.1   0.0082 1.0028 162.3     15?   2.17 135.1   39 350  84  43
   2024 03 16 14:30  11 24 06.80    +18 23 06.4   0.0082 1.0028 162.3     15?   2.23 135.6   39 347  84  43
   2024 03 16 14:40  11 24 07.90    +18 22 50.2   0.0082 1.0028 162.3     15?   2.29 136.0   39 344  84  43
   2024 03 16 14:50  11 24 09.04    +18 22 33.4   0.0082 1.0028 162.3     15?   2.36 136.2   38 341  84  43
   2024 03 16 15:00  11 24 10.20    +18 22 16.2   0.0082 1.0028 162.3     15?   2.43 136.2   37 338  84  43
   2024 03 16 15:10  11 24 11.40    +18 21 58.4   0.0082 1.0028 162.3     15?   2.51 136.1   36 336  84  43
   2024 03 16 15:20  11 24 12.64    +18 21 40.1   0.0082 1.0028 162.3     15?   2.59 135.9   36 333  84  43
   2024 03 16 15:30  11 24 13.93    +18 21 21.2   0.0082 1.0028 162.3     15?   2.67 135.5   35 330  84  44
   2024 03 16 15:40  11 24 15.27    +18 21 01.9   0.0082 1.0028 162.3     15?   2.76 135.1   33 328  84  44
   2024 03 16 15:50  11 24 16.66    +18 20 42.1   0.0082 1.0028 162.3     15?   2.85 134.6   32 325  84  44
   2024 03 16 16:00  11 24 18.12    +18 20 21.8   0.0082 1.0028 162.3     15?   2.95 134.0   31 323  84  44
   2024 03 16 16:10  11 24 19.65    +18 20 01.1   0.0082 1.0028 162.3     15?   3.05 133.4   30 321  83  44
   2024 03 16 16:20  11 24 21.24    +18 19 39.9   0.0082 1.0028 162.3     15?   3.16 132.7   28 318  83  44
   2024 03 16 16:30  11 24 22.91    +18 19 18.3   0.0082 1.0028 162.3     15?   3.27 131.9   27 316  83  44
   2024 03 16 16:40  11 24 24.65    +18 18 56.3   0.0082 1.0028 162.3     15?   3.38 131.1   25 314  83  44
   2024 03 16 16:50  11 24 26.48    +18 18 33.8   0.0082 1.0028 162.3     15?   3.50 130.3   24 312  83  44
   2024 03 16 17:00  11 24 28.39    +18 18 11.0   0.0082 1.0028 162.3     15?   3.62 129.5   22 310  83  44
   2024 03 16 17:10  11 24 30.40    +18 17 47.8   0.0083 1.0028 162.3     15?   3.74 128.6   21 308  83  44
   2024 03 16 17:20  11 24 32.50    +18 17 24.3   0.0083 1.0028 162.3     15?   3.87 127.8   19 307  83  45
   2024 03 16 17:30  11 24 34.69    +18 17 00.4   0.0083 1.0028 162.3     15?   4.00 126.9   17 305  83  45
   2024 03 16 17:40  11 24 36.98    +18 16 36.2   0.0083 1.0028 162.3     15?   4.13 126.1   16 303  83  45
   2024 03 16 17:50  11 24 39.38    +18 16 11.8   0.0083 1.0028 162.3     15?   4.27 125.2   14 301  82  45
   2024 03 16 18:00  11 24 41.88    +18 15 47.0   0.0083 1.0028 162.3     15?   4.41 124.3   12 300  82  45
   2024 03 16 18:10  11 24 44.49    +18 15 22.0   0.0083 1.0028 162.3     15?   4.55 123.5   10 298  82  45
   2024 03 16 18:20  11 24 47.21    +18 14 56.8   0.0083 1.0028 162.3     15?   4.69 122.6    8 297  82  45
   2024 03 16 18:30  11 24 50.04    +18 14 31.4   0.0083 1.0028 162.3     15?   4.84 121.8    6 296  82  45
   2024 03 16 18:40  11 24 52.99    +18 14 05.8   0.0083 1.0028 162.4     15?   4.99 121.0    4 294  82  45
   2024 03 16 18:50  11 24 56.05    +18 13 40.0   0.0083 1.0028 162.4 A   15?   5.14 120.2    2 293  82  45
   2024 03 16 19:00  11 24 59.23    +18 13 14.1   0.0083 1.0028 162.4 A   15?   5.29 119.4    0 291  82  46
   ................
   2024 03 17 08:40  11 32 19.96    +17 53 32.6   0.0083 1.0030 162.8 Cr  15?   4.75  93.4    0  69  76  51
   2024 03 17 08:50  11 32 23.22    +17 53 29.7   0.0082 1.0030 162.8 Nm  15?   4.58  93.7    1  67  76  52
   2024 03 17 09:00  11 32 26.37    +17 53 26.7   0.0082 1.0030 162.8 Nm  15?   4.42  94.0    3  66  76  52
   2024 03 17 09:10  11 32 29.40    +17 53 23.5   0.0082 1.0030 162.8 Nm  15?   4.26  94.4    5  65  76  52
   2024 03 17 09:20  11 32 32.32    +17 53 20.2   0.0082 1.0030 162.8 Am  15?   4.09  94.8    7  63  76  52
   2024 03 17 09:30  11 32 35.12    +17 53 16.7   0.0082 1.0030 162.8 Am  15?   3.94  95.3    9  62  76  52
   2024 03 17 09:40  11 32 37.81    +17 53 12.9   0.0082 1.0030 162.8  m  15?   3.78  95.9   11  60  76  52
   2024 03 17 09:50  11 32 40.39    +17 53 08.9   0.0082 1.0030 162.8  m  15?   3.63  96.5   13  59  76  52
   2024 03 17 10:00  11 32 42.87    +17 53 04.6   0.0082 1.0030 162.8  m  15?   3.49  97.3   15  57  76  52
   2024 03 17 10:10  11 32 45.24    +17 53 00.1   0.0082 1.0030 162.8  m  15?   3.35  98.1   16  56  76  52
   2024 03 17 10:20  11 32 47.51    +17 52 55.3   0.0082 1.0030 162.8  m  15?   3.21  99.0   18  54  76  52
   2024 03 17 10:30  11 32 49.68    +17 52 50.1   0.0082 1.0030 162.8  m  15?   3.08 100.0   20  52  75  52
   2024 03 17 10:40  11 32 51.76    +17 52 44.6   0.0082 1.0030 162.8  m  15?   2.95 101.0   22  50  75  52
   2024 03 17 10:50  11 32 53.74    +17 52 38.7   0.0082 1.0030 162.8  m  15?   2.84 102.3   23  48  75  52
   2024 03 17 11:00  11 32 55.64    +17 52 32.5   0.0082 1.0030 162.8  m  15?   2.72 103.6   25  47  75  52
   2024 03 17 11:10  11 32 57.45    +17 52 25.9   0.0082 1.0030 162.8  m  15?   2.62 105.1   26  44  75  52
   2024 03 17 11:20  11 32 59.19    +17 52 18.9   0.0082 1.0030 162.8  m  15?   2.52 106.6   28  42  75  52
   2024 03 17 11:30  11 33 00.84    +17 52 11.4   0.0082 1.0030 162.8  m  15?   2.44 108.3   29  40  75  52
   2024 03 17 11:40  11 33 02.43    +17 52 03.5   0.0082 1.0030 162.8  m  15?   2.36 110.1   31  38  75  52
   2024 03 17 11:50  11 33 03.94    +17 51 55.2   0.0082 1.0030 162.8  m  15?   2.28 112.0   32  36  75  52
   2024 03 17 12:00  11 33 05.39    +17 51 46.4   0.0082 1.0030 162.8  m  15?   2.22 113.9   33  33  75  52
   2024 03 17 12:10  11 33 06.79    +17 51 37.1   0.0082 1.0030 162.8  m  15?   2.17 116.0   34  31  75  52
   2024 03 17 12:20  11 33 08.13    +17 51 27.4   0.0082 1.0030 162.8  m  15?   2.12 118.0   35  28  75  53
   2024 03 17 12:30  11 33 09.41    +17 51 17.1   0.0082 1.0030 162.8  m  15?   2.09 120.1   36  25  75  53
   2024 03 17 12:40  11 33 10.66    +17 51 06.4   0.0082 1.0030 162.8  m  15?   2.06 122.2   37  23  75  53
   2024 03 17 12:50  11 33 11.86    +17 50 55.1   0.0082 1.0030 162.8  m  15?   2.05 124.2   38  20  75  53
   2024 03 17 13:00  11 33 13.04    +17 50 43.4   0.0082 1.0031 162.8  m  15?   2.04 126.1   39  17  75  53
   2024 03 17 13:10  11 33 14.18    +17 50 31.1   0.0082 1.0031 162.8  m  15?   2.04 127.9   39  14  75  53
   2024 03 17 13:20  11 33 15.29    +17 50 18.3   0.0082 1.0031 162.8     15?   2.05 129.6   40  11  75  53
   2024 03 17 13:30  11 33 16.39    +17 50 04.9   0.0082 1.0031 162.8     15?   2.07 131.1   40   8  74  53
   2024 03 17 13:40  11 33 17.48    +17 49 51.0   0.0082 1.0031 162.8     15?   2.09 132.5   40   4  74  53
   2024 03 17 13:50  11 33 18.55    +17 49 36.6   0.0082 1.0031 162.8     15?   2.12 133.7   41   1  74  53
   2024 03 17 14:00  11 33 19.63    +17 49 21.6   0.0082 1.0031 162.8  t  15?   2.16 134.8   41 358  74  53
   2024 03 17 14:10  11 33 20.70    +17 49 06.1   0.0082 1.0031 162.8     15?   2.20 135.6   40 355  74  53
   2024 03 17 14:20  11 33 21.79    +17 48 50.1   0.0082 1.0031 162.8     15?   2.25 136.3   40 352  74  53
   2024 03 17 14:30  11 33 22.88    +17 48 33.6   0.0082 1.0031 162.8     15?   2.31 136.8   40 349  74  53
   2024 03 17 14:40  11 33 24.00    +17 48 16.5   0.0082 1.0031 162.8     15?   2.37 137.2   39 346  74  53
   2024 03 17 14:50  11 33 25.14    +17 47 58.8   0.0082 1.0031 162.8     15?   2.43 137.3   39 343  74  53
   2024 03 17 15:00  11 33 26.30    +17 47 40.7   0.0082 1.0031 162.8     15?   2.50 137.4   38 340  74  54
   2024 03 17 15:10  11 33 27.51    +17 47 22.1   0.0082 1.0031 162.8     15?   2.57 137.3   37 337  74  54
   2024 03 17 15:20  11 33 28.75    +17 47 02.9   0.0082 1.0031 162.8     15?   2.65 137.1   37 334  74  54
   2024 03 17 15:30  11 33 30.03    +17 46 43.3   0.0082 1.0031 162.8     15?   2.73 136.8   36 331  74  54
   2024 03 17 15:40  11 33 31.36    +17 46 23.1   0.0082 1.0031 162.8     15?   2.82 136.4   35 329  73  54
   2024 03 17 15:50  11 33 32.75    +17 46 02.5   0.0082 1.0031 162.8     15?   2.90 135.8   33 326  73  54
   2024 03 17 16:00  11 33 34.20    +17 45 41.4   0.0082 1.0031 162.8     15?   3.00 135.3   32 324  73  54
   2024 03 17 16:10  11 33 35.71    +17 45 19.9   0.0082 1.0031 162.8     15?   3.10 134.6   31 321  73  54
   2024 03 17 16:20  11 33 37.28    +17 44 57.9   0.0082 1.0031 162.8     15?   3.20 133.9   30 319  73  54
   2024 03 17 16:30  11 33 38.93    +17 44 35.5   0.0082 1.0031 162.8     15?   3.30 133.2   28 317  73  54
   2024 03 17 16:40  11 33 40.66    +17 44 12.7   0.0082 1.0031 162.8     15?   3.41 132.4   27 315  73  54
   2024 03 17 16:50  11 33 42.46    +17 43 49.4   0.0082 1.0031 162.8     15?   3.53 131.6   25 313  73  54
   2024 03 17 17:00  11 33 44.35    +17 43 25.8   0.0082 1.0031 162.9     15?   3.64 130.7   24 311  73  55
   2024 03 17 17:10  11 33 46.33    +17 43 01.9   0.0082 1.0031 162.9     15?   3.77 129.9   22 309  73  55
   2024 03 17 17:20  11 33 48.39    +17 42 37.6   0.0082 1.0031 162.9     15?   3.89 129.0   20 307  73  55
   2024 03 17 17:30  11 33 50.56    +17 42 12.9   0.0082 1.0031 162.9     15?   4.02 128.1   19 305  72  55
   2024 03 17 17:40  11 33 52.82    +17 41 48.0   0.0082 1.0031 162.9     15?   4.15 127.2   17 304  72  55
   2024 03 17 17:50  11 33 55.18    +17 41 22.7   0.0082 1.0031 162.9     15?   4.28 126.3   15 302  72  55
   2024 03 17 18:00  11 33 57.64    +17 40 57.2   0.0082 1.0031 162.9     15?   4.42 125.4   13 300  72  55
   2024 03 17 18:10  11 34 00.22    +17 40 31.4   0.0082 1.0031 162.9     15?   4.56 124.6   11 299  72  55
   2024 03 17 18:20  11 34 02.90    +17 40 05.4   0.0082 1.0031 162.9     15?   4.70 123.7   10 297  72  55
   2024 03 17 18:30  11 34 05.69    +17 39 39.2   0.0082 1.0031 162.9     15?   4.85 122.9    8 296  72  55
   2024 03 17 18:40  11 34 08.59    +17 39 12.8   0.0082 1.0031 162.9     15?   4.99 122.0    6 294  72  55
   2024 03 17 18:50  11 34 11.61    +17 38 46.2   0.0082 1.0031 162.9 A   15?   5.14 121.2    4 293  72  56
   2024 03 17 19:00  11 34 14.75    +17 38 19.5   0.0082 1.0031 162.9 A   15?   5.29 120.4    2 292  72  56
   2024 03 17 19:10  11 34 18.00    +17 37 52.6   0.0082 1.0031 162.9 A   15?   5.45 119.6    0 290  71  56
   ................
   

INTEGRAL (JPL-ID: -198)

   Date (UTC) HH:MM   RA              Dec         delta   r     elong SM  mag  '/hr    PA   alt  az moo ill
   ---- -- -- -----  -------------   -----------  ------ ------ ----- --  --- ------ ------ --- --- --- ---
   2024 03 04 16:10  13 33 05.34    +58 53 19.4   110061 0.9922 119.8  m  18?  86.14 206.9    0   4 101  38
   2024 03 04 16:20  13 32 14.49    +58 40 18.3   109232 0.9922 120.1  m  18?  88.95 206.4    0   3 101  38
   2024 03 04 16:30  13 31 23.24    +58 26 48.4   108399 0.9922 120.3  m  18?  91.80 205.9    0   1 101  38
   2024 03 04 16:40  13 30 31.71    +58 12 49.0   107562 0.9922 120.6  m  18?  94.68 205.3    0   0 101  38
   2024 03 04 16:50  13 29 40.03    +57 58 19.3   106720 0.9922 120.8  t  18?  97.60 204.7    0 359 101  38
   2024 03 04 17:00  13 28 48.31    +57 43 18.5   105873 0.9922 121.1  m  18? 100.57 204.1    1 357 101  38
   2024 03 04 17:10  13 27 56.68    +57 27 46.1   105021 0.9922 121.3  m  18? 103.57 203.5    1 356 101  38
   2024 03 04 17:20  13 27 05.25    +57 11 41.3   104165 0.9922 121.6  m  18? 106.61 202.8    1 354 101  38
   2024 03 04 17:30  13 26 14.14    +56 55 03.4   103304 0.9922 121.9  e  18? 109.69 202.2    1 353 101  38
   2024 03 04 17:40  13 25 23.47    +56 37 51.8   102437 0.9922 122.2  m  18? 112.81 201.5    1 351 101  38
   2024 03 04 17:50  13 24 33.36    +56 20 05.9   101566 0.9922 122.5  m  18? 115.97 200.8    1 350 101  38
   2024 03 04 18:00  13 23 43.91    +56 01 44.9   100690 0.9922 122.8  m  18? 119.18 200.0    1 348 101  37
   2024 03 04 18:10  13 22 55.23    +55 42 48.4    99808 0.9922 123.1  m  18? 122.44 199.3    0 346 101  37
   2024 03 04 18:20  13 22 07.44    +55 23 15.6    98921 0.9922 123.4  m  18? 125.75 198.5    0 345 101  37
   2024 03 04 18:30  13 21 20.63    +55 03 05.9    98028 0.9922 123.7  m  17? 129.10 197.8    0 343 101  37
   2024 03 04 18:40  13 20 34.91    +54 42 18.8    97130 0.9922 124.1 Am  17? 132.51 197.0    0 342 101  37
   2024 03 04 18:50  13 19 50.36    +54 20 53.5    96225 0.9922 124.4 Am  17? 135.98 196.2    0 340 101  37
   ................
   2024 03 07 13:40  13 49 28.29    +47 22 55.1    76629 0.9928 126.0     17? 134.41 191.7    0  30 115  11
   2024 03 07 13:50  13 48 59.86    +47 00 29.3    75237 0.9928 126.2     17? 140.78 192.2    1  29 115  11
   2024 03 07 14:00  13 48 29.10    +46 37 01.6    73829 0.9928 126.6     17? 147.60 192.7    3  27 116  11
   2024 03 07 14:10  13 47 56.01    +46 12 27.5    72404 0.9928 126.9     17? 154.90 193.1    4  26 116  11
   2024 03 07 14:20  13 47 20.60    +45 46 42.1    70961 0.9928 127.2     17? 162.71 193.4    5  25 116  11
   2024 03 07 14:30  13 46 42.87    +45 19 40.0    69501 0.9928 127.6     17? 171.09 193.7    7  23 116  10
   2024 03 07 14:40  13 46 02.82    +44 51 15.4    68023 0.9928 128.0     17? 180.08 193.9    8  22 116  10
   2024 03 07 14:50  13 45 20.44    +44 21 21.7    66527 0.9928 128.4     17? 189.73 194.1    9  20 116  10
   2024 03 07 15:00  13 44 35.72    +43 49 52.0    65011 0.9928 128.8     17? 200.12 194.2   11  19 116  10
   2024 03 07 15:10  13 43 48.66    +43 16 38.5    63476 0.9928 129.3     17? 211.33 194.3   12  17 117  10
   2024 03 07 15:20  13 42 59.23    +42 41 32.5    61921 0.9928 129.8     17? 223.44 194.3   13  15 117  10
   2024 03 07 15:30  13 42 07.42    +42 04 24.4    60344 0.9928 130.3     17? 236.56 194.3   14  14 117  10
   2024 03 07 15:40  13 41 13.18    +41 25 03.5    58746 0.9928 130.8     17? 250.82 194.3   16  12 117  10
   2024 03 07 15:50  13 40 16.47    +40 43 17.6    57125 0.9928 131.4     17? 266.36 194.2   17  10 117  10
   2024 03 07 16:00  13 39 17.22    +39 58 53.1    55480 0.9928 132.0     17? 283.35 194.1   18   8 118  10
   2024 03 07 16:10  13 38 15.34    +39 11 34.3    53811 0.9928 132.6     16? 302.02 193.9   19   6 118  10
   2024 03 07 16:20  13 37 10.72    +38 21 03.5    52116 0.9928 133.3     16? 322.61 193.8   20   3 118  10
   2024 03 07 16:30  13 36 03.20    +37 26 59.9    50394 0.9928 134.0     16? 345.43 193.6   21   1 118  10
   2024 03 07 16:40  13 34 52.58    +36 28 59.6    48643 0.9928 134.8  t  16? 370.87 193.5   22 359 118  10
   2024 03 07 16:50  13 33 38.62    +35 26 34.6    46862 0.9928 135.6     16? 399.39 193.3   23 356 119  10
   2024 03 07 17:00  13 32 20.96    +34 19 11.6    45049 0.9928 136.4  m  16? 431.58 193.1   24 354 119  10
   2024 03 07 17:10  13 30 59.19    +33 06 11.0    43202 0.9928 137.3  m  16? 468.20 192.9   25 351 119  10
   2024 03 07 17:20  13 29 32.74    +31 46 44.8    41319 0.9928 138.3  m  16? 510.18 192.7   26 348 119   9
   2024 03 07 17:30  13 28 00.87    +30 19 54.5    39397 0.9928 139.4  m  16? 558.80 192.6   26 345 119   9
   2024 03 07 17:40  13 26 22.59    +28 44 27.9    37434 0.9928 140.5  m  16? 615.68 192.5   27 342 120   9
   2024 03 07 17:50  13 24 36.58    +26 58 53.9    35428 0.9928 141.7  m  16? 683.07 192.4   28 338 120   9
   2024 03 07 18:00  13 22 41.04    +25 01 16.5    33374 0.9928 143.0  m  16? 764.02 192.3   29 334 120   9
   2024 03 07 18:10  13 20 33.47    +22 49 04.6    31270 0.9928 144.5  m  16? 862.85 192.3   30 330 120   9
   2024 03 07 18:20  13 18 10.29    +20 18 57.7    29112 0.9927 146.0  m  16? 985.80 192.5   30 326 120   9
   2024 03 07 18:30  13 15 26.29    +17 26 22.3    26897 0.9927 147.6  m  15? 1142.2 192.7   31 321 120   9
   2024 03 07 18:40  13 12 13.50    +14 04 55.5    24623 0.9927 149.3 Am  15? 1346.4 193.1   32 316 120   9
   2024 03 07 18:50  13 08 19.25    +10 05 23.4    22288 0.9927 151.0 Am  15? 1621.6 193.7   33 310 120   9
   2024 03 07 19:00  13 03 22.18    +05 13 54.5    19896 0.9927 152.6 Am  15? 2006.6 194.5   34 303 119   9
   2024 03 07 19:10  12 56 43.45    -00 51 09.6    17458 0.9927 153.5 Nm  15? 2569.4 195.8   35 294 118   9
   2024 03 07 19:20  12 47 04.96    -08 44 50.2    15006 0.9927 152.9 Nm  14? 3433.2 197.9   36 282 117   9
   2024 03 07 19:30  12 31 26.05    -19 24 10.3    12615 0.9927 148.9 Ne  14? 4816.0 201.2   35 267 114   9
   2024 03 07 19:40  12 01 13.65    -34 10 00.5    10467 0.9926 139.2 Cm  13? 7007.4 207.9   32 246 110   9
   2024 03 07 19:50  10 44 03.72    -53 05 30.3     8948 0.9926 121.5 Cm  12? 9803.2 225.7   23 220 102   9
   ................
   2024 03 10 11:20  15 04 24.97    -15 53 19.8    15771 0.9934 121.8  r  13? 3917.9 153.2    1 108 122   0
   2024 03 10 11:30  15 32 34.28    -27 17 17.9    13068 0.9933 112.3     13? 5678.9 146.7    3 120 113   0
   2024 03 10 11:40  16 32 50.53    -42 11 19.3    10793 0.9933  96.6  e  12? 8360.5 133.1    4 138  97   0
   2024 03 10 11:50  19 00 57.21    -54 39 18.0     9552 0.9933  72.8     12?  10911  98.6    0 163  73   0
   ................
   2024 03 12 15:40  13 31 44.61    +58 57 08.2   109889 0.9942 119.4     18?  87.47 206.9    0   4 110   7
   2024 03 12 15:50  13 30 52.98    +58 43 54.8   109061 0.9943 119.7     18?  90.29 206.4    0   2 110   7
   2024 03 12 16:00  13 30 00.99    +58 30 12.3   108228 0.9943 119.9     18?  93.16 205.9    0   1 110   7
   2024 03 12 16:10  13 29 08.76    +58 16 00.0   107391 0.9943 120.2     18?  96.06 205.3    0   0 111   7
   2024 03 12 16:20  13 28 16.42    +58 01 17.1   106549 0.9943 120.4  t  18?  99.00 204.7    0 358 111   7
   2024 03 12 16:30  13 27 24.09    +57 46 02.8   105702 0.9943 120.7     18? 101.98 204.1    0 357 111   7
   2024 03 12 16:40  13 26 31.87    +57 30 16.6   104851 0.9943 121.0     18? 104.99 203.4    1 355 111   8
   2024 03 12 16:50  13 25 39.91    +57 13 57.8   103995 0.9943 121.3     18? 108.05 202.8    1 354 111   8
   2024 03 12 17:00  13 24 48.30    +56 57 05.6   103134 0.9943 121.6  e  18? 111.15 202.1    1 352 112   8
   2024 03 12 17:10  13 23 57.18    +56 39 39.4   102268 0.9943 121.9     18? 114.29 201.4    1 351 112   8
   2024 03 12 17:20  13 23 06.65    +56 21 38.6   101398 0.9943 122.2     18? 117.47 200.7    1 349 112   8
   2024 03 12 17:30  13 22 16.82    +56 03 02.5   100522 0.9943 122.5     18? 120.70 199.9    0 348 112   8
   2024 03 12 17:40  13 21 27.82    +55 43 50.5    99640 0.9943 122.8     18? 123.97 199.2    0 346 113   8
   2024 03 12 17:50  13 20 39.73    +55 24 02.1    98753 0.9943 123.2     18? 127.29 198.4    0 345 113   8
   2024 03 12 18:00  13 19 52.66    +55 03 36.5    97861 0.9943 123.5     17? 130.67 197.7    0 343 113   8
   2024 03 12 18:10  13 19 06.72    +54 42 33.2    96963 0.9943 123.9     17? 134.10 196.9    0 341 114   8
   ................
   2024 03 15 13:10  13 48 33.18    +47 21 08.2    76253 0.9950 126.9     17? 137.17 192.0    0  29 100  32
   2024 03 15 13:20  13 48 03.68    +46 58 16.9    74858 0.9950 127.3     17? 143.69 192.5    2  28 101  32
   2024 03 15 13:30  13 47 31.85    +46 34 22.2    73447 0.9950 127.6     17? 150.67 192.9    3  27 101  32
   2024 03 15 13:40  13 46 57.68    +46 09 19.4    72019 0.9950 128.0     17? 158.15 193.3    4  26 101  32
   2024 03 15 13:50  13 46 21.18    +45 43 03.6    70573 0.9950 128.4     17? 166.15 193.6    6  24 101  32
   2024 03 15 14:00  13 45 42.35    +45 15 29.1    69110 0.9950 128.8     17? 174.73 193.8    7  23 102  32
   2024 03 15 14:10  13 45 01.18    +44 46 30.0    67629 0.9950 129.3     17? 183.94 194.0    8  21 102  33
   2024 03 15 14:20  13 44 17.67    +44 15 59.7    66129 0.9950 129.7     17? 193.84 194.2   10  20 102  33
   2024 03 15 14:30  13 43 31.82    +43 43 50.8    64610 0.9950 130.2     17? 204.50 194.3   11  18 102  33
   2024 03 15 14:40  13 42 43.61    +43 09 55.3    63071 0.9950 130.8     17? 216.00 194.4   12  17 103  33
   2024 03 15 14:50  13 41 53.01    +42 34 04.3    61512 0.9950 131.3     17? 228.43 194.4   13  15 103  33
   2024 03 15 15:00  13 41 00.02    +41 56 07.9    59931 0.9949 131.9     17? 241.90 194.3   15  13 104  33
   2024 03 15 15:10  13 40 04.58    +41 15 54.9    58329 0.9949 132.5     17? 256.56 194.3   16  11 104  33
   2024 03 15 15:20  13 39 06.64    +40 33 12.8    56704 0.9949 133.2     17? 272.54 194.2   17   9 104  33
   2024 03 15 15:30  13 38 06.12    +39 47 47.3    55055 0.9949 133.8     17? 290.04 194.1   18   7 105  33
   2024 03 15 15:40  13 37 02.95    +38 59 22.4    53382 0.9949 134.6     17? 309.28 194.0   19   5 105  33
   2024 03 15 15:50  13 35 56.98    +38 07 39.2    51682 0.9949 135.4     16? 330.53 193.8   20   3 106  33
   2024 03 15 16:00  13 34 48.06    +37 12 16.4    49955 0.9949 136.2     16? 354.10 193.6   21   0 106  34
   2024 03 15 16:10  13 33 35.97    +36 12 49.0    48199 0.9949 137.1  t  16? 380.41 193.5   22 358 107  34
   2024 03 15 16:20  13 32 20.44    +35 08 47.5    46413 0.9949 138.0     16? 409.95 193.3   23 356 107  34
   2024 03 15 16:30  13 31 01.11    +33 59 37.2    44595 0.9949 139.1     16? 443.34 193.1   24 353 108  34
   2024 03 15 16:40  13 29 37.52    +32 44 36.3    42742 0.9949 140.2     16? 481.39 192.9   25 350 109  34
   2024 03 15 16:50  13 28 09.06    +31 22 54.5    40854 0.9949 141.3     16? 525.10 192.7   26 347 110  34
   2024 03 15 17:00  13 26 34.95    +29 53 29.9    38926 0.9949 142.6     16? 575.83 192.6   27 344 110  34
   2024 03 15 17:10  13 24 54.11    +28 15 06.0    36957 0.9949 144.0     16? 635.33 192.5   27 341 111  34
   2024 03 15 17:20  13 23 05.14    +26 26 06.2    34944 0.9949 145.5     16? 706.01 192.4   28 337 112  34
   2024 03 15 17:30  13 21 06.07    +24 24 26.8    32883 0.9949 147.2     16? 791.17 192.4   29 333 113  34
   2024 03 15 17:40  13 18 54.20    +22 07 26.2    30773 0.9949 149.0     16? 895.52 192.4   30 329 115  34
   2024 03 15 17:50  13 16 25.62    +19 31 29.0    28608 0.9949 151.0     16? 1025.9 192.5   31 325 116  35
   2024 03 15 18:00  13 13 34.59    +16 31 39.9    26387 0.9949 153.2     16? 1192.4 192.8   32 320 117  35
   2024 03 15 18:10  13 10 12.28    +13 01 03.7    24107 0.9948 155.6     15? 1411.1 193.2   33 314 119  35
   2024 03 15 18:20  13 06 04.51    +08 49 35.7    21769 0.9948 158.1     15? 1707.6 193.8   33 308 121  35
   2024 03 15 18:30  13 00 47.03    +03 42 03.7    19377 0.9948 160.4     15? 2125.3 194.8   34 300 122  35
   2024 03 15 18:40  12 53 34.97    -02 45 22.7    16947 0.9948 161.7     15? 2740.2 196.2   35 291 124  35
   2024 03 15 18:50  12 42 55.92    -11 11 14.6    14519 0.9948 160.1 A   14? 3689.0 198.5   36 279 126  35
   2024 03 15 19:00  12 25 08.76    -22 36 56.7    12185 0.9948 153.4 Ae  14? 5202.4 202.3   35 262 125  35
   2024 03 15 19:10  11 49 13.84    -38 19 35.1    10159 0.9948 139.8 A   13? 7523.2 210.2   31 241 121  35
   2024 03 15 19:20  10 11 41.48    -57 07 25.3     8873 0.9947 118.2 N   12?  10141 233.1   20 214 109  35
   2024 03 15 19:30  06 11 38.80    -61 42 32.4     8892 0.9947  91.7 N   11?  10750 291.9    4 188  90  36
   ................
   

Spektr-R Observatory (JPL-ID: -557)

   Date (UTC) HH:MM   RA              Dec         delta   r     elong SM  mag  '/hr    PA   alt  az moo ill
   ---- -- -- -----  -------------   -----------  ------ ------ ----- --  --- ------ ------ --- --- --- ---
   2024 03 04 10:20  10 47 00.03    +43 15 15.9   333144 0.9935 142.9     17?  17.27  37.8    0  36 116  41
   2024 03 04 10:30  10 47 09.40    +43 17 31.5   332821 0.9935 142.8     17?  16.77  37.0    1  35 116  41
   2024 03 04 10:40  10 47 18.33    +43 19 44.7   332501 0.9935 142.8     17?  16.28  36.2    2  34 116  41
   2024 03 04 10:50  10 47 26.83    +43 21 55.2   332185 0.9935 142.8     17?  15.79  35.4    3  32 116  41
   2024 03 04 11:00  10 47 34.91    +43 24 03.0   331873 0.9935 142.7     17?  15.30  34.6    4  31 116  41
   2024 03 04 11:10  10 47 42.59    +43 26 07.8   331565 0.9935 142.7     17?  14.81  33.9    5  29 116  41
   2024 03 04 11:20  10 47 49.89    +43 28 09.6   331262 0.9935 142.6     17?  14.32  33.2    6  28 116  40
   2024 03 04 11:30  10 47 56.81    +43 30 08.2   330963 0.9935 142.6     17?  13.83  32.6    7  26 116  40
   2024 03 04 11:40  10 48 03.39    +43 32 03.5   330669 0.9935 142.6     17?  13.34  32.0    8  25 116  40
   2024 03 04 11:50  10 48 09.63    +43 33 55.2   330380 0.9935 142.5     17?  12.86  31.5    9  23 117  40
   2024 03 04 12:00  10 48 15.56    +43 35 43.4   330097 0.9935 142.5     17?  12.37  31.1   10  22 117  40
   2024 03 04 12:10  10 48 21.21    +43 37 27.9   329819 0.9935 142.5     17?  11.89  30.8   10  20 117  40
   2024 03 04 12:20  10 48 26.58    +43 39 08.6   329546 0.9935 142.5     17?  11.42  30.5   11  18 117  40
   2024 03 04 12:30  10 48 31.70    +43 40 45.3   329279 0.9935 142.4     17?  10.94  30.4   12  16 117  40
   2024 03 04 12:40  10 48 36.60    +43 42 18.1   329017 0.9935 142.4     17?  10.48  30.4   12  15 117  40
   2024 03 04 12:50  10 48 41.30    +43 43 46.7   328762 0.9935 142.4     17?  10.01  30.6   13  13 117  40
   2024 03 04 13:00  10 48 45.82    +43 45 11.2   328512 0.9935 142.3     17?   9.56  30.9   13  11 117  40
   2024 03 04 13:10  10 48 50.18    +43 46 31.4   328269 0.9935 142.3     17?   9.11  31.5   14   9 117  39
   2024 03 04 13:20  10 48 54.42    +43 47 47.3   328032 0.9935 142.3     17?   8.68  32.2   14   7 117  39
   2024 03 04 13:30  10 48 58.55    +43 48 58.9   327800 0.9935 142.3     17?   8.25  33.3   14   6 118  39
   2024 03 04 13:40  10 49 02.60    +43 50 06.0   327576 0.9935 142.3  m  17?   7.85  34.6   14   4 118  39
   2024 03 04 13:50  10 49 06.60    +43 51 08.7   327357 0.9935 142.2  m  17?   7.46  36.3   14   2 118  39
   2024 03 04 14:00  10 49 10.57    +43 52 07.0   327145 0.9935 142.2  m  17?   7.09  38.3   14   0 118  39
   2024 03 04 14:10  10 49 14.54    +43 53 00.7   326938 0.9935 142.2  t  17?   6.75  40.7   14 358 118  39
   2024 03 04 14:20  10 49 18.53    +43 53 50.0   326739 0.9935 142.2  m  17?   6.44  43.6   14 356 118  39
   2024 03 04 14:30  10 49 22.58    +43 54 34.7   326545 0.9935 142.2  m  17?   6.18  47.0   14 354 118  39
   2024 03 04 14:40  10 49 26.70    +43 55 15.0   326358 0.9935 142.2  m  17?   5.95  50.7   14 353 118  39
   2024 03 04 14:50  10 49 30.92    +43 55 50.7   326177 0.9935 142.1  m  17?   5.78  55.0   14 351 118  39
   2024 03 04 15:00  10 49 35.28    +43 56 22.1   326002 0.9935 142.1  m  17?   5.67  59.5   13 349 118  39
   2024 03 04 15:10  10 49 39.79    +43 56 49.0   325833 0.9935 142.1  m  17?   5.63  64.3   13 347 118  39
   2024 03 04 15:20  10 49 44.48    +43 57 11.5   325669 0.9935 142.1  m  17?   5.65  69.2   12 345 118  38
   2024 03 04 15:30  10 49 49.38    +43 57 29.8   325512 0.9935 142.1  m  17?   5.73  74.1   12 344 118  38
   2024 03 04 15:40  10 49 54.51    +43 57 43.7   325361 0.9935 142.1  m  17?   5.89  78.7   11 342 119  38
   2024 03 04 15:50  10 49 59.90    +43 57 53.5   325215 0.9935 142.1  m  17?   6.11  83.1   11 340 119  38
   2024 03 04 16:00  10 50 05.56    +43 57 59.2   325074 0.9935 142.1  m  17?   6.39  87.0   10 339 119  38
   2024 03 04 16:10  10 50 11.53    +43 58 00.8   324939 0.9935 142.1  m  17?   6.72  90.6    9 337 119  38
   2024 03 04 16:20  10 50 17.83    +43 57 58.6   324809 0.9935 142.1  m  17?   7.10  93.7    8 335 119  38
   2024 03 04 16:30  10 50 24.47    +43 57 52.5   324684 0.9935 142.1  m  17?   7.52  96.3    7 334 119  38
   2024 03 04 16:40  10 50 31.48    +43 57 42.6   324563 0.9935 142.1  m  17?   7.98  98.6    6 332 119  38
   2024 03 04 16:50  10 50 38.89    +43 57 29.2   324447 0.9935 142.1  m  17?   8.46 100.5    5 331 119  38
   2024 03 04 17:00  10 50 46.71    +43 57 12.3   324336 0.9935 142.1  m  17?   8.98 102.1    4 329 119  38
   2024 03 04 17:10  10 50 54.95    +43 56 52.0   324229 0.9935 142.1  m  17?   9.51 103.5    3 328 119  38
   2024 03 04 17:20  10 51 03.65    +43 56 28.6   324125 0.9935 142.1  m  17?  10.07 104.6    2 327 119  38
   2024 03 04 17:30  10 51 12.81    +43 56 02.0   324026 0.9935 142.1  m  17?  10.65 105.4    1 325 119  38
   2024 03 04 17:40  10 51 22.46    +43 55 32.5   323929 0.9935 142.1  m  17?  11.24 106.1    0 324 119  38
   ................
   2024 03 05 11:20  11 36 20.27    +45 17 04.6   293315 0.9935 140.0     16?  19.57  49.4    0  33 119  30
   2024 03 05 11:30  11 36 33.92    +45 19 10.4   292840 0.9935 139.9     16?  18.99  49.1    1  32 119  30
   2024 03 05 11:40  11 36 47.10    +45 21 13.1   292369 0.9935 139.9     16?  18.40  48.9    2  30 119  30
   2024 03 05 11:50  11 36 59.82    +45 23 12.5   291902 0.9935 139.8     16?  17.82  48.7    3  29 119  30
   2024 03 05 12:00  11 37 12.11    +45 25 08.5   291439 0.9935 139.8     16?  17.25  48.6    4  28 119  30
   2024 03 05 12:10  11 37 23.99    +45 27 00.8   290979 0.9935 139.8     16?  16.68  48.5    5  26 119  30
   2024 03 05 12:20  11 37 35.46    +45 28 49.3   290524 0.9935 139.7     16?  16.11  48.6    6  25 119  30
   2024 03 05 12:30  11 37 46.56    +45 30 33.9   290073 0.9935 139.7     16?  15.55  48.8    7  23 119  29
   2024 03 05 12:40  11 37 57.30    +45 32 14.4   289627 0.9935 139.6     16?  15.00  49.0    8  22 119  29
   2024 03 05 12:50  11 38 07.71    +45 33 50.6   289185 0.9935 139.6     16?  14.46  49.4    8  20 120  29
   2024 03 05 13:00  11 38 17.81    +45 35 22.5   288749 0.9935 139.6     16?  13.93  50.0    9  18 120  29
   2024 03 05 13:10  11 38 27.62    +45 36 49.8   288317 0.9935 139.5     16?  13.42  50.7   10  17 120  29
   2024 03 05 13:20  11 38 37.17    +45 38 12.5   287890 0.9935 139.5     16?  12.92  51.5   10  15 120  29
   2024 03 05 13:30  11 38 46.49    +45 39 30.4   287469 0.9935 139.5     16?  12.44  52.6   11  13 120  29
   2024 03 05 13:40  11 38 55.60    +45 40 43.5   287053 0.9935 139.5     16?  11.98  53.9   11  12 120  29
   2024 03 05 13:50  11 39 04.53    +45 41 51.6   286642 0.9935 139.4     16?  11.54  55.3   12  10 120  29
   2024 03 05 14:00  11 39 13.30    +45 42 54.7   286237 0.9935 139.4     16?  11.14  57.1   12   8 120  29
   2024 03 05 14:10  11 39 21.96    +45 43 52.7   285837 0.9935 139.4     16?  10.77  59.0   12   7 120  29
   2024 03 05 14:20  11 39 30.51    +45 44 45.5   285443 0.9935 139.4     16?  10.43  61.2   12   5 120  29
   2024 03 05 14:30  11 39 39.01    +45 45 33.0   285055 0.9935 139.3     16?  10.14  63.7   12   3 120  28
   2024 03 05 14:40  11 39 47.46    +45 46 15.2   284672 0.9935 139.3  m  16?   9.90  66.4   13   1 120  28
   2024 03 05 14:50  11 39 55.92    +45 46 52.1   284295 0.9935 139.3  t  16?   9.71  69.3   13 359 120  28
   2024 03 05 15:00  11 40 04.39    +45 47 23.7   283923 0.9935 139.3  m  16?   9.57  72.4   13 358 120  28
   2024 03 05 15:10  11 40 12.93    +45 47 49.8   283557 0.9935 139.3  m  16?   9.49  75.6   12 356 121  28
   2024 03 05 15:20  11 40 21.55    +45 48 10.6   283197 0.9935 139.3  m  16?   9.48  78.9   12 354 121  28
   2024 03 05 15:30  11 40 30.29    +45 48 26.0   282842 0.9935 139.3  m  16?   9.53  82.3   12 352 121  28
   2024 03 05 15:40  11 40 39.17    +45 48 36.0   282493 0.9935 139.2  m  16?   9.64  85.6   12 351 121  28
   2024 03 05 15:50  11 40 48.24    +45 48 40.7   282149 0.9935 139.2  m  16?   9.82  88.8   11 349 121  28
   2024 03 05 16:00  11 40 57.51    +45 48 40.1   281811 0.9935 139.2  m  16?  10.06  91.8   11 347 121  28
   2024 03 05 16:10  11 41 07.02    +45 48 34.2   281478 0.9935 139.2  m  16?  10.35  94.7   10 346 121  28
   2024 03 05 16:20  11 41 16.80    +45 48 23.0   281150 0.9935 139.2  m  16?  10.70  97.3   10 344 121  28
   2024 03 05 16:30  11 41 26.89    +45 48 06.8   280827 0.9935 139.2  m  16?  11.10  99.7    9 342 121  28
   2024 03 05 16:40  11 41 37.29    +45 47 45.4   280509 0.9935 139.2  m  16?  11.55 101.8    9 341 121  27
   2024 03 05 16:50  11 41 48.06    +45 47 19.1   280196 0.9935 139.2  m  16?  12.04 103.7    8 339 121  27
   2024 03 05 17:00  11 41 59.21    +45 46 47.9   279887 0.9935 139.2  m  16?  12.57 105.4    7 337 121  27
   2024 03 05 17:10  11 42 10.77    +45 46 11.9   279584 0.9935 139.2  m  16?  13.13 106.9    6 336 121  27
   2024 03 05 17:20  11 42 22.77    +45 45 31.2   279284 0.9935 139.2  m  16?  13.72 108.2    6 334 121  27
   2024 03 05 17:30  11 42 35.23    +45 44 45.9   278988 0.9935 139.2  m  16?  14.34 109.2    5 333 121  27
   2024 03 05 17:40  11 42 48.18    +45 43 56.2   278697 0.9935 139.2  m  16?  14.99 110.1    4 332 121  27
   2024 03 05 17:50  11 43 01.64    +45 43 02.2   278409 0.9935 139.2  m  16?  15.66 110.9    3 330 121  27
   2024 03 05 18:00  11 43 15.64    +45 42 04.0   278125 0.9935 139.2  m  16?  16.34 111.5    2 329 121  27
   2024 03 05 18:10  11 43 30.20    +45 41 01.9   277844 0.9935 139.2  m  16?  17.05 112.0    1 327 121  27
   2024 03 05 18:20  11 43 45.34    +45 39 55.9   277567 0.9935 139.2  m  16?  17.77 112.4    0 326 121  27
   ................
   2024 03 06 12:30  12 52 27.25    +45 48 16.1   224919 0.9933 133.8     16?  31.06  73.9    0  33 116  20
   2024 03 06 12:40  12 52 55.02    +45 49 39.7   224223 0.9933 133.7     16?  30.42  74.4    0  32 116  20
   2024 03 06 12:50  12 53 22.28    +45 50 59.0   223530 0.9933 133.7     16?  29.79  74.9    1  30 116  20
   2024 03 06 13:00  12 53 49.05    +45 52 13.7   222839 0.9933 133.6     16?  29.18  75.5    2  29 116  19
   2024 03 06 13:10  12 54 15.35    +45 53 23.7   222151 0.9933 133.5     16?  28.59  76.2    3  28 116  19
   2024 03 06 13:20  12 54 41.21    +45 54 28.6   221466 0.9933 133.5     16?  28.02  77.0    4  26 116  19
   2024 03 06 13:30  12 55 06.63    +45 55 28.3   220785 0.9933 133.4     16?  27.48  77.9    5  25 116  19
   2024 03 06 13:40  12 55 31.66    +45 56 22.4   220106 0.9933 133.4     16?  26.96  78.9    6  23 116  19
   2024 03 06 13:50  12 55 56.30    +45 57 10.9   219431 0.9933 133.3     16?  26.48  80.0    7  22 116  19
   2024 03 06 14:00  12 56 20.60    +45 57 53.5   218760 0.9933 133.3     16?  26.04  81.2    8  20 116  19
   2024 03 06 14:10  12 56 44.57    +45 58 30.0   218092 0.9933 133.2     16?  25.63  82.4    8  19 116  19
   2024 03 06 14:20  12 57 08.26    +45 59 00.1   217428 0.9933 133.2     16?  25.26  83.8    9  17 116  19
   2024 03 06 14:30  12 57 31.67    +45 59 23.8   216768 0.9933 133.1     15?  24.94  85.2   10  16 116  19
   2024 03 06 14:40  12 57 54.86    +45 59 40.8   216112 0.9933 133.1     15?  24.68  86.7   10  14 116  19
   2024 03 06 14:50  12 58 17.85    +45 59 51.0   215460 0.9933 133.0     15?  24.46  88.3   11  12 116  19
   2024 03 06 15:00  12 58 40.67    +45 59 54.1   214812 0.9933 133.0     15?  24.30  90.0   11  11 116  19
   2024 03 06 15:10  12 59 03.36    +45 59 50.1   214169 0.9933 132.9     15?  24.19  91.7   11   9 116  18
   2024 03 06 15:20  12 59 25.95    +45 59 38.9   213530 0.9933 132.9     15?  24.15  93.4   12   7 116  18
   2024 03 06 15:30  12 59 48.49    +45 59 20.2   212895 0.9933 132.9     15?  24.17  95.2   12   6 117  18
   2024 03 06 15:40  13 00 11.01    +45 58 54.0   212265 0.9933 132.8  m  15?  24.26  97.0   12   4 117  18
   2024 03 06 15:50  13 00 33.54    +45 58 20.2   211639 0.9933 132.8  m  15?  24.41  98.8   12   2 117  18
   2024 03 06 16:00  13 00 56.12    +45 57 38.7   211018 0.9933 132.8  m  15?  24.62 100.5   12   1 117  18
   2024 03 06 16:10  13 01 18.80    +45 56 49.3   210401 0.9933 132.7  t  15?  24.90 102.2   12 359 117  18
   2024 03 06 16:20  13 01 41.61    +45 55 52.1   209788 0.9933 132.7  m  15?  25.25 103.8   12 357 117  18
   2024 03 06 16:30  13 02 04.59    +45 54 46.9   209180 0.9933 132.7  m  15?  25.65 105.5   12 355 117  18
   2024 03 06 16:40  13 02 27.79    +45 53 33.8   208577 0.9933 132.6  m  15?  26.12 107.0   12 354 117  18
   2024 03 06 16:50  13 02 51.23    +45 52 12.7   207978 0.9933 132.6  m  15?  26.65 108.5   12 352 117  18
   2024 03 06 17:00  13 03 14.97    +45 50 43.6   207383 0.9933 132.6  m  15?  27.24 109.8   12 350 117  18
   2024 03 06 17:10  13 03 39.04    +45 49 06.4   206792 0.9932 132.6  m  15?  27.88 111.1   11 349 117  18
   2024 03 06 17:20  13 04 03.49    +45 47 21.2   206205 0.9932 132.5  m  15?  28.57 112.3   11 347 117  18
   2024 03 06 17:30  13 04 28.34    +45 45 28.0   205623 0.9932 132.5  m  15?  29.32 113.4   10 345 117  18
   2024 03 06 17:40  13 04 53.65    +45 43 26.9   205044 0.9932 132.5  m  15?  30.11 114.4   10 344 117  18
   2024 03 06 17:50  13 05 19.45    +45 41 17.8   204470 0.9932 132.5  m  15?  30.95 115.3    9 342 117  17
   2024 03 06 18:00  13 05 45.78    +45 39 00.8   203899 0.9932 132.5  m  15?  31.83 116.1    9 340 117  17
   2024 03 06 18:10  13 06 12.68    +45 36 36.1   203332 0.9932 132.4  m  15?  32.75 116.8    8 339 116  17
   2024 03 06 18:20  13 06 40.18    +45 34 03.6   202768 0.9932 132.4  m  15?  33.71 117.5    7 337 116  17
   2024 03 06 18:30  13 07 08.32    +45 31 23.5   202208 0.9932 132.4  m  15?  34.70 118.0    7 336 116  17
   2024 03 06 18:40  13 07 37.15    +45 28 35.8   201651 0.9932 132.4 Am  15?  35.73 118.5    6 334 116  17
   2024 03 06 18:50  13 08 06.69    +45 25 40.7   201097 0.9932 132.4 Am  15?  36.78 118.9    5 333 116  17
   2024 03 06 19:00  13 08 36.98    +45 22 38.4   200545 0.9932 132.3 Am  15?  37.87 119.3    4 332 116  17
   2024 03 06 19:10  13 09 08.05    +45 19 28.8   199997 0.9932 132.3 Nm  15?  38.98 119.5    3 330 116  17
   2024 03 06 19:20  13 09 39.93    +45 16 12.2   199451 0.9932 132.3 Nm  15?  40.12 119.8    2 329 116  17
   2024 03 06 19:30  13 10 12.67    +45 12 48.8   198907 0.9932 132.3 Nm  15?  41.29 119.9    1 327 116  17
   2024 03 06 19:40  13 10 46.28    +45 09 18.6   198365 0.9932 132.3 Cm  15?  42.47 120.0    0 326 116  17
   2024 03 06 19:50  13 11 20.79    +45 05 41.9   197826 0.9932 132.2 Cm  15?  43.68 120.1    0 325 116  17
   ................
   2024 03 07 14:30  15 51 57.85    +34 03 41.1   106465 0.9928 109.5     13? 164.62 118.0    0  49  90  10
   2024 03 07 14:40  15 53 52.85    +33 50 41.8   105302 0.9928 109.1     13? 166.91 118.7    1  48  90  10
   2024 03 07 14:50  15 55 48.42    +33 37 14.2   104137 0.9928 108.8     13? 169.34 119.3    2  47  89  10
   2024 03 07 15:00  15 57 44.60    +33 23 17.1   102970 0.9928 108.4     13? 171.92 120.0    4  46  89  10
   2024 03 07 15:10  15 59 41.43    +33 08 49.2   101802 0.9928 108.0     13? 174.66 120.7    5  45  88  10
   2024 03 07 15:20  16 01 38.97    +32 53 49.3   100632 0.9928 107.6     13? 177.56 121.4    7  44  88  10
   2024 03 07 15:30  16 03 37.26    +32 38 15.8    99460 0.9928 107.2     13? 180.64 122.1    8  43  88  10
   2024 03 07 15:40  16 05 36.37    +32 22 07.5    98287 0.9928 106.9     13? 183.90 122.8    9  42  87  10
   2024 03 07 15:50  16 07 36.34    +32 05 22.7    97113 0.9928 106.5     13? 187.36 123.5   11  41  87  10
   2024 03 07 16:00  16 09 37.24    +31 47 59.9    95938 0.9927 106.1     13? 191.01 124.2   12  40  86  10
   2024 03 07 16:10  16 11 39.14    +31 29 57.6    94762 0.9927 105.7     13? 194.88 124.8   13  38  86  10
   2024 03 07 16:20  16 13 42.10    +31 11 14.1    93585 0.9927 105.2     13? 198.96 125.5   15  37  85  10
   2024 03 07 16:30  16 15 46.20    +30 51 47.5    92408 0.9927 104.8     13? 203.28 126.2   16  36  85  10
   2024 03 07 16:40  16 17 51.52    +30 31 36.3    91231 0.9927 104.4     13? 207.84 126.8   17  35  84  10
   2024 03 07 16:50  16 19 58.13    +30 10 38.3    90053 0.9927 104.0     13? 212.66 127.5   18  34  84  10
   2024 03 07 17:00  16 22 06.13    +29 48 51.8    88875 0.9927 103.5  m  13? 217.73 128.1   20  32  83  10
   2024 03 07 17:10  16 24 15.59    +29 26 14.7    87697 0.9927 103.1  m  13? 223.09 128.8   21  31  83  10
   2024 03 07 17:20  16 26 26.63    +29 02 44.9    86520 0.9927 102.6  m  13? 228.73 129.4   22  30  82   9
   2024 03 07 17:30  16 28 39.33    +28 38 20.2    85343 0.9927 102.1  m  12? 234.68 130.0   23  28  82   9
   2024 03 07 17:40  16 30 53.81    +28 12 58.2    84166 0.9927 101.6  m  12? 240.94 130.6   24  27  81   9
   2024 03 07 17:50  16 33 10.17    +27 46 36.7    82990 0.9927 101.2  m  12? 247.53 131.1   25  25  81   9
   2024 03 07 18:00  16 35 28.53    +27 19 13.1    81815 0.9927 100.6  m  12? 254.46 131.7   27  24  80   9
   2024 03 07 18:10  16 37 49.01    +26 50 44.8    80641 0.9927 100.1  m  12? 261.75 132.2   28  22  80   9
   2024 03 07 18:20  16 40 11.74    +26 21 09.1    79469 0.9927  99.6  m  12? 269.42 132.7   29  20  79   9
   2024 03 07 18:30  16 42 36.86    +25 50 23.2    78297 0.9927  99.0  m  12? 277.49 133.2   30  19  78   9
   2024 03 07 18:40  16 45 04.50    +25 18 24.1    77128 0.9927  98.5 Am  12? 285.96 133.7   31  17  78   9
   2024 03 07 18:50  16 47 34.83    +24 45 08.7    75960 0.9927  97.9 Am  12? 294.86 134.2   32  15  77   9
   2024 03 07 19:00  16 50 07.98    +24 10 33.8    74794 0.9926  97.3 Am  12? 304.22 134.6   33  13  76   9
   2024 03 07 19:10  16 52 44.14    +23 34 36.1    73631 0.9926  96.7 Nm  12? 314.04 135.0   34  12  75   9
   2024 03 07 19:20  16 55 23.47    +22 57 11.8    72470 0.9926  96.1 Nm  12? 324.36 135.4   35  10  75   9
   2024 03 07 19:30  16 58 06.17    +22 18 17.5    71311 0.9926  95.4 Nm  12? 335.19 135.8   36   8  74   9
   2024 03 07 19:40  17 00 52.42    +21 37 49.1    70156 0.9926  94.7 Cm  12? 346.56 136.2   36   6  73   9
   2024 03 07 19:50  17 03 42.43    +20 55 42.7    69004 0.9926  94.0 Cm  12? 358.50 136.6   37   4  72   9
   ................
   2024 03 08 08:40  04 34 16.90    -20 29 44.5    63709 0.9926  78.6 C   12? 434.69  44.7   71 301  97   6
   2024 03 08 08:50  04 37 46.08    -19 39 15.8    64845 0.9927  79.4 C   12? 421.04  44.3   69 300  98   6
   2024 03 08 09:00  04 41 06.52    -18 50 05.1    65989 0.9927  80.3 N   12? 408.03  44.0   67 299  99   6
   2024 03 08 09:10  04 44 18.88    -18 02 10.8    67140 0.9927  81.0 N   12? 395.61  43.8   66 298 100   6
   2024 03 08 09:20  04 47 23.74    -17 15 31.3    68297 0.9927  81.8 N   12? 383.76  43.5   64 297 101   6
   2024 03 08 09:30  04 50 21.65    -16 30 05.0    69462 0.9927  82.5 A   12? 372.44  43.3   62 296 102   6
   2024 03 08 09:40  04 53 13.10    -15 45 50.1    70632 0.9927  83.3 A   12? 361.65  43.2   60 295 103   6
   2024 03 08 09:50  04 55 58.55    -15 02 44.7    71809 0.9927  84.0 A   12? 351.34  43.0   59 295 104   6
   2024 03 08 10:00  04 58 38.43    -14 20 47.1    72991 0.9927  84.6     12? 341.49  42.9   57 294 104   5
   2024 03 08 10:10  05 01 13.11    -13 39 55.4    74178 0.9927  85.3     12? 332.09  42.8   55 293 105   5
   2024 03 08 10:20  05 03 42.95    -13 00 07.9    75370 0.9927  85.9     12? 323.11  42.8   53 292 106   5
   2024 03 08 10:30  05 06 08.30    -12 21 22.6    76567 0.9927  86.6     12? 314.53  42.8   51 291 107   5
   2024 03 08 10:40  05 08 29.44    -11 43 37.9    77769 0.9927  87.2     12? 306.32  42.8   49 290 107   5
   2024 03 08 10:50  05 10 46.67    -11 06 51.9    78975 0.9927  87.8     12? 298.48  42.8   47 289 108   5
   2024 03 08 11:00  05 13 00.25    -10 31 03.0    80185 0.9928  88.4     12? 290.99  42.8   45 288 108   5
   2024 03 08 11:10  05 15 10.42    -09 56 09.4    81398 0.9928  88.9     12? 283.82  42.9   43 287 109   5
   2024 03 08 11:20  05 17 17.41    -09 22 09.5    82615 0.9928  89.5     12? 276.97  43.0   41 286 110   5
   2024 03 08 11:30  05 19 21.42    -08 49 01.6    83835 0.9928  90.0     12? 270.41  43.1   40 286 110   5
   2024 03 08 11:40  05 21 22.65    -08 16 44.2    85057 0.9928  90.6     12? 264.14  43.3   38 285 111   5
   2024 03 08 11:50  05 23 21.29    -07 45 15.7    86282 0.9928  91.1     12? 258.15  43.4   36 284 111   5
   2024 03 08 12:00  05 25 17.49    -07 14 34.7    87510 0.9928  91.6     12? 252.41  43.6   34 283 112   5
   2024 03 08 12:10  05 27 11.42    -06 44 39.5    88739 0.9928  92.1     12? 246.92  43.8   32 282 112   5
   2024 03 08 12:20  05 29 03.23    -06 15 28.9    89970 0.9928  92.6     12? 241.67  44.0   30 281 113   5
   2024 03 08 12:30  05 30 53.04    -05 47 01.5    91203 0.9928  93.1     12? 236.64  44.3   28 281 113   5
   2024 03 08 12:40  05 32 40.98    -05 19 15.8    92436 0.9928  93.6     12? 231.83  44.5   26 280 114   5
   2024 03 08 12:50  05 34 27.18    -04 52 10.6    93670 0.9928  94.1     12? 227.23  44.8   24 279 114   5
   2024 03 08 13:00  05 36 11.74    -04 25 44.6    94905 0.9929  94.5     12? 222.82  45.1   22 278 115   5
   2024 03 08 13:10  05 37 54.75    -03 59 56.5    96140 0.9929  95.0     12? 218.60  45.3   20 277 115   5
   2024 03 08 13:20  05 39 36.33    -03 34 45.2    97375 0.9929  95.4     12? 214.56  45.6   18 277 116   4
   2024 03 08 13:30  05 41 16.55    -03 10 09.5    98609 0.9929  95.9     12? 210.69  46.0   16 276 116   4
   2024 03 08 13:40  05 42 55.50    -02 46 08.2    99843 0.9929  96.3     12? 206.99  46.3   14 275 116   4
   2024 03 08 13:50  05 44 33.24    -02 22 40.2   101076 0.9929  96.8     12? 203.44  46.6   12 274 117   4
   2024 03 08 14:00  05 46 09.86    -01 59 44.6   102307 0.9929  97.2     13? 200.04  47.0   10 274 117   4
   2024 03 08 14:10  05 47 45.42    -01 37 20.1   103536 0.9929  97.6     13? 196.79  47.3    8 273 118   4
   2024 03 08 14:20  05 49 19.97    -01 15 25.8   104764 0.9929  98.0     13? 193.66  47.7    6 272 118   4
   2024 03 08 14:30  05 50 53.58    -00 54 00.8   105989 0.9929  98.4     13? 190.67  48.0    4 271 118   4
   2024 03 08 14:40  05 52 26.29    -00 33 04.0   107211 0.9929  98.9     13? 187.80  48.4    2 270 119   4
   2024 03 08 14:50  05 53 58.15    -00 12 34.6   108431 0.9929  99.3     13? 185.05  48.8    0 270 119   4
   ................
   2024 03 09 08:40  07 31 58.85    +19 18 25.3   192608 0.9937 122.6 C   15?  43.72  25.6   33  30 137   1
   2024 03 09 08:50  07 32 11.61    +19 24 58.9   193194 0.9937 122.7 C   15?  42.96  25.2   34  28 137   1
   2024 03 09 09:00  07 32 24.00    +19 31 26.7   193786 0.9937 122.7 N   15?  42.22  24.9   35  25 137   1
   2024 03 09 09:10  07 32 36.03    +19 37 48.7   194384 0.9937 122.7 N   15?  41.49  24.7   35  22 137   1
   2024 03 09 09:20  07 32 47.75    +19 44 05.0   194989 0.9937 122.8 N   15?  40.78  24.4   36  19 137   1
   2024 03 09 09:30  07 32 59.19    +19 50 15.4   195600 0.9937 122.8 A   15?  40.08  24.3   37  17 137   1
   2024 03 09 09:40  07 33 10.37    +19 56 19.9   196218 0.9937 122.8 A   15?  39.40  24.2   37  14 137   1
   2024 03 09 09:50  07 33 21.35    +20 02 18.5   196843 0.9937 122.8 A   15?  38.75  24.1   37  11 136   1
   2024 03 09 10:00  07 33 32.14    +20 08 11.3   197474 0.9937 122.8     15?  38.10  24.2   38   8 136   1
   2024 03 09 10:10  07 33 42.78    +20 13 58.1   198113 0.9937 122.9     15?  37.48  24.3   38   5 136   1
   2024 03 09 10:20  07 33 53.30    +20 19 39.0   198758 0.9937 122.9     15?  36.88  24.4   38   2 136   1
   2024 03 09 10:30  07 34 03.75    +20 25 13.9   199411 0.9937 122.9  t  15?  36.30  24.7   38 359 136   1
   2024 03 09 10:40  07 34 14.14    +20 30 43.0   200071 0.9938 122.9     15?  35.74  25.0   38 356 136   1
   2024 03 09 10:50  07 34 24.51    +20 36 06.2   200737 0.9938 122.9     15?  35.20  25.3   37 353 136   1
   2024 03 09 11:00  07 34 34.90    +20 41 23.6   201411 0.9938 123.0     15?  34.68  25.8   37 350 136   1
   2024 03 09 11:10  07 34 45.33    +20 46 35.1   202091 0.9938 123.0     15?  34.20  26.3   37 348 136   1
   2024 03 09 11:20  07 34 55.83    +20 51 41.0   202779 0.9938 123.0     15?  33.74  26.9   36 345 136   1
   2024 03 09 11:30  07 35 06.45    +20 56 41.1   203473 0.9938 123.0     15?  33.30  27.6   35 342 135   1
   2024 03 09 11:40  07 35 17.20    +21 01 35.5   204174 0.9938 123.0     15?  32.90  28.4   35 339 135   1
   2024 03 09 11:50  07 35 28.11    +21 06 24.4   204881 0.9938 123.1     15?  32.53  29.2   34 337 135   1
   2024 03 09 12:00  07 35 39.21    +21 11 07.9   205595 0.9938 123.1     15?  32.19  30.1   33 334 135   1
   2024 03 09 12:10  07 35 50.54    +21 15 45.9   206315 0.9938 123.1     15?  31.89  31.1   32 332 135   1
   2024 03 09 12:20  07 36 02.11    +21 20 18.5   207041 0.9938 123.1     15?  31.62  32.1   31 329 135   1
   2024 03 09 12:30  07 36 13.95    +21 24 46.0   207773 0.9938 123.2     15?  31.39  33.2   30 327 135   1
   2024 03 09 12:40  07 36 26.09    +21 29 08.3   208511 0.9938 123.2     15?  31.20  34.4   28 325 135   1
   2024 03 09 12:50  07 36 38.55    +21 33 25.7   209255 0.9938 123.2     15?  31.05  35.6   27 323 135   1
   2024 03 09 13:00  07 36 51.35    +21 37 38.1   210003 0.9938 123.3     15?  30.95  36.8   26 321 135   1
   2024 03 09 13:10  07 37 04.52    +21 41 45.8   210757 0.9938 123.3     15?  30.88  38.1   24 319 134   1
   2024 03 09 13:20  07 37 18.06    +21 45 48.8   211516 0.9938 123.3     15?  30.86  39.4   23 317 134   1
   2024 03 09 13:30  07 37 32.02    +21 49 47.3   212279 0.9939 123.4     15?  30.88  40.8   21 315 134   1
   2024 03 09 13:40  07 37 46.39    +21 53 41.4   213047 0.9939 123.4     15?  30.94  42.1   20 313 134   1
   2024 03 09 13:50  07 38 01.20    +21 57 31.3   213819 0.9939 123.4     15?  31.05  43.5   18 311 134   0
   2024 03 09 14:00  07 38 16.46    +22 01 17.0   214594 0.9939 123.5     15?  31.19  44.8   17 310 134   0
   2024 03 09 14:10  07 38 32.19    +22 04 58.9   215373 0.9939 123.5     15?  31.38  46.1   15 308 134   0
   2024 03 09 14:20  07 38 48.41    +22 08 36.9   216155 0.9939 123.6     15?  31.61  47.5   13 307 134   0
   2024 03 09 14:30  07 39 05.11    +22 12 11.2   216940 0.9939 123.6     15?  31.88  48.8   12 305 134   0
   2024 03 09 14:40  07 39 22.32    +22 15 42.1   217728 0.9939 123.7     15?  32.18  50.0   10 304 134   0
   2024 03 09 14:50  07 39 40.05    +22 19 09.6   218517 0.9939 123.7     15?  32.52  51.3    8 302 134   0
   2024 03 09 15:00  07 39 58.29    +22 22 34.0   219309 0.9939 123.8     15?  32.89  52.5    6 301 134   0
   2024 03 09 15:10  07 40 17.07    +22 25 55.4   220102 0.9939 123.8     15?  33.29  53.7    4 299 133   0
   2024 03 09 15:20  07 40 36.38    +22 29 13.9   220896 0.9939 123.9     15?  33.72  54.8    3 298 133   0
   2024 03 09 15:30  07 40 56.22    +22 32 29.7   221691 0.9939 123.9     15?  34.18  55.8    1 297 133   0
   ................
   2024 03 10 08:40  08 24 21.61    +28 53 10.6   271146 0.9944 130.9 C   16?  23.58  22.3   19  35 132   0
   2024 03 10 08:50  08 24 28.04    +28 56 49.2   271446 0.9944 130.9 C   16?  23.07  21.5   20  33 131   0
   2024 03 10 09:00  08 24 34.11    +29 00 24.3   271752 0.9944 130.9 N   16?  22.56  20.7   21  31 131   0
   2024 03 10 09:10  08 24 39.84    +29 03 55.7   272064 0.9945 130.8 N   16?  22.06  20.0   22  29 131   0
   2024 03 10 09:20  08 24 45.24    +29 07 23.3   272382 0.9945 130.8 N   16?  21.56  19.3   23  27 131   0
   2024 03 10 09:30  08 24 50.35    +29 10 47.1   272707 0.9945 130.8 A   16?  21.07  18.7   24  25 131   0
   2024 03 10 09:40  08 24 55.19    +29 14 06.9   273038 0.9945 130.8 A   16?  20.59  18.1   25  23 131   0
   2024 03 10 09:50  08 24 59.78    +29 17 22.7   273376 0.9945 130.8     16?  20.11  17.6   26  20 131   0
   2024 03 10 10:00  08 25 04.14    +29 20 34.5   273721 0.9945 130.8     16?  19.63  17.2   26  18 131   0
   2024 03 10 10:10  08 25 08.30    +29 23 42.1   274072 0.9945 130.8     16?  19.16  16.8   27  16 130   0
   2024 03 10 10:20  08 25 12.28    +29 26 45.6   274431 0.9945 130.8     16?  18.70  16.6   27  13 130   0
   2024 03 10 10:30  08 25 16.12    +29 29 44.8   274798 0.9945 130.7     16?  18.24  16.4   28  11 130   0
   2024 03 10 10:40  08 25 19.82    +29 32 39.8   275171 0.9945 130.7     16?  17.79  16.3   28   8 130   0
   2024 03 10 10:50  08 25 23.43    +29 35 30.5   275552 0.9945 130.7     16?  17.35  16.3   28   6 130   0
   2024 03 10 11:00  08 25 26.97    +29 38 17.0   275941 0.9945 130.7     16?  16.91  16.5   29   4 130   0
   2024 03 10 11:10  08 25 30.46    +29 40 59.1   276336 0.9945 130.7     16?  16.49  16.7   29   1 130   0
   2024 03 10 11:20  08 25 33.92    +29 43 36.9   276740 0.9945 130.7  t  16?  16.07  17.1   29 359 130   0
   2024 03 10 11:30  08 25 37.39    +29 46 10.4   277150 0.9945 130.7     16?  15.67  17.7   28 356 129   0
   2024 03 10 11:40  08 25 40.89    +29 48 39.7   277568 0.9945 130.7     16?  15.28  18.3   28 354 129   0
   2024 03 10 11:50  08 25 44.45    +29 51 04.6   277994 0.9945 130.7     16?  14.90  19.2   28 351 129   0
   2024 03 10 12:00  08 25 48.08    +29 53 25.3   278427 0.9945 130.6     16?  14.54  20.1   28 349 129   0
   2024 03 10 12:10  08 25 51.82    +29 55 41.8   278867 0.9945 130.6     16?  14.20  21.3   27 346 129   0
   2024 03 10 12:20  08 25 55.69    +29 57 54.2   279314 0.9945 130.6     16?  13.89  22.6   27 344 129   0
   2024 03 10 12:30  08 25 59.72    +30 00 02.4   279769 0.9945 130.6     16?  13.60  24.1   26 342 129   0
   2024 03 10 12:40  08 26 03.92    +30 02 06.6   280230 0.9945 130.6     16?  13.33  25.7   25 339 129   0
   2024 03 10 12:50  08 26 08.32    +30 04 06.8   280698 0.9945 130.6     16?  13.10  27.6   24 337 128   0
   2024 03 10 13:00  08 26 12.95    +30 06 03.1   281173 0.9946 130.6     16?  12.91  29.5   23 335 128   0
   2024 03 10 13:10  08 26 17.82    +30 07 55.5   281654 0.9946 130.6     16?  12.75  31.7   23 333 128   0
   2024 03 10 13:20  08 26 22.95    +30 09 44.2   282142 0.9946 130.6     16?  12.63  33.9   22 331 128   0
   2024 03 10 13:30  08 26 28.38    +30 11 29.3   282636 0.9946 130.6     16?  12.55  36.3   20 329 128   0
   2024 03 10 13:40  08 26 34.11    +30 13 10.8   283136 0.9946 130.6     16?  12.52  38.8   19 327 128   0
   2024 03 10 13:50  08 26 40.17    +30 14 48.8   283641 0.9946 130.6     16?  12.54  41.3   18 325 128   0
   2024 03 10 14:00  08 26 46.58    +30 16 23.5   284152 0.9946 130.6     16?  12.61  43.8   17 323 128   0
   2024 03 10 14:10  08 26 53.34    +30 17 55.0   284668 0.9946 130.6     16?  12.72  46.3   16 321 127   0
   2024 03 10 14:20  08 27 00.49    +30 19 23.3   285189 0.9946 130.6     16?  12.88  48.9   14 320 127   0
   2024 03 10 14:30  08 27 08.03    +30 20 48.7   285715 0.9946 130.6     16?  13.09  51.3   13 318 127   0
   2024 03 10 14:40  08 27 15.98    +30 22 11.2   286245 0.9946 130.6     16?  13.35  53.7   11 316 127   0
   2024 03 10 14:50  08 27 24.36    +30 23 31.0   286780 0.9946 130.6     16?  13.65  56.0   10 315 127   0
   2024 03 10 15:00  08 27 33.17    +30 24 48.2   287318 0.9946 130.7     16?  13.99  58.1    8 313 127   0
   2024 03 10 15:10  08 27 42.44    +30 26 03.0   287859 0.9946 130.7     16?  14.37  60.2    7 312 127   0
   2024 03 10 15:20  08 27 52.16    +30 27 15.4   288404 0.9946 130.7     16?  14.78  62.1    5 310 127   0
   2024 03 10 15:30  08 28 02.35    +30 28 25.7   288952 0.9946 130.7     16?  15.23  63.8    4 309 126   0
   2024 03 10 15:40  08 28 13.02    +30 29 34.0   289502 0.9946 130.7     16?  15.71  65.5    2 308 126   0
   2024 03 10 15:50  08 28 24.18    +30 30 40.5   290055 0.9946 130.8     16?  16.21  67.0    0 306 126   0
   ................
   2024 03 11 08:40  09 01 36.10    +34 08 49.2   319754 0.9950 134.5 Cm  16?  18.30  23.7   10  38 122   1
   2024 03 11 08:50  09 01 41.72    +34 11 36.9   319865 0.9950 134.5 Cm  16?  17.85  22.6   12  36 122   1
   2024 03 11 09:00  09 01 46.96    +34 14 21.7   319982 0.9950 134.4 Nm  16?  17.41  21.6   13  34 121   1
   2024 03 11 09:10  09 01 51.83    +34 17 03.6   320104 0.9950 134.4 N   16?  16.98  20.5   14  33 121   1
   2024 03 11 09:20  09 01 56.36    +34 19 42.4   320231 0.9950 134.4 A   16?  16.54  19.6   15  31 121   1
   2024 03 11 09:30  09 02 00.57    +34 22 18.1   320364 0.9950 134.4 A   16?  16.11  18.6   16  29 121   1
   2024 03 11 09:40  09 02 04.46    +34 24 50.5   320503 0.9950 134.4 A   16?  15.68  17.7   17  27 121   1
   2024 03 11 09:50  09 02 08.07    +34 27 19.6   320648 0.9950 134.3     16?  15.25  16.8   18  25 121   1
   2024 03 11 10:00  09 02 11.41    +34 29 45.2   320799 0.9950 134.3     16?  14.83  16.0   19  23 121   1
   2024 03 11 10:10  09 02 14.50    +34 32 07.3   320957 0.9950 134.3     16?  14.41  15.3   20  21 121   1
   2024 03 11 10:20  09 02 17.36    +34 34 25.8   321122 0.9950 134.3     16?  13.99  14.6   20  19 121   1
   2024 03 11 10:30  09 02 20.02    +34 36 40.6   321293 0.9951 134.3     16?  13.57  14.0   21  17 120   1
   2024 03 11 10:40  09 02 22.49    +34 38 51.7   321471 0.9951 134.2     16?  13.15  13.5   22  15 120   1
   2024 03 11 10:50  09 02 24.81    +34 40 59.0   321656 0.9951 134.2     16?  12.74  13.1   22  13 120   1
   2024 03 11 11:00  09 02 26.98    +34 43 02.4   321848 0.9951 134.2     16?  12.33  12.8   23  11 120   1
   2024 03 11 11:10  09 02 29.04    +34 45 02.0   322048 0.9951 134.2     16?  11.92  12.6   23   8 120   1
   2024 03 11 11:20  09 02 31.01    +34 46 57.7   322254 0.9951 134.2     16?  11.52  12.5   23   6 120   1
   2024 03 11 11:30  09 02 32.91    +34 48 49.5   322468 0.9951 134.2     16?  11.12  12.6   23   4 120   1
   2024 03 11 11:40  09 02 34.76    +34 50 37.3   322690 0.9951 134.1     16?  10.72  12.8   23   2 120   1
   2024 03 11 11:50  09 02 36.59    +34 52 21.2   322918 0.9951 134.1  t  16?  10.34  13.2   23 359 119   1
   2024 03 11 12:00  09 02 38.43    +34 54 01.1   323154 0.9951 134.1     16?   9.96  13.8   23 357 119   1
   2024 03 11 12:10  09 02 40.28    +34 55 37.0   323397 0.9951 134.1     16?   9.58  14.6   23 355 119   1
   2024 03 11 12:20  09 02 42.19    +34 57 09.0   323648 0.9951 134.1     16?   9.22  15.7   23 353 119   1
   2024 03 11 12:30  09 02 44.17    +34 58 37.1   323905 0.9951 134.1     16?   8.88  17.0   23 350 119   1
   2024 03 11 12:40  09 02 46.24    +35 00 01.3   324170 0.9951 134.0     16?   8.55  18.6   22 348 119   1
   2024 03 11 12:50  09 02 48.43    +35 01 21.7   324442 0.9951 134.0     16?   8.24  20.4   22 346 119   1
   2024 03 11 13:00  09 02 50.76    +35 02 38.2   324721 0.9951 134.0     16?   7.96  22.6   21 344 119   2
   2024 03 11 13:10  09 02 53.25    +35 03 51.0   325007 0.9951 134.0     16?   7.70  25.2   21 342 118   2
   2024 03 11 13:20  09 02 55.93    +35 05 00.1   325300 0.9951 134.0     16?   7.48  28.0   20 340 118   2
   2024 03 11 13:30  09 02 58.81    +35 06 05.6   325599 0.9951 134.0     16?   7.30  31.1   19 338 118   2
   2024 03 11 13:40  09 03 01.92    +35 07 07.5   325905 0.9951 134.0     16?   7.16  34.6   18 336 118   2
   2024 03 11 13:50  09 03 05.28    +35 08 06.0   326217 0.9951 134.0     16?   7.07  38.2   17 334 118   2
   2024 03 11 14:00  09 03 08.90    +35 09 01.0   326535 0.9951 134.0     16?   7.03  42.1   16 332 118   2
   2024 03 11 14:10  09 03 12.81    +35 09 52.7   326859 0.9951 134.0     16?   7.05  46.0   15 330 118   2
   2024 03 11 14:20  09 03 17.02    +35 10 41.3   327189 0.9951 134.0     16?   7.12  50.0   14 328 118   2
   2024 03 11 14:30  09 03 21.55    +35 11 26.7   327524 0.9951 134.0     16?   7.25  53.9   13 327 117   2
   2024 03 11 14:40  09 03 26.42    +35 12 09.2   327865 0.9951 134.0     16?   7.43  57.7   12 325 117   2
   2024 03 11 14:50  09 03 31.65    +35 12 48.8   328210 0.9951 134.0     16?   7.67  61.2   11 323 117   2
   2024 03 11 15:00  09 03 37.24    +35 13 25.6   328560 0.9951 134.0     16?   7.96  64.5    9 322 117   2
   2024 03 11 15:10  09 03 43.22    +35 13 59.8   328915 0.9951 134.0     16?   8.29  67.5    8 320 117   2
   2024 03 11 15:20  09 03 49.60    +35 14 31.4   329274 0.9951 134.0     16?   8.67  70.3    7 319 117   2
   2024 03 11 15:30  09 03 56.40    +35 15 00.7   329637 0.9952 134.0     16?   9.08  72.8    5 317 117   2
   2024 03 11 15:40  09 04 03.61    +35 15 27.8   330004 0.9952 134.0     16?   9.52  74.9    4 316 117   2
   2024 03 11 15:50  09 04 11.27    +35 15 52.8   330374 0.9952 134.0     16?   9.99  76.9    2 314 117   2
   2024 03 11 16:00  09 04 19.36    +35 16 15.8   330747 0.9952 134.0     16?  10.49  78.6    1 313 116   2
   2024 03 11 16:10  09 04 27.92    +35 16 36.9   331123 0.9952 134.0     16?  11.01  80.0    0 312 116   2
   ................
   2024 03 12 08:30  09 34 31.93    +37 43 14.4   345847 0.9955 136.4 Cm  17?  17.16  29.2    2  41 111   5
   2024 03 12 08:40  09 34 38.71    +37 45 43.8   345802 0.9955 136.4 Cm  17?  16.73  28.1    4  40 111   5
   2024 03 12 08:50  09 34 45.08    +37 48 11.0   345760 0.9955 136.4 Nm  17?  16.30  26.9    5  38 111   5
   2024 03 12 09:00  09 34 51.05    +37 50 35.8   345723 0.9955 136.4 Nm  17?  15.87  25.8    6  37 111   5
   2024 03 12 09:10  09 34 56.62    +37 52 58.2   345690 0.9955 136.4 Nm  17?  15.45  24.6    8  35 111   5
   2024 03 12 09:20  09 35 01.81    +37 55 18.0   345662 0.9955 136.3 Am  17?  15.02  23.5    9  34 111   5
   2024 03 12 09:30  09 35 06.64    +37 57 35.1   345638 0.9955 136.3 Am  17?  14.60  22.4   10  32 111   5
   2024 03 12 09:40  09 35 11.12    +37 59 49.3   345620 0.9955 136.3 Am  17?  14.18  21.4   11  30 111   5
   2024 03 12 09:50  09 35 15.28    +38 02 00.5   345607 0.9955 136.3     17?  13.77  20.3   12  29 111   5
   2024 03 12 10:00  09 35 19.11    +38 04 08.7   345600 0.9955 136.3     17?  13.35  19.3   13  27 110   5
   2024 03 12 10:10  09 35 22.66    +38 06 13.7   345598 0.9955 136.2     17?  12.94  18.4   14  25 110   6
   2024 03 12 10:20  09 35 25.93    +38 08 15.4   345602 0.9955 136.2     17?  12.52  17.5   15  23 110   6
   2024 03 12 10:30  09 35 28.93    +38 10 13.8   345613 0.9955 136.2     17?  12.11  16.6   16  21 110   6
   2024 03 12 10:40  09 35 31.71    +38 12 08.7   345629 0.9955 136.2     17?  11.70  15.9   16  20 110   6
   2024 03 12 10:50  09 35 34.26    +38 14 00.1   345652 0.9955 136.1     17?  11.29  15.2   17  18 110   6
   2024 03 12 11:00  09 35 36.62    +38 15 47.9   345682 0.9955 136.1     17?  10.89  14.5   18  16 110   6
   2024 03 12 11:10  09 35 38.80    +38 17 32.1   345718 0.9955 136.1     17?  10.48  14.0   18  14 110   6
   2024 03 12 11:20  09 35 40.83    +38 19 12.5   345761 0.9955 136.1     17?  10.08  13.6   19  12 110   6
   2024 03 12 11:30  09 35 42.73    +38 20 49.2   345811 0.9955 136.1     17?   9.68  13.3   19  10 109   6
   2024 03 12 11:40  09 35 44.51    +38 22 22.0   345868 0.9955 136.0     17?   9.28  13.1   19   8 109   6
   2024 03 12 11:50  09 35 46.22    +38 23 51.1   345932 0.9955 136.0     17?   8.88  13.1   20   5 109   6
   2024 03 12 12:00  09 35 47.85    +38 25 16.2   346002 0.9955 136.0     17?   8.49  13.3   20   3 109   6
   2024 03 12 12:10  09 35 49.45    +38 26 37.4   346080 0.9955 136.0     17?   8.10  13.7   20   1 109   6
   2024 03 12 12:20  09 35 51.02    +38 27 54.8   346165 0.9955 136.0  t  17?   7.72  14.3   20 359 109   6
   2024 03 12 12:30  09 35 52.60    +38 29 08.2   346257 0.9955 135.9     17?   7.35  15.2   20 357 109   6
   2024 03 12 12:40  09 35 54.21    +38 30 17.8   346356 0.9955 135.9     17?   6.99  16.4   20 355 109   6
   2024 03 12 12:50  09 35 55.87    +38 31 23.4   346462 0.9955 135.9     17?   6.64  17.9   19 353 109   6
   2024 03 12 13:00  09 35 57.60    +38 32 25.2   346575 0.9955 135.9     17?   6.30  19.8   19 351 108   6
   2024 03 12 13:10  09 35 59.43    +38 33 23.1   346695 0.9955 135.9     17?   5.99  22.2   19 349 108   6
   2024 03 12 13:20  09 36 01.38    +38 34 17.2   346822 0.9955 135.9     17?   5.70  25.0   18 347 108   6
   2024 03 12 13:30  09 36 03.47    +38 35 07.6   346955 0.9955 135.9     17?   5.45  28.4   18 345 108   6
   2024 03 12 13:40  09 36 05.72    +38 35 54.2   347096 0.9955 135.9     17?   5.23  32.2   17 343 108   6
   2024 03 12 13:50  09 36 08.16    +38 36 37.2   347242 0.9955 135.8     17?   5.06  36.6   17 341 108   7
   2024 03 12 14:00  09 36 10.80    +38 37 16.5   347395 0.9955 135.8     17?   4.94  41.4   16 339 108   7
   2024 03 12 14:10  09 36 13.66    +38 37 52.4   347555 0.9955 135.8     17?   4.88  46.6   15 337 108   7
   2024 03 12 14:20  09 36 16.78    +38 38 24.7   347720 0.9955 135.8     17?   4.89  51.9   14 335 108   7
   2024 03 12 14:30  09 36 20.16    +38 38 53.8   347891 0.9955 135.8     17?   4.96  57.2   13 334 107   7
   2024 03 12 14:40  09 36 23.82    +38 39 19.5   348068 0.9955 135.8     17?   5.09  62.4   12 332 107   7
   2024 03 12 14:50  09 36 27.79    +38 39 42.1   348251 0.9955 135.8     17?   5.29  67.2   11 330 107   7
   2024 03 12 15:00  09 36 32.08    +38 40 01.5   348439 0.9956 135.8     17?   5.54  71.7   10 329 107   7
   2024 03 12 15:10  09 36 36.71    +38 40 18.1   348632 0.9956 135.8     17?   5.85  75.6    9 327 107   7
   2024 03 12 15:20  09 36 41.69    +38 40 31.7   348829 0.9956 135.8     17?   6.20  79.1    8 325 107   7
   2024 03 12 15:30  09 36 47.05    +38 40 42.7   349032 0.9956 135.8     17?   6.59  82.1    7 324 107   7
   2024 03 12 15:40  09 36 52.79    +38 40 51.0   349239 0.9956 135.8     17?   7.02  84.7    5 322 107   7
   2024 03 12 15:50  09 36 58.92    +38 40 56.8   349449 0.9956 135.8     17?   7.48  86.9    4 321 107   7
   2024 03 12 16:00  09 37 05.48    +38 41 00.3   349664 0.9956 135.8     17?   7.96  88.7    3 319 106   7
   2024 03 12 16:10  09 37 12.45    +38 41 01.6   349882 0.9956 135.9     17?   8.46  90.2    1 318 106   7
   2024 03 12 16:20  09 37 19.87    +38 41 00.8   350104 0.9956 135.9     17?   8.98  91.5    0 317 106   7
   ................
   2024 03 13 08:50  10 07 58.94    +40 32 45.2   351879 0.9958 137.5 Nm  17?  16.63  33.8    0  40 101  12
   2024 03 13 09:00  10 08 06.79    +40 35 02.8   351700 0.9958 137.5 Nm  17?  16.19  32.7    1  39 101  12
   2024 03 13 09:10  10 08 14.21    +40 37 18.4   351525 0.9958 137.5 Nm  17?  15.75  31.6    2  38 101  12
   2024 03 13 09:20  10 08 21.21    +40 39 31.7   351353 0.9958 137.4 Am  17?  15.30  30.5    3  36 101  12
   2024 03 13 09:30  10 08 27.79    +40 41 42.6   351186 0.9958 137.4 Am  17?  14.86  29.5    4  35 101  12
   2024 03 13 09:40  10 08 33.98    +40 43 51.0   351022 0.9958 137.4 Am  17?  14.42  28.4    6  33 101  12
   2024 03 13 09:50  10 08 39.79    +40 45 56.8   350863 0.9958 137.4  m  17?  13.98  27.4    7  32 101  12
   2024 03 13 10:00  10 08 45.23    +40 47 59.8   350709 0.9958 137.3  m  17?  13.54  26.4    8  30 101  12
   2024 03 13 10:10  10 08 50.32    +40 50 00.0   350559 0.9958 137.3  m  17?  13.10  25.4    9  29 101  12
   2024 03 13 10:20  10 08 55.08    +40 51 57.1   350415 0.9958 137.3     17?  12.67  24.5   10  27 101  12
   2024 03 13 10:30  10 08 59.52    +40 53 51.0   350276 0.9958 137.3     17?  12.24  23.6   11  25 101  13
   2024 03 13 10:40  10 09 03.65    +40 55 41.8   350142 0.9958 137.2     17?  11.80  22.8   12  24 100  13
   2024 03 13 10:50  10 09 07.51    +40 57 29.2   350014 0.9958 137.2     17?  11.37  22.0   12  22 100  13
   2024 03 13 11:00  10 09 11.11    +40 59 13.1   349892 0.9958 137.2     17?  10.94  21.3   13  20 100  13
   2024 03 13 11:10  10 09 14.46    +41 00 53.5   349776 0.9958 137.2     17?  10.51  20.6   14  18 100  13
   2024 03 13 11:20  10 09 17.60    +41 02 30.3   349666 0.9958 137.1     17?  10.09  20.1   14  17 100  13
   2024 03 13 11:30  10 09 20.53    +41 04 03.4   349562 0.9958 137.1     17?   9.66  19.7   15  15 100  13
   2024 03 13 11:40  10 09 23.29    +41 05 32.8   349465 0.9958 137.1     17?   9.24  19.3   16  13 100  13
   2024 03 13 11:50  10 09 25.89    +41 06 58.3   349374 0.9958 137.1     17?   8.82  19.2   16  11 100  13
   2024 03 13 12:00  10 09 28.36    +41 08 19.9   349289 0.9958 137.1     17?   8.41  19.1   16   9 100  13
   2024 03 13 12:10  10 09 30.71    +41 09 37.6   349211 0.9958 137.0     17?   8.00  19.3   17   7 100  13
   2024 03 13 12:20  10 09 32.98    +41 10 51.3   349140 0.9958 137.0     17?   7.60  19.7   17   5 100  13
   2024 03 13 12:30  10 09 35.19    +41 12 01.1   349076 0.9958 137.0     17?   7.20  20.3   17   3  99  13
   2024 03 13 12:40  10 09 37.35    +41 13 06.8   349018 0.9958 137.0     17?   6.81  21.2   17   1  99  13
   2024 03 13 12:50  10 09 39.50    +41 14 08.4   348967 0.9958 137.0  t  17?   6.43  22.4   17 359  99  13
   2024 03 13 13:00  10 09 41.65    +41 15 06.0   348923 0.9958 137.0     17?   6.07  24.1   17 357  99  13
   2024 03 13 13:10  10 09 43.84    +41 15 59.6   348885 0.9958 136.9     17?   5.72  26.1   17 355  99  13
   2024 03 13 13:20  10 09 46.08    +41 16 49.1   348855 0.9958 136.9     17?   5.39  28.7   17 353  99  14
   2024 03 13 13:30  10 09 48.39    +41 17 34.6   348830 0.9958 136.9     17?   5.10  31.9   16 351  99  14
   2024 03 13 13:40  10 09 50.81    +41 18 16.1   348813 0.9958 136.9     17?   4.84  35.6   16 349  99  14
   2024 03 13 13:50  10 09 53.35    +41 18 53.7   348802 0.9958 136.9     17?   4.62  40.0   16 347  99  14
   2024 03 13 14:00  10 09 56.04    +41 19 27.3   348797 0.9958 136.9     17?   4.45  45.0   15 346  99  14
   2024 03 13 14:10  10 09 58.90    +41 19 57.0   348799 0.9958 136.9     17?   4.34  50.5   15 344  98  14
   2024 03 13 14:20  10 10 01.95    +41 20 22.9   348807 0.9958 136.9     17?   4.30  56.4   14 342  98  14
   2024 03 13 14:30  10 10 05.22    +41 20 45.1   348821 0.9958 136.9     17?   4.33  62.3   13 340  98  14
   2024 03 13 14:40  10 10 08.72    +41 21 03.6   348841 0.9958 136.9     17?   4.43  68.2   13 338  98  14
   2024 03 13 14:50  10 10 12.48    +41 21 18.5   348867 0.9958 136.9     17?   4.60  73.7   12 337  98  14
   2024 03 13 15:00  10 10 16.52    +41 21 29.8   348898 0.9958 136.9     17?   4.83  78.8   11 335  98  14
   2024 03 13 15:10  10 10 20.85    +41 21 37.7   348935 0.9959 136.9     17?   5.12  83.2   10 333  98  14
   2024 03 13 15:20  10 10 25.51    +41 21 42.3   348977 0.9959 136.9     17?   5.46  87.1    9 332  98  14
   2024 03 13 15:30  10 10 30.50    +41 21 43.7   349024 0.9959 136.9     17?   5.84  90.4    8 330  98  14
   2024 03 13 15:40  10 10 35.84    +41 21 42.0   349076 0.9959 136.9     17?   6.26  93.2    7 328  98  15
   2024 03 13 15:50  10 10 41.56    +41 21 37.2   349133 0.9959 136.9     17?   6.70  95.5    6 327  97  15
   2024 03 13 16:00  10 10 47.66    +41 21 29.6   349194 0.9959 136.9     17?   7.18  97.4    5 326  97  15
   2024 03 13 16:10  10 10 54.17    +41 21 19.3   349259 0.9959 136.9     17?   7.68  98.9    3 324  97  15
   2024 03 13 16:20  10 11 01.10    +41 21 06.3   349328 0.9959 136.9     17?   8.19 100.1    2 323  97  15
   2024 03 13 16:30  10 11 08.46    +41 20 50.9   349401 0.9959 136.9     17?   8.72 101.1    1 321  97  15
   2024 03 13 16:40  10 11 16.26    +41 20 33.1   349477 0.9959 136.9     17?   9.27 101.9    0 320  97  15
   ................
   2024 03 14 09:40  10 45 44.91    +42 52 58.9   337164 0.9960 137.8 Am  17?  16.41  38.7    0  37  93  21
   2024 03 14 09:50  10 45 53.98    +42 55 06.1   336856 0.9960 137.8  m  17?  15.92  37.8    1  35  93  21
   2024 03 14 10:00  10 46 02.61    +42 57 10.8   336552 0.9960 137.8  m  17?  15.43  37.0    2  34  93  21
   2024 03 14 10:10  10 46 10.82    +42 59 12.9   336252 0.9960 137.7  m  17?  14.94  36.2    3  32  93  21
   2024 03 14 10:20  10 46 18.62    +43 01 12.3   335956 0.9960 137.7  m  17?  14.45  35.4    4  31  92  21
   2024 03 14 10:30  10 46 26.02    +43 03 08.8   335665 0.9960 137.7  m  17?  13.96  34.7    6  30  92  21
   2024 03 14 10:40  10 46 33.05    +43 05 02.3   335378 0.9960 137.7  m  17?  13.47  34.0    7  28  92  21
   2024 03 14 10:50  10 46 39.71    +43 06 52.5   335095 0.9960 137.6  m  17?  12.99  33.4    8  26  92  21
   2024 03 14 11:00  10 46 46.03    +43 08 39.5   334817 0.9960 137.6     17?  12.50  32.8    8  25  92  21
   2024 03 14 11:10  10 46 52.03    +43 10 23.0   334545 0.9960 137.6     17?  12.02  32.4    9  23  92  21
   2024 03 14 11:20  10 46 57.72    +43 12 03.0   334278 0.9960 137.6     17?  11.54  31.9   10  22  92  22
   2024 03 14 11:30  10 47 03.13    +43 13 39.4   334016 0.9960 137.5     17?  11.07  31.6   11  20  92  22
   2024 03 14 11:40  10 47 08.27    +43 15 12.0   333759 0.9960 137.5     17?  10.60  31.4   12  18  92  22
   2024 03 14 11:50  10 47 13.17    +43 16 40.7   333509 0.9960 137.5     17?  10.13  31.3   12  16  92  22
   2024 03 14 12:00  10 47 17.85    +43 18 05.5   333264 0.9960 137.5     17?   9.67  31.4   13  15  92  22
   2024 03 14 12:10  10 47 22.33    +43 19 26.2   333025 0.9960 137.5     17?   9.22  31.6   13  13  92  22
   2024 03 14 12:20  10 47 26.64    +43 20 42.8   332792 0.9960 137.4     17?   8.77  32.1   14  11  92  22
   2024 03 14 12:30  10 47 30.80    +43 21 55.3   332565 0.9960 137.4     17?   8.33  32.7   14   9  92  22
   2024 03 14 12:40  10 47 34.83    +43 23 03.5   332345 0.9960 137.4     17?   7.91  33.6   14   7  91  22
   2024 03 14 12:50  10 47 38.76    +43 24 07.4   332131 0.9960 137.4     17?   7.50  34.8   15   6  91  22
   2024 03 14 13:00  10 47 42.62    +43 25 07.0   331923 0.9960 137.4     17?   7.10  36.4   15   4  91  22
   2024 03 14 13:10  10 47 46.42    +43 26 02.2   331721 0.9960 137.3     17?   6.73  38.3   15   2  91  22
   2024 03 14 13:20  10 47 50.20    +43 26 53.0   331526 0.9960 137.3     17?   6.38  40.6   15   0  91  22
   2024 03 14 13:30  10 47 53.98    +43 27 39.5   331337 0.9960 137.3  t  17?   6.06  43.4   15 358  91  22
   2024 03 14 13:40  10 47 57.79    +43 28 21.5   331154 0.9960 137.3     17?   5.78  46.8   15 356  91  22
   2024 03 14 13:50  10 48 01.64    +43 28 59.1   330978 0.9960 137.3     17?   5.54  50.6   15 354  91  23
   2024 03 14 14:00  10 48 05.58    +43 29 32.2   330808 0.9960 137.3     17?   5.35  54.9   14 352  91  23
   2024 03 14 14:10  10 48 09.62    +43 30 01.0   330644 0.9960 137.3     17?   5.21  59.6   14 351  91  23
   2024 03 14 14:20  10 48 13.78    +43 30 25.5   330486 0.9960 137.3     17?   5.15  64.7   14 349  91  23
   2024 03 14 14:30  10 48 18.10    +43 30 45.6   330334 0.9960 137.3     17?   5.15  69.8   13 347  91  23
   2024 03 14 14:40  10 48 22.60    +43 31 01.4   330189 0.9960 137.3     17?   5.22  75.0   13 345  90  23
   2024 03 14 14:50  10 48 27.30    +43 31 13.1   330049 0.9960 137.3     17?   5.35  80.0   12 343  90  23
   2024 03 14 15:00  10 48 32.23    +43 31 20.5   329915 0.9960 137.3     17?   5.56  84.7   12 342  90  23
   2024 03 14 15:10  10 48 37.41    +43 31 23.9   329787 0.9960 137.3     17?   5.82  88.9   11 340  90  23
   2024 03 14 15:20  10 48 42.87    +43 31 23.2   329664 0.9960 137.3     17?   6.14  92.7   10 338  90  23
   2024 03 14 15:30  10 48 48.62    +43 31 18.6   329547 0.9960 137.3     17?   6.50  96.0    9 337  90  23
   2024 03 14 15:40  10 48 54.70    +43 31 10.2   329434 0.9960 137.3     17?   6.91  98.8    9 335  90  23
   2024 03 14 15:50  10 49 01.12    +43 30 58.0   329327 0.9960 137.3     17?   7.35 101.1    8 333  90  24
   2024 03 14 16:00  10 49 07.90    +43 30 42.2   329224 0.9960 137.3     17?   7.83 103.1    7 332  90  24
   2024 03 14 16:10  10 49 15.06    +43 30 22.9   329127 0.9960 137.3     17?   8.33 104.8    6 330  90  24
   2024 03 14 16:20  10 49 22.63    +43 30 00.2   329033 0.9960 137.3     17?   8.85 106.1    5 329  90  24
   2024 03 14 16:30  10 49 30.62    +43 29 34.3   328944 0.9960 137.3     17?   9.39 107.2    4 328  90  24
   2024 03 14 16:40  10 49 39.05    +43 29 05.2   328858 0.9960 137.3     17?   9.95 108.0    2 326  89  24
   2024 03 14 16:50  10 49 47.93    +43 28 33.1   328777 0.9960 137.3     17?  10.53 108.7    1 325  89  24
   2024 03 14 17:00  10 49 57.29    +43 27 58.2   328699 0.9960 137.3     17?  11.11 109.2    0 323  89  24
   ................
   2024 03 15 10:30  11 33 03.63    +44 35 34.5   300309 0.9961 137.3  m  16?  18.71  50.4    0  35  87  31
   2024 03 15 10:40  11 33 16.80    +44 37 33.0   299848 0.9961 137.3  m  16?  18.13  50.0    1  33  87  31
   2024 03 15 10:50  11 33 29.50    +44 39 28.6   299391 0.9961 137.2  m  16?  17.56  49.7    2  32  87  31
   2024 03 15 11:00  11 33 41.75    +44 41 21.1   298937 0.9961 137.2  m  16?  16.99  49.5    3  30  87  31
   2024 03 15 11:10  11 33 53.55    +44 43 10.3   298487 0.9961 137.2  m  16?  16.42  49.3    4  29  87  31
   2024 03 15 11:20  11 34 04.94    +44 44 56.2   298041 0.9961 137.1  m  16?  15.85  49.2    5  28  87  31
   2024 03 15 11:30  11 34 15.92    +44 46 38.4   297600 0.9961 137.1  m  16?  15.29  49.2    6  26  86  31
   2024 03 15 11:40  11 34 26.52    +44 48 17.0   297162 0.9961 137.1     16?  14.74  49.3    7  25  86  32
   2024 03 15 11:50  11 34 36.76    +44 49 51.7   296729 0.9961 137.1     16?  14.19  49.5    8  23  86  32
   2024 03 15 12:00  11 34 46.65    +44 51 22.3   296301 0.9961 137.0     16?  13.66  49.8    8  21  86  32
   2024 03 15 12:10  11 34 56.22    +44 52 48.8   295878 0.9961 137.0     16?  13.13  50.3    9  20  86  32
   2024 03 15 12:20  11 35 05.50    +44 54 11.0   295459 0.9961 137.0     16?  12.62  50.9   10  18  86  32
   2024 03 15 12:30  11 35 14.50    +44 55 28.8   295046 0.9961 137.0     16?  12.12  51.7   10  17  86  32
   2024 03 15 12:40  11 35 23.26    +44 56 42.1   294638 0.9961 136.9     16?  11.64  52.7   11  15  86  32
   2024 03 15 12:50  11 35 31.79    +44 57 50.8   294236 0.9961 136.9     16?  11.18  53.9   11  13  86  32
   2024 03 15 13:00  11 35 40.12    +44 58 54.7   293838 0.9961 136.9     16?  10.74  55.4   12  11  86  32
   2024 03 15 13:10  11 35 48.29    +44 59 53.8   293447 0.9961 136.9     16?  10.33  57.1   12  10  86  32
   2024 03 15 13:20  11 35 56.31    +45 00 48.0   293061 0.9961 136.9     16?   9.95  59.0   13   8  86  32
   2024 03 15 13:30  11 36 04.22    +45 01 37.2   292680 0.9961 136.8     16?   9.61  61.2   13   6  86  32
   2024 03 15 13:40  11 36 12.04    +45 02 21.4   292306 0.9961 136.8     16?   9.30  63.7   13   4  86  32
   2024 03 15 13:50  11 36 19.80    +45 03 00.5   291937 0.9961 136.8     16?   9.05  66.5   13   3  86  32
   2024 03 15 14:00  11 36 27.53    +45 03 34.5   291574 0.9961 136.8     16?   8.84  69.5   13   1  86  32
   2024 03 15 14:10  11 36 35.26    +45 04 03.3   291217 0.9961 136.8  t  16?   8.69  72.8   13 359  86  33
   2024 03 15 14:20  11 36 43.03    +45 04 26.9   290865 0.9961 136.8     16?   8.59  76.2   13 357  86  33
   2024 03 15 14:30  11 36 50.85    +45 04 45.4   290519 0.9961 136.8     16?   8.56  79.7   13 355  85  33
   2024 03 15 14:40  11 36 58.76    +45 04 58.6   290179 0.9961 136.8     16?   8.59  83.2   13 354  85  33
   2024 03 15 14:50  11 37 06.79    +45 05 06.7   289845 0.9961 136.8     16?   8.69  86.7   13 352  85  33
   2024 03 15 15:00  11 37 14.97    +45 05 09.6   289516 0.9961 136.8     16?   8.85  90.1   12 350  85  33
   2024 03 15 15:10  11 37 23.32    +45 05 07.3   289193 0.9961 136.8     16?   9.07  93.4   12 348  85  33
   2024 03 15 15:20  11 37 31.89    +45 04 59.9   288876 0.9961 136.8     16?   9.34  96.4   12 347  85  33
   2024 03 15 15:30  11 37 40.69    +45 04 47.5   288563 0.9961 136.8     16?   9.68  99.2   11 345  85  33
   2024 03 15 15:40  11 37 49.75    +45 04 30.1   288257 0.9961 136.8     16?  10.06 101.7   10 343  85  33
   2024 03 15 15:50  11 37 59.11    +45 04 07.7   287955 0.9961 136.8     16?  10.49 103.9   10 341  85  33
   2024 03 15 16:00  11 38 08.79    +45 03 40.5   287658 0.9961 136.8     16?  10.95 105.9    9 340  85  34
   2024 03 15 16:10  11 38 18.81    +45 03 08.5   287366 0.9961 136.8     16?  11.46 107.7    8 338  85  34
   2024 03 15 16:20  11 38 29.21    +45 02 31.8   287079 0.9961 136.8     16?  12.00 109.2    8 337  85  34
   2024 03 15 16:30  11 38 40.01    +45 01 50.5   286797 0.9961 136.8     16?  12.57 110.5    7 335  85  34
   2024 03 15 16:40  11 38 51.24    +45 01 04.8   286519 0.9961 136.8     16?  13.16 111.5    6 334  85  34
   2024 03 15 16:50  11 39 02.92    +45 00 14.8   286245 0.9961 136.8     16?  13.78 112.4    5 332  85  34
   2024 03 15 17:00  11 39 15.07    +44 59 20.5   285975 0.9961 136.8     16?  14.42 113.2    4 331  85  34
   2024 03 15 17:10  11 39 27.72    +44 58 22.1   285709 0.9961 136.9     16?  15.08 113.8    3 329  85  34
   2024 03 15 17:20  11 39 40.89    +44 57 19.9   285447 0.9961 136.9     16?  15.76 114.2    2 328  85  34
   2024 03 15 17:30  11 39 54.60    +44 56 13.8   285188 0.9961 136.9     16?  16.45 114.6    1 327  84  34
   2024 03 15 17:40  11 40 08.87    +44 55 04.1   284932 0.9961 136.9     16?  17.15 114.8    0 325  84  34
   ................
   2024 03 16 11:40  12 43 43.38    +44 57 45.4   235122 0.9960 134.7  m  16?  28.12  73.1    0  34  86  42
   2024 03 16 11:50  12 44 08.27    +44 59 06.3   234450 0.9960 134.6  m  16?  27.48  73.5    1  33  86  42
   2024 03 16 12:00  12 44 32.65    +45 00 23.1   233779 0.9960 134.6  m  16?  26.85  74.0    2  31  86  42
   2024 03 16 12:10  12 44 56.55    +45 01 35.8   233112 0.9960 134.6  m  16?  26.24  74.6    3  30  86  42
   2024 03 16 12:20  12 45 19.98    +45 02 44.0   232448 0.9960 134.5  m  16?  25.64  75.3    4  28  86  42
   2024 03 16 12:30  12 45 42.96    +45 03 47.6   231787 0.9960 134.5     16?  25.07  76.1    5  27  86  42
   2024 03 16 12:40  12 46 05.51    +45 04 46.2   231129 0.9960 134.4     16?  24.52  77.0    6  26  86  42
   2024 03 16 12:50  12 46 27.66    +45 05 39.8   230474 0.9960 134.4     16?  24.00  78.0    7  24  86  42
   2024 03 16 13:00  12 46 49.43    +45 06 28.1   229823 0.9960 134.4     16?  23.51  79.0    7  23  86  42
   2024 03 16 13:10  12 47 10.85    +45 07 10.9   229176 0.9960 134.3     16?  23.05  80.2    8  21  86  42
   2024 03 16 13:20  12 47 31.93    +45 07 48.0   228533 0.9960 134.3     16?  22.63  81.5    9  19  86  43
   2024 03 16 13:30  12 47 52.72    +45 08 19.3   227894 0.9960 134.3     16?  22.24  82.9   10  18  86  43
   2024 03 16 13:40  12 48 13.24    +45 08 44.5   227260 0.9960 134.2     16?  21.91  84.4   10  16  86  43
   2024 03 16 13:50  12 48 33.51    +45 09 03.6   226629 0.9960 134.2     16?  21.62  86.0   11  15  86  43
   2024 03 16 14:00  12 48 53.57    +45 09 16.3   226003 0.9960 134.2     16?  21.38  87.7   11  13  86  43
   2024 03 16 14:10  12 49 13.45    +45 09 22.4   225381 0.9960 134.1     16?  21.19  89.5   12  11  86  43
   2024 03 16 14:20  12 49 33.19    +45 09 22.0   224764 0.9960 134.1     16?  21.06  91.3   12  10  86  43
   2024 03 16 14:30  12 49 52.82    +45 09 14.8   224152 0.9960 134.1     16?  20.99  93.2   12   8  86  43
   2024 03 16 14:40  12 50 12.36    +45 09 00.7   223544 0.9960 134.1     16?  20.98  95.1   13   6  86  43
   2024 03 16 14:50  12 50 31.87    +45 08 39.6   222941 0.9960 134.1     16?  21.03  97.0   13   4  86  43
   2024 03 16 15:00  12 50 51.37    +45 08 11.5   222342 0.9960 134.0     16?  21.15  98.9   13   3  86  43
   2024 03 16 15:10  12 51 10.89    +45 07 36.2   221749 0.9960 134.0     16?  21.32 100.7   13   1  86  43
   2024 03 16 15:20  12 51 30.48    +45 06 53.6   221160 0.9960 134.0  t  16?  21.57 102.6   13 359  86  43
   2024 03 16 15:30  12 51 50.18    +45 06 03.8   220576 0.9960 134.0     16?  21.87 104.4   13 357  86  44
   2024 03 16 15:40  12 52 10.02    +45 05 06.7   219996 0.9960 134.0     16?  22.23 106.1   13 356  86  44
   2024 03 16 15:50  12 52 30.03    +45 04 02.1   219422 0.9960 134.0     16?  22.66 107.7   13 354  86  44
   2024 03 16 16:00  12 52 50.27    +45 02 50.2   218852 0.9960 134.0     16?  23.14 109.3   13 352  86  44
   2024 03 16 16:10  12 53 10.75    +45 01 30.9   218286 0.9960 134.0     16?  23.68 110.7   12 350  86  44
   2024 03 16 16:20  12 53 31.53    +45 00 04.2   217726 0.9960 134.0     16?  24.27 112.1   12 349  86  44
   2024 03 16 16:30  12 53 52.64    +44 58 30.1   217169 0.9960 134.0     16?  24.90 113.3   12 347  86  44
   2024 03 16 16:40  12 54 14.12    +44 56 48.7   216617 0.9960 134.0     16?  25.59 114.5   11 345  86  44
   2024 03 16 16:50  12 54 36.00    +44 54 59.9   216070 0.9960 134.0     16?  26.32 115.5   11 343  86  44
   2024 03 16 17:00  12 54 58.32    +44 53 03.9   215526 0.9960 134.0     16?  27.09 116.4   10 342  86  44
   2024 03 16 17:10  12 55 21.12    +44 51 00.6   214987 0.9960 134.0     16?  27.90 117.2   10 340  86  44
   2024 03 16 17:20  12 55 44.44    +44 48 50.2   214451 0.9960 134.0     16?  28.75 118.0    9 339  86  45
   2024 03 16 17:30  12 56 08.30    +44 46 32.8   213920 0.9960 134.0     16?  29.63 118.6    8 337  86  45
   2024 03 16 17:40  12 56 32.75    +44 44 08.4   213392 0.9960 134.0     16?  30.54 119.1    7 336  86  45
   2024 03 16 17:50  12 56 57.82    +44 41 37.1   212867 0.9960 134.0     15?  31.48 119.6    7 334  86  45
   2024 03 16 18:00  12 57 23.54    +44 38 59.1   212346 0.9960 134.0     15?  32.45 120.0    6 333  86  45
   2024 03 16 18:10  12 57 49.94    +44 36 14.5   211828 0.9960 134.0     15?  33.45 120.3    5 331  86  45
   2024 03 16 18:20  12 58 17.06    +44 33 23.4   211313 0.9959 134.0     15?  34.47 120.5    4 330  86  45
   2024 03 16 18:30  12 58 44.93    +44 30 26.0   210801 0.9959 134.0     15?  35.51 120.7    3 328  86  45
   2024 03 16 18:40  12 59 13.57    +44 27 22.4   210291 0.9959 134.0     15?  36.58 120.8    2 327  86  45
   2024 03 16 18:50  12 59 43.01    +44 24 12.8   209783 0.9959 134.0 A   15?  37.66 120.9    1 326  86  45
   2024 03 16 19:00  13 00 13.29    +44 20 57.3   209278 0.9959 134.1 A   15?  38.76 120.9    0 324  86  46
   ................
   2024 03 17 13:30  15 16 30.93    +36 22 34.0   123596 0.9956 120.6     14? 117.56 113.1    0  45 103  53
   2024 03 17 13:40  15 17 59.63    +36 14 46.4   122499 0.9956 120.4     14? 118.48 113.8    2  44 103  53
   2024 03 17 13:50  15 19 28.41    +36 06 41.7   121401 0.9956 120.2     14? 119.49 114.5    3  43 104  53
   2024 03 17 14:00  15 20 57.29    +35 58 18.9   120301 0.9956 120.0     14? 120.58 115.3    4  42 104  53
   2024 03 17 14:10  15 22 26.30    +35 49 37.4   119201 0.9956 119.7     14? 121.77 116.0    6  41 104  53
   2024 03 17 14:20  15 23 55.47    +35 40 36.4   118100 0.9956 119.5     14? 123.06 116.7    7  39 104  53
   2024 03 17 14:30  15 25 24.84    +35 31 15.1   116998 0.9956 119.3     14? 124.45 117.5    8  38 105  53
   2024 03 17 14:40  15 26 54.44    +35 21 32.7   115896 0.9956 119.1     14? 125.94 118.3   10  37 105  53
   2024 03 17 14:50  15 28 24.31    +35 11 28.3   114793 0.9956 118.9     14? 127.55 119.0   11  36 105  53
   2024 03 17 15:00  15 29 54.49    +35 01 01.1   113690 0.9956 118.6     14? 129.28 119.8   12  34 106  54
   2024 03 17 15:10  15 31 25.03    +34 50 10.2   112587 0.9956 118.4     14? 131.13 120.5   13  33 106  54
   2024 03 17 15:20  15 32 55.96    +34 38 54.8   111485 0.9956 118.2     14? 133.10 121.3   14  32 106  54
   2024 03 17 15:30  15 34 27.35    +34 27 13.9   110382 0.9956 118.0     14? 135.21 122.0   15  30 106  54
   2024 03 17 15:40  15 35 59.23    +34 15 06.7   109280 0.9956 117.7     14? 137.46 122.8   16  29 107  54
   2024 03 17 15:50  15 37 31.66    +34 02 32.0   108178 0.9956 117.5     14? 139.85 123.5   17  27 107  54
   2024 03 17 16:00  15 39 04.70    +33 49 29.0   107076 0.9956 117.3     14? 142.39 124.2   19  26 107  54
   2024 03 17 16:10  15 40 38.40    +33 35 56.7   105975 0.9955 117.0     13? 145.08 125.0   19  24 108  54
   2024 03 17 16:20  15 42 12.83    +33 21 54.0   104875 0.9955 116.8     13? 147.93 125.7   20  23 108  54
   2024 03 17 16:30  15 43 48.04    +33 07 19.9   103776 0.9955 116.6     13? 150.93 126.3   21  21 108  54
   2024 03 17 16:40  15 45 24.11    +32 52 13.4   102677 0.9955 116.3     13? 154.11 127.0   22  19 109  54
   2024 03 17 16:50  15 47 01.10    +32 36 33.2   101580 0.9955 116.1     13? 157.46 127.6   23  18 109  54
   2024 03 17 17:00  15 48 39.09    +32 20 18.3   100483 0.9955 115.8     13? 160.98 128.3   24  16 110  55
   2024 03 17 17:10  15 50 18.14    +32 03 27.5    99388 0.9955 115.6     13? 164.69 128.9   25  14 110  55
   2024 03 17 17:20  15 51 58.33    +31 45 59.7    98294 0.9955 115.3     13? 168.59 129.5   25  12 110  55
   

Euclid (JPL-ID: -680)

   Date (UTC) HH:MM   RA              Dec         delta   r     elong SM  mag  '/hr    PA   alt  az moo ill
   ---- -- -- -----  -------------   -----------  ------ ------ ----- --  --- ------ ------ --- --- --- ---
   2024 03 04 08:40  09 10 48.54    +18 46 59.8   0.0103 1.0007 150.4 C   20?   0.82 187.3   16  55 128  42
   2024 03 04 08:50  09 10 48.42    +18 46 51.6   0.0103 1.0007 150.4 C   20?   0.87 194.6   18  53 128  42
   2024 03 04 09:00  09 10 48.23    +18 46 43.0   0.0103 1.0007 150.4 N   20?   0.93 200.8   19  51 128  42
   2024 03 04 09:10  09 10 47.96    +18 46 34.2   0.0103 1.0007 150.4 N   20?   1.00 205.9   21  50 128  42
   2024 03 04 09:20  09 10 47.62    +18 46 25.1   0.0103 1.0007 150.4 N   20?   1.07 210.2   23  48 128  42
   2024 03 04 09:30  09 10 47.20    +18 46 15.6   0.0103 1.0007 150.4 A   20?   1.15 213.6   24  46 128  42
   2024 03 04 09:40  09 10 46.72    +18 46 05.9   0.0103 1.0007 150.4 A   20?   1.23 216.4   26  44 128  41
   2024 03 04 09:50  09 10 46.17    +18 45 55.7   0.0103 1.0007 150.4 A   20?   1.32 218.6   27  42 129  41
   2024 03 04 10:00  09 10 45.57    +18 45 45.3   0.0103 1.0007 150.4     20?   1.40 220.4   29  39 129  41
   2024 03 04 10:10  09 10 44.90    +18 45 34.5   0.0103 1.0007 150.4     20?   1.48 221.9   30  37 129  41
   2024 03 04 10:20  09 10 44.18    +18 45 23.3   0.0103 1.0007 150.4     20?   1.56 223.0   31  35 129  41
   2024 03 04 10:30  09 10 43.41    +18 45 11.7   0.0103 1.0007 150.4     20?   1.63 223.9   32  32 129  41
   2024 03 04 10:40  09 10 42.59    +18 44 59.7   0.0103 1.0007 150.3     20?   1.71 224.5   34  30 129  41
   2024 03 04 10:50  09 10 41.73    +18 44 47.3   0.0103 1.0007 150.3     20?   1.78 224.9   35  27 129  41
   2024 03 04 11:00  09 10 40.83    +18 44 34.5   0.0103 1.0007 150.3     20?   1.84 225.2   36  25 129  41
   2024 03 04 11:10  09 10 39.89    +18 44 21.3   0.0103 1.0007 150.3     20?   1.91 225.3   36  22 130  41
   2024 03 04 11:20  09 10 38.92    +18 44 07.6   0.0103 1.0007 150.3     20?   1.97 225.3   37  19 130  40
   2024 03 04 11:30  09 10 37.92    +18 43 53.6   0.0103 1.0007 150.3     20?   2.02 225.1   38  16 130  40
   2024 03 04 11:40  09 10 36.91    +18 43 39.0   0.0103 1.0007 150.3     20?   2.08 224.8   38  13 130  40
   2024 03 04 11:50  09 10 35.87    +18 43 24.1   0.0103 1.0007 150.3     20?   2.12 224.4   39  10 130  40
   2024 03 04 12:00  09 10 34.81    +18 43 08.7   0.0103 1.0007 150.3     20?   2.17 224.0   39   7 130  40
   2024 03 04 12:10  09 10 33.75    +18 42 52.8   0.0103 1.0007 150.3     20?   2.21 223.4   39   4 130  40
   2024 03 04 12:20  09 10 32.68    +18 42 36.5   0.0103 1.0007 150.3     20?   2.25 222.7   40   1 130  40
   2024 03 04 12:30  09 10 31.61    +18 42 19.8   0.0103 1.0007 150.2  t  20?   2.28 221.9   40 358 131  40
   2024 03 04 12:40  09 10 30.54    +18 42 02.6   0.0103 1.0007 150.2     20?   2.31 221.1   39 355 131  40
   2024 03 04 12:50  09 10 29.48    +18 41 45.0   0.0103 1.0007 150.2     20?   2.33 220.1   39 352 131  40
   2024 03 04 13:00  09 10 28.43    +18 41 26.9   0.0103 1.0007 150.2     20?   2.36 219.1   39 349 131  40
   2024 03 04 13:10  09 10 27.40    +18 41 08.4   0.0103 1.0007 150.2     20?   2.37 217.9   38 346 131  39
   2024 03 04 13:20  09 10 26.38    +18 40 49.4   0.0103 1.0007 150.2     20?   2.39 216.7   38 343 131  39
   2024 03 04 13:30  09 10 25.39    +18 40 30.0   0.0103 1.0007 150.2     20?   2.40 215.4   37 340 131  39
   2024 03 04 13:40  09 10 24.42    +18 40 10.2   0.0103 1.0007 150.2  m  20?   2.41 214.0   36 337 131  39
   2024 03 04 13:50  09 10 23.49    +18 39 49.9   0.0103 1.0007 150.2  m  20?   2.42 212.5   36 334 131  39
   2024 03 04 14:00  09 10 22.60    +18 39 29.3   0.0103 1.0007 150.2  m  20?   2.43 210.9   35 331 132  39
   2024 03 04 14:10  09 10 21.74    +18 39 08.2   0.0103 1.0007 150.2  m  20?   2.43 209.2   34 329 132  39
   2024 03 04 14:20  09 10 20.93    +18 38 46.8   0.0103 1.0007 150.2  m  20?   2.44 207.4   32 326 132  39
   2024 03 04 14:30  09 10 20.17    +18 38 24.9   0.0103 1.0007 150.1  m  20?   2.44 205.5   31 324 132  39
   2024 03 04 14:40  09 10 19.46    +18 38 02.7   0.0103 1.0007 150.1  m  20?   2.44 203.5   30 322 132  39
   2024 03 04 14:50  09 10 18.80    +18 37 40.1   0.0103 1.0007 150.1  m  20?   2.44 201.4   29 319 132  39
   2024 03 04 15:00  09 10 18.20    +18 37 17.2   0.0103 1.0007 150.1  m  20?   2.45 199.3   27 317 132  39
   2024 03 04 15:10  09 10 17.67    +18 36 53.9   0.0103 1.0007 150.1  m  20?   2.45 197.0   26 315 132  39
   2024 03 04 15:20  09 10 17.20    +18 36 30.3   0.0103 1.0007 150.1  m  20?   2.46 194.7   24 313 132  38
   2024 03 04 15:30  09 10 16.80    +18 36 06.4   0.0103 1.0007 150.1  m  20?   2.46 192.2   23 311 132  38
   2024 03 04 15:40  09 10 16.47    +18 35 42.1   0.0103 1.0008 150.1  m  20?   2.47 189.8   21 309 132  38
   2024 03 04 15:50  09 10 16.21    +18 35 17.6   0.0103 1.0008 150.1  m  20?   2.48 187.2   19 307 133  38
   2024 03 04 16:00  09 10 16.03    +18 34 52.8   0.0103 1.0008 150.1  m  20?   2.50 184.6   18 306 133  38
   2024 03 04 16:10  09 10 15.94    +18 34 27.8   0.0103 1.0008 150.1  m  20?   2.52 181.9   16 304 133  38
   2024 03 04 16:20  09 10 15.92    +18 34 02.5   0.0103 1.0008 150.1  m  20?   2.54 179.2   14 302 133  38
   2024 03 04 16:30  09 10 15.99    +18 33 37.0   0.0103 1.0008 150.1  m  20?   2.57 176.5   12 301 133  38
   2024 03 04 16:40  09 10 16.14    +18 33 11.3   0.0103 1.0008 150.1  m  20?   2.60 173.8   10 299 133  38
   2024 03 04 16:50  09 10 16.38    +18 32 45.4   0.0103 1.0008 150.1  m  20?   2.63 171.1    9 298 133  38
   2024 03 04 17:00  09 10 16.72    +18 32 19.4   0.0103 1.0008 150.1  m  20?   2.67 168.4    7 296 133  38
   2024 03 04 17:10  09 10 17.14    +18 31 53.2   0.0103 1.0008 150.1  m  20?   2.71 165.8    5 295 133  38
   2024 03 04 17:20  09 10 17.66    +18 31 26.8   0.0103 1.0008 150.1  m  20?   2.76 163.1    3 293 133  38
   2024 03 04 17:30  09 10 18.27    +18 31 00.4   0.0103 1.0008 150.1  m  20?   2.81 160.6    1 292 133  38
   ................
   2024 03 05 08:40  09 13 38.48    +18 06 43.7   0.0103 1.0009 150.3 C   20?   0.88 185.1   17  55 140  32
   2024 03 05 08:50  09 13 38.39    +18 06 34.7   0.0103 1.0009 150.3 C   20?   0.93 192.0   18  53 140  32
   2024 03 05 09:00  09 13 38.21    +18 06 25.5   0.0103 1.0009 150.3 N   20?   0.98 198.0   20  52 140  32
   2024 03 05 09:10  09 13 37.96    +18 06 16.0   0.0103 1.0009 150.3 N   20?   1.05 203.1   22  50 141  31
   2024 03 05 09:20  09 13 37.64    +18 06 06.3   0.0103 1.0009 150.3 N   20?   1.12 207.4   23  48 141  31
   2024 03 05 09:30  09 13 37.25    +18 05 56.2   0.0103 1.0009 150.3 A   20?   1.19 210.9   25  46 141  31
   2024 03 05 09:40  09 13 36.78    +18 05 45.8   0.0103 1.0009 150.3 A   20?   1.27 213.8   26  44 141  31
   2024 03 05 09:50  09 13 36.26    +18 05 35.1   0.0103 1.0009 150.3 A   20?   1.35 216.2   28  42 141  31
   2024 03 05 10:00  09 13 35.67    +18 05 24.0   0.0103 1.0009 150.3     20?   1.43 218.1   29  40 141  31
   2024 03 05 10:10  09 13 35.02    +18 05 12.6   0.0103 1.0009 150.2     20?   1.51 219.6   31  37 141  31
   2024 03 05 10:20  09 13 34.32    +18 05 00.8   0.0103 1.0009 150.2     20?   1.58 220.9   32  35 141  31
   2024 03 05 10:30  09 13 33.57    +18 04 48.6   0.0103 1.0009 150.2     20?   1.66 221.8   33  33 142  31
   2024 03 05 10:40  09 13 32.78    +18 04 36.1   0.0103 1.0009 150.2     20?   1.73 222.6   34  30 142  31
   2024 03 05 10:50  09 13 31.94    +18 04 23.1   0.0103 1.0009 150.2     20?   1.80 223.1   35  27 142  30
   2024 03 05 11:00  09 13 31.06    +18 04 09.8   0.0103 1.0009 150.2     20?   1.86 223.4   36  25 142  30
   2024 03 05 11:10  09 13 30.14    +18 03 56.0   0.0103 1.0009 150.2     20?   1.93 223.6   37  22 142  30
   2024 03 05 11:20  09 13 29.20    +18 03 41.8   0.0103 1.0009 150.2     20?   1.99 223.6   38  19 142  30
   2024 03 05 11:30  09 13 28.22    +18 03 27.2   0.0103 1.0009 150.2     20?   2.04 223.5   39  16 142  30
   2024 03 05 11:40  09 13 27.23    +18 03 12.2   0.0103 1.0009 150.2     20?   2.09 223.3   39  13 143  30
   2024 03 05 11:50  09 13 26.22    +18 02 56.8   0.0103 1.0009 150.2     20?   2.14 223.0   40  10 143  30
   2024 03 05 12:00  09 13 25.19    +18 02 40.9   0.0103 1.0009 150.1     20?   2.18 222.5   40   7 143  30
   2024 03 05 12:10  09 13 24.15    +18 02 24.6   0.0103 1.0009 150.1     20?   2.22 222.0   40   4 143  30
   2024 03 05 12:20  09 13 23.11    +18 02 07.8   0.0103 1.0009 150.1     20?   2.26 221.3   40   1 143  30
   2024 03 05 12:30  09 13 22.06    +18 01 50.7   0.0103 1.0009 150.1  t  20?   2.29 220.6   40 357 143  29
   2024 03 05 12:40  09 13 21.02    +18 01 33.0   0.0103 1.0009 150.1     20?   2.32 219.8   40 354 143  29
   2024 03 05 12:50  09 13 19.98    +18 01 15.0   0.0103 1.0009 150.1     20?   2.34 218.8   40 351 143  29
   2024 03 05 13:00  09 13 18.96    +18 00 56.5   0.0103 1.0009 150.1     20?   2.37 217.8   40 348 144  29
   2024 03 05 13:10  09 13 17.95    +18 00 37.6   0.0103 1.0009 150.1     20?   2.38 216.7   39 345 144  29
   2024 03 05 13:20  09 13 16.97    +18 00 18.3   0.0103 1.0009 150.1     20?   2.40 215.5   38 342 144  29
   2024 03 05 13:30  09 13 16.01    +17 59 58.5   0.0103 1.0009 150.1     20?   2.41 214.2   38 339 144  29
   2024 03 05 13:40  09 13 15.07    +17 59 38.3   0.0103 1.0009 150.1     20?   2.42 212.8   37 336 144  29
   2024 03 05 13:50  09 13 14.17    +17 59 17.8   0.0103 1.0009 150.0     20?   2.43 211.3   36 333 144  29
   2024 03 05 14:00  09 13 13.31    +17 58 56.8   0.0103 1.0009 150.0     20?   2.44 209.7   35 331 144  29
   2024 03 05 14:10  09 13 12.48    +17 58 35.4   0.0103 1.0009 150.0     20?   2.44 208.0   34 328 144  29
   2024 03 05 14:20  09 13 11.70    +17 58 13.7   0.0103 1.0009 150.0     20?   2.44 206.2   33 326 144  29
   2024 03 05 14:30  09 13 10.97    +17 57 51.6   0.0103 1.0009 150.0     20?   2.45 204.3   32 323 145  28
   2024 03 05 14:40  09 13 10.29    +17 57 29.1   0.0103 1.0009 150.0  m  20?   2.45 202.3   30 321 145  28
   2024 03 05 14:50  09 13 09.67    +17 57 06.2   0.0103 1.0009 150.0  m  20?   2.45 200.3   29 319 145  28
   2024 03 05 15:00  09 13 09.11    +17 56 43.0   0.0103 1.0009 150.0  m  20?   2.46 198.1   28 316 145  28
   2024 03 05 15:10  09 13 08.61    +17 56 19.5   0.0103 1.0009 150.0  m  20?   2.46 195.8   26 314 145  28
   2024 03 05 15:20  09 13 08.17    +17 55 55.7   0.0103 1.0009 150.0  m  20?   2.47 193.5   25 312 145  28
   2024 03 05 15:30  09 13 07.81    +17 55 31.6   0.0103 1.0009 150.0  m  20?   2.47 191.0   23 310 145  28
   2024 03 05 15:40  09 13 07.51    +17 55 07.1   0.0103 1.0009 150.0  m  20?   2.48 188.5   21 308 145  28
   2024 03 05 15:50  09 13 07.29    +17 54 42.4   0.0103 1.0009 150.0  m  20?   2.50 186.0   20 307 145  28
   2024 03 05 16:00  09 13 07.15    +17 54 17.5   0.0103 1.0009 150.0  m  20?   2.51 183.4   18 305 145  28
   2024 03 05 16:10  09 13 07.09    +17 53 52.3   0.0103 1.0010 150.0  m  20?   2.53 180.7   16 303 146  28
   2024 03 05 16:20  09 13 07.11    +17 53 26.8   0.0103 1.0010 149.9  m  20?   2.56 178.0   14 302 146  28
   2024 03 05 16:30  09 13 07.22    +17 53 01.2   0.0103 1.0010 149.9  m  20?   2.58 175.3   13 300 146  28
   2024 03 05 16:40  09 13 07.41    +17 52 35.3   0.0103 1.0010 149.9  m  20?   2.62 172.6   11 298 146  27
   2024 03 05 16:50  09 13 07.69    +17 52 09.3   0.0103 1.0010 149.9  m  20?   2.65 169.9    9 297 146  27
   2024 03 05 17:00  09 13 08.06    +17 51 43.1   0.0103 1.0010 149.9  m  20?   2.69 167.3    7 296 146  27
   2024 03 05 17:10  09 13 08.52    +17 51 16.8   0.0103 1.0010 149.9  m  20?   2.74 164.6    5 294 146  27
   2024 03 05 17:20  09 13 09.08    +17 50 50.3   0.0103 1.0010 149.9  m  20?   2.79 162.0    3 293 146  27
   2024 03 05 17:30  09 13 09.73    +17 50 23.8   0.0103 1.0010 149.9  m  20?   2.84 159.5    1 291 146  27
   2024 03 05 17:40  09 13 10.48    +17 49 57.1   0.0103 1.0010 149.9  m  20?   2.90 157.0    0 290 146  27
   ................
   2024 03 06 08:40  09 16 32.94    +17 25 30.5   0.0102 1.0011 150.2 C   20?   0.95 182.9   17  56 153  22
   2024 03 06 08:50  09 16 32.87    +17 25 20.8   0.0102 1.0011 150.2 C   20?   0.99 189.5   19  54 153  22
   2024 03 06 09:00  09 16 32.72    +17 25 11.0   0.0102 1.0011 150.2 N   20?   1.04 195.3   21  52 153  22
   2024 03 06 09:10  09 16 32.49    +17 25 00.8   0.0102 1.0011 150.2 N   20?   1.10 200.3   22  50 153  22
   2024 03 06 09:20  09 16 32.19    +17 24 50.4   0.0102 1.0011 150.2 N   20?   1.16 204.6   24  48 154  21
   2024 03 06 09:30  09 16 31.81    +17 24 39.7   0.0102 1.0011 150.2 A   20?   1.23 208.2   26  46 154  21
   2024 03 06 09:40  09 16 31.37    +17 24 28.6   0.0102 1.0011 150.2 A   20?   1.31 211.1   27  44 154  21
   2024 03 06 09:50  09 16 30.87    +17 24 17.3   0.0102 1.0011 150.1 A   20?   1.38 213.6   29  42 154  21
   2024 03 06 10:00  09 16 30.31    +17 24 05.6   0.0102 1.0011 150.1     20?   1.46 215.7   30  40 154  21
   2024 03 06 10:10  09 16 29.68    +17 23 53.5   0.0102 1.0011 150.1     20?   1.54 217.3   31  38 154  21
   2024 03 06 10:20  09 16 29.01    +17 23 41.1   0.0102 1.0011 150.1     20?   1.61 218.6   33  35 154  21
   2024 03 06 10:30  09 16 28.28    +17 23 28.4   0.0102 1.0011 150.1     20?   1.68 219.7   34  33 155  21
   2024 03 06 10:40  09 16 27.51    +17 23 15.2   0.0102 1.0011 150.1     20?   1.75 220.5   35  30 155  21
   2024 03 06 10:50  09 16 26.69    +17 23 01.7   0.0102 1.0011 150.1     20?   1.82 221.1   36  27 155  21
   2024 03 06 11:00  09 16 25.84    +17 22 47.8   0.0102 1.0011 150.1     20?   1.88 221.6   37  25 155  21
   2024 03 06 11:10  09 16 24.95    +17 22 33.5   0.0102 1.0011 150.1     20?   1.94 221.8   38  22 155  20
   2024 03 06 11:20  09 16 24.03    +17 22 18.8   0.0102 1.0011 150.1     20?   2.00 221.9   39  19 155  20
   2024 03 06 11:30  09 16 23.09    +17 22 03.7   0.0102 1.0011 150.1     20?   2.06 221.9   39  16 155  20
   2024 03 06 11:40  09 16 22.12    +17 21 48.1   0.0102 1.0011 150.1     20?   2.11 221.7   40  13 155  20
   2024 03 06 11:50  09 16 21.13    +17 21 32.2   0.0102 1.0011 150.0     20?   2.15 221.4   40  10 156  20
   2024 03 06 12:00  09 16 20.13    +17 21 15.8   0.0102 1.0011 150.0     20?   2.20 221.0   41   7 156  20
   2024 03 06 12:10  09 16 19.12    +17 20 59.0   0.0102 1.0011 150.0     20?   2.23 220.5   41   3 156  20
   2024 03 06 12:20  09 16 18.11    +17 20 41.8   0.0102 1.0011 150.0     20?   2.27 219.9   41   0 156  20
   2024 03 06 12:30  09 16 17.09    +17 20 24.2   0.0102 1.0011 150.0  t  20?   2.30 219.2   41 357 156  20
   2024 03 06 12:40  09 16 16.08    +17 20 06.2   0.0102 1.0011 150.0     20?   2.33 218.4   41 354 156  20
   2024 03 06 12:50  09 16 15.07    +17 19 47.7   0.0102 1.0011 150.0     20?   2.35 217.5   41 351 156  20
   2024 03 06 13:00  09 16 14.08    +17 19 28.8   0.0102 1.0011 150.0     20?   2.37 216.5   40 348 156  19
   2024 03 06 13:10  09 16 13.10    +17 19 09.5   0.0102 1.0011 150.0     20?   2.39 215.4   40 345 157  19
   2024 03 06 13:20  09 16 12.15    +17 18 49.8   0.0102 1.0011 150.0     20?   2.41 214.2   39 342 157  19
   2024 03 06 13:30  09 16 11.22    +17 18 29.7   0.0102 1.0011 150.0     20?   2.42 212.9   38 339 157  19
   2024 03 06 13:40  09 16 10.32    +17 18 09.2   0.0102 1.0011 149.9     20?   2.43 211.5   38 336 157  19
   2024 03 06 13:50  09 16 09.45    +17 17 48.3   0.0102 1.0011 149.9     20?   2.44 210.0   37 333 157  19
   2024 03 06 14:00  09 16 08.62    +17 17 27.0   0.0102 1.0011 149.9     20?   2.44 208.4   36 330 157  19
   2024 03 06 14:10  09 16 07.83    +17 17 05.3   0.0102 1.0011 149.9     20?   2.45 206.8   35 328 157  19
   2024 03 06 14:20  09 16 07.08    +17 16 43.3   0.0102 1.0011 149.9     20?   2.45 205.0   33 325 157  19
   2024 03 06 14:30  09 16 06.39    +17 16 20.8   0.0102 1.0011 149.9     20?   2.45 203.1   32 323 158  19
   2024 03 06 14:40  09 16 05.74    +17 15 58.1   0.0102 1.0011 149.9     20?   2.46 201.1   31 320 158  19
   2024 03 06 14:50  09 16 05.16    +17 15 35.0   0.0102 1.0011 149.9     20?   2.46 199.0   29 318 158  19
   2024 03 06 15:00  09 16 04.63    +17 15 11.6   0.0102 1.0011 149.9     20?   2.46 196.8   28 316 158  19
   2024 03 06 15:10  09 16 04.17    +17 14 47.8   0.0102 1.0011 149.9     20?   2.47 194.5   26 314 158  18
   2024 03 06 15:20  09 16 03.77    +17 14 23.8   0.0102 1.0011 149.9     20?   2.48 192.2   25 312 158  18
   2024 03 06 15:30  09 16 03.44    +17 13 59.4   0.0102 1.0011 149.9     20?   2.48 189.8   23 310 158  18
   2024 03 06 15:40  09 16 03.18    +17 13 34.8   0.0102 1.0011 149.9  m  20?   2.50 187.3   22 308 158  18
   2024 03 06 15:50  09 16 03.00    +17 13 09.9   0.0102 1.0011 149.9  m  20?   2.51 184.7   20 306 158  18
   2024 03 06 16:00  09 16 02.90    +17 12 44.8   0.0102 1.0011 149.9  m  20?   2.53 182.1   18 304 159  18
   2024 03 06 16:10  09 16 02.88    +17 12 19.4   0.0102 1.0012 149.8  m  20?   2.55 179.4   16 302 159  18
   2024 03 06 16:20  09 16 02.94    +17 11 53.8   0.0102 1.0012 149.8  m  20?   2.57 176.8   15 301 159  18
   2024 03 06 16:30  09 16 03.09    +17 11 28.0   0.0102 1.0012 149.8  m  20?   2.60 174.1   13 299 159  18
   2024 03 06 16:40  09 16 03.32    +17 11 02.0   0.0102 1.0012 149.8  m  20?   2.64 171.4   11 298 159  18
   2024 03 06 16:50  09 16 03.64    +17 10 35.8   0.0102 1.0012 149.8  m  20?   2.68 168.7    9 296 159  18
   2024 03 06 17:00  09 16 04.05    +17 10 09.5   0.0102 1.0012 149.8  m  20?   2.72 166.0    7 295 159  18
   2024 03 06 17:10  09 16 04.56    +17 09 43.1   0.0102 1.0012 149.8  m  20?   2.77 163.4    5 293 159  18
   2024 03 06 17:20  09 16 05.16    +17 09 16.5   0.0102 1.0012 149.8  m  20?   2.82 160.9    3 292 159  18
   2024 03 06 17:30  09 16 05.85    +17 08 49.8   0.0102 1.0012 149.8  m  20?   2.88 158.3    1 291 159  18
   2024 03 06 17:40  09 16 06.64    +17 08 23.1   0.0102 1.0012 149.8  m  20?   2.94 155.9    0 289 159  18
   ................
   2024 03 07 08:40  09 19 32.38    +16 43 18.3   0.0102 1.0013 150.1 C   20?   1.02 180.6   18  56 166  13
   2024 03 07 08:50  09 19 32.34    +16 43 08.0   0.0102 1.0013 150.1 C   20?   1.05 186.8   20  54 166  13
   2024 03 07 09:00  09 19 32.21    +16 42 57.5   0.0102 1.0013 150.1 N   20?   1.10 192.5   21  52 167  13
   2024 03 07 09:10  09 19 32.01    +16 42 46.6   0.0102 1.0013 150.1 N   20?   1.15 197.4   23  51 167  13
   2024 03 07 09:20  09 19 31.74    +16 42 35.5   0.0102 1.0013 150.1 N   20?   1.21 201.7   25  49 167  13
   2024 03 07 09:30  09 19 31.39    +16 42 24.1   0.0102 1.0013 150.1 A   20?   1.28 205.3   26  47 167  13
   2024 03 07 09:40  09 19 30.98    +16 42 12.4   0.0102 1.0013 150.1 A   20?   1.35 208.4   28  45 167  13
   2024 03 07 09:50  09 19 30.50    +16 42 00.4   0.0102 1.0013 150.1 A   20?   1.42 210.9   29  42 167  12
   2024 03 07 10:00  09 19 29.96    +16 41 48.1   0.0102 1.0013 150.1     20?   1.49 213.1   31  40 167  12
   2024 03 07 10:10  09 19 29.37    +16 41 35.4   0.0101 1.0013 150.0     20?   1.56 214.9   32  38 167  12
   2024 03 07 10:20  09 19 28.72    +16 41 22.4   0.0101 1.0013 150.0     20?   1.64 216.3   33  35 168  12
   2024 03 07 10:30  09 19 28.02    +16 41 09.0   0.0101 1.0013 150.0     20?   1.71 217.5   35  33 168  12
   2024 03 07 10:40  09 19 27.28    +16 40 55.2   0.0101 1.0013 150.0     20?   1.77 218.4   36  30 168  12
   2024 03 07 10:50  09 19 26.49    +16 40 41.1   0.0101 1.0013 150.0     20?   1.84 219.1   37  28 168  12
   2024 03 07 11:00  09 19 25.67    +16 40 26.6   0.0101 1.0013 150.0     20?   1.90 219.6   38  25 168  12
   2024 03 07 11:10  09 19 24.81    +16 40 11.8   0.0101 1.0013 150.0     20?   1.96 219.9   39  22 168  12
   2024 03 07 11:20  09 19 23.92    +16 39 56.5   0.0101 1.0013 150.0     20?   2.02 220.1   39  19 168  12
   2024 03 07 11:30  09 19 23.00    +16 39 40.9   0.0101 1.0013 150.0     20?   2.07 220.1   40  16 168  12
   2024 03 07 11:40  09 19 22.07    +16 39 24.8   0.0101 1.0013 150.0     20?   2.12 220.0   41  13 169  12
   2024 03 07 11:50  09 19 21.11    +16 39 08.3   0.0101 1.0013 150.0     20?   2.17 219.8   41  10 169  12
   2024 03 07 12:00  09 19 20.14    +16 38 51.5   0.0101 1.0013 149.9     20?   2.21 219.4   41   6 169  11
   2024 03 07 12:10  09 19 19.16    +16 38 34.2   0.0101 1.0013 149.9     20?   2.25 219.0   42   3 169  11
   2024 03 07 12:20  09 19 18.18    +16 38 16.5   0.0101 1.0013 149.9     20?   2.28 218.4   42   0 169  11
   2024 03 07 12:30  09 19 17.20    +16 37 58.5   0.0101 1.0013 149.9  t  20?   2.31 217.7   42 357 169  11
   2024 03 07 12:40  09 19 16.22    +16 37 40.0   0.0101 1.0013 149.9     20?   2.34 216.9   41 354 169  11
   2024 03 07 12:50  09 19 15.25    +16 37 21.1   0.0101 1.0013 149.9     20?   2.36 216.1   41 350 169  11
   2024 03 07 13:00  09 19 14.29    +16 37 01.8   0.0101 1.0013 149.9     20?   2.38 215.1   41 347 170  11
   2024 03 07 13:10  09 19 13.35    +16 36 42.1   0.0101 1.0013 149.9     20?   2.40 214.0   40 344 170  11
   2024 03 07 13:20  09 19 12.43    +16 36 22.0   0.0101 1.0013 149.9     20?   2.41 212.8   40 341 170  11
   2024 03 07 13:30  09 19 11.53    +16 36 01.5   0.0101 1.0013 149.9     20?   2.42 211.5   39 338 170  11
   2024 03 07 13:40  09 19 10.66    +16 35 40.7   0.0101 1.0013 149.9     20?   2.43 210.2   38 335 170  11
   2024 03 07 13:50  09 19 09.83    +16 35 19.4   0.0101 1.0013 149.9     20?   2.44 208.7   37 332 170  11
   2024 03 07 14:00  09 19 09.04    +16 34 57.8   0.0101 1.0013 149.8     20?   2.45 207.1   36 330 170  11
   2024 03 07 14:10  09 19 08.29    +16 34 35.8   0.0101 1.0013 149.8     20?   2.45 205.4   35 327 170  11
   2024 03 07 14:20  09 19 07.58    +16 34 13.5   0.0101 1.0013 149.8     20?   2.46 203.6   34 324 171  11
   2024 03 07 14:30  09 19 06.92    +16 33 50.8   0.0101 1.0013 149.8     20?   2.46 201.7   33 322 171  10
   2024 03 07 14:40  09 19 06.32    +16 33 27.7   0.0101 1.0013 149.8     20?   2.46 199.7   31 319 171  10
   2024 03 07 14:50  09 19 05.77    +16 33 04.4   0.0101 1.0013 149.8     20?   2.47 197.6   30 317 171  10
   2024 03 07 15:00  09 19 05.28    +16 32 40.7   0.0101 1.0013 149.8     20?   2.47 195.4   28 315 171  10
   2024 03 07 15:10  09 19 04.86    +16 32 16.7   0.0101 1.0013 149.8     20?   2.48 193.2   27 313 171  10
   2024 03 07 15:20  09 19 04.50    +16 31 52.5   0.0101 1.0013 149.8     20?   2.49 190.8   25 311 171  10
   2024 03 07 15:30  09 19 04.21    +16 31 27.9   0.0101 1.0013 149.8     20?   2.50 188.4   24 309 171  10
   2024 03 07 15:40  09 19 04.00    +16 31 03.1   0.0101 1.0013 149.8     20?   2.51 185.9   22 307 171  10
   2024 03 07 15:50  09 19 03.86    +16 30 38.0   0.0101 1.0014 149.8     20?   2.52 183.3   20 305 171  10
   2024 03 07 16:00  09 19 03.80    +16 30 12.7   0.0101 1.0014 149.8     20?   2.54 180.7   19 303 172  10
   2024 03 07 16:10  09 19 03.82    +16 29 47.1   0.0101 1.0014 149.8     20?   2.57 178.1   17 302 172  10
   2024 03 07 16:20  09 19 03.92    +16 29 21.4   0.0101 1.0014 149.8     20?   2.59 175.4   15 300 172  10
   2024 03 07 16:30  09 19 04.11    +16 28 55.4   0.0101 1.0014 149.8     20?   2.63 172.7   13 299 172  10
   2024 03 07 16:40  09 19 04.39    +16 28 29.3   0.0101 1.0014 149.8     20?   2.66 170.0   11 297 172  10
   2024 03 07 16:50  09 19 04.76    +16 28 03.0   0.0101 1.0014 149.7     20?   2.70 167.4    9 296 172  10
   2024 03 07 17:00  09 19 05.21    +16 27 36.6   0.0101 1.0014 149.7  m  20?   2.75 164.8    7 294 172  10
   2024 03 07 17:10  09 19 05.76    +16 27 10.0   0.0102 1.0014 149.7  m  20?   2.80 162.2    5 293 172  10
   2024 03 07 17:20  09 19 06.41    +16 26 43.3   0.0102 1.0014 149.7  m  20?   2.85 159.6    3 291 172   9
   2024 03 07 17:30  09 19 07.15    +16 26 16.5   0.0102 1.0014 149.7  m  20?   2.91 157.1    1 290 172   9
   2024 03 07 17:40  09 19 07.99    +16 25 49.6   0.0102 1.0014 149.7  m  20?   2.98 154.7    0 289 172   9
   ................
   2024 03 08 08:40  09 22 37.39    +16 00 04.9   0.0101 1.0015 150.0 C   20?   1.09 178.2   18  56 177   6
   2024 03 08 08:50  09 22 37.38    +15 59 53.8   0.0101 1.0015 150.0 C   20?   1.12 184.1   20  55 176   6
   2024 03 08 09:00  09 22 37.28    +15 59 42.5   0.0101 1.0015 150.0 N   20?   1.16 189.6   22  53 176   6
   2024 03 08 09:10  09 22 37.11    +15 59 31.0   0.0101 1.0015 150.0 N   20?   1.21 194.4   24  51 176   6
   2024 03 08 09:20  09 22 36.87    +15 59 19.1   0.0101 1.0015 150.0 N   20?   1.26 198.6   25  49 176   6
   2024 03 08 09:30  09 22 36.56    +15 59 07.0   0.0101 1.0015 150.0 A   20?   1.32 202.3   27  47 176   6
   2024 03 08 09:40  09 22 36.18    +15 58 54.7   0.0101 1.0015 150.0 A   20?   1.39 205.4   28  45 176   6
   2024 03 08 09:50  09 22 35.73    +15 58 42.0   0.0101 1.0015 150.0 A   20?   1.46 208.1   30  43 176   6
   2024 03 08 10:00  09 22 35.23    +15 58 29.0   0.0101 1.0015 150.0     20?   1.53 210.4   31  40 176   5
   2024 03 08 10:10  09 22 34.66    +15 58 15.6   0.0101 1.0015 150.0     20?   1.59 212.2   33  38 176   5
   2024 03 08 10:20  09 22 34.05    +15 58 02.0   0.0101 1.0015 150.0     20?   1.66 213.8   34  36 176   5
   2024 03 08 10:30  09 22 33.38    +15 57 48.0   0.0101 1.0015 150.0     20?   1.73 215.1   35  33 176   5
   2024 03 08 10:40  09 22 32.67    +15 57 33.6   0.0101 1.0015 150.0     20?   1.80 216.1   36  30 176   5
   2024 03 08 10:50  09 22 31.92    +15 57 18.9   0.0101 1.0015 149.9     20?   1.86 216.8   38  28 176   5
   2024 03 08 11:00  09 22 31.13    +15 57 03.8   0.0101 1.0015 149.9     20?   1.92 217.4   39  25 176   5
   2024 03 08 11:10  09 22 30.30    +15 56 48.3   0.0101 1.0015 149.9     20?   1.98 217.8   39  22 175   5
   2024 03 08 11:20  09 22 29.45    +15 56 32.5   0.0101 1.0015 149.9     20?   2.03 218.1   40  19 175   5
   2024 03 08 11:30  09 22 28.57    +15 56 16.3   0.0101 1.0015 149.9     20?   2.09 218.2   41  16 175   5
   2024 03 08 11:40  09 22 27.66    +15 55 59.7   0.0101 1.0015 149.9     20?   2.13 218.1   41  13 175   5
   2024 03 08 11:50  09 22 26.74    +15 55 42.7   0.0101 1.0015 149.9     20?   2.18 218.0   42  10 175   5
   2024 03 08 12:00  09 22 25.81    +15 55 25.4   0.0101 1.0015 149.9     20?   2.22 217.7   42   6 175   5
   2024 03 08 12:10  09 22 24.87    +15 55 07.6   0.0101 1.0015 149.9     20?   2.25 217.2   42   3 175   5
   2024 03 08 12:20  09 22 23.92    +15 54 49.4   0.0101 1.0015 149.9     20?   2.29 216.7   42   0 175   5
   2024 03 08 12:30  09 22 22.97    +15 54 30.9   0.0101 1.0015 149.9  t  20?   2.32 216.1   42 356 175   5
   2024 03 08 12:40  09 22 22.03    +15 54 12.0   0.0101 1.0015 149.9     20?   2.34 215.3   42 353 174   5
   2024 03 08 12:50  09 22 21.10    +15 53 52.6   0.0101 1.0015 149.8     20?   2.37 214.5   42 350 174   5
   2024 03 08 13:00  09 22 20.18    +15 53 32.9   0.0101 1.0015 149.8     20?   2.39 213.5   41 347 174   5
   2024 03 08 13:10  09 22 19.27    +15 53 12.8   0.0101 1.0015 149.8     20?   2.40 212.5   41 344 174   5
   2024 03 08 13:20  09 22 18.39    +15 52 52.3   0.0101 1.0015 149.8     20?   2.42 211.3   40 340 174   4
   2024 03 08 13:30  09 22 17.54    +15 52 31.5   0.0101 1.0015 149.8     20?   2.43 210.0   40 337 174   4
   2024 03 08 13:40  09 22 16.71    +15 52 10.2   0.0101 1.0015 149.8     20?   2.44 208.7   39 334 174   4
   2024 03 08 13:50  09 22 15.92    +15 51 48.6   0.0101 1.0015 149.8     20?   2.45 207.2   38 332 174   4
   2024 03 08 14:00  09 22 15.17    +15 51 26.7   0.0101 1.0015 149.8     20?   2.45 205.6   37 329 173   4
   2024 03 08 14:10  09 22 14.45    +15 51 04.4   0.0101 1.0015 149.8     20?   2.46 203.9   36 326 173   4
   2024 03 08 14:20  09 22 13.79    +15 50 41.7   0.0101 1.0015 149.8     20?   2.46 202.1   34 324 173   4
   2024 03 08 14:30  09 22 13.17    +15 50 18.8   0.0101 1.0015 149.8     20?   2.47 200.2   33 321 173   4
   2024 03 08 14:40  09 22 12.61    +15 49 55.5   0.0101 1.0015 149.8     20?   2.47 198.2   32 319 173   4
   2024 03 08 14:50  09 22 12.11    +15 49 31.8   0.0101 1.0015 149.7     20?   2.47 196.1   30 317 173   4
   2024 03 08 15:00  09 22 11.66    +15 49 07.9   0.0101 1.0015 149.7     20?   2.48 193.9   29 314 173   4
   2024 03 08 15:10  09 22 11.28    +15 48 43.7   0.0101 1.0016 149.7     20?   2.49 191.7   27 312 173   4
   2024 03 08 15:20  09 22 10.97    +15 48 19.2   0.0101 1.0016 149.7     20?   2.50 189.3   26 310 172   4
   2024 03 08 15:30  09 22 10.73    +15 47 54.4   0.0101 1.0016 149.7     20?   2.51 186.9   24 308 172   4
   2024 03 08 15:40  09 22 10.56    +15 47 29.4   0.0101 1.0016 149.7     20?   2.52 184.4   22 306 172   4
   2024 03 08 15:50  09 22 10.46    +15 47 04.1   0.0101 1.0016 149.7     20?   2.54 181.8   21 305 172   4
   2024 03 08 16:00  09 22 10.45    +15 46 38.6   0.0101 1.0016 149.7     20?   2.56 179.2   19 303 172   4
   2024 03 08 16:10  09 22 10.51    +15 46 12.9   0.0101 1.0016 149.7     20?   2.59 176.6   17 301 172   4
   2024 03 08 16:20  09 22 10.67    +15 45 47.0   0.0101 1.0016 149.7     20?   2.62 173.9   15 299 172   4
   2024 03 08 16:30  09 22 10.90    +15 45 20.9   0.0101 1.0016 149.7     20?   2.65 171.3   13 298 172   4
   2024 03 08 16:40  09 22 11.23    +15 44 54.6   0.0101 1.0016 149.7     20?   2.69 168.6   11 296 172   4
   2024 03 08 16:50  09 22 11.64    +15 44 28.1   0.0101 1.0016 149.7     20?   2.73 166.0   10 295 171   4
   2024 03 08 17:00  09 22 12.15    +15 44 01.6   0.0101 1.0016 149.7     20?   2.78 163.4    8 293 171   4
   2024 03 08 17:10  09 22 12.75    +15 43 34.9   0.0101 1.0016 149.7     20?   2.83 160.8    6 292 171   3
   2024 03 08 17:20  09 22 13.44    +15 43 08.1   0.0101 1.0016 149.7     20?   2.89 158.3    4 291 171   3
   2024 03 08 17:30  09 22 14.23    +15 42 41.2   0.0101 1.0016 149.7     20?   2.95 155.9    2 289 171   3
   2024 03 08 17:40  09 22 15.11    +15 42 14.2   0.0101 1.0016 149.7     20?   3.02 153.5    0 288 171   3
   ................
   2024 03 09 08:40  09 25 48.62    +15 15 47.0   0.0100 1.0017 150.0 C   20?   1.17 175.7   19  57 164   1
   2024 03 09 08:50  09 25 48.64    +15 15 35.2   0.0100 1.0017 150.0 C   20?   1.19 181.4   21  55 164   1
   2024 03 09 09:00  09 25 48.58    +15 15 23.1   0.0100 1.0017 150.0 N   20?   1.22 186.6   23  53 164   1
   2024 03 09 09:10  09 25 48.45    +15 15 10.8   0.0100 1.0017 150.0 N   20?   1.27 191.3   24  51 164   1
   2024 03 09 09:20  09 25 48.24    +15 14 58.3   0.0100 1.0017 150.0 N   20?   1.32 195.5   26  49 164   1
   2024 03 09 09:30  09 25 47.96    +15 14 45.5   0.0100 1.0017 150.0 A   20?   1.37 199.2   28  47 164   1
   2024 03 09 09:40  09 25 47.62    +15 14 32.4   0.0100 1.0017 150.0 A   20?   1.43 202.4   29  45 164   1
   2024 03 09 09:50  09 25 47.21    +15 14 19.0   0.0100 1.0017 150.0 A   20?   1.50 205.1   31  43 164   1
   2024 03 09 10:00  09 25 46.75    +15 14 05.3   0.0100 1.0017 150.0     20?   1.56 207.5   32  41 163   1
   2024 03 09 10:10  09 25 46.22    +15 13 51.3   0.0100 1.0017 149.9     20?   1.63 209.4   34  38 163   1
   2024 03 09 10:20  09 25 45.64    +15 13 36.9   0.0100 1.0017 149.9     20?   1.69 211.1   35  36 163   1
   2024 03 09 10:30  09 25 45.02    +15 13 22.3   0.0100 1.0017 149.9     20?   1.76 212.5   36  33 163   1
   2024 03 09 10:40  09 25 44.34    +15 13 07.2   0.0100 1.0017 149.9     20?   1.82 213.6   37  31 163   1
   2024 03 09 10:50  09 25 43.63    +15 12 51.9   0.0100 1.0017 149.9     20?   1.88 214.5   38  28 163   1
   2024 03 09 11:00  09 25 42.87    +15 12 36.2   0.0100 1.0017 149.9     20?   1.94 215.1   39  25 163   1
   2024 03 09 11:10  09 25 42.09    +15 12 20.1   0.0100 1.0017 149.9     20?   2.00 215.6   40  22 163   1
   2024 03 09 11:20  09 25 41.27    +15 12 03.7   0.0100 1.0017 149.9     20?   2.05 215.9   41  19 162   1
   2024 03 09 11:30  09 25 40.43    +15 11 46.9   0.0100 1.0017 149.9     20?   2.10 216.1   42  16 162   1
   2024 03 09 11:40  09 25 39.57    +15 11 29.8   0.0100 1.0017 149.9     20?   2.15 216.1   42  13 162   1
   2024 03 09 11:50  09 25 38.69    +15 11 12.3   0.0100 1.0017 149.9     20?   2.19 216.0   43   9 162   1
   2024 03 09 12:00  09 25 37.79    +15 10 54.4   0.0100 1.0017 149.9     20?   2.23 215.7   43   6 162   1
   2024 03 09 12:10  09 25 36.89    +15 10 36.1   0.0100 1.0017 149.8     20?   2.26 215.4   43   3 162   1
   2024 03 09 12:20  09 25 35.99    +15 10 17.4   0.0100 1.0017 149.8  t  20?   2.30 214.9   43 359 162   1
   2024 03 09 12:30  09 25 35.08    +15 09 58.4   0.0100 1.0017 149.8  e  20?   2.32 214.3   43 356 161   1
   2024 03 09 12:40  09 25 34.18    +15 09 39.0   0.0100 1.0017 149.8     20?   2.35 213.6   43 353 161   1
   2024 03 09 12:50  09 25 33.29    +15 09 19.2   0.0100 1.0017 149.8     20?   2.37 212.7   43 350 161   1
   2024 03 09 13:00  09 25 32.41    +15 08 59.1   0.0100 1.0017 149.8     20?   2.39 211.8   42 346 161   1
   2024 03 09 13:10  09 25 31.55    +15 08 38.5   0.0100 1.0017 149.8     20?   2.41 210.8   42 343 161   1
   2024 03 09 13:20  09 25 30.71    +15 08 17.7   0.0100 1.0017 149.8     20?   2.42 209.6   41 340 161   1
   2024 03 09 13:30  09 25 29.90    +15 07 56.4   0.0100 1.0017 149.8     20?   2.43 208.4   40 337 161   1
   2024 03 09 13:40  09 25 29.12    +15 07 34.8   0.0100 1.0017 149.8     20?   2.44 207.0   39 334 160   1
   2024 03 09 13:50  09 25 28.37    +15 07 12.9   0.0100 1.0017 149.8     20?   2.45 205.5   38 331 160   0
   2024 03 09 14:00  09 25 27.66    +15 06 50.6   0.0100 1.0018 149.8     20?   2.46 204.0   37 328 160   0
   2024 03 09 14:10  09 25 26.99    +15 06 27.9   0.0100 1.0018 149.7     20?   2.46 202.3   36 326 160   0
   2024 03 09 14:20  09 25 26.37    +15 06 05.0   0.0100 1.0018 149.7     20?   2.47 200.5   35 323 160   0
   2024 03 09 14:30  09 25 25.80    +15 05 41.7   0.0100 1.0018 149.7     20?   2.47 198.6   34 320 160   0
   2024 03 09 14:40  09 25 25.29    +15 05 18.1   0.0100 1.0018 149.7     20?   2.48 196.6   32 318 160   0
   2024 03 09 14:50  09 25 24.83    +15 04 54.2   0.0100 1.0018 149.7     20?   2.48 194.5   31 316 159   0
   2024 03 09 15:00  09 25 24.43    +15 04 30.0   0.0100 1.0018 149.7     20?   2.49 192.3   29 314 159   0
   2024 03 09 15:10  09 25 24.10    +15 04 05.5   0.0100 1.0018 149.7     20?   2.50 190.0   28 311 159   0
   2024 03 09 15:20  09 25 23.84    +15 03 40.8   0.0100 1.0018 149.7     20?   2.51 187.7   26 309 159   0
   2024 03 09 15:30  09 25 23.64    +15 03 15.8   0.0100 1.0018 149.7     20?   2.52 185.2   24 307 159   0
   2024 03 09 15:40  09 25 23.52    +15 02 50.6   0.0100 1.0018 149.7     20?   2.54 182.7   23 306 159   0
   2024 03 09 15:50  09 25 23.48    +15 02 25.1   0.0100 1.0018 149.7     20?   2.56 180.2   21 304 159   0
   2024 03 09 16:00  09 25 23.51    +15 01 59.4   0.0100 1.0018 149.7     20?   2.58 177.6   19 302 159   0
   2024 03 09 16:10  09 25 23.63    +15 01 33.5   0.0100 1.0018 149.7     20?   2.61 175.0   17 300 158   0
   2024 03 09 16:20  09 25 23.83    +15 01 07.4   0.0100 1.0018 149.7     20?   2.64 172.4   16 299 158   0
   2024 03 09 16:30  09 25 24.12    +15 00 41.1   0.0100 1.0018 149.7     20?   2.68 169.7   14 297 158   0
   2024 03 09 16:40  09 25 24.49    +15 00 14.7   0.0100 1.0018 149.7     20?   2.72 167.1   12 296 158   0
   2024 03 09 16:50  09 25 24.96    +14 59 48.1   0.0100 1.0018 149.7     20?   2.77 164.5   10 294 158   0
   2024 03 09 17:00  09 25 25.52    +14 59 21.4   0.0100 1.0018 149.7     20?   2.82 161.9    8 293 158   0
   2024 03 09 17:10  09 25 26.17    +14 58 54.6   0.0100 1.0018 149.7     20?   2.87 159.4    6 291 158   0
   2024 03 09 17:20  09 25 26.91    +14 58 27.7   0.0100 1.0018 149.7     20?   2.93 157.0    4 290 157   0
   2024 03 09 17:30  09 25 27.75    +14 58 00.6   0.0100 1.0018 149.7     20?   3.00 154.6    2 289 157   0
   2024 03 09 17:40  09 25 28.69    +14 57 33.5   0.0100 1.0018 149.6     20?   3.07 152.2    0 287 157   0
   ................
   2024 03 10 08:40  09 29 06.74    +14 30 21.4   0.0100 1.0019 150.0 C   20?   1.26 173.2   20  57 150   0
   2024 03 10 08:50  09 29 06.80    +14 30 08.7   0.0100 1.0019 150.0 C   20?   1.27 178.5   22  56 150   0
   2024 03 10 09:00  09 29 06.78    +14 29 55.9   0.0100 1.0019 150.0 N   20?   1.30 183.5   23  54 150   0
   2024 03 10 09:10  09 29 06.69    +14 29 42.8   0.0100 1.0019 150.0 N   20?   1.33 188.1   25  52 150   0
   2024 03 10 09:20  09 29 06.53    +14 29 29.5   0.0100 1.0019 150.0 N   20?   1.38 192.2   27  50 150   0
   2024 03 10 09:30  09 29 06.29    +14 29 15.9   0.0100 1.0019 150.0 A   20?   1.43 195.9   28  48 150   0
   2024 03 10 09:40  09 29 05.99    +14 29 02.1   0.0100 1.0019 150.0 A   20?   1.48 199.1   30  46 150   0
   2024 03 10 09:50  09 29 05.63    +14 28 47.9   0.0100 1.0019 150.0     20?   1.54 202.0   31  43 150   0
   2024 03 10 10:00  09 29 05.20    +14 28 33.5   0.0100 1.0019 150.0     20?   1.60 204.4   33  41 149   0
   2024 03 10 10:10  09 29 04.72    +14 28 18.8   0.0100 1.0019 149.9     20?   1.66 206.5   34  39 149   0
   2024 03 10 10:20  09 29 04.18    +14 28 03.8   0.0100 1.0019 149.9     20?   1.72 208.2   36  36 149   0
   2024 03 10 10:30  09 29 03.60    +14 27 48.4   0.0100 1.0019 149.9     20?   1.78 209.7   37  34 149   0
   2024 03 10 10:40  09 29 02.97    +14 27 32.7   0.0100 1.0019 149.9     20?   1.85 210.9   38  31 149   0
   2024 03 10 10:50  09 29 02.30    +14 27 16.7   0.0100 1.0019 149.9     20?   1.90 211.9   39  28 149   0
   2024 03 10 11:00  09 29 01.59    +14 27 00.4   0.0100 1.0019 149.9     20?   1.96 212.6   40  25 149   0
   2024 03 10 11:10  09 29 00.85    +14 26 43.7   0.0100 1.0019 149.9     20?   2.01 213.2   41  22 149   0
   2024 03 10 11:20  09 29 00.07    +14 26 26.7   0.0100 1.0019 149.9     20?   2.06 213.6   42  19 148   0
   2024 03 10 11:30  09 28 59.28    +14 26 09.3   0.0100 1.0019 149.9     20?   2.11 213.8   42  16 148   0
   2024 03 10 11:40  09 28 58.46    +14 25 51.6   0.0100 1.0019 149.9     20?   2.16 213.9   43  13 148   0
   2024 03 10 11:50  09 28 57.62    +14 25 33.5   0.0100 1.0019 149.9     20?   2.20 213.9   43   9 148   0
   2024 03 10 12:00  09 28 56.77    +14 25 15.0   0.0100 1.0019 149.9     20?   2.24 213.7   44   6 148   0
   2024 03 10 12:10  09 28 55.92    +14 24 56.2   0.0100 1.0019 149.8     20?   2.27 213.3   44   3 148   0
   2024 03 10 12:20  09 28 55.06    +14 24 37.0   0.0100 1.0019 149.8  t  20?   2.30 212.9   44 359 148   0
   2024 03 10 12:30  09 28 54.20    +14 24 17.5   0.0100 1.0020 149.8     20?   2.33 212.3   44 356 147   0
   2024 03 10 12:40  09 28 53.34    +14 23 57.6   0.0100 1.0020 149.8     20?   2.36 211.7   44 352 147   0
   2024 03 10 12:50  09 28 52.50    +14 23 37.4   0.0100 1.0020 149.8     20?   2.38 210.9   43 349 147   0
   2024 03 10 13:00  09 28 51.66    +14 23 16.8   0.0100 1.0020 149.8     20?   2.40 210.0   43 346 147   0
   2024 03 10 13:10  09 28 50.85    +14 22 55.8   0.0100 1.0020 149.8     20?   2.41 208.9   42 343 147   0
   2024 03 10 13:20  09 28 50.06    +14 22 34.5   0.0100 1.0020 149.8     20?   2.43 207.8   42 339 147   0
   2024 03 10 13:30  09 28 49.30    +14 22 12.9   0.0100 1.0020 149.8     20?   2.44 206.6   41 336 147   0
   2024 03 10 13:40  09 28 48.56    +14 21 50.9   0.0100 1.0020 149.8     20?   2.45 205.2   40 333 146   0
   2024 03 10 13:50  09 28 47.86    +14 21 28.5   0.0100 1.0020 149.8     20?   2.46 203.8   39 330 146   0
   2024 03 10 14:00  09 28 47.20    +14 21 05.9   0.0100 1.0020 149.8     20?   2.46 202.2   38 328 146   0
   2024 03 10 14:10  09 28 46.59    +14 20 42.9   0.0100 1.0020 149.7     20?   2.47 200.5   37 325 146   0
   2024 03 10 14:20  09 28 46.02    +14 20 19.6   0.0100 1.0020 149.7     20?   2.47 198.7   35 322 146   0
   2024 03 10 14:30  09 28 45.50    +14 19 56.0   0.0100 1.0020 149.7     20?   2.48 196.8   34 320 146   0
   2024 03 10 14:40  09 28 45.03    +14 19 32.1   0.0100 1.0020 149.7     20?   2.49 194.8   33 317 146   0
   2024 03 10 14:50  09 28 44.62    +14 19 08.0   0.0100 1.0020 149.7     20?   2.49 192.7   31 315 146   0
   2024 03 10 15:00  09 28 44.28    +14 18 43.5   0.0100 1.0020 149.7     20?   2.50 190.6   30 313 145   0
   2024 03 10 15:10  09 28 43.99    +14 18 18.8   0.0100 1.0020 149.7     20?   2.51 188.3   28 311 145   0
   2024 03 10 15:20  09 28 43.78    +14 17 53.8   0.0100 1.0020 149.7     20?   2.52 185.9   27 309 145   0
   2024 03 10 15:30  09 28 43.64    +14 17 28.6   0.0100 1.0020 149.7     20?   2.54 183.5   25 307 145   0
   2024 03 10 15:40  09 28 43.57    +14 17 03.1   0.0100 1.0020 149.7     20?   2.56 181.0   23 305 145   0
   2024 03 10 15:50  09 28 43.58    +14 16 37.4   0.0100 1.0020 149.7     20?   2.58 178.5   21 303 145   0
   2024 03 10 16:00  09 28 43.67    +14 16 11.5   0.0100 1.0020 149.7     20?   2.61 175.9   20 301 145   0
   2024 03 10 16:10  09 28 43.84    +14 15 45.5   0.0100 1.0020 149.7     20?   2.64 173.3   18 300 144   0
   2024 03 10 16:20  09 28 44.09    +14 15 19.2   0.0100 1.0020 149.7     20?   2.67 170.7   16 298 144   0
   2024 03 10 16:30  09 28 44.43    +14 14 52.8   0.0100 1.0020 149.7     20?   2.71 168.1   14 296 144   0
   2024 03 10 16:40  09 28 44.86    +14 14 26.2   0.0100 1.0020 149.7     20?   2.75 165.5   12 295 144   0
   2024 03 10 16:50  09 28 45.39    +14 13 59.4   0.0100 1.0020 149.7     20?   2.80 163.0   10 293 144   0
   2024 03 10 17:00  09 28 46.00    +14 13 32.6   0.0100 1.0020 149.7     20?   2.86 160.4    8 292 144   0
   2024 03 10 17:10  09 28 46.71    +14 13 05.6   0.0100 1.0020 149.7     20?   2.92 158.0    6 291 144   0
   2024 03 10 17:20  09 28 47.51    +14 12 38.5   0.0100 1.0020 149.7     20?   2.98 155.5    4 289 144   0
   2024 03 10 17:30  09 28 48.40    +14 12 11.4   0.0100 1.0020 149.7     20?   3.05 153.2    2 288 143   0
   2024 03 10 17:40  09 28 49.40    +14 11 44.2   0.0100 1.0020 149.7     20?   3.12 150.9    0 286 143   0
   ................
   2024 03 11 08:40  09 32 32.40    +13 43 44.3   0.0099 1.0021 150.0 Cm  20?   1.35 170.7   20  58 136   1
   2024 03 11 08:50  09 32 32.51    +13 43 30.8   0.0099 1.0021 150.0 Cm  20?   1.36 175.7   22  56 136   1
   2024 03 11 09:00  09 32 32.54    +13 43 17.2   0.0099 1.0021 150.0 Nm  20?   1.38 180.5   24  54 136   1
   2024 03 11 09:10  09 32 32.50    +13 43 03.3   0.0099 1.0021 150.0 N   20?   1.41 184.9   26  52 136   1
   2024 03 11 09:20  09 32 32.38    +13 42 49.2   0.0099 1.0021 150.0 A   20?   1.44 188.9   27  50 136   1
   2024 03 11 09:30  09 32 32.19    +13 42 34.8   0.0099 1.0021 150.0 A   20?   1.49 192.6   29  48 136   1
   2024 03 11 09:40  09 32 31.94    +13 42 20.1   0.0099 1.0021 150.0 A   20?   1.53 195.8   31  46 136   1
   2024 03 11 09:50  09 32 31.62    +13 42 05.2   0.0099 1.0021 150.0     20?   1.59 198.7   32  44 135   1
   2024 03 11 10:00  09 32 31.24    +13 41 50.1   0.0099 1.0021 150.0     20?   1.64 201.2   34  42 135   1
   2024 03 11 10:10  09 32 30.81    +13 41 34.6   0.0099 1.0021 150.0     20?   1.70 203.4   35  39 135   1
   2024 03 11 10:20  09 32 30.32    +13 41 18.8   0.0099 1.0021 150.0     20?   1.76 205.2   36  37 135   1
   2024 03 11 10:30  09 32 29.78    +13 41 02.8   0.0099 1.0021 150.0     20?   1.82 206.8   38  34 135   1
   2024 03 11 10:40  09 32 29.20    +13 40 46.4   0.0099 1.0022 149.9     20?   1.87 208.1   39  31 135   1
   2024 03 11 10:50  09 32 28.58    +13 40 29.7   0.0099 1.0022 149.9     20?   1.93 209.1   40  28 135   1
   2024 03 11 11:00  09 32 27.92    +13 40 12.7   0.0099 1.0022 149.9     20?   1.98 210.0   41  25 135   1
   2024 03 11 11:10  09 32 27.22    +13 39 55.4   0.0099 1.0022 149.9     20?   2.03 210.7   42  22 135   1
   2024 03 11 11:20  09 32 26.50    +13 39 37.7   0.0099 1.0022 149.9     20?   2.08 211.1   42  19 134   1
   2024 03 11 11:30  09 32 25.75    +13 39 19.7   0.0099 1.0022 149.9     20?   2.13 211.4   43  16 134   1
   2024 03 11 11:40  09 32 24.98    +13 39 01.4   0.0099 1.0022 149.9     20?   2.17 211.6   44  13 134   1
   2024 03 11 11:50  09 32 24.19    +13 38 42.7   0.0099 1.0022 149.9     20?   2.21 211.6   44   9 134   1
   2024 03 11 12:00  09 32 23.39    +13 38 23.7   0.0099 1.0022 149.9     20?   2.25 211.4   44   6 134   1
   2024 03 11 12:10  09 32 22.58    +13 38 04.3   0.0099 1.0022 149.9     20?   2.28 211.2   45   3 134   1
   2024 03 11 12:20  09 32 21.77    +13 37 44.6   0.0099 1.0022 149.9  t  20?   2.31 210.8   45 359 134   1
   2024 03 11 12:30  09 32 20.96    +13 37 24.5   0.0099 1.0022 149.9     20?   2.34 210.3   45 356 134   1
   2024 03 11 12:40  09 32 20.16    +13 37 04.2   0.0099 1.0022 149.8     20?   2.36 209.6   44 352 133   1
   2024 03 11 12:50  09 32 19.36    +13 36 43.4   0.0099 1.0022 149.8     20?   2.39 208.9   44 349 133   1
   2024 03 11 13:00  09 32 18.58    +13 36 22.3   0.0099 1.0022 149.8     20?   2.40 208.0   44 345 133   2
   2024 03 11 13:10  09 32 17.82    +13 36 00.9   0.0099 1.0022 149.8     20?   2.42 207.0   43 342 133   2
   2024 03 11 13:20  09 32 17.08    +13 35 39.2   0.0099 1.0022 149.8     20?   2.43 205.9   42 339 133   2
   2024 03 11 13:30  09 32 16.36    +13 35 17.1   0.0099 1.0022 149.8     20?   2.45 204.7   42 336 133   2
   2024 03 11 13:40  09 32 15.68    +13 34 54.7   0.0099 1.0022 149.8     20?   2.46 203.3   41 333 133   2
   2024 03 11 13:50  09 32 15.03    +13 34 32.0   0.0099 1.0022 149.8     20?   2.46 201.9   40 330 132   2
   2024 03 11 14:00  09 32 14.43    +13 34 09.0   0.0099 1.0022 149.8     20?   2.47 200.3   39 327 132   2
   2024 03 11 14:10  09 32 13.86    +13 33 45.7   0.0099 1.0022 149.8     20?   2.48 198.6   37 324 132   2
   2024 03 11 14:20  09 32 13.34    +13 33 22.1   0.0099 1.0022 149.8     20?   2.48 196.9   36 322 132   2
   2024 03 11 14:30  09 32 12.88    +13 32 58.1   0.0099 1.0022 149.8     20?   2.49 195.0   35 319 132   2
   2024 03 11 14:40  09 32 12.47    +13 32 33.9   0.0099 1.0022 149.8     20?   2.50 193.0   33 317 132   2
   2024 03 11 14:50  09 32 12.11    +13 32 09.5   0.0099 1.0022 149.7     20?   2.51 190.9   32 314 132   2
   2024 03 11 15:00  09 32 11.82    +13 31 44.7   0.0099 1.0022 149.7     20?   2.52 188.7   30 312 131   2
   2024 03 11 15:10  09 32 11.59    +13 31 19.7   0.0099 1.0022 149.7     20?   2.53 186.4   29 310 131   2
   2024 03 11 15:20  09 32 11.43    +13 30 54.5   0.0099 1.0022 149.7     20?   2.54 184.1   27 308 131   2
   2024 03 11 15:30  09 32 11.35    +13 30 29.0   0.0099 1.0022 149.7     20?   2.56 181.7   25 306 131   2
   2024 03 11 15:40  09 32 11.33    +13 30 03.4   0.0099 1.0022 149.7     20?   2.58 179.2   24 304 131   2
   2024 03 11 15:50  09 32 11.40    +13 29 37.5   0.0099 1.0022 149.7     20?   2.60 176.7   22 302 131   2
   2024 03 11 16:00  09 32 11.54    +13 29 11.4   0.0099 1.0022 149.7     20?   2.63 174.1   20 301 131   2
   2024 03 11 16:10  09 32 11.77    +13 28 45.1   0.0099 1.0022 149.7     20?   2.67 171.6   18 299 131   2
   2024 03 11 16:20  09 32 12.08    +13 28 18.6   0.0099 1.0022 149.7     20?   2.70 169.0   16 297 130   2
   2024 03 11 16:30  09 32 12.48    +13 27 52.0   0.0099 1.0022 149.7     20?   2.75 166.4   14 296 130   2
   2024 03 11 16:40  09 32 12.97    +13 27 25.3   0.0099 1.0022 149.7     20?   2.79 163.9   12 294 130   2
   2024 03 11 16:50  09 32 13.55    +13 26 58.4   0.0099 1.0022 149.7     20?   2.85 161.4   11 293 130   2
   2024 03 11 17:00  09 32 14.22    +13 26 31.4   0.0099 1.0022 149.7     20?   2.90 158.9    9 291 130   2
   2024 03 11 17:10  09 32 14.98    +13 26 04.2   0.0099 1.0022 149.7     20?   2.96 156.5    7 290 130   2
   2024 03 11 17:20  09 32 15.84    +13 25 37.0   0.0099 1.0022 149.7     20?   3.03 154.1    5 288 130   2
   2024 03 11 17:30  09 32 16.80    +13 25 09.7   0.0099 1.0022 149.7     20?   3.10 151.8    3 287 130   2
   2024 03 11 17:40  09 32 17.85    +13 24 42.4   0.0099 1.0022 149.7     20?   3.18 149.6    0 286 129   3
   ................
   2024 03 12 08:30  09 36 05.94    +12 56 06.2   0.0099 1.0023 150.1 Cm  20?   1.46 163.5   19  60 122   5
   2024 03 12 08:40  09 36 06.18    +12 55 52.1   0.0099 1.0024 150.1 Cm  20?   1.45 168.3   21  58 122   5
   2024 03 12 08:50  09 36 06.34    +12 55 37.8   0.0099 1.0024 150.1 Nm  20?   1.45 173.0   23  57 122   5
   2024 03 12 09:00  09 36 06.42    +12 55 23.3   0.0099 1.0024 150.1 Nm  20?   1.46 177.5   25  55 122   5
   2024 03 12 09:10  09 36 06.43    +12 55 08.6   0.0099 1.0024 150.1 Nm  20?   1.48 181.7   26  53 122   5
   2024 03 12 09:20  09 36 06.36    +12 54 53.6   0.0099 1.0024 150.1 Am  20?   1.51 185.7   28  51 122   5
   2024 03 12 09:30  09 36 06.23    +12 54 38.4   0.0099 1.0024 150.1 Am  20?   1.55 189.3   30  49 122   5
   2024 03 12 09:40  09 36 06.02    +12 54 23.0   0.0099 1.0024 150.1 Am  20?   1.59 192.5   31  47 122   5
   2024 03 12 09:50  09 36 05.76    +12 54 07.3   0.0099 1.0024 150.1     20?   1.64 195.4   33  44 122   5
   2024 03 12 10:00  09 36 05.43    +12 53 51.3   0.0099 1.0024 150.0     20?   1.69 197.9   34  42 121   5
   2024 03 12 10:10  09 36 05.05    +12 53 35.1   0.0099 1.0024 150.0     20?   1.74 200.2   36  40 121   6
   2024 03 12 10:20  09 36 04.61    +12 53 18.6   0.0099 1.0024 150.0     20?   1.80 202.1   37  37 121   6
   2024 03 12 10:30  09 36 04.12    +12 53 01.8   0.0099 1.0024 150.0     20?   1.85 203.8   38  34 121   6
   2024 03 12 10:40  09 36 03.59    +12 52 44.7   0.0099 1.0024 150.0     20?   1.90 205.1   39  32 121   6
   2024 03 12 10:50  09 36 03.02    +12 52 27.3   0.0098 1.0024 150.0     20?   1.96 206.3   41  29 121   6
   2024 03 12 11:00  09 36 02.41    +12 52 09.6   0.0098 1.0024 150.0     20?   2.01 207.2   42  26 121   6
   2024 03 12 11:10  09 36 01.77    +12 51 51.6   0.0098 1.0024 150.0     20?   2.06 208.0   42  23 121   6
   2024 03 12 11:20  09 36 01.09    +12 51 33.2   0.0098 1.0024 150.0     20?   2.10 208.5   43  20 121   6
   2024 03 12 11:30  09 36 00.39    +12 51 14.6   0.0098 1.0024 150.0     20?   2.15 208.9   44  16 121   6
   2024 03 12 11:40  09 35 59.68    +12 50 55.6   0.0098 1.0024 150.0     20?   2.19 209.1   45  13 120   6
   2024 03 12 11:50  09 35 58.94    +12 50 36.3   0.0098 1.0024 150.0     20?   2.23 209.2   45   9 120   6
   2024 03 12 12:00  09 35 58.19    +12 50 16.7   0.0098 1.0024 149.9     20?   2.26 209.1   45   6 120   6
   2024 03 12 12:10  09 35 57.44    +12 49 56.8   0.0098 1.0024 149.9     20?   2.29 208.9   45   2 120   6
   2024 03 12 12:20  09 35 56.68    +12 49 36.5   0.0098 1.0024 149.9  t  20?   2.32 208.5   46 359 120   6
   2024 03 12 12:30  09 35 55.92    +12 49 15.9   0.0098 1.0024 149.9     20?   2.35 208.1   45 355 120   6
   2024 03 12 12:40  09 35 55.17    +12 48 55.0   0.0098 1.0024 149.9     20?   2.37 207.5   45 352 120   6
   2024 03 12 12:50  09 35 54.43    +12 48 33.8   0.0098 1.0024 149.9     20?   2.39 206.7   45 348 120   6
   2024 03 12 13:00  09 35 53.70    +12 48 12.2   0.0098 1.0024 149.9     20?   2.41 205.9   44 345 119   6
   2024 03 12 13:10  09 35 52.99    +12 47 50.4   0.0098 1.0024 149.9     20?   2.43 204.9   44 342 119   6
   2024 03 12 13:20  09 35 52.30    +12 47 28.2   0.0098 1.0024 149.9     20?   2.44 203.8   43 338 119   6
   2024 03 12 13:30  09 35 51.64    +12 47 05.7   0.0098 1.0024 149.9     20?   2.45 202.6   42 335 119   6
   2024 03 12 13:40  09 35 51.02    +12 46 42.9   0.0098 1.0024 149.9     20?   2.46 201.3   41 332 119   6
   2024 03 12 13:50  09 35 50.42    +12 46 19.8   0.0098 1.0024 149.9     20?   2.47 199.9   40 329 119   7
   2024 03 12 14:00  09 35 49.87    +12 45 56.4   0.0098 1.0024 149.9     20?   2.48 198.3   39 326 119   7
   2024 03 12 14:10  09 35 49.36    +12 45 32.7   0.0098 1.0024 149.8     20?   2.49 196.7   38 324 119   7
   2024 03 12 14:20  09 35 48.90    +12 45 08.7   0.0098 1.0024 149.8     20?   2.49 194.9   37 321 118   7
   2024 03 12 14:30  09 35 48.49    +12 44 44.5   0.0098 1.0024 149.8     20?   2.50 193.0   35 319 118   7
   2024 03 12 14:40  09 35 48.13    +12 44 20.0   0.0098 1.0024 149.8     20?   2.51 191.0   34 316 118   7
   2024 03 12 14:50  09 35 47.83    +12 43 55.2   0.0098 1.0024 149.8     20?   2.52 189.0   32 314 118   7
   2024 03 12 15:00  09 35 47.60    +12 43 30.2   0.0098 1.0024 149.8     20?   2.53 186.8   31 312 118   7
   2024 03 12 15:10  09 35 47.42    +12 43 04.9   0.0098 1.0024 149.8     20?   2.55 184.5   29 309 118   7
   2024 03 12 15:20  09 35 47.32    +12 42 39.4   0.0098 1.0024 149.8     20?   2.56 182.2   28 307 118   7
   2024 03 12 15:30  09 35 47.29    +12 42 13.7   0.0098 1.0024 149.8     20?   2.58 179.8   26 305 118   7
   2024 03 12 15:40  09 35 47.34    +12 41 47.8   0.0098 1.0024 149.8     20?   2.60 177.4   24 303 117   7
   2024 03 12 15:50  09 35 47.46    +12 41 21.7   0.0098 1.0024 149.8     20?   2.63 174.9   22 302 117   7
   2024 03 12 16:00  09 35 47.66    +12 40 55.3   0.0098 1.0024 149.8     20?   2.66 172.4   21 300 117   7
   2024 03 12 16:10  09 35 47.95    +12 40 28.9   0.0099 1.0024 149.8     20?   2.70 169.8   19 298 117   7
   2024 03 12 16:20  09 35 48.32    +12 40 02.2   0.0099 1.0024 149.8     20?   2.74 167.3   17 297 117   7
   2024 03 12 16:30  09 35 48.77    +12 39 35.4   0.0099 1.0024 149.8     20?   2.79 164.7   15 295 117   7
   2024 03 12 16:40  09 35 49.32    +12 39 08.5   0.0099 1.0024 149.8     20?   2.84 162.2   13 293 117   8
   2024 03 12 16:50  09 35 49.96    +12 38 41.4   0.0099 1.0024 149.8     20?   2.89 159.8   11 292 116   8
   2024 03 12 17:00  09 35 50.69    +12 38 14.3   0.0099 1.0024 149.8     20?   2.95 157.3    9 291 116   8
   2024 03 12 17:10  09 35 51.51    +12 37 47.0   0.0099 1.0024 149.8     20?   3.02 155.0    7 289 116   8
   2024 03 12 17:20  09 35 52.44    +12 37 19.6   0.0099 1.0024 149.8     20?   3.08 152.7    5 288 116   8
   2024 03 12 17:30  09 35 53.45    +12 36 52.2   0.0099 1.0024 149.8     20?   3.16 150.4    3 286 116   8
   2024 03 12 17:40  09 35 54.57    +12 36 24.7   0.0099 1.0024 149.8     20?   3.24 148.3    1 285 116   8
   ................
   2024 03 13 08:30  09 39 48.20    +12 06 56.7   0.0098 1.0026 150.2 Cm  20?   1.57 161.6   20  61 109  12
   2024 03 13 08:40  09 39 48.50    +12 06 41.7   0.0098 1.0026 150.2 Cm  20?   1.56 166.1   22  59 109  12
   2024 03 13 08:50  09 39 48.71    +12 06 26.5   0.0098 1.0026 150.2 Nm  20?   1.55 170.4   23  57 109  12
   2024 03 13 09:00  09 39 48.85    +12 06 11.1   0.0098 1.0026 150.2 Nm  20?   1.56 174.7   25  55 109  12
   2024 03 13 09:10  09 39 48.91    +12 05 55.5   0.0098 1.0026 150.2 Nm  20?   1.57 178.7   27  53 108  12
   2024 03 13 09:20  09 39 48.90    +12 05 39.7   0.0098 1.0026 150.2 Am  20?   1.59 182.5   29  51 108  12
   2024 03 13 09:30  09 39 48.82    +12 05 23.6   0.0098 1.0026 150.2 Am  20?   1.63 186.0   30  49 108  12
   2024 03 13 09:40  09 39 48.67    +12 05 07.4   0.0098 1.0026 150.2 Am  20?   1.66 189.2   32  47 108  12
   2024 03 13 09:50  09 39 48.46    +12 04 50.8   0.0098 1.0026 150.2  m  20?   1.70 192.1   33  45 108  12
   2024 03 13 10:00  09 39 48.19    +12 04 34.1   0.0098 1.0026 150.1  m  20?   1.75 194.7   35  43 108  12
   2024 03 13 10:10  09 39 47.86    +12 04 17.0   0.0098 1.0026 150.1  m  20?   1.79 197.0   36  40 108  12
   2024 03 13 10:20  09 39 47.47    +12 03 59.7   0.0098 1.0026 150.1     20?   1.84 199.0   38  38 108  12
   2024 03 13 10:30  09 39 47.04    +12 03 42.2   0.0098 1.0026 150.1     20?   1.89 200.7   39  35 108  13
   2024 03 13 10:40  09 39 46.56    +12 03 24.3   0.0098 1.0026 150.1     20?   1.94 202.2   40  32 108  13
   2024 03 13 10:50  09 39 46.05    +12 03 06.2   0.0098 1.0026 150.1     20?   1.99 203.4   41  29 108  13
   2024 03 13 11:00  09 39 45.49    +12 02 47.8   0.0098 1.0026 150.1     20?   2.04 204.4   42  26 107  13
   2024 03 13 11:10  09 39 44.90    +12 02 29.1   0.0098 1.0026 150.1     20?   2.08 205.2   43  23 107  13
   2024 03 13 11:20  09 39 44.28    +12 02 10.1   0.0098 1.0026 150.1     20?   2.13 205.9   44  20 107  13
   2024 03 13 11:30  09 39 43.64    +12 01 50.8   0.0098 1.0026 150.1     20?   2.17 206.3   45  16 107  13
   2024 03 13 11:40  09 39 42.97    +12 01 31.2   0.0098 1.0026 150.1     20?   2.21 206.6   45  13 107  13
   2024 03 13 11:50  09 39 42.29    +12 01 11.2   0.0098 1.0026 150.1     20?   2.25 206.7   46  10 107  13
   2024 03 13 12:00  09 39 41.60    +12 00 51.0   0.0098 1.0026 150.1     20?   2.28 206.7   46   6 107  13
   2024 03 13 12:10  09 39 40.90    +12 00 30.5   0.0098 1.0026 150.0     20?   2.31 206.5   46   2 107  13
   2024 03 13 12:20  09 39 40.19    +12 00 09.7   0.0098 1.0026 150.0  t  20?   2.34 206.2   46 359 107  13
   2024 03 13 12:30  09 39 39.49    +11 59 48.5   0.0098 1.0026 150.0     20?   2.36 205.8   46 355 106  13
   2024 03 13 12:40  09 39 38.79    +11 59 27.1   0.0098 1.0026 150.0     20?   2.39 205.2   46 352 106  13
   2024 03 13 12:50  09 39 38.11    +11 59 05.3   0.0098 1.0026 150.0     20?   2.41 204.6   46 348 106  13
   2024 03 13 13:00  09 39 37.43    +11 58 43.3   0.0098 1.0026 150.0     20?   2.42 203.7   45 345 106  13
   2024 03 13 13:10  09 39 36.78    +11 58 20.9   0.0098 1.0026 150.0     20?   2.44 202.8   45 341 106  13
   2024 03 13 13:20  09 39 36.15    +11 57 58.3   0.0098 1.0026 150.0     20?   2.45 201.7   44 338 106  14
   2024 03 13 13:30  09 39 35.54    +11 57 35.4   0.0098 1.0026 150.0     20?   2.46 200.6   43 335 106  14
   2024 03 13 13:40  09 39 34.97    +11 57 12.1   0.0098 1.0026 150.0     20?   2.48 199.3   42 332 106  14
   2024 03 13 13:50  09 39 34.43    +11 56 48.6   0.0098 1.0026 150.0     20?   2.48 197.9   41 329 106  14
   2024 03 13 14:00  09 39 33.93    +11 56 24.8   0.0098 1.0026 150.0     20?   2.49 196.3   40 326 105  14
   2024 03 13 14:10  09 39 33.48    +11 56 00.8   0.0098 1.0026 150.0     20?   2.50 194.7   39 323 105  14
   2024 03 13 14:20  09 39 33.07    +11 55 36.5   0.0098 1.0026 149.9     20?   2.51 192.9   37 320 105  14
   2024 03 13 14:30  09 39 32.72    +11 55 11.9   0.0098 1.0026 149.9     20?   2.52 191.1   36 318 105  14
   2024 03 13 14:40  09 39 32.42    +11 54 47.0   0.0098 1.0026 149.9     20?   2.53 189.1   35 315 105  14
   2024 03 13 14:50  09 39 32.18    +11 54 22.0   0.0098 1.0026 149.9     20?   2.54 187.0   33 313 105  14
   2024 03 13 15:00  09 39 32.00    +11 53 56.7   0.0098 1.0026 149.9     20?   2.55 184.9   31 311 105  14
   2024 03 13 15:10  09 39 31.89    +11 53 31.1   0.0098 1.0026 149.9     20?   2.57 182.6   30 309 105  14
   2024 03 13 15:20  09 39 31.84    +11 53 05.4   0.0098 1.0026 149.9     20?   2.59 180.3   28 307 104  14
   2024 03 13 15:30  09 39 31.87    +11 52 39.4   0.0098 1.0026 149.9     20?   2.61 177.9   26 305 104  14
   2024 03 13 15:40  09 39 31.97    +11 52 13.2   0.0098 1.0026 149.9     20?   2.63 175.5   25 303 104  15
   2024 03 13 15:50  09 39 32.15    +11 51 46.9   0.0098 1.0026 149.9     20?   2.66 173.1   23 301 104  15
   2024 03 13 16:00  09 39 32.41    +11 51 20.4   0.0098 1.0026 149.9     20?   2.70 170.6   21 299 104  15
   2024 03 13 16:10  09 39 32.76    +11 50 53.7   0.0098 1.0026 149.9     20?   2.74 168.1   19 298 104  15
   2024 03 13 16:20  09 39 33.19    +11 50 26.9   0.0098 1.0026 149.9     20?   2.78 165.6   17 296 104  15
   2024 03 13 16:30  09 39 33.71    +11 49 59.9   0.0098 1.0026 149.9     20?   2.83 163.1   15 294 104  15
   2024 03 13 16:40  09 39 34.31    +11 49 32.8   0.0098 1.0026 149.9     20?   2.88 160.6   13 293 103  15
   2024 03 13 16:50  09 39 35.01    +11 49 05.6   0.0098 1.0027 149.9     20?   2.94 158.2   11 291 103  15
   2024 03 13 17:00  09 39 35.80    +11 48 38.2   0.0098 1.0027 149.9     20?   3.00 155.8    9 290 103  15
   2024 03 13 17:10  09 39 36.69    +11 48 10.8   0.0098 1.0027 149.9     20?   3.07 153.5    7 288 103  15
   2024 03 13 17:20  09 39 37.67    +11 47 43.3   0.0098 1.0027 149.9     20?   3.14 151.3    5 287 103  15
   2024 03 13 17:30  09 39 38.75    +11 47 15.8   0.0098 1.0027 149.9     20?   3.22 149.1    3 286 103  15
   2024 03 13 17:40  09 39 39.92    +11 46 48.1   0.0098 1.0027 149.9     20?   3.30 147.0    1 284 103  15
   2024 03 13 17:50  09 39 41.20    +11 46 20.5   0.0098 1.0027 149.9     20?   3.38 144.9    0 283 103  16
   ................
   2024 03 14 08:30  09 43 39.31    +11 16 26.3   0.0098 1.0028 150.3 Cm  20?   1.69 159.9   20  61  96  21
   2024 03 14 08:40  09 43 39.66    +11 16 10.4   0.0097 1.0028 150.3 Cm  20?   1.67 164.0   22  60  96  21
   2024 03 14 08:50  09 43 39.93    +11 15 54.2   0.0097 1.0028 150.3 Nm  20?   1.66 168.1   24  58  95  21
   2024 03 14 09:00  09 43 40.13    +11 15 37.9   0.0097 1.0028 150.3 Nm  20?   1.66 172.1   26  56  95  21
   2024 03 14 09:10  09 43 40.25    +11 15 21.4   0.0097 1.0028 150.3 Nm  20?   1.67 175.9   27  54  95  21
   2024 03 14 09:20  09 43 40.29    +11 15 04.7   0.0097 1.0028 150.3 Am  20?   1.68 179.6   29  52  95  21
   2024 03 14 09:30  09 43 40.27    +11 14 47.8   0.0097 1.0028 150.3 Am  20?   1.71 183.0   31  50  95  21
   2024 03 14 09:40  09 43 40.17    +11 14 30.6   0.0097 1.0028 150.3 Am  20?   1.74 186.1   33  48  95  21
   2024 03 14 09:50  09 43 40.02    +11 14 13.3   0.0097 1.0028 150.3  m  20?   1.77 189.0   34  46  95  21
   2024 03 14 10:00  09 43 39.80    +11 13 55.7   0.0097 1.0028 150.3  m  20?   1.81 191.6   36  43  95  21
   2024 03 14 10:10  09 43 39.53    +11 13 37.8   0.0097 1.0028 150.3  m  20?   1.85 193.9   37  41  95  21
   2024 03 14 10:20  09 43 39.20    +11 13 19.7   0.0097 1.0028 150.3  m  20?   1.89 195.9   38  38  95  21
   2024 03 14 10:30  09 43 38.82    +11 13 01.4   0.0097 1.0028 150.3  m  20?   1.94 197.7   40  35  95  21
   2024 03 14 10:40  09 43 38.40    +11 12 42.8   0.0097 1.0028 150.3  m  20?   1.98 199.2   41  33  95  21
   2024 03 14 10:50  09 43 37.94    +11 12 23.9   0.0097 1.0028 150.3  m  20?   2.03 200.5   42  30  95  21
   2024 03 14 11:00  09 43 37.44    +11 12 04.7   0.0097 1.0028 150.2     20?   2.07 201.6   43  27  94  21
   2024 03 14 11:10  09 43 36.90    +11 11 45.3   0.0097 1.0028 150.2     20?   2.12 202.5   44  23  94  21
   2024 03 14 11:20  09 43 36.34    +11 11 25.6   0.0097 1.0028 150.2     20?   2.16 203.2   45  20  94  22
   2024 03 14 11:30  09 43 35.75    +11 11 05.6   0.0097 1.0028 150.2     20?   2.20 203.7   46  17  94  22
   2024 03 14 11:40  09 43 35.14    +11 10 45.4   0.0097 1.0028 150.2     20?   2.23 204.1   46  13  94  22
   2024 03 14 11:50  09 43 34.52    +11 10 24.8   0.0097 1.0028 150.2     20?   2.27 204.3   47  10  94  22
   2024 03 14 12:00  09 43 33.88    +11 10 04.0   0.0097 1.0028 150.2     20?   2.30 204.3   47   6  94  22
   2024 03 14 12:10  09 43 33.23    +11 09 42.9   0.0097 1.0028 150.2     20?   2.33 204.2   47   2  94  22
   2024 03 14 12:20  09 43 32.58    +11 09 21.4   0.0097 1.0028 150.2  t  20?   2.36 203.9   47 359  94  22
   2024 03 14 12:30  09 43 31.94    +11 08 59.7   0.0097 1.0028 150.2     20?   2.38 203.5   47 355  94  22
   2024 03 14 12:40  09 43 31.29    +11 08 37.8   0.0097 1.0028 150.2     20?   2.40 203.0   47 352  94  22
   2024 03 14 12:50  09 43 30.66    +11 08 15.5   0.0097 1.0028 150.2     20?   2.42 202.4   47 348  93  22
   2024 03 14 13:00  09 43 30.05    +11 07 52.9   0.0097 1.0028 150.2     20?   2.44 201.6   46 344  93  22
   2024 03 14 13:10  09 43 29.45    +11 07 30.1   0.0097 1.0028 150.1     20?   2.45 200.7   45 341  93  22
   2024 03 14 13:20  09 43 28.87    +11 07 07.0   0.0097 1.0028 150.1     20?   2.47 199.6   45 338  93  22
   2024 03 14 13:30  09 43 28.32    +11 06 43.6   0.0097 1.0028 150.1     20?   2.48 198.5   44 334  93  22
   2024 03 14 13:40  09 43 27.81    +11 06 20.0   0.0097 1.0028 150.1     20?   2.49 197.2   43 331  93  22
   2024 03 14 13:50  09 43 27.32    +11 05 56.0   0.0097 1.0028 150.1     20?   2.50 195.8   42 328  93  23
   2024 03 14 14:00  09 43 26.88    +11 05 31.9   0.0097 1.0029 150.1     20?   2.51 194.3   41 325  93  23
   2024 03 14 14:10  09 43 26.48    +11 05 07.4   0.0097 1.0029 150.1     20?   2.52 192.7   39 322  93  23
   2024 03 14 14:20  09 43 26.14    +11 04 42.8   0.0097 1.0029 150.1     20?   2.53 190.9   38 320  92  23
   2024 03 14 14:30  09 43 25.84    +11 04 17.8   0.0097 1.0029 150.1     20?   2.54 189.1   37 317  92  23
   2024 03 14 14:40  09 43 25.59    +11 03 52.7   0.0097 1.0029 150.1     20?   2.55 187.1   35 315  92  23
   2024 03 14 14:50  09 43 25.41    +11 03 27.3   0.0097 1.0029 150.1     20?   2.56 185.1   34 312  92  23
   2024 03 14 15:00  09 43 25.29    +11 03 01.7   0.0097 1.0029 150.1     20?   2.57 183.0   32 310  92  23
   2024 03 14 15:10  09 43 25.23    +11 02 35.9   0.0097 1.0029 150.1     20?   2.59 180.7   30 308  92  23
   2024 03 14 15:20  09 43 25.25    +11 02 09.9   0.0097 1.0029 150.1     20?   2.61 178.4   29 306  92  23
   2024 03 14 15:30  09 43 25.33    +11 01 43.7   0.0097 1.0029 150.1     20?   2.64 176.1   27 304  92  23
   2024 03 14 15:40  09 43 25.49    +11 01 17.3   0.0097 1.0029 150.1     20?   2.66 173.7   25 302  92  23
   2024 03 14 15:50  09 43 25.73    +11 00 50.7   0.0097 1.0029 150.0     20?   2.70 171.3   23 300  91  24
   2024 03 14 16:00  09 43 26.05    +11 00 24.0   0.0097 1.0029 150.0     20?   2.73 168.8   22 298  91  24
   2024 03 14 16:10  09 43 26.45    +10 59 57.1   0.0097 1.0029 150.0     20?   2.77 166.4   20 297  91  24
   2024 03 14 16:20  09 43 26.94    +10 59 30.1   0.0097 1.0029 150.0     20?   2.82 163.9   18 295  91  24
   2024 03 14 16:30  09 43 27.52    +10 59 03.0   0.0097 1.0029 150.0     20?   2.87 161.5   16 294  91  24
   2024 03 14 16:40  09 43 28.19    +10 58 35.7   0.0097 1.0029 150.0     20?   2.93 159.0   14 292  91  24
   2024 03 14 16:50  09 43 28.94    +10 58 08.3   0.0097 1.0029 150.0     20?   2.99 156.7   12 291  91  24
   2024 03 14 17:00  09 43 29.79    +10 57 40.8   0.0097 1.0029 150.0     20?   3.05 154.4   10 289  91  24
   2024 03 14 17:10  09 43 30.74    +10 57 13.3   0.0097 1.0029 150.0     20?   3.12 152.1    8 288  90  24
   2024 03 14 17:20  09 43 31.78    +10 56 45.6   0.0097 1.0029 150.0     20?   3.20 149.9    6 286  90  24
   2024 03 14 17:30  09 43 32.92    +10 56 17.9   0.0097 1.0029 150.0     20?   3.28 147.8    4 285  90  24
   2024 03 14 17:40  09 43 34.16    +10 55 50.2   0.0097 1.0029 150.0     20?   3.36 145.7    2 284  90  25
   2024 03 14 17:50  09 43 35.50    +10 55 22.4   0.0097 1.0029 150.0     20?   3.45 143.7    0 282  90  25
   ................
   2024 03 15 08:30  09 47 39.41    +10 24 33.0   0.0097 1.0030 150.5 Cm  20?   1.81 158.3   21  62  83  31
   2024 03 15 08:40  09 47 39.83    +10 24 16.1   0.0097 1.0030 150.5 Cm  20?   1.79 162.1   23  60  83  31
   2024 03 15 08:50  09 47 40.16    +10 23 59.0   0.0097 1.0030 150.5 Nm  20?   1.77 165.9   24  59  83  31
   2024 03 15 09:00  09 47 40.41    +10 23 41.8   0.0097 1.0030 150.5 Nm  20?   1.76 169.7   26  57  83  31
   2024 03 15 09:10  09 47 40.59    +10 23 24.3   0.0097 1.0030 150.5 Nm  20?   1.77 173.3   28  55  83  31
   2024 03 15 09:20  09 47 40.69    +10 23 06.7   0.0097 1.0030 150.5 Am  20?   1.78 176.8   30  53  83  31
   2024 03 15 09:30  09 47 40.73    +10 22 48.9   0.0097 1.0030 150.5 Am  20?   1.79 180.1   32  51  83  31
   2024 03 15 09:40  09 47 40.69    +10 22 30.8   0.0097 1.0030 150.5 Am  20?   1.82 183.2   33  49  83  31
   2024 03 15 09:50  09 47 40.59    +10 22 12.6   0.0097 1.0030 150.5  m  20?   1.84 186.0   35  46  83  31
   2024 03 15 10:00  09 47 40.43    +10 21 54.1   0.0097 1.0030 150.5  m  20?   1.88 188.5   36  44  82  31
   2024 03 15 10:10  09 47 40.22    +10 21 35.5   0.0097 1.0030 150.5  m  20?   1.91 190.9   38  41  82  31
   2024 03 15 10:20  09 47 39.95    +10 21 16.5   0.0097 1.0030 150.5  m  20?   1.95 192.9   39  39  82  31
   2024 03 15 10:30  09 47 39.63    +10 20 57.4   0.0097 1.0030 150.5  m  20?   1.99 194.7   41  36  82  31
   2024 03 15 10:40  09 47 39.26    +10 20 38.0   0.0097 1.0030 150.4  m  20?   2.03 196.3   42  33  82  31
   2024 03 15 10:50  09 47 38.85    +10 20 18.3   0.0097 1.0030 150.4  m  20?   2.07 197.7   43  30  82  31
   2024 03 15 11:00  09 47 38.41    +10 19 58.5   0.0097 1.0031 150.4  m  20?   2.12 198.8   44  27  82  31
   2024 03 15 11:10  09 47 37.93    +10 19 38.3   0.0097 1.0031 150.4  m  20?   2.15 199.8   45  24  82  31
   2024 03 15 11:20  09 47 37.42    +10 19 17.9   0.0097 1.0031 150.4  m  20?   2.19 200.6   46  21  82  31
   2024 03 15 11:30  09 47 36.89    +10 18 57.2   0.0097 1.0031 150.4  m  20?   2.23 201.1   46  17  82  31
   2024 03 15 11:40  09 47 36.34    +10 18 36.3   0.0097 1.0031 150.4     20?   2.26 201.5   47  14  82  32
   2024 03 15 11:50  09 47 35.77    +10 18 15.1   0.0097 1.0031 150.4     20?   2.30 201.8   47  10  82  32
   2024 03 15 12:00  09 47 35.18    +10 17 53.6   0.0097 1.0031 150.4     20?   2.33 201.9   48   6  82  32
   2024 03 15 12:10  09 47 34.59    +10 17 31.9   0.0097 1.0031 150.4     20?   2.35 201.8   48   3  81  32
   2024 03 15 12:20  09 47 34.00    +10 17 09.9   0.0097 1.0031 150.4  t  20?   2.38 201.6   48 359  81  32
   2024 03 15 12:30  09 47 33.41    +10 16 47.6   0.0097 1.0031 150.4     20?   2.40 201.3   48 355  81  32
   2024 03 15 12:40  09 47 32.82    +10 16 25.1   0.0097 1.0031 150.4     20?   2.42 200.8   48 351  81  32
   2024 03 15 12:50  09 47 32.24    +10 16 02.3   0.0097 1.0031 150.3     20?   2.44 200.2   47 348  81  32
   2024 03 15 13:00  09 47 31.68    +10 15 39.3   0.0097 1.0031 150.3     20?   2.46 199.4   47 344  81  32
   2024 03 15 13:10  09 47 31.14    +10 15 15.9   0.0097 1.0031 150.3     20?   2.47 198.6   46 341  81  32
   2024 03 15 13:20  09 47 30.62    +10 14 52.4   0.0097 1.0031 150.3     20?   2.49 197.6   46 337  81  32
   2024 03 15 13:30  09 47 30.12    +10 14 28.5   0.0097 1.0031 150.3     20?   2.50 196.4   45 334  81  32
   2024 03 15 13:40  09 47 29.66    +10 14 04.5   0.0097 1.0031 150.3     20?   2.51 195.2   44 331  81  32
   2024 03 15 13:50  09 47 29.24    +10 13 40.1   0.0097 1.0031 150.3     20?   2.52 193.8   43 328  80  32
   2024 03 15 14:00  09 47 28.85    +10 13 15.6   0.0097 1.0031 150.3     20?   2.53 192.3   41 325  80  32
   2024 03 15 14:10  09 47 28.51    +10 12 50.8   0.0097 1.0031 150.3     20?   2.54 190.7   40 322  80  33
   2024 03 15 14:20  09 47 28.22    +10 12 25.7   0.0097 1.0031 150.3     20?   2.55 189.0   39 319  80  33
   2024 03 15 14:30  09 47 27.97    +10 12 00.5   0.0097 1.0031 150.3     20?   2.56 187.2   37 317  80  33
   2024 03 15 14:40  09 47 27.79    +10 11 35.0   0.0097 1.0031 150.3     20?   2.57 185.2   36 314  80  33
   2024 03 15 14:50  09 47 27.66    +10 11 09.3   0.0097 1.0031 150.3     20?   2.58 183.2   34 312  80  33
   2024 03 15 15:00  09 47 27.59    +10 10 43.4   0.0097 1.0031 150.3     20?   2.60 181.1   33 310  80  33
   2024 03 15 15:10  09 47 27.59    +10 10 17.4   0.0097 1.0031 150.3     20?   2.62 178.9   31 307  80  33
   2024 03 15 15:20  09 47 27.66    +10 09 51.1   0.0097 1.0031 150.2     20?   2.64 176.6   29 305  80  33
   2024 03 15 15:30  09 47 27.81    +10 09 24.7   0.0097 1.0031 150.2     20?   2.67 174.3   28 303  79  33
   2024 03 15 15:40  09 47 28.02    +10 08 58.0   0.0097 1.0031 150.2     20?   2.70 171.9   26 301  79  33
   2024 03 15 15:50  09 47 28.32    +10 08 31.3   0.0097 1.0031 150.2     20?   2.73 169.6   24 300  79  33
   2024 03 15 16:00  09 47 28.70    +10 08 04.4   0.0097 1.0031 150.2     20?   2.77 167.1   22 298  79  34
   2024 03 15 16:10  09 47 29.16    +10 07 37.3   0.0097 1.0031 150.2     20?   2.81 164.7   20 296  79  34
   2024 03 15 16:20  09 47 29.70    +10 07 10.1   0.0097 1.0031 150.2     20?   2.86 162.3   18 294  79  34
   2024 03 15 16:30  09 47 30.34    +10 06 42.8   0.0097 1.0031 150.2     20?   2.92 159.9   16 293  79  34
   2024 03 15 16:40  09 47 31.06    +10 06 15.3   0.0097 1.0031 150.2     20?   2.97 157.5   14 291  79  34
   2024 03 15 16:50  09 47 31.88    +10 05 47.8   0.0097 1.0031 150.2     20?   3.04 155.2   12 290  79  34
   2024 03 15 17:00  09 47 32.79    +10 05 20.2   0.0097 1.0031 150.2     20?   3.11 152.9   10 288  78  34
   2024 03 15 17:10  09 47 33.80    +10 04 52.5   0.0097 1.0031 150.2     20?   3.18 150.7    8 287  78  34
   2024 03 15 17:20  09 47 34.90    +10 04 24.7   0.0097 1.0031 150.2     20?   3.26 148.6    6 286  78  34
   2024 03 15 17:30  09 47 36.10    +10 03 56.9   0.0097 1.0031 150.2     20?   3.34 146.5    4 284  78  34
   2024 03 15 17:40  09 47 37.40    +10 03 29.0   0.0097 1.0031 150.2     20?   3.43 144.5    2 283  78  34
   2024 03 15 17:50  09 47 38.79    +10 03 01.1   0.0097 1.0031 150.2     20?   3.52 142.6    0 282  78  35
   ................
   2024 03 16 08:30  09 51 48.59    +09 31 15.4   0.0096 1.0033 150.7 Cm  20?   1.94 156.9   21  63  71  41
   2024 03 16 08:40  09 51 49.06    +09 30 57.5   0.0096 1.0033 150.7 Cm  20?   1.91 160.4   23  61  71  41
   2024 03 16 08:50  09 51 49.45    +09 30 39.5   0.0096 1.0033 150.7 Nm  20?   1.89 164.0   25  59  71  41
   2024 03 16 09:00  09 51 49.77    +09 30 21.3   0.0096 1.0033 150.7 Nm  20?   1.87 167.5   27  58  71  41
   2024 03 16 09:10  09 51 50.00    +09 30 02.9   0.0096 1.0033 150.7 Nm  20?   1.87 171.0   29  56  71  41
   2024 03 16 09:20  09 51 50.16    +09 29 44.3   0.0096 1.0033 150.7 Am  20?   1.87 174.3   30  54  71  41
   2024 03 16 09:30  09 51 50.26    +09 29 25.6   0.0096 1.0033 150.7 Am  20?   1.89 177.5   32  52  71  41
   2024 03 16 09:40  09 51 50.28    +09 29 06.6   0.0096 1.0033 150.7 Am  20?   1.90 180.4   34  49  71  41
   2024 03 16 09:50  09 51 50.24    +09 28 47.5   0.0096 1.0033 150.7  m  20?   1.93 183.2   35  47  71  41
   2024 03 16 10:00  09 51 50.14    +09 28 28.2   0.0096 1.0033 150.7  m  20?   1.95 185.7   37  45  70  41
   2024 03 16 10:10  09 51 49.98    +09 28 08.7   0.0096 1.0033 150.7  m  20?   1.98 188.0   38  42  70  41
   2024 03 16 10:20  09 51 49.76    +09 27 48.9   0.0096 1.0033 150.7  m  20?   2.02 190.1   40  39  70  41
   2024 03 16 10:30  09 51 49.50    +09 27 28.9   0.0096 1.0033 150.7  m  20?   2.05 191.9   41  37  70  42
   2024 03 16 10:40  09 51 49.19    +09 27 08.7   0.0096 1.0033 150.7  m  20?   2.09 193.6   42  34  70  42
   2024 03 16 10:50  09 51 48.84    +09 26 48.3   0.0096 1.0033 150.7  m  20?   2.13 195.0   44  31  70  42
   2024 03 16 11:00  09 51 48.45    +09 26 27.7   0.0096 1.0033 150.7  m  20?   2.16 196.2   45  28  70  42
   2024 03 16 11:10  09 51 48.03    +09 26 06.8   0.0096 1.0033 150.6  m  20?   2.20 197.2   46  24  70  42
   2024 03 16 11:20  09 51 47.58    +09 25 45.7   0.0096 1.0033 150.6  m  20?   2.23 198.0   47  21  70  42
   2024 03 16 11:30  09 51 47.10    +09 25 24.3   0.0096 1.0033 150.6  m  20?   2.27 198.6   47  18  70  42
   2024 03 16 11:40  09 51 46.60    +09 25 02.7   0.0096 1.0033 150.6  m  20?   2.30 199.1   48  14  70  42
   2024 03 16 11:50  09 51 46.09    +09 24 40.8   0.0096 1.0033 150.6  m  20?   2.33 199.4   48  10  70  42
   2024 03 16 12:00  09 51 45.56    +09 24 18.7   0.0096 1.0033 150.6  m  20?   2.36 199.5   49   7  70  42
   2024 03 16 12:10  09 51 45.02    +09 23 56.4   0.0096 1.0033 150.6  m  20?   2.38 199.5   49   3  70  42
   2024 03 16 12:20  09 51 44.49    +09 23 33.8   0.0096 1.0033 150.6  t  20?   2.41 199.4   49 359  69  42
   2024 03 16 12:30  09 51 43.95    +09 23 11.0   0.0096 1.0033 150.6     20?   2.43 199.1   49 355  69  42
   2024 03 16 12:40  09 51 43.42    +09 22 47.9   0.0096 1.0033 150.6     20?   2.45 198.6   49 351  69  42
   2024 03 16 12:50  09 51 42.89    +09 22 24.6   0.0096 1.0033 150.6     20?   2.47 198.1   48 348  69  42
   2024 03 16 13:00  09 51 42.39    +09 22 01.0   0.0096 1.0033 150.6     20?   2.48 197.4   48 344  69  42
   2024 03 16 13:10  09 51 41.90    +09 21 37.2   0.0096 1.0033 150.6     20?   2.49 196.5   47 340  69  42
   2024 03 16 13:20  09 51 41.43    +09 21 13.2   0.0096 1.0033 150.5     20?   2.51 195.5   46 337  69  43
   2024 03 16 13:30  09 51 40.99    +09 20 48.9   0.0096 1.0033 150.5     20?   2.52 194.5   45 334  69  43
   2024 03 16 13:40  09 51 40.58    +09 20 24.4   0.0096 1.0033 150.5     20?   2.53 193.2   45 330  69  43
   2024 03 16 13:50  09 51 40.21    +09 19 59.7   0.0096 1.0033 150.5     20?   2.54 191.9   43 327  69  43
   2024 03 16 14:00  09 51 39.88    +09 19 34.7   0.0096 1.0033 150.5     20?   2.55 190.4   42 324  69  43
   2024 03 16 14:10  09 51 39.59    +09 19 09.6   0.0096 1.0033 150.5     20?   2.56 188.8   41 321  69  43
   2024 03 16 14:20  09 51 39.35    +09 18 44.2   0.0096 1.0033 150.5     20?   2.57 187.1   40 319  68  43
   2024 03 16 14:30  09 51 39.16    +09 18 18.6   0.0096 1.0033 150.5     20?   2.58 185.3   38 316  68  43
   2024 03 16 14:40  09 51 39.03    +09 17 52.8   0.0096 1.0033 150.5     20?   2.59 183.4   37 313  68  43
   2024 03 16 14:50  09 51 38.96    +09 17 26.9   0.0096 1.0033 150.5     20?   2.61 181.4   35 311  68  43
   2024 03 16 15:00  09 51 38.95    +09 17 00.7   0.0096 1.0033 150.5     20?   2.62 179.3   33 309  68  43
   2024 03 16 15:10  09 51 39.00    +09 16 34.4   0.0096 1.0033 150.5     20?   2.65 177.1   32 307  68  43
   2024 03 16 15:20  09 51 39.13    +09 16 07.9   0.0096 1.0033 150.5     20?   2.67 174.9   30 305  68  43
   2024 03 16 15:30  09 51 39.33    +09 15 41.2   0.0096 1.0033 150.5     20?   2.70 172.6   28 303  68  44
   2024 03 16 15:40  09 51 39.60    +09 15 14.4   0.0096 1.0033 150.5     20?   2.73 170.3   26 301  68  44
   2024 03 16 15:50  09 51 39.95    +09 14 47.4   0.0096 1.0033 150.5     20?   2.77 167.9   25 299  68  44
   2024 03 16 16:00  09 51 40.39    +09 14 20.3   0.0096 1.0033 150.5     20?   2.81 165.5   23 297  67  44
   2024 03 16 16:10  09 51 40.90    +09 13 53.0   0.0096 1.0033 150.5     20?   2.85 163.2   21 295  67  44
   2024 03 16 16:20  09 51 41.50    +09 13 25.7   0.0096 1.0033 150.5     20?   2.90 160.8   19 294  67  44
   2024 03 16 16:30  09 51 42.20    +09 12 58.2   0.0096 1.0033 150.5     20?   2.96 158.4   17 292  67  44
   2024 03 16 16:40  09 51 42.98    +09 12 30.6   0.0096 1.0033 150.4     20?   3.02 156.1   15 291  67  44
   2024 03 16 16:50  09 51 43.85    +09 12 03.0   0.0096 1.0033 150.4     20?   3.09 153.8   13 289  67  44
   2024 03 16 17:00  09 51 44.82    +09 11 35.2   0.0096 1.0033 150.4     20?   3.16 151.6   11 288  67  44
   2024 03 16 17:10  09 51 45.88    +09 11 07.4   0.0096 1.0033 150.4     20?   3.24 149.5    9 286  67  44
   2024 03 16 17:20  09 51 47.04    +09 10 39.5   0.0096 1.0033 150.4     20?   3.32 147.4    7 285  67  45
   2024 03 16 17:30  09 51 48.30    +09 10 11.6   0.0096 1.0033 150.4     20?   3.40 145.3    5 283  66  45
   2024 03 16 17:40  09 51 49.66    +09 09 43.6   0.0096 1.0033 150.4     20?   3.49 143.4    3 282  66  45
   2024 03 16 17:50  09 51 51.11    +09 09 15.6   0.0096 1.0034 150.4     20?   3.58 141.5    1 281  66  45
   ................
   2024 03 17 08:30  09 56 06.82    +08 36 32.9   0.0096 1.0035 151.0 Cm  20?   2.07 155.6   22  64  59  51
   2024 03 17 08:40  09 56 07.35    +08 36 14.0   0.0096 1.0035 151.0 Cm  20?   2.03 158.9   24  62  59  51
   2024 03 17 08:50  09 56 07.80    +08 35 55.0   0.0096 1.0035 151.0 Nm  20?   2.01 162.3   26  60  59  52
   2024 03 17 09:00  09 56 08.18    +08 35 35.8   0.0096 1.0035 151.0 Nm  20?   1.99 165.6   27  58  59  52
   2024 03 17 09:10  09 56 08.47    +08 35 16.4   0.0096 1.0035 151.0 Nm  20?   1.98 168.9   29  56  59  52
   2024 03 17 09:20  09 56 08.69    +08 34 56.9   0.0096 1.0035 151.0 Am  20?   1.98 172.1   31  54  59  52
   2024 03 17 09:30  09 56 08.84    +08 34 37.2   0.0096 1.0035 151.0 Am  20?   1.98 175.1   33  52  59  52
   2024 03 17 09:40  09 56 08.93    +08 34 17.4   0.0096 1.0035 151.0  m  20?   1.99 177.9   34  50  59  52
   2024 03 17 09:50  09 56 08.94    +08 33 57.4   0.0096 1.0035 151.0  m  20?   2.01 180.6   36  48  59  52
   2024 03 17 10:00  09 56 08.90    +08 33 37.1   0.0096 1.0035 151.0  m  20?   2.03 183.1   38  45  59  52
   2024 03 17 10:10  09 56 08.80    +08 33 16.7   0.0096 1.0035 150.9  m  20?   2.06 185.4   39  43  59  52
   2024 03 17 10:20  09 56 08.64    +08 32 56.1   0.0096 1.0035 150.9  m  20?   2.09 187.4   41  40  59  52
   2024 03 17 10:30  09 56 08.43    +08 32 35.4   0.0096 1.0035 150.9  m  20?   2.12 189.3   42  37  59  52
   2024 03 17 10:40  09 56 08.18    +08 32 14.4   0.0095 1.0035 150.9  m  20?   2.15 190.9   43  35  59  52
   2024 03 17 10:50  09 56 07.89    +08 31 53.1   0.0095 1.0035 150.9  m  20?   2.18 192.4   44  32  59  52
   2024 03 17 11:00  09 56 07.55    +08 31 31.7   0.0095 1.0035 150.9  m  20?   2.21 193.6   46  28  59  52
   2024 03 17 11:10  09 56 07.19    +08 31 10.1   0.0095 1.0035 150.9  m  20?   2.25 194.7   47  25  59  52
   2024 03 17 11:20  09 56 06.79    +08 30 48.3   0.0095 1.0035 150.9  m  20?   2.28 195.5   47  22  58  52
   2024 03 17 11:30  09 56 06.37    +08 30 26.2   0.0095 1.0035 150.9  m  20?   2.31 196.2   48  18  58  52
   2024 03 17 11:40  09 56 05.92    +08 30 03.9   0.0095 1.0035 150.9  m  20?   2.34 196.7   49  14  58  52
   2024 03 17 11:50  09 56 05.46    +08 29 41.4   0.0095 1.0035 150.9  m  20?   2.37 197.1   49  11  58  52
   2024 03 17 12:00  09 56 04.99    +08 29 18.7   0.0095 1.0035 150.9  m  20?   2.39 197.3   50   7  58  52
   2024 03 17 12:10  09 56 04.51    +08 28 55.7   0.0095 1.0035 150.9  m  20?   2.42 197.3   50   3  58  52
   2024 03 17 12:20  09 56 04.02    +08 28 32.5   0.0095 1.0035 150.9  t  20?   2.44 197.2   50 359  58  53
   2024 03 17 12:30  09 56 03.54    +08 28 09.1   0.0095 1.0035 150.8  m  20?   2.46 197.0   50 355  58  53
   2024 03 17 12:40  09 56 03.06    +08 27 45.5   0.0095 1.0035 150.8  m  20?   2.48 196.6   50 351  58  53
   2024 03 17 12:50  09 56 02.59    +08 27 21.7   0.0095 1.0035 150.8  m  20?   2.49 196.0   49 347  58  53
   2024 03 17 13:00  09 56 02.13    +08 26 57.6   0.0095 1.0035 150.8  m  20?   2.51 195.3   49 344  58  53
   2024 03 17 13:10  09 56 01.70    +08 26 33.3   0.0095 1.0035 150.8  m  20?   2.52 194.5   48 340  58  53
   2024 03 17 13:20  09 56 01.28    +08 26 08.8   0.0095 1.0035 150.8     20?   2.53 193.6   47 337  58  53
   2024 03 17 13:30  09 56 00.90    +08 25 44.1   0.0095 1.0035 150.8     20?   2.54 192.5   46 333  58  53
   2024 03 17 13:40  09 56 00.54    +08 25 19.2   0.0095 1.0035 150.8     20?   2.55 191.3   45 330  57  53
   2024 03 17 13:50  09 56 00.22    +08 24 54.1   0.0095 1.0035 150.8     20?   2.56 190.0   44 327  57  53
   2024 03 17 14:00  09 55 59.95    +08 24 28.7   0.0095 1.0035 150.8     20?   2.57 188.6   43 324  57  53
   2024 03 17 14:10  09 55 59.71    +08 24 03.2   0.0095 1.0036 150.8     20?   2.58 187.0   42 321  57  53
   2024 03 17 14:20  09 55 59.52    +08 23 37.5   0.0095 1.0036 150.8     20?   2.59 185.3   40 318  57  53
   2024 03 17 14:30  09 55 59.39    +08 23 11.6   0.0095 1.0036 150.8     20?   2.60 183.6   39 315  57  53
   2024 03 17 14:40  09 55 59.31    +08 22 45.5   0.0095 1.0036 150.8     20?   2.62 181.7   37 313  57  53
   2024 03 17 14:50  09 55 59.29    +08 22 19.3   0.0095 1.0036 150.8     20?   2.63 179.7   36 310  57  53
   2024 03 17 15:00  09 55 59.33    +08 21 52.9   0.0095 1.0036 150.8     20?   2.65 177.6   34 308  57  54
   2024 03 17 15:10  09 55 59.44    +08 21 26.3   0.0095 1.0036 150.7     20?   2.67 175.5   33 306  57  54
   2024 03 17 15:20  09 55 59.62    +08 20 59.6   0.0095 1.0036 150.7     20?   2.70 173.3   31 304  57  54
   2024 03 17 15:30  09 55 59.87    +08 20 32.7   0.0095 1.0036 150.7     20?   2.73 171.0   29 302  57  54
   2024 03 17 15:40  09 56 00.19    +08 20 05.7   0.0095 1.0036 150.7     20?   2.76 168.7   27 300  56  54
   2024 03 17 15:50  09 56 00.60    +08 19 38.5   0.0095 1.0036 150.7     20?   2.80 166.4   25 298  56  54
   2024 03 17 16:00  09 56 01.09    +08 19 11.2   0.0095 1.0036 150.7     20?   2.84 164.0   23 296  56  54
   2024 03 17 16:10  09 56 01.66    +08 18 43.8   0.0095 1.0036 150.7     20?   2.89 161.7   22 295  56  54
   2024 03 17 16:20  09 56 02.31    +08 18 16.3   0.0096 1.0036 150.7     20?   2.95 159.3   20 293  56  54
   2024 03 17 16:30  09 56 03.06    +08 17 48.7   0.0096 1.0036 150.7     20?   3.00 157.0   18 291  56  54
   2024 03 17 16:40  09 56 03.89    +08 17 21.0   0.0096 1.0036 150.7     20?   3.07 154.8   16 290  56  54
   2024 03 17 16:50  09 56 04.82    +08 16 53.2   0.0096 1.0036 150.7     20?   3.14 152.5   14 288  56  54
   2024 03 17 17:00  09 56 05.85    +08 16 25.4   0.0096 1.0036 150.7     20?   3.21 150.4   12 287  56  55
   2024 03 17 17:10  09 56 06.96    +08 15 57.5   0.0096 1.0036 150.7     20?   3.29 148.2   10 286  56  55
   2024 03 17 17:20  09 56 08.18    +08 15 29.5   0.0096 1.0036 150.7     20?   3.37 146.2    7 284  55  55
   2024 03 17 17:30  09 56 09.49    +08 15 01.5   0.0096 1.0036 150.7     20?   3.46 144.2    5 283  55  55
   2024 03 17 17:40  09 56 10.91    +08 14 33.4   0.0096 1.0036 150.7     20?   3.55 142.3    3 281  55  55
   2024 03 17 17:50  09 56 12.42    +08 14 05.3   0.0096 1.0036 150.7     20?   3.64 140.5    1 280  55  55
   2024 03 17 18:00  09 56 14.03    +08 13 37.2   0.0096 1.0036 150.7     20?   3.74 138.7    0 279  55  55
   ................
   

CAPSTONE (JPL-ID: -1176)

   Date (UTC) HH:MM   RA              Dec         delta   r     elong SM  mag  '/hr    PA   alt  az moo ill
   ---- -- -- -----  -------------   -----------  ------ ------ ----- --  --- ------ ------ --- --- --- ---
   2024 03 04 13:00  17 31 02.32    -37 03 44.3   400690 0.9913  80.3     16?  35.96 100.4    0 134  10  40
   2024 03 04 13:10  17 31 31.67    -37 04 50.8   400456 0.9913  80.2     16?  35.55 100.6    2 133  10  39
   2024 03 04 13:20  17 32 00.66    -37 05 58.0   400218 0.9913  80.1     16?  35.13 100.9    3 132  10  39
   2024 03 04 13:30  17 32 29.29    -37 07 05.9   399978 0.9913  80.0     16?  34.69 101.1    5 130  10  39
   2024 03 04 13:40  17 32 57.54    -37 08 14.3   399735 0.9913  79.9  m  16?  34.25 101.3    6 129  10  39
   2024 03 04 13:50  17 33 25.41    -37 09 23.2   399489 0.9913  79.8  m  16?  33.80 101.6    8 128  10  39
   2024 03 04 14:00  17 33 52.90    -37 10 32.3   399242 0.9913  79.8  m  16?  33.34 101.8    9 127  10  39
   2024 03 04 14:10  17 34 19.99    -37 11 41.6   398992 0.9913  79.7  m  16?  32.88 102.0   11 126  10  39
   2024 03 04 14:20  17 34 46.69    -37 12 51.0   398742 0.9913  79.6  m  16?  32.41 102.1   13 125  10  39
   2024 03 04 14:30  17 35 12.99    -37 14 00.3   398490 0.9913  79.5  m  16?  31.93 102.3   14 124  10  39
   2024 03 04 14:40  17 35 38.89    -37 15 09.4   398237 0.9913  79.4  m  16?  31.45 102.4   16 123  10  39
   2024 03 04 14:50  17 36 04.38    -37 16 18.1   397984 0.9913  79.4  m  16?  30.96 102.6   18 123  10  39
   2024 03 04 15:00  17 36 29.47    -37 17 26.4   397731 0.9913  79.3  m  16?  30.47 102.7   20 122  10  39
   2024 03 04 15:10  17 36 54.15    -37 18 34.2   397478 0.9913  79.2  m  16?  29.97 102.8   21 121  10  39
   2024 03 04 15:20  17 37 18.43    -37 19 41.2   397225 0.9913  79.1  m  16?  29.48 102.8   23 120  10  38
   2024 03 04 15:30  17 37 42.30    -37 20 47.4   396974 0.9913  79.1  m  16?  28.98 102.9   25 119  10  38
   2024 03 04 15:40  17 38 05.77    -37 21 52.6   396723 0.9913  79.0  m  16?  28.48 102.9   27 119  10  38
   2024 03 04 15:50  17 38 28.83    -37 22 56.8   396474 0.9913  78.9  m  16?  27.98 102.9   28 118  10  38
   2024 03 04 16:00  17 38 51.50    -37 23 59.7   396226 0.9913  78.9  m  16?  27.49 102.9   30 117  10  38
   2024 03 04 16:10  17 39 13.77    -37 25 01.3   395981 0.9913  78.8  m  16?  26.99 102.8   32 117  10  38
   2024 03 04 16:20  17 39 35.65    -37 26 01.3   395738 0.9913  78.7  m  16?  26.50 102.7   34 116  10  38
   2024 03 04 16:30  17 39 57.14    -37 26 59.8   395497 0.9913  78.7  m  16?  26.02 102.6   36 115  10  38
   2024 03 04 16:40  17 40 18.26    -37 27 56.6   395260 0.9913  78.6  m  16?  25.54 102.4   38 115  10  38
   2024 03 04 16:50  17 40 39.00    -37 28 51.5   395026 0.9913  78.5  m  16?  25.06 102.2   40 114  10  38
   2024 03 04 17:00  17 40 59.38    -37 29 44.4   394795 0.9913  78.5  m  16?  24.59 102.0   41 114  10  38
   2024 03 04 17:10  17 41 19.40    -37 30 35.2   394568 0.9913  78.4  m  16?  24.13 101.7   43 113  10  38
   2024 03 04 17:20  17 41 39.08    -37 31 23.9   394346 0.9913  78.4  m  16?  23.68 101.3   45 113  10  38
   2024 03 04 17:30  17 41 58.42    -37 32 10.2   394127 0.9913  78.3  m  16?  23.24 101.0   47 113  10  38
   2024 03 04 17:40  17 42 17.42    -37 32 54.0   393913 0.9913  78.2  m  16?  22.82 100.5   49 112  10  38
   2024 03 04 17:50  17 42 36.12    -37 33 35.4   393705 0.9913  78.2  m  16?  22.40 100.1   51 112  10  38
   2024 03 04 18:00  17 42 54.50    -37 34 14.1   393501 0.9913  78.1  m  16?  22.00  99.6   53 112  10  37
   2024 03 04 18:10  17 43 12.60    -37 34 50.0   393302 0.9913  78.1  m  16?  21.62  99.0   55 112  10  37
   2024 03 04 18:20  17 43 30.41    -37 35 23.1   393110 0.9913  78.0  m  16?  21.25  98.4   57 112  10  37
   2024 03 04 18:30  17 43 47.96    -37 35 53.3   392923 0.9913  78.0  m  16?  20.90  97.7   59 112  10  37
   2024 03 04 18:40  17 44 05.26    -37 36 20.4   392742 0.9913  77.9 Am  16?  20.57  97.0   61 112  10  37
   2024 03 04 18:50  17 44 22.32    -37 36 44.4   392567 0.9913  77.9 Am  16?  20.26  96.2   63 112  10  37
   2024 03 04 19:00  17 44 39.16    -37 37 05.3   392398 0.9913  77.8 Am  16?  19.97  95.3   64 112  10  37
   2024 03 04 19:10  17 44 55.79    -37 37 22.9   392236 0.9913  77.8 Nm  16?  19.71  94.5   66 113  10  37
   2024 03 04 19:20  17 45 12.23    -37 37 37.2   392081 0.9913  77.7 Nm  16?  19.47  93.5   68 114  10  37
   2024 03 04 19:30  17 45 28.49    -37 37 48.0   391932 0.9913  77.7 Nm  16?  19.25  92.6   70 115  10  37
   2024 03 04 19:40  17 45 44.60    -37 37 55.4   391791 0.9912  77.6 Cm  16?  19.06  91.5   72 116  10  37
   2024 03 04 19:50  17 46 00.57    -37 37 59.4   391656 0.9912  77.6 Cm  16?  18.90  90.5   74 118  10  37
   ................
   2024 03 05 14:00  18 35 44.23    -35 23 52.5   388341 0.9911  68.2  r  16?  37.71  86.3    0 133   8  29
   2024 03 05 14:10  18 36 14.83    -35 23 29.5   388078 0.9911  68.1     16?  37.26  86.3    0 131   8  29
   2024 03 05 14:20  18 36 45.06    -35 23 06.9   387811 0.9911  68.0     16?  36.80  86.4    2 130   8  29
   2024 03 05 14:30  18 37 14.91    -35 22 44.8   387541 0.9911  67.9     16?  36.34  86.4    4 129   8  28
   2024 03 05 14:40  18 37 44.37    -35 22 22.9   387268 0.9911  67.8  m  16?  35.86  86.3    5 128   8  28
   2024 03 05 14:50  18 38 13.44    -35 22 01.2   386993 0.9911  67.7  m  16?  35.38  86.3    7 127   8  28
   2024 03 05 15:00  18 38 42.11    -35 21 39.4   386716 0.9911  67.6  m  16?  34.90  86.3    8 126   8  28
   2024 03 05 15:10  18 39 10.38    -35 21 17.6   386436 0.9911  67.5  m  16?  34.41  86.2   10 125   8  28
   2024 03 05 15:20  18 39 38.24    -35 20 55.6   386156 0.9911  67.5  m  16?  33.91  86.1   12 124   8  28
   2024 03 05 15:30  18 40 05.70    -35 20 33.3   385874 0.9911  67.4  m  16?  33.42  86.0   13 123   8  28
   2024 03 05 15:40  18 40 32.74    -35 20 10.4   385591 0.9911  67.3  m  16?  32.92  85.8   15 122   8  28
   2024 03 05 15:50  18 40 59.36    -35 19 47.0   385308 0.9911  67.2  m  16?  32.42  85.6   17 121   8  28
   2024 03 05 16:00  18 41 25.57    -35 19 22.9   385024 0.9911  67.1  m  16?  31.92  85.4   19 120   8  28
   2024 03 05 16:10  18 41 51.37    -35 18 57.9   384741 0.9911  67.0  m  16?  31.42  85.2   20 119   8  28
   2024 03 05 16:20  18 42 16.75    -35 18 32.0   384458 0.9911  67.0  m  16?  30.92  84.9   22 118   8  28
   2024 03 05 16:30  18 42 41.71    -35 18 04.9   384175 0.9911  66.9  m  16?  30.43  84.6   24 117   8  28
   2024 03 05 16:40  18 43 06.26    -35 17 36.7   383894 0.9910  66.8  m  16?  29.94  84.3   26 116   8  27
   2024 03 05 16:50  18 43 30.40    -35 17 07.0   383614 0.9910  66.7  m  16?  29.46  83.9   28 116   8  27
   2024 03 05 17:00  18 43 54.13    -35 16 35.9   383336 0.9910  66.6  m  16?  28.99  83.5   29 115   8  27
   2024 03 05 17:10  18 44 17.46    -35 16 03.2   383060 0.9910  66.6  m  16?  28.52  83.1   31 114   8  27
   2024 03 05 17:20  18 44 40.39    -35 15 28.8   382786 0.9910  66.5  m  16?  28.07  82.6   33 113   8  27
   2024 03 05 17:30  18 45 02.92    -35 14 52.5   382515 0.9910  66.4  m  16?  27.62  82.1   35 113   8  27
   2024 03 05 17:40  18 45 25.07    -35 14 14.2   382247 0.9910  66.4  m  16?  27.19  81.5   37 112   8  27
   2024 03 05 17:50  18 45 46.84    -35 13 33.9   381982 0.9910  66.3  m  16?  26.77  80.9   39 111   8  27
   2024 03 05 18:00  18 46 08.24    -35 12 51.3   381721 0.9910  66.2  m  16?  26.36  80.3   41 111   8  27
   2024 03 05 18:10  18 46 29.27    -35 12 06.3   381463 0.9910  66.2  m  16?  25.97  79.6   43 110   8  27
   2024 03 05 18:20  18 46 49.95    -35 11 19.0   381210 0.9910  66.1  m  16?  25.60  78.9   45 110   8  27
   2024 03 05 18:30  18 47 10.28    -35 10 29.1   380961 0.9910  66.0  m  16?  25.25  78.1   47 109   8  27
   2024 03 05 18:40  18 47 30.28    -35 09 36.5   380717 0.9910  66.0 Am  16?  24.91  77.3   49 109   8  27
   2024 03 05 18:50  18 47 49.95    -35 08 41.1   380478 0.9910  65.9 Am  16?  24.60  76.5   51 108   8  27
   2024 03 05 19:00  18 48 09.31    -35 07 42.9   380244 0.9910  65.8 Am  16?  24.31  75.6   52 108   7  27
   2024 03 05 19:10  18 48 28.38    -35 06 41.8   380016 0.9910  65.8 Nm  16?  24.05  74.7   54 107   7  27
   2024 03 05 19:20  18 48 47.16    -35 05 37.5   379793 0.9910  65.7 Nm  16?  23.81  73.8   56 107   7  27
   2024 03 05 19:30  18 49 05.67    -35 04 30.1   379576 0.9910  65.7 Nm  16?  23.59  72.8   58 107   7  27
   2024 03 05 19:40  18 49 23.92    -35 03 19.5   379365 0.9910  65.6 Cm  16?  23.40  71.8   60 106   7  27
   2024 03 05 19:50  18 49 41.92    -35 02 05.6   379161 0.9910  65.6 Cm  16?  23.24  70.8   62 106   7  26
   ................
   2024 03 06 15:30  19 43 55.12    -28 55 25.7   372424 0.9908  53.8  r  16?  44.78  64.8    0 124   4  18
   2024 03 06 15:40  19 44 25.84    -28 52 15.0   372134 0.9908  53.7  m  16?  44.47  64.4    1 123   4  18
   2024 03 06 15:50  19 44 56.23    -28 49 02.8   371842 0.9908  53.6  m  16?  44.15  63.9    3 122   4  18
   2024 03 06 16:00  19 45 26.28    -28 45 49.0   371547 0.9908  53.4  m  16?  43.84  63.5    4 120   3  18
   2024 03 06 16:10  19 45 55.98    -28 42 33.4   371251 0.9908  53.3  m  16?  43.54  63.0    6 119   3  18
   2024 03 06 16:20  19 46 25.35    -28 39 15.9   370953 0.9908  53.2  m  16?  43.25  62.5    8 118   3  18
   2024 03 06 16:30  19 46 54.37    -28 35 56.3   370654 0.9908  53.1  m  16?  42.97  62.0   10 117   3  18
   2024 03 06 16:40  19 47 23.05    -28 32 34.4   370354 0.9908  53.0  m  16?  42.71  61.5   11 116   3  18
   2024 03 06 16:50  19 47 51.40    -28 29 10.2   370054 0.9908  52.9  m  16?  42.45  60.9   13 115   3  18
   2024 03 06 17:00  19 48 19.41    -28 25 43.5   369754 0.9908  52.8  m  16?  42.21  60.3   15 114   3  18
   2024 03 06 17:10  19 48 47.08    -28 22 14.0   369453 0.9908  52.7  m  16?  41.99  59.7   17 113   3  18
   2024 03 06 17:20  19 49 14.43    -28 18 41.6   369154 0.9908  52.6  m  16?  41.79  59.1   19 112   3  18
   2024 03 06 17:30  19 49 41.45    -28 15 06.2   368855 0.9908  52.5  m  16?  41.60  58.4   21 111   3  18
   2024 03 06 17:40  19 50 08.16    -28 11 27.5   368557 0.9908  52.4  m  16?  41.44  57.8   22 109   3  18
   2024 03 06 17:50  19 50 34.56    -28 07 45.5   368262 0.9908  52.3  m  16?  41.31  57.1   24 108   3  17
   2024 03 06 18:00  19 51 00.66    -28 03 59.8   367968 0.9908  52.2  m  16?  41.20  56.4   26 107   3  17
   2024 03 06 18:10  19 51 26.47    -28 00 10.5   367676 0.9908  52.0  m  16?  41.12  55.6   28 107   3  17
   2024 03 06 18:20  19 51 51.99    -27 56 17.2   367388 0.9908  51.9  m  16?  41.06  54.9   30 106   3  17
   2024 03 06 18:30  19 52 17.26    -27 52 19.7   367102 0.9908  51.8  m  16?  41.04  54.2   32 105   3  17
   2024 03 06 18:40  19 52 42.27    -27 48 18.0   366820 0.9908  51.7 Am  16?  41.05  53.4   34 104   3  17
   2024 03 06 18:50  19 53 07.04    -27 44 11.8   366541 0.9908  51.6 Am  16?  41.10  52.7   36 103   3  17
   2024 03 06 19:00  19 53 31.58    -27 40 00.9   366267 0.9908  51.5 Am  16?  41.18  51.9   38 102   2  17
   2024 03 06 19:10  19 53 55.93    -27 35 45.1   365997 0.9908  51.4 Nm  16?  41.30  51.2   40 101   2  17
   2024 03 06 19:20  19 54 20.08    -27 31 24.3   365731 0.9908  51.3 Nm  16?  41.47  50.4   42 100   2  17
   2024 03 06 19:30  19 54 44.08    -27 26 58.2   365471 0.9908  51.2 Nm  17?  41.67  49.7   44  99   2  17
   2024 03 06 19:40  19 55 07.93    -27 22 26.6   365216 0.9908  51.1 Cm  17?  41.92  49.0   46  98   2  17
   2024 03 06 19:50  19 55 31.67    -27 17 49.4   364967 0.9908  51.1 Cm  17?  42.21  48.3   48  96   2  17
   ................
   2024 03 07 17:10  21 15 16.47    -25 43 38.2   369821 0.9906  35.0  m  17?  43.67  97.0    0 120   6  10
   2024 03 07 17:20  21 15 48.33    -25 44 31.7   369656 0.9906  34.9  m  17?  43.10  97.0    1 119   6   9
   2024 03 07 17:30  21 16 19.78    -25 45 25.0   369489 0.9906  34.8  m  17?  42.53  97.1    3 117   6   9
   2024 03 07 17:40  21 16 50.80    -25 46 17.9   369319 0.9906  34.7  m  17?  41.94  97.1    5 116   6   9
   2024 03 07 17:50  21 17 21.39    -25 47 10.3   369149 0.9906  34.6  m  17?  41.36  97.2    7 115   6   9
   2024 03 07 18:00  21 17 51.54    -25 48 02.2   368977 0.9906  34.5  m  17?  40.76  97.2    9 114   6   9
   2024 03 07 18:10  21 18 21.27    -25 48 53.4   368805 0.9906  34.4  m  17?  40.17  97.2   11 113   6   9
   2024 03 07 18:20  21 18 50.56    -25 49 44.0   368633 0.9906  34.4  m  17?  39.57  97.2   12 112   6   9
   2024 03 07 18:30  21 19 19.41    -25 50 33.7   368460 0.9906  34.3  m  17?  38.97  97.2   14 111   6   9
   2024 03 07 18:40  21 19 47.83    -25 51 22.6   368288 0.9906  34.2 Am  17?  38.37  97.1   16 110   6   9
   2024 03 07 18:50  21 20 15.82    -25 52 10.4   368116 0.9906  34.1 Am  17?  37.77  97.1   18 109   6   9
   2024 03 07 19:00  21 20 43.37    -25 52 57.2   367946 0.9906  34.1 Am  17?  37.18  97.0   20 108   6   9
   2024 03 07 19:10  21 21 10.49    -25 53 42.7   367777 0.9906  34.0 Nm  17?  36.58  97.0   22 107   6   9
   2024 03 07 19:20  21 21 37.18    -25 54 27.0   367610 0.9906  33.9 Nm  17?  35.99  96.9   24 106   6   9
   2024 03 07 19:30  21 22 03.44    -25 55 10.0   367444 0.9906  33.9 Nm  17?  35.40  96.8   26 105   6   9
   2024 03 07 19:40  21 22 29.28    -25 55 51.5   367282 0.9906  33.8 Cm  17?  34.82  96.6   28 104   6   9
   2024 03 07 19:50  21 22 54.71    -25 56 31.4   367122 0.9906  33.7 Cm  17?  34.24  96.5   30 103   6   9
   ................
   2024 03 08 18:20  22 22 50.44    -23 37 13.1   374196 0.9906  23.0  m  17?  37.53  83.4    0 117   9   3
   2024 03 08 18:30  22 23 17.37    -23 36 30.4   374016 0.9906  23.0  m  17?  36.99  83.3    2 116   9   3
   2024 03 08 18:40  22 23 43.90    -23 35 47.7   373834 0.9906  22.9 Am  17?  36.45  83.2    3 115   9   3
   2024 03 08 18:50  22 24 10.03    -23 35 04.8   373650 0.9906  22.8 Am  17?  35.90  83.1    5 114   9   3
   2024 03 08 19:00  22 24 35.75    -23 34 21.7   373465 0.9906  22.8 Am  17?  35.35  82.9    7 112   9   3
   2024 03 08 19:10  22 25 01.06    -23 33 38.2   373279 0.9906  22.7 Nm  17?  34.80  82.7    9 111   9   3
   2024 03 08 19:20  22 25 25.97    -23 32 54.4   373092 0.9906  22.7 Nm  17?  34.25  82.6   11 110   9   3
   2024 03 08 19:30  22 25 50.46    -23 32 10.2   372904 0.9906  22.6 Nm  17?  33.69  82.3   13 109   9   3
   2024 03 08 19:40  22 26 14.54    -23 31 25.3   372717 0.9906  22.5 Cm  17?  33.14  82.1   15 108   9   3
   2024 03 08 19:50  22 26 38.21    -23 30 39.8   372531 0.9906  22.5 Cm  17?  32.60  81.8   17 107   9   3
   ................
   2024 03 09 08:40  22 49 56.51    -21 00 49.3   375797 0.9906  18.1 C   18?  39.01  64.2    0 245  10   1
   ................
   2024 03 09 19:30  23 20 58.40    -18 33 08.4   376276 0.9907  14.3 Nm  18?  34.82  71.8    0 111  10   0
   2024 03 09 19:40  23 21 21.47    -18 31 19.7   376067 0.9907  14.3 Cm  18?  34.31  71.5    2 110  10   0
   2024 03 09 19:50  23 21 44.16    -18 29 30.8   375856 0.9907  14.2 Cm  18?  33.80  71.2    4 108  10   0
   ................
   2024 03 10 08:40  23 41 38.28    -15 04 34.2   375607 0.9908  12.0 C   18?  36.25  55.6    6 256  10   0
   ................
   2024 03 11 08:40  00 28 20.50    -07 23 42.8   372925 0.9911  15.8 Cm  18?  34.57  48.3   11 268  10   1
   2024 03 11 08:50  00 28 38.03    -07 19 52.8   373133 0.9911  15.8 Cm  18?  34.97  48.9    9 267   9   1
   2024 03 11 09:00  00 28 55.91    -07 16 02.7   373342 0.9911  15.9 Nm  18?  35.38  49.4    7 265   9   1
   2024 03 11 09:10  00 29 14.15    -07 12 12.5   373552 0.9911  15.9 N   18?  35.79  50.0    4 264   9   1
   2024 03 11 09:20  00 29 32.75    -07 08 22.3   373762 0.9911  16.0 A   18?  36.21  50.5    2 263   9   1
   2024 03 11 09:30  00 29 51.70    -07 04 32.0   373972 0.9911  16.0 A   18?  36.62  51.1    0 262   9   1
   ................
   2024 03 12 08:30  01 12 00.65    +02 06 07.2   368059 0.9916  25.9 Cm  17?  34.68  40.1   16 283   7   5
   2024 03 12 08:40  01 12 15.70    +02 10 32.9   368247 0.9916  26.0 Cm  17?  35.04  40.7   14 282   7   5
   2024 03 12 08:50  01 12 31.11    +02 14 58.8   368438 0.9916  26.0 Nm  17?  35.40  41.3   12 280   6   5
   2024 03 12 09:00  01 12 46.87    +02 19 24.9   368632 0.9916  26.1 Nm  17?  35.77  42.0   10 279   6   5
   2024 03 12 09:10  01 13 02.99    +02 23 51.2   368828 0.9916  26.2 Nm  17?  36.15  42.6    8 278   6   5
   2024 03 12 09:20  01 13 19.48    +02 28 17.7   369025 0.9916  26.3 Am  17?  36.53  43.2    6 276   6   5
   2024 03 12 09:30  01 13 36.33    +02 32 44.4   369225 0.9916  26.4 Am  17?  36.92  43.8    4 275   6   5
   2024 03 12 09:40  01 13 53.55    +02 37 11.3   369425 0.9916  26.4 Am  17?  37.32  44.4    2 274   6   5
   2024 03 12 09:50  01 14 11.13    +02 41 38.5   369627 0.9916  26.5     17?  37.73  44.9    0 273   6   5
   ................
   2024 03 13 08:30  02 08 01.83    +15 42 14.4   364582 0.9922  42.3 Cm  17?  61.03  92.9   18 302   1  12
   2024 03 13 08:40  02 08 43.56    +15 41 40.3   364842 0.9923  42.4 Cm  17?  59.74  93.7   17 301   1  12
   2024 03 13 08:50  02 09 24.44    +15 40 59.5   365109 0.9923  42.6 Nm  17?  58.64  94.3   15 299   1  12
   2024 03 13 09:00  02 10 04.58    +15 40 13.4   365381 0.9923  42.7 Nm  17?  57.69  94.9   13 298   1  12
   2024 03 13 09:10  02 10 44.09    +15 39 23.3   365659 0.9923  42.8 Nm  17?  56.89  95.3   11 296   1  12
   2024 03 13 09:20  02 11 23.06    +15 38 30.2   365941 0.9923  43.0 Am  17?  56.21  95.6   10 295   1  12
   2024 03 13 09:30  02 12 01.57    +15 37 34.7   366229 0.9923  43.1 Am  17?  55.63  95.9    8 294   2  12
   2024 03 13 09:40  02 12 39.70    +15 36 37.3   366520 0.9923  43.2 Am  17?  55.14  96.1    6 292   2  12
   2024 03 13 09:50  02 13 17.51    +15 35 38.7   366815 0.9923  43.4  m  17?  54.74  96.3    4 291   2  12
   2024 03 13 10:00  02 13 55.04    +15 34 39.2   367114 0.9923  43.5  m  17?  54.40  96.4    2 290   2  12
   2024 03 13 10:10  02 14 32.37    +15 33 39.1   367416 0.9923  43.6  m  17?  54.13  96.5    0 288   2  12
   ................
   2024 03 14 08:30  03 19 33.45    +15 45 07.4   378226 0.9930  57.7 Cm  16?  25.61  90.5   29 315   7  21
   2024 03 14 08:40  03 19 51.29    +15 45 05.0   378471 0.9930  57.8 Cm  16?  25.91  90.7   28 313   7  21
   2024 03 14 08:50  03 20 09.35    +15 45 01.8   378724 0.9930  57.8 Nm  16?  26.23  90.9   26 311   7  21
   2024 03 14 09:00  03 20 27.63    +15 44 57.7   378984 0.9930  57.9 Nm  16?  26.57  91.1   25 309   7  21
   2024 03 14 09:10  03 20 46.16    +15 44 52.7   379250 0.9930  58.0 Nm  16?  26.93  91.2   23 308   7  21
   2024 03 14 09:20  03 21 04.93    +15 44 47.0   379522 0.9930  58.0 Am  16?  27.29  91.4   22 306   7  21
   2024 03 14 09:30  03 21 23.96    +15 44 40.5   379799 0.9930  58.1 Am  16?  27.68  91.5   20 304   7  21
   2024 03 14 09:40  03 21 43.26    +15 44 33.3   380083 0.9930  58.2 Am  16?  28.07  91.6   18 302   7  21
   2024 03 14 09:50  03 22 02.84    +15 44 25.5   380371 0.9930  58.2  m  16?  28.48  91.7   16 301   7  21
   2024 03 14 10:00  03 22 22.70    +15 44 17.0   380665 0.9930  58.3  m  16?  28.90  91.8   15 299   7  21
   2024 03 14 10:10  03 22 42.85    +15 44 08.1   380963 0.9930  58.4  m  16?  29.33  91.9   13 298   7  21
   2024 03 14 10:20  03 23 03.31    +15 43 58.6   381264 0.9930  58.4  m  16?  29.76  92.0   11 296   7  21
   2024 03 14 10:30  03 23 24.06    +15 43 48.7   381570 0.9930  58.5  m  16?  30.21  92.0    9 295   7  21
   2024 03 14 10:40  03 23 45.13    +15 43 38.5   381879 0.9930  58.6  m  16?  30.66  92.1    7 293   7  21
   2024 03 14 10:50  03 24 06.52    +15 43 27.9   382192 0.9930  58.7  m  16?  31.12  92.1    5 292   7  21
   2024 03 14 11:00  03 24 28.22    +15 43 17.1   382506 0.9930  58.7     16?  31.59  92.1    3 291   7  21
   2024 03 14 11:10  03 24 50.25    +15 43 06.0   382824 0.9930  58.8     16?  32.06  92.1    2 289   7  21
   2024 03 14 11:20  03 25 12.60    +15 42 54.9   383143 0.9931  58.9     16?  32.53  92.1    0 288   7  22
   ................
   2024 03 15 08:30  04 14 51.47    +16 50 58.1   391186 0.9937  69.9 Cm  16?  19.96  85.6   35 328   9  31
   2024 03 15 08:40  04 15 05.41    +16 51 13.1   391369 0.9937  70.0 Cm  16?  20.18  86.0   34 326   9  31
   2024 03 15 08:50  04 15 19.52    +16 51 26.8   391561 0.9937  70.0 Nm  16?  20.41  86.4   33 324   9  31
   2024 03 15 09:00  04 15 33.80    +16 51 39.3   391760 0.9937  70.1 Nm  16?  20.67  86.8   32 321   9  31
   2024 03 15 09:10  04 15 48.27    +16 51 50.6   391967 0.9937  70.1 Nm  16?  20.94  87.2   30 319   9  31
   2024 03 15 09:20  04 16 02.94    +16 52 00.7   392181 0.9937  70.2 Am  16?  21.24  87.6   29 317   9  31
   2024 03 15 09:30  04 16 17.83    +16 52 09.7   392403 0.9937  70.2 Am  16?  21.55  87.9   27 315   9  31
   2024 03 15 09:40  04 16 32.95    +16 52 17.6   392632 0.9937  70.3 Am  16?  21.88  88.2   26 313   9  31
   2024 03 15 09:50  04 16 48.30    +16 52 24.4   392867 0.9937  70.4  m  16?  22.22  88.5   24 311   9  31
   2024 03 15 10:00  04 17 03.90    +16 52 30.2   393108 0.9937  70.4  m  16?  22.58  88.8   23 309   9  31
   2024 03 15 10:10  04 17 19.76    +16 52 35.1   393356 0.9937  70.5  m  16?  22.96  89.0   21 307   9  31
   2024 03 15 10:20  04 17 35.89    +16 52 39.1   393610 0.9937  70.5  m  16?  23.35  89.3   20 305   9  31
   2024 03 15 10:30  04 17 52.29    +16 52 42.2   393869 0.9937  70.6  m  16?  23.75  89.5   18 304   9  31
   2024 03 15 10:40  04 18 08.99    +16 52 44.5   394133 0.9938  70.6  m  16?  24.17  89.7   16 302   9  31
   2024 03 15 10:50  04 18 25.97    +16 52 46.1   394402 0.9938  70.7  m  16?  24.59  89.8   14 300   9  31
   2024 03 15 11:00  04 18 43.26    +16 52 47.0   394676 0.9938  70.8  m  16?  25.03  90.0   13 299   9  31
   2024 03 15 11:10  04 19 00.85    +16 52 47.3   394953 0.9938  70.8  m  16?  25.48  90.1   11 297   9  31
   2024 03 15 11:20  04 19 18.76    +16 52 47.0   395235 0.9938  70.9  m  16?  25.93  90.2    9 296   9  31
   2024 03 15 11:30  04 19 36.98    +16 52 46.2   395519 0.9938  71.0  m  16?  26.39  90.3    7 295   9  31
   2024 03 15 11:40  04 19 55.54    +16 52 44.9   395807 0.9938  71.0     16?  26.86  90.4    5 293   9  32
   2024 03 15 11:50  04 20 14.42    +16 52 43.3   396098 0.9938  71.1     16?  27.34  90.5    3 292   9  32
   2024 03 15 12:00  04 20 33.63    +16 52 41.3   396390 0.9938  71.2     16?  27.82  90.6    1 291   9  32
   2024 03 15 12:10  04 20 53.18    +16 52 39.1   396685 0.9938  71.2     16?  28.30  90.6    0 289   9  32
   ................
   2024 03 16 08:30  05 05 14.09    +18 13 19.7   400593 0.9944  81.0 Cm  16?  17.40  81.4   38 342  10  41
   2024 03 16 08:40  05 05 26.21    +18 13 45.5   400704 0.9944  81.1 Cm  16?  17.51  81.9   37 339  10  41
   2024 03 16 08:50  05 05 38.42    +18 14 09.7   400824 0.9944  81.1 Nm  16?  17.64  82.5   37 336  10  41
   2024 03 16 09:00  05 05 50.75    +18 14 32.5   400953 0.9944  81.2 Nm  16?  17.79  83.0   36 334  10  41
   2024 03 16 09:10  05 06 03.22    +18 14 53.8   401090 0.9945  81.2 Nm  16?  17.97  83.6   35 331  10  41
   2024 03 16 09:20  05 06 15.82    +18 15 13.6   401235 0.9945  81.2 Am  16?  18.17  84.1   34 329  10  41
   2024 03 16 09:30  05 06 28.59    +18 15 32.1   401389 0.9945  81.3 Am  16?  18.39  84.6   33 326  10  41
   2024 03 16 09:40  05 06 41.52    +18 15 49.2   401551 0.9945  81.3 Am  16?  18.63  85.1   31 324  10  41
   2024 03 16 09:50  05 06 54.65    +18 16 04.9   401720 0.9945  81.4  m  16?  18.89  85.6   30 321  10  41
   2024 03 16 10:00  05 07 07.97    +18 16 19.4   401897 0.9945  81.4  m  16?  19.17  86.0   29 319  10  41
   2024 03 16 10:10  05 07 21.49    +18 16 32.6   402081 0.9945  81.5  m  16?  19.47  86.4   27 317  10  41
   2024 03 16 10:20  05 07 35.25    +18 16 44.6   402273 0.9945  81.5  m  16?  19.78  86.8   26 315  10  41
   2024 03 16 10:30  05 07 49.23    +18 16 55.5   402471 0.9945  81.6  m  16?  20.12  87.2   25 313  10  42
   2024 03 16 10:40  05 08 03.46    +18 17 05.2   402675 0.9945  81.6  m  16?  20.47  87.6   23 311  10  42
   2024 03 16 10:50  05 08 17.95    +18 17 13.8   402886 0.9945  81.7  m  16?  20.83  87.9   21 309  10  42
   2024 03 16 11:00  05 08 32.70    +18 17 21.5   403103 0.9945  81.7  m  16?  21.21  88.2   20 308  10  42
   2024 03 16 11:10  05 08 47.72    +18 17 28.2   403326 0.9945  81.8  m  16?  21.61  88.5   18 306  10  42
   2024 03 16 11:20  05 09 03.03    +18 17 33.9   403554 0.9945  81.8  m  16?  22.01  88.7   16 304  10  42
   2024 03 16 11:30  05 09 18.63    +18 17 38.9   403787 0.9945  81.9  m  16?  22.43  89.0   15 303  10  42
   2024 03 16 11:40  05 09 34.53    +18 17 43.0   404024 0.9945  81.9  m  16?  22.86  89.2   13 301  10  42
   2024 03 16 11:50  05 09 50.74    +18 17 46.4   404266 0.9945  82.0  m  16?  23.30  89.4   11 300  10  42
   2024 03 16 12:00  05 10 07.26    +18 17 49.2   404512 0.9945  82.1  m  16?  23.75  89.5    9 298  10  42
   2024 03 16 12:10  05 10 24.10    +18 17 51.3   404762 0.9945  82.1  m  16?  24.21  89.7    7 297  10  42
   2024 03 16 12:20  05 10 41.26    +18 17 52.9   405014 0.9946  82.2  m  16?  24.68  89.8    6 295  10  42
   2024 03 16 12:30  05 10 58.76    +18 17 54.1   405270 0.9946  82.2     16?  25.15  89.9    4 294  10  42
   2024 03 16 12:40  05 11 16.58    +18 17 54.8   405528 0.9946  82.3     16?  25.63  90.0    2 293  10  42
   2024 03 16 12:50  05 11 34.75    +18 17 55.2   405788 0.9946  82.4     16?  26.11  90.1    0 291  10  42
   ................
   2024 03 17 08:30  05 53 43.73    +19 45 20.5   405596 0.9952  91.6 Cm  15?  16.76  77.0   38 356  10  51
   2024 03 17 08:40  05 53 55.30    +19 45 57.8   405632 0.9952  91.6 Cm  15?  16.76  77.6   38 353  10  51
   2024 03 17 08:50  05 54 06.91    +19 46 33.4   405677 0.9952  91.6 Nm  15?  16.79  78.2   38 350  10  52
   2024 03 17 09:00  05 54 18.57    +19 47 07.4   405731 0.9952  91.7 Nm  15?  16.83  78.8   37 347  10  52
   2024 03 17 09:10  05 54 30.30    +19 47 39.7   405793 0.9952  91.7 Nm  15?  16.91  79.4   37 344  10  52
   2024 03 17 09:20  05 54 42.12    +19 48 10.4   405865 0.9952  91.8 Am  15?  17.00  80.0   36 341  10  52
   2024 03 17 09:30  05 54 54.03    +19 48 39.5   405945 0.9952  91.8 Am  15?  17.12  80.6   36 338   9  52
   2024 03 17 09:40  05 55 06.05    +19 49 07.0   406034 0.9952  91.8  m  15?  17.26  81.2   35 336   9  52
   2024 03 17 09:50  05 55 18.20    +19 49 33.0   406132 0.9952  91.9  m  15?  17.43  81.8   34 333   9  52
   2024 03 17 10:00  05 55 30.50    +19 49 57.4   406238 0.9952  91.9  m  15?  17.61  82.4   33 331   9  52
   2024 03 17 10:10  05 55 42.95    +19 50 20.3   406352 0.9952  92.0  m  15?  17.82  83.0   32 328   9  52
   2024 03 17 10:20  05 55 55.57    +19 50 41.8   406474 0.9953  92.0  m  15?  18.05  83.6   31 326   9  52
   2024 03 17 10:30  05 56 08.37    +19 51 01.8   406604 0.9953  92.1  m  15?  18.30  84.1   30 324   9  52
   2024 03 17 10:40  05 56 21.37    +19 51 20.4   406741 0.9953  92.1  m  15?  18.57  84.6   28 321   9  52
   2024 03 17 10:50  05 56 34.58    +19 51 37.6   406886 0.9953  92.1  m  15?  18.86  85.1   27 319   9  52
   2024 03 17 11:00  05 56 48.01    +19 51 53.6   407038 0.9953  92.2  m  15?  19.17  85.6   26 317   9  52
   2024 03 17 11:10  05 57 01.68    +19 52 08.3   407197 0.9953  92.2  m  15?  19.50  86.0   24 315   9  52
   2024 03 17 11:20  05 57 15.59    +19 52 21.8   407362 0.9953  92.3  m  15?  19.84  86.4   23 313   9  52
   2024 03 17 11:30  05 57 29.75    +19 52 34.1   407534 0.9953  92.3  m  15?  20.20  86.8   21 311   9  52
   2024 03 17 11:40  05 57 44.18    +19 52 45.3   407712 0.9953  92.4  m  15?  20.57  87.2   20 310   9  52
   2024 03 17 11:50  05 57 58.88    +19 52 55.5   407896 0.9953  92.4  m  15?  20.96  87.5   18 308   9  52
   2024 03 17 12:00  05 58 13.87    +19 53 04.7   408085 0.9953  92.5  m  15?  21.37  87.8   16 306   9  52
   2024 03 17 12:10  05 58 29.15    +19 53 12.9   408279 0.9953  92.5  m  15?  21.78  88.1   15 305   9  52
   2024 03 17 12:20  05 58 44.74    +19 53 20.3   408478 0.9953  92.6  m  15?  22.21  88.3   13 303   9  53
   2024 03 17 12:30  05 59 00.63    +19 53 26.9   408681 0.9953  92.6  m  15?  22.65  88.6   11 302   9  53
   2024 03 17 12:40  05 59 16.84    +19 53 32.7   408889 0.9953  92.7  m  15?  23.09  88.8    9 300   9  53
   2024 03 17 12:50  05 59 33.37    +19 53 37.9   409100 0.9953  92.8  m  15?  23.55  89.0    7 299   9  53
   2024 03 17 13:00  05 59 50.23    +19 53 42.5   409315 0.9953  92.8  m  15?  24.02  89.1    6 297   9  53
   2024 03 17 13:10  06 00 07.42    +19 53 46.5   409532 0.9953  92.9  m  15?  24.49  89.3    4 296   9  53
   2024 03 17 13:20  06 00 24.95    +19 53 50.0   409753 0.9953  92.9     15?  24.97  89.4    2 295   9  53
   2024 03 17 13:30  06 00 42.82    +19 53 53.2   409975 0.9954  93.0     15?  25.45  89.5    0 293   9  53
   ................
   

Titan-3C RB (JPL-ID: -102770)

   Date (UTC) HH:MM   RA              Dec         delta   r     elong SM  mag  '/hr    PA   alt  az moo ill
   ---- -- -- -----  -------------   -----------  ------ ------ ----- --  --- ------ ------ --- --- --- ---
   2024 03 05 08:40  01 05 41.99    +12 50 11.4    98753 0.9914  35.4 C   14?  96.72 109.1   12 294 104  32
   2024 03 05 08:50  01 06 45.37    +12 44 52.2    98324 0.9914  35.6 C   14?  99.36 108.8   11 292 104  32
   2024 03 05 09:00  01 07 50.57    +12 39 28.5    97887 0.9914  35.8 N   14? 102.08 108.6    9 291 104  32
   2024 03 05 09:10  01 08 57.62    +12 34 00.3    97441 0.9914  36.0 N   14? 104.87 108.3    7 290 104  31
   2024 03 05 09:20  01 10 06.58    +12 28 27.7    96985 0.9914  36.2 N   14? 107.74 108.1    6 288 104  31
   2024 03 05 09:30  01 11 17.51    +12 22 50.7    96520 0.9914  36.4 A   14? 110.68 107.8    4 287 104  31
   2024 03 05 09:40  01 12 30.45    +12 17 09.3    96045 0.9914  36.6 A   14? 113.70 107.6    2 286 104  31
   2024 03 05 09:50  01 13 45.46    +12 11 23.6    95559 0.9915  36.8 A   14? 116.80 107.3    0 284 105  31
   ................
   2024 03 07 08:40  01 12 32.20    +12 26 26.4    95353 0.9919  34.7 C   14? 103.51 108.9   12 293  77  13
   2024 03 07 08:50  01 13 39.99    +12 20 47.0    94861 0.9919  34.9 C   14? 106.43 108.7   11 292  77  13
   2024 03 07 09:00  01 14 49.78    +12 15 02.5    94360 0.9920  35.1 N   14? 109.44 108.5    9 290  77  13
   2024 03 07 09:10  01 16 01.62    +12 09 12.8    93850 0.9920  35.3 N   14? 112.54 108.2    7 289  77  13
   2024 03 07 09:20  01 17 15.57    +12 03 17.9    93329 0.9920  35.5 N   14? 115.73 108.0    6 288  78  13
   2024 03 07 09:30  01 18 31.70    +11 57 17.8    92798 0.9920  35.7 A   14? 119.01 107.7    4 286  78  13
   2024 03 07 09:40  01 19 50.07    +11 51 12.6    92256 0.9920  36.0 A   14? 122.39 107.5    2 285  78  13
   2024 03 07 09:50  01 21 10.74    +11 45 02.1    91702 0.9920  36.2 A   14? 125.87 107.2    0 284  78  12
   ................
   2024 03 09 08:40  01 19 46.24    +11 59 53.9    91676 0.9925  34.1 C   14? 111.54 108.8   13 293  49   1
   2024 03 09 08:50  01 20 59.26    +11 53 50.0    91118 0.9925  34.3 C   14? 114.81 108.6   11 291  49   1
   2024 03 09 09:00  01 22 14.51    +11 47 40.0    90551 0.9925  34.5 N   14? 118.18 108.4    9 290  49   1
   2024 03 09 09:10  01 23 32.04    +11 41 24.0    89972 0.9925  34.7 N   14? 121.66 108.1    8 289  49   1
   2024 03 09 09:20  01 24 51.95    +11 35 01.9    89383 0.9925  35.0 N   14? 125.26 107.9    6 287  49   1
   2024 03 09 09:30  01 26 14.29    +11 28 33.5    88781 0.9925  35.2 A   14? 128.97 107.6    4 286  49   1
   2024 03 09 09:40  01 27 39.16    +11 21 58.9    88167 0.9925  35.5 A   14? 132.80 107.4    2 285  50   1
   2024 03 09 09:50  01 29 06.63    +11 15 17.9    87541 0.9925  35.8 A   14? 136.76 107.2    1 284  50   1
   2024 03 09 10:00  01 30 36.80    +11 08 30.4    86901 0.9925  36.1     14? 140.85 106.9    0 282  50   1
   ................
   2024 03 09 19:20  11 41 15.74    +04 50 12.3    10141 0.9932 174.8 Nm  10? 8685.1  77.2   13 283 168   0
   2024 03 09 19:30  13 16 44.86    +10 23 46.3     9978 0.9932 150.6 Nm   9? 8532.8  76.7   26 302 146   0
   2024 03 09 19:40  14 44 05.83    +15 07 21.9    10830 0.9932 128.8 Cm   9? 7042.8  78.4   35 322 125   0
   2024 03 09 19:50  15 54 25.48    +18 12 57.9    12384 0.9931 111.8 Cm   9? 5325.6  80.7   38 340 108   0
   ................
   2024 03 11 08:40  01 27 38.47    +11 30 52.4    87694 0.9930  33.6 Cm  14? 121.35 108.7   13 292  20   1
   2024 03 11 08:50  01 28 57.92    +11 24 19.1    87066 0.9930  33.9 Cm  14? 125.06 108.5   11 291  20   1
   2024 03 11 09:00  01 30 19.87    +11 17 38.6    86427 0.9930  34.1 Nm  14? 128.89 108.2   10 290  20   1
   2024 03 11 09:10  01 31 44.43    +11 10 50.8    85776 0.9931  34.4 N   14? 132.87 108.0    8 288  20   1
   2024 03 11 09:20  01 33 11.68    +11 03 55.7    85112 0.9931  34.6 A   14? 136.99 107.8    6 287  20   1
   2024 03 11 09:30  01 34 41.73    +10 56 53.0    84436 0.9931  34.9 A   14? 141.26 107.5    5 286  21   1
   2024 03 11 09:40  01 36 14.67    +10 49 42.6    83746 0.9931  35.2 A   14? 145.69 107.3    3 284  21   1
   2024 03 11 09:50  01 37 50.60    +10 42 24.3    83041 0.9931  35.5     14? 150.28 107.1    1 283  21   1
   2024 03 11 10:00  01 39 29.65    +10 34 58.0    82322 0.9931  35.9     14? 155.04 106.9    0 282  21   1
   ................
   2024 03 11 18:20  10 30 33.14    +01 06 26.8    10009 0.9937 165.4  r  10? 8492.2  79.3   11 278 146   3
   2024 03 11 18:30  12 10 43.13    +06 28 23.0     9110 0.9937 168.9     10? 9640.2  77.0   26 296 166   3
   2024 03 11 18:40  13 53 20.90    +12 16 05.4     9413 0.9937 143.0 A    9? 8722.1  77.6   37 321 156   3
   2024 03 11 18:50  15 20 00.18    +16 28 06.7    10723 0.9937 121.6 A    9? 6649.5  79.8   41 345 136   3
   2024 03 11 19:00  16 25 32.68    +18 55 50.6    12610 0.9937 105.9 At   8? 4826.4  82.1   39   3 120   3
   2024 03 11 19:10  17 14 08.81    +20 18 53.9    14753 0.9936  94.4 N    8? 3564.0  83.9   37  14 109   3
   2024 03 11 19:20  17 50 59.24    +21 07 02.5    16979 0.9936  85.9 N    9? 2725.6  85.2   34  21 101   3
   2024 03 11 19:30  18 19 48.83    +21 36 10.1    19204 0.9936  79.3 N    9? 2157.7  86.2   32  26  94   3
   2024 03 11 19:40  18 43 03.47    +21 54 23.4    21390 0.9936  74.0 C   10? 1759.2  87.0   30  29  89   3
   2024 03 11 19:50  19 02 17.14    +22 05 59.5    23521 0.9936  69.7 C   10? 1469.5  87.7   29  31  84   3
   ................
   2024 03 13 08:30  01 34 57.55    +11 06 50.0    84007 0.9936  33.1 Cm  14? 129.66 108.7   15 293   8  12
   2024 03 13 08:40  01 36 22.40    +10 59 49.6    83315 0.9936  33.4 Cm  14? 133.79 108.5   13 292   8  12
   2024 03 13 08:50  01 37 50.04    +10 52 40.7    82610 0.9936  33.6 Nm  14? 138.08 108.3   12 291   8  12
   2024 03 13 09:00  01 39 20.58    +10 45 23.1    81893 0.9936  33.9 Nm  14? 142.55 108.1   10 289   8  12
   2024 03 13 09:10  01 40 54.14    +10 37 56.6    81162 0.9936  34.2 Nm  14? 147.20 107.8    8 288   8  12
   2024 03 13 09:20  01 42 30.83    +10 30 20.9    80418 0.9936  34.6 Am  14? 152.03 107.6    7 287   7  12
   2024 03 13 09:30  01 44 10.80    +10 22 35.9    79658 0.9936  34.9 Am  14? 157.07 107.4    5 285   7  12
   2024 03 13 09:40  01 45 54.16    +10 14 41.3    78884 0.9936  35.2 Am  14? 162.31 107.2    4 284   7  12
   2024 03 13 09:50  01 47 41.07    +10 06 36.7    78094 0.9936  35.6  m  14? 167.78 107.0    2 283   7  12
   2024 03 13 10:00  01 49 31.67    +09 58 21.7    77287 0.9937  36.0  m  14? 173.48 106.8    0 282   7  12
   ................
   2024 03 13 17:20  09 23 15.77    -01 55 02.3    10437 0.9942 146.6  r   9? 7514.6  82.7    9 273 104  15
   2024 03 13 17:30  10 58 13.86    +02 05 27.6     8838 0.9942 170.7     10? 9753.3  78.7   25 289 124  15
   2024 03 13 17:40  12 50 04.68    +08 07 35.5     8411 0.9942 160.6      9?  10298  77.4   39 315 145  15
   2024 03 13 17:50  14 34 42.73    +13 35 23.7     9283 0.9942 134.3  e   9? 8344.7  78.8   44 347 149  16
   2024 03 13 18:00  15 55 24.37    +17 00 47.5    11033 0.9942 114.6  t   8? 5961.3  81.1   41  10 139  16
   2024 03 13 18:10  16 53 46.36    +18 55 32.6    13194 0.9942 100.7      8? 4251.3  83.0   36  23 129  16
   2024 03 13 18:20  17 36 38.71    +20 01 27.7    15497 0.9942  90.6      8? 3152.0  84.3   31  31 121  16
   2024 03 13 18:30  18 09 19.93    +20 41 41.8    17815 0.9942  83.0      9? 2437.0  85.4   28  36 114  16
   2024 03 13 18:40  18 35 10.87    +21 07 36.3    20094 0.9941  77.1      9? 1952.5  86.2   26  39 108  16
   2024 03 13 18:50  18 56 15.56    +21 24 56.6    22311 0.9941  72.3 A   10? 1609.9  86.8   24  41 104  16
   2024 03 13 19:00  19 13 52.69    +21 36 49.8    24457 0.9941  68.3 A   10? 1358.0  87.4   23  43 100  16
   2024 03 13 19:10  19 28 54.14    +21 45 04.0    26531 0.9941  64.9 A   10? 1166.8  87.8   22  44  97  16
   2024 03 13 19:20  19 41 55.39    +21 50 45.8    28534 0.9941  62.0 N   11? 1017.7  88.3   21  44  94  16
   2024 03 13 19:30  19 53 21.55    +21 54 37.7    30471 0.9941  59.5 N   11? 898.62  88.7   21  44  92  16
   2024 03 13 19:40  20 03 30.91    +21 57 08.3    32345 0.9941  57.3 C   11? 801.74  89.0   21  44  90  16
   2024 03 13 19:50  20 12 37.15    +21 58 37.2    34159 0.9940  55.3 C   11? 721.58  89.4   21  44  88  16
   ................
   2024 03 15 08:30  01 44 31.39    +10 33 58.4    79216 0.9941  33.1 Cm  14? 145.09 108.4   16 293  34  31
   2024 03 15 08:40  01 46 06.43    +10 26 15.3    78440 0.9941  33.4 Cm  14? 149.99 108.2   14 292  34  31
   2024 03 15 08:50  01 47 44.77    +10 18 21.6    77649 0.9942  33.7 Nm  14? 155.12 108.0   12 290  34  31
   2024 03 15 09:00  01 49 26.56    +10 10 17.1    76844 0.9942  34.1 Nm  14? 160.47 107.8   11 289  34  31
   2024 03 15 09:10  01 51 11.95    +10 02 01.4    76024 0.9942  34.4 Nm  14? 166.08 107.6    9 288  33  31
   2024 03 15 09:20  01 53 01.13    +09 53 34.1    75188 0.9942  34.8 Am  14? 171.94 107.4    8 287  33  31
   2024 03 15 09:30  01 54 54.25    +09 44 54.8    74335 0.9942  35.2 Am  14? 178.08 107.2    6 285  33  31
   2024 03 15 09:40  01 56 51.51    +09 36 02.9    73465 0.9942  35.6 Am  13? 184.51 107.0    5 284  33  31
   2024 03 15 09:50  01 58 53.12    +09 26 58.1    72576 0.9942  36.0  m  13? 191.27 106.8    3 283  32  31
   2024 03 15 10:00  02 00 59.27    +09 17 39.6    71669 0.9942  36.5  m  13? 198.36 106.6    1 282  32  31
   2024 03 15 10:10  02 03 10.21    +09 08 06.9    70742 0.9942  36.9  m  13? 205.82 106.4    0 281  32  31
   ................
   2024 03 15 16:10  07 29 14.21    -04 12 27.8    13536 0.9947 116.4  r   9? 4648.1  90.2    0 264  55  34
   2024 03 15 16:20  08 30 14.59    -03 41 21.5    11051 0.9947 131.6      9? 6448.9  86.2   10 271  68  34
   2024 03 15 16:30  09 55 14.01    -01 19 48.8     8989 0.9947 152.9      9? 9030.8  81.6   25 284  85  34
   2024 03 15 16:40  11 47 05.96    +03 45 02.6     7897 0.9947 177.8     10?  11094  78.4   41 309 108  34
   2024 03 15 16:50  13 45 57.91    +09 56 21.1     8230 0.9947 148.3  e   9?  10044  78.3   48 347 128  34
   2024 03 15 17:00  15 22 38.30    +14 25 18.7     9761 0.9947 124.2  t   9? 7243.7  80.2   42  17 137  34
   2024 03 15 17:10  16 31 41.02    +17 00 02.4    11907 0.9947 107.5      8? 5017.5  82.0   34  32 137  34
   2024 03 15 17:20  17 20 58.16    +18 29 20.8    14276 0.9947  95.7      8? 3612.6  83.3   28  41 133  34
   2024 03 15 17:30  17 57 38.46    +19 24 35.8    16685 0.9947  87.1      9? 2732.1  84.3   23  46 128  34
   2024 03 15 17:40  18 26 07.93    +20 01 03.9    19057 0.9947  80.4      9? 2154.6  85.1   20  49 124  34
   2024 03 15 17:50  18 49 04.49    +20 26 19.3    21359 0.9947  75.1     10? 1756.3  85.7   18  51 121  35
   2024 03 15 18:00  19 08 04.82    +20 44 24.8    23583 0.9946  70.8     10? 1469.1  86.3   16  52 118  35
   2024 03 15 18:10  19 24 10.79    +20 57 40.4    25727 0.9946  67.1     10? 1254.3  86.7   15  53 115  35
   2024 03 15 18:20  19 38 03.80    +21 07 32.2    27792 0.9946  64.0     11? 1088.6  87.2   14  53 113  35
   2024 03 15 18:30  19 50 12.62    +21 14 55.8    29784 0.9946  61.3     11? 957.51  87.6   13  53 111  35
   2024 03 15 18:40  20 00 57.92    +21 20 28.8    31706 0.9946  58.9     11? 851.61  87.9   13  53 109  35
   2024 03 15 18:50  20 10 34.98    +21 24 37.3    33562 0.9946  56.8 A   11? 764.49  88.3   13  53 107  35
   2024 03 15 19:00  20 19 15.37    +21 27 39.9    35358 0.9946  54.9 A   11? 691.73  88.6   13  53 105  35
   2024 03 15 19:10  20 27 08.04    +21 29 50.5    37097 0.9946  53.2 A   11? 630.15  88.9   14  53 104  35
   2024 03 15 19:20  20 34 20.03    +21 31 19.1    38783 0.9945  51.6 N   12? 577.43  89.2   14  52 103  35
   2024 03 15 19:30  20 40 56.98    +21 32 13.6    40419 0.9945  50.2 N   12? 531.84  89.5   15  52 102  36
   2024 03 15 19:40  20 47 03.46    +21 32 39.9    42009 0.9945  48.9 N   12? 492.06  89.7   15  51 101  36
   2024 03 15 19:50  20 52 43.23    +21 32 42.5    43555 0.9945  47.7 C   12? 457.08  90.0   16  50 100  36
   ................
   2024 03 17 08:30  01 55 09.74    +09 57 01.6    73894 0.9947  33.4 Cm  14? 165.46 108.0   17 293  59  51
   2024 03 17 08:40  01 56 58.22    +09 48 22.7    73022 0.9947  33.7 Cm  14? 171.49 107.8   15 292  58  51
   2024 03 17 08:50  01 58 50.77    +09 39 30.3    72133 0.9947  34.1 Nm  13? 177.84 107.7   13 290  58  52
   2024 03 17 09:00  02 00 47.57    +09 30 23.9    71228 0.9947  34.5 Nm  13? 184.51 107.5   12 289  58  52
   2024 03 17 09:10  02 02 48.87    +09 21 02.9    70305 0.9947  35.0 Nm  13? 191.54 107.3   10 288  58  52
   2024 03 17 09:20  02 04 54.89    +09 11 26.6    69363 0.9948  35.4 Am  13? 198.95 107.1    9 286  57  52
   2024 03 17 09:30  02 07 05.90    +09 01 34.3    68403 0.9948  35.9 Am  13? 206.77 106.9    7 285  57  52
   2024 03 17 09:40  02 09 22.18    +08 51 25.1    67421 0.9948  36.4  m  13? 215.04 106.7    6 284  57  52
   2024 03 17 09:50  02 11 44.03    +08 40 58.2    66419 0.9948  36.9  m  13? 223.79 106.5    4 283  56  52
   2024 03 17 10:00  02 14 11.77    +08 30 12.7    65395 0.9948  37.4  m  13? 233.07 106.3    3 282  56  52
   2024 03 17 10:10  02 16 45.77    +08 19 07.3    64348 0.9948  38.0  m  13? 242.93 106.2    1 281  55  52
   2024 03 17 10:20  02 19 26.42    +08 07 41.0    63277 0.9948  38.6  m  13? 253.42 106.0    0 279  55  52
   ................
   2024 03 17 15:10  06 57 17.69    -04 22 22.1    14205 0.9952 106.7  r   9? 4030.1  92.8    4 267  35  54
   2024 03 17 15:20  07 50 11.09    -04 34 33.2    11632 0.9953 119.9      9? 5590.1  89.2   13 272  41  54
   2024 03 17 15:30  09 05 15.56    -03 32 18.5     9318 0.9953 138.6      9? 8084.7  84.8   26 282  53  54
   2024 03 17 15:40  10 51 13.52    +00 01 17.8     7744 0.9953 165.3      9?  11053  80.5   43 304  73  54
   2024 03 17 15:50  12 57 56.54    +06 02 04.9     7548 0.9953 162.2  e   9?  11405  78.6   52 347  97  54
   2024 03 17 16:00  14 49 17.41    +11 23 59.8     8803 0.9953 134.2  t   9? 8545.9  79.5   44  24 117  54
   2024 03 17 16:10  16 09 02.99    +14 42 39.3    10904 0.9953 114.6      8? 5808.7  81.0   32  41 127  54
   2024 03 17 16:20  17 04 41.55    +16 39 35.7    13327 0.9952 101.1      8? 4079.7  82.2   24  49 131  54
   2024 03 17 16:30  17 45 14.37    +17 53 05.8    15821 0.9952  91.4      8? 3028.0  83.1   18  54 132  54
   2024 03 17 16:40  18 16 16.94    +18 42 31.3    18281 0.9952  84.1      9? 2356.9  83.8   14  57 132  54
   2024 03 17 16:50  18 41 01.88    +19 17 28.4    20667 0.9952  78.3      9? 1903.6  84.5   11  59 131  54
   2024 03 17 17:00  19 01 23.50    +19 43 05.5    22967 0.9952  73.6     10? 1581.8  85.1    8  60 130  55
   2024 03 17 17:10  19 18 33.22    +20 02 21.7    25178 0.9952  69.6     10? 1343.8  85.6    7  61 128  55
   2024 03 17 17:20  19 33 17.98    +20 17 08.0    27304 0.9952  66.2     10? 1161.9  86.0    6  61 127  55
   2024 03 17 17:30  19 46 09.97    +20 28 37.0    29349 0.9951  63.3     11? 1019.0  86.4    5  61 126  55
   2024 03 17 17:40  19 57 32.05    +20 37 38.0    31319 0.9951  60.8     11? 904.14  86.8    5  61 124  55
   2024 03 17 17:50  20 07 41.02    +20 44 45.3    33218 0.9951  58.5     11? 810.13  87.2    5  61 123  55
   2024 03 17 18:00  20 16 49.48    +20 50 24.0    35052 0.9951  56.5     11? 731.90  87.5    5  61 122  55
   2024 03 17 18:10  20 25 07.14    +20 54 52.4    36825 0.9951  54.6     11? 665.90  87.8    5  61 121  55
   2024 03 17 18:20  20 32 41.60    +20 58 24.3    38541 0.9951  53.0     12? 609.55  88.1    6  60 120  55
   2024 03 17 18:30  20 39 38.92    +21 01 10.0    40204 0.9951  51.5     12? 560.92  88.4    6  60 119  55
   2024 03 17 18:40  20 46 04.00    +21 03 17.8    41817 0.9951  50.1     12? 518.56  88.7    7  59 118  55
   2024 03 17 18:50  20 52 00.84    +21 04 53.9    43383 0.9950  48.8 A   12? 481.37  88.9    7  59 118  56
   2024 03 17 19:00  20 57 32.77    +21 06 03.3    44905 0.9950  47.6 A   12? 448.47  89.2    8  58 117  56
   2024 03 17 19:10  21 02 42.57    +21 06 50.0    46386 0.9950  46.5 A   12? 419.17  89.4    9  57 116  56
   2024 03 17 19:20  21 07 32.59    +21 07 17.1    47827 0.9950  45.5 N   12? 392.94  89.6   10  57 116  56
   2024 03 17 19:30  21 12 04.84    +21 07 27.3    49232 0.9950  44.5 N   12? 369.31  89.9   11  56 115  56
   2024 03 17 19:40  21 16 21.03    +21 07 22.7    50602 0.9950  43.6 N   12? 347.94  90.1   12  55 114  56
   2024 03 17 19:50  21 20 22.65    +21 07 04.8    51939 0.9950  42.8 C   13? 328.52  90.3   13  54 114  56
   2024 03 17 20:00  21 24 11.00    +21 06 35.3    53245 0.9950  42.0 C   13? 310.81  90.6   14  53 113  56
   ................
   

Gaia (JPL-ID: -139479)

   Date (UTC) HH:MM   RA              Dec         delta   r     elong SM  mag  '/hr    PA   alt  az moo ill
   ---- -- -- -----  -------------   -----------  ------ ------ ----- --  --- ------ ------ --- --- --- ---
   2024 03 04 09:10  11 45 19.27    +03 26 35.2   0.0104 1.0018 168.5 N   20?   1.83  94.2    0  85  87  42
   2024 03 04 09:20  11 45 20.44    +03 26 33.8   0.0104 1.0018 168.5 N   20?   1.69  94.6    2  84  87  42
   2024 03 04 09:30  11 45 21.52    +03 26 32.5   0.0104 1.0018 168.5 A   20?   1.56  95.0    4  83  88  42
   2024 03 04 09:40  11 45 22.51    +03 26 31.1   0.0104 1.0019 168.5 A   20?   1.42  95.5    6  81  88  41
   2024 03 04 09:50  11 45 23.41    +03 26 29.8   0.0104 1.0019 168.5 A   20?   1.28  96.2    8  80  88  41
   2024 03 04 10:00  11 45 24.22    +03 26 28.4   0.0103 1.0019 168.5     20?   1.15  97.0   11  79  88  41
   2024 03 04 10:10  11 45 24.93    +03 26 27.0   0.0103 1.0019 168.5     20?   1.02  98.0   13  77  88  41
   2024 03 04 10:20  11 45 25.56    +03 26 25.5   0.0103 1.0019 168.5     20?   0.89  99.3   15  76  88  41
   2024 03 04 10:30  11 45 26.10    +03 26 24.1   0.0103 1.0019 168.5     20?   0.76 101.1   17  74  88  41
   2024 03 04 10:40  11 45 26.56    +03 26 22.6   0.0103 1.0019 168.5     20?   0.64 103.6   19  73  88  41
   2024 03 04 10:50  11 45 26.93    +03 26 21.1   0.0103 1.0019 168.5     20?   0.52 107.3   21  71  89  41
   2024 03 04 11:00  11 45 27.22    +03 26 19.5   0.0103 1.0019 168.5     20?   0.40 113.0   23  70  89  41
   2024 03 04 11:10  11 45 27.43    +03 26 17.9   0.0103 1.0019 168.5     20?   0.30 122.6   25  68  89  41
   2024 03 04 11:20  11 45 27.56    +03 26 16.3   0.0103 1.0019 168.6     20?   0.21 140.6   27  66  89  40
   2024 03 04 11:30  11 45 27.61    +03 26 14.6   0.0103 1.0019 168.6     20?   0.17 172.1   29  65  89  40
   2024 03 04 11:40  11 45 27.59    +03 26 12.9   0.0103 1.0019 168.6     20?   0.20 205.9   31  63  89  40
   2024 03 04 11:50  11 45 27.50    +03 26 11.1   0.0103 1.0019 168.6     20?   0.26 226.4   33  61  89  40
   2024 03 04 12:00  11 45 27.34    +03 26 09.2   0.0103 1.0019 168.6     20?   0.35 237.3   35  59  89  40
   2024 03 04 12:10  11 45 27.11    +03 26 07.4   0.0103 1.0019 168.6     20?   0.43 243.6   36  57  90  40
   2024 03 04 12:20  11 45 26.82    +03 26 05.4   0.0103 1.0019 168.6     20?   0.52 247.5   38  55  90  40
   2024 03 04 12:30  11 45 26.47    +03 26 03.4   0.0103 1.0019 168.6     20?   0.60 250.1   40  52  90  40
   2024 03 04 12:40  11 45 26.06    +03 26 01.3   0.0103 1.0019 168.6     20?   0.68 252.0   42  50  90  40
   2024 03 04 12:50  11 45 25.60    +03 25 59.2   0.0103 1.0019 168.6     20?   0.76 253.3   43  47  90  40
   2024 03 04 13:00  11 45 25.09    +03 25 57.0   0.0103 1.0019 168.6     20?   0.83 254.3   45  44  90  40
   2024 03 04 13:10  11 45 24.54    +03 25 54.7   0.0103 1.0019 168.6     20?   0.90 255.0   46  41  90  39
   2024 03 04 13:20  11 45 23.94    +03 25 52.3   0.0103 1.0019 168.6     20?   0.96 255.6   48  38  90  39
   2024 03 04 13:30  11 45 23.30    +03 25 49.9   0.0103 1.0019 168.7     20?   1.01 256.0   49  35  90  39
   2024 03 04 13:40  11 45 22.62    +03 25 47.4   0.0103 1.0019 168.7  m  20?   1.07 256.2   50  32  91  39
   2024 03 04 13:50  11 45 21.92    +03 25 44.9   0.0103 1.0019 168.7  m  20?   1.11 256.4   51  28  91  39
   2024 03 04 14:00  11 45 21.18    +03 25 42.2   0.0103 1.0019 168.7  m  20?   1.15 256.5   52  24  91  39
   2024 03 04 14:10  11 45 20.42    +03 25 39.5   0.0103 1.0019 168.7  m  20?   1.18 256.5   53  20  91  39
   2024 03 04 14:20  11 45 19.65    +03 25 36.7   0.0103 1.0019 168.7  m  20?   1.21 256.4   54  16  91  39
   2024 03 04 14:30  11 45 18.85    +03 25 33.8   0.0103 1.0019 168.7  m  20?   1.23 256.3   54  12  91  39
   2024 03 04 14:40  11 45 18.05    +03 25 30.9   0.0103 1.0019 168.7  m  20?   1.25 256.1   55   8  91  39
   2024 03 04 14:50  11 45 17.23    +03 25 27.9   0.0103 1.0019 168.7  m  20?   1.26 255.9   55   3  91  39
   2024 03 04 15:00  11 45 16.41    +03 25 24.8   0.0103 1.0019 168.7  t  20?   1.27 255.6   55 359  91  39
   2024 03 04 15:10  11 45 15.60    +03 25 21.6   0.0103 1.0019 168.8  m  20?   1.26 255.2   55 355  91  39
   2024 03 04 15:20  11 45 14.78    +03 25 18.3   0.0103 1.0019 168.8  m  20?   1.26 254.7   55 350  92  38
   2024 03 04 15:30  11 45 13.98    +03 25 15.0   0.0103 1.0019 168.8  m  20?   1.24 254.2   54 346  92  38
   2024 03 04 15:40  11 45 13.19    +03 25 11.5   0.0103 1.0019 168.8  m  20?   1.22 253.5   54 342  92  38
   2024 03 04 15:50  11 45 12.41    +03 25 08.0   0.0103 1.0019 168.8  m  20?   1.20 252.8   53 338  92  38
   2024 03 04 16:00  11 45 11.65    +03 25 04.5   0.0103 1.0019 168.8  m  20?   1.17 252.0   52 334  92  38
   2024 03 04 16:10  11 45 10.92    +03 25 00.8   0.0103 1.0019 168.8  m  20?   1.14 251.0   51 330  92  38
   2024 03 04 16:20  11 45 10.22    +03 24 57.1   0.0103 1.0019 168.8  m  20?   1.09 249.9   50 326  92  38
   2024 03 04 16:30  11 45 09.55    +03 24 53.3   0.0103 1.0019 168.8  m  20?   1.05 248.5   49 323  92  38
   2024 03 04 16:40  11 45 08.92    +03 24 49.4   0.0103 1.0019 168.8  m  20?   1.00 247.0   47 320  92  38
   2024 03 04 16:50  11 45 08.32    +03 24 45.5   0.0103 1.0019 168.9  m  20?   0.95 245.1   46 317  92  38
   2024 03 04 17:00  11 45 07.77    +03 24 41.5   0.0103 1.0019 168.9  m  20?   0.89 242.9   44 314  92  38
   2024 03 04 17:10  11 45 07.27    +03 24 37.4   0.0103 1.0019 168.9  m  20?   0.83 240.1   43 311  93  38
   2024 03 04 17:20  11 45 06.82    +03 24 33.2   0.0103 1.0019 168.9  m  20?   0.76 236.8   41 309  93  38
   2024 03 04 17:30  11 45 06.42    +03 24 29.0   0.0103 1.0019 168.9  m  20?   0.70 232.7   40 306  93  38
   2024 03 04 17:40  11 45 06.08    +03 24 24.8   0.0103 1.0019 168.9  m  20?   0.63 227.4   38 304  93  38
   2024 03 04 17:50  11 45 05.79    +03 24 20.5   0.0103 1.0019 168.9  m  20?   0.57 220.7   36 302  93  38
   2024 03 04 18:00  11 45 05.58    +03 24 16.1   0.0103 1.0019 168.9  m  20?   0.52 212.3   34 300  93  37
   2024 03 04 18:10  11 45 05.42    +03 24 11.6   0.0103 1.0019 168.9  m  20?   0.48 201.6   32 298  93  37
   2024 03 04 18:20  11 45 05.34    +03 24 07.2   0.0103 1.0020 168.9  m  20?   0.46 189.0   30 296  93  37
   2024 03 04 18:30  11 45 05.33    +03 24 02.6   0.0103 1.0020 168.9  m  20?   0.46 175.3   28 294  93  37
   2024 03 04 18:40  11 45 05.39    +03 23 58.1   0.0103 1.0020 168.9 Am  20?   0.48 161.9   26 292  93  37
   2024 03 04 18:50  11 45 05.53    +03 23 53.4   0.0103 1.0020 168.9 Am  20?   0.53 150.1   25 290  93  37
   2024 03 04 19:00  11 45 05.75    +03 23 48.8   0.0103 1.0020 168.9 Am  20?   0.61 140.5   22 289  93  37
   2024 03 04 19:10  11 45 06.04    +03 23 44.1   0.0103 1.0020 169.0 Nm  20?   0.69 132.8   20 287  93  37
   2024 03 04 19:20  11 45 06.42    +03 23 39.4   0.0103 1.0020 169.0 Nm  20?   0.79 126.8   18 286  93  37
   2024 03 04 19:30  11 45 06.89    +03 23 34.6   0.0103 1.0020 169.0 Nm  20?   0.90 122.1   16 284  93  37
   2024 03 04 19:40  11 45 07.44    +03 23 29.8   0.0104 1.0020 169.0 Cm  20?   1.01 118.3   14 283  94  37
   2024 03 04 19:50  11 45 08.08    +03 23 25.0   0.0104 1.0020 169.0 Cm  20?   1.13 115.2   12 281  94  37
   ................
   2024 03 05 09:10  11 48 26.09    +03 19 11.9   0.0104 1.0021 168.7 N   20?   1.77  94.0    0  85 100  31
   2024 03 05 09:20  11 48 27.22    +03 19 10.7   0.0104 1.0021 168.7 N   20?   1.63  94.4    2  84 100  31
   2024 03 05 09:30  11 48 28.26    +03 19 09.4   0.0104 1.0021 168.7 A   20?   1.50  94.8    4  83 100  31
   2024 03 05 09:40  11 48 29.21    +03 19 08.2   0.0104 1.0021 168.7 A   20?   1.36  95.3    7  81 100  31
   2024 03 05 09:50  11 48 30.07    +03 19 06.9   0.0104 1.0021 168.7 A   20?   1.22  96.0    9  80 100  31
   2024 03 05 10:00  11 48 30.84    +03 19 05.6   0.0104 1.0021 168.7     20?   1.09  96.8   11  79 101  31
   2024 03 05 10:10  11 48 31.52    +03 19 04.3   0.0104 1.0021 168.7     20?   0.96  97.9   13  77 101  31
   2024 03 05 10:20  11 48 32.10    +03 19 03.0   0.0104 1.0021 168.7     20?   0.83  99.3   15  76 101  31
   2024 03 05 10:30  11 48 32.61    +03 19 01.6   0.0104 1.0021 168.7     20?   0.70 101.2   17  74 101  31
   2024 03 05 10:40  11 48 33.02    +03 19 00.2   0.0104 1.0021 168.7     20?   0.58 104.0   19  73 101  31
   2024 03 05 10:50  11 48 33.36    +03 18 58.8   0.0104 1.0021 168.7     20?   0.46 108.2   21  71 101  30
   2024 03 05 11:00  11 48 33.61    +03 18 57.3   0.0104 1.0021 168.7     20?   0.35 115.1   23  70 101  30
   2024 03 05 11:10  11 48 33.78    +03 18 55.9   0.0104 1.0021 168.8     20?   0.25 127.7   25  68 102  30
   2024 03 05 11:20  11 48 33.87    +03 18 54.3   0.0104 1.0021 168.8     20?   0.17 152.8   27  66 102  30
   2024 03 05 11:30  11 48 33.88    +03 18 52.8   0.0104 1.0022 168.8     20?   0.16 191.4   29  65 102  30
   2024 03 05 11:40  11 48 33.82    +03 18 51.1   0.0103 1.0022 168.8     20?   0.22 220.5   31  63 102  30
   2024 03 05 11:50  11 48 33.70    +03 18 49.5   0.0103 1.0022 168.8     20?   0.30 235.3   33  61 102  30
   2024 03 05 12:00  11 48 33.50    +03 18 47.7   0.0103 1.0022 168.8     20?   0.39 243.1   35  59 102  30
   2024 03 05 12:10  11 48 33.23    +03 18 46.0   0.0103 1.0022 168.8     20?   0.48 247.7   37  57 102  30
   2024 03 05 12:20  11 48 32.91    +03 18 44.1   0.0103 1.0022 168.8     20?   0.56 250.7   38  54 102  30
   2024 03 05 12:30  11 48 32.52    +03 18 42.2   0.0103 1.0022 168.8     20?   0.65 252.7   40  52 103  29
   2024 03 05 12:40  11 48 32.08    +03 18 40.3   0.0103 1.0022 168.8     20?   0.73 254.2   42  50 103  29
   2024 03 05 12:50  11 48 31.59    +03 18 38.3   0.0103 1.0022 168.8     20?   0.81 255.2   43  47 103  29
   2024 03 05 13:00  11 48 31.04    +03 18 36.2   0.0103 1.0022 168.8     20?   0.88 256.0   45  44 103  29
   2024 03 05 13:10  11 48 30.45    +03 18 34.0   0.0103 1.0022 168.8     20?   0.94 256.6   46  41 103  29
   2024 03 05 13:20  11 48 29.82    +03 18 31.8   0.0103 1.0022 168.9     20?   1.00 257.0   48  38 103  29
   2024 03 05 13:30  11 48 29.15    +03 18 29.5   0.0103 1.0022 168.9     20?   1.06 257.3   49  35 103  29
   2024 03 05 13:40  11 48 28.44    +03 18 27.2   0.0103 1.0022 168.9     20?   1.11 257.5   50  31 103  29
   2024 03 05 13:50  11 48 27.70    +03 18 24.8   0.0103 1.0022 168.9     20?   1.15 257.6   51  28 103  29
   2024 03 05 14:00  11 48 26.93    +03 18 22.3   0.0103 1.0022 168.9     20?   1.19 257.7   52  24 104  29
   2024 03 05 14:10  11 48 26.14    +03 18 19.7   0.0103 1.0022 168.9     20?   1.23 257.7   53  20 104  29
   2024 03 05 14:20  11 48 25.33    +03 18 17.0   0.0103 1.0022 168.9     20?   1.25 257.6   54  16 104  29
   2024 03 05 14:30  11 48 24.51    +03 18 14.3   0.0103 1.0022 168.9     20?   1.28 257.5   54  12 104  28
   2024 03 05 14:40  11 48 23.67    +03 18 11.5   0.0103 1.0022 168.9  m  20?   1.29 257.3   55   7 104  28
   2024 03 05 14:50  11 48 22.82    +03 18 08.6   0.0103 1.0022 168.9  m  20?   1.30 257.0   55   3 104  28
   2024 03 05 15:00  11 48 21.98    +03 18 05.7   0.0103 1.0022 169.0  t  20?   1.31 256.7   55 359 104  28
   2024 03 05 15:10  11 48 21.13    +03 18 02.7   0.0103 1.0022 169.0  m  20?   1.30 256.4   55 354 104  28
   2024 03 05 15:20  11 48 20.29    +03 17 59.6   0.0103 1.0022 169.0  m  20?   1.30 255.9   55 350 104  28
   2024 03 05 15:30  11 48 19.45    +03 17 56.4   0.0103 1.0022 169.0  m  20?   1.28 255.4   54 346 105  28
   2024 03 05 15:40  11 48 18.63    +03 17 53.1   0.0103 1.0022 169.0  m  20?   1.26 254.9   54 341 105  28
   2024 03 05 15:50  11 48 17.83    +03 17 49.8   0.0103 1.0022 169.0  m  20?   1.24 254.2   53 337 105  28
   2024 03 05 16:00  11 48 17.04    +03 17 46.4   0.0103 1.0022 169.0  m  20?   1.21 253.4   52 333 105  28
   2024 03 05 16:10  11 48 16.28    +03 17 43.0   0.0103 1.0022 169.0  m  20?   1.17 252.5   51 330 105  28
   2024 03 05 16:20  11 48 15.56    +03 17 39.4   0.0103 1.0022 169.0  m  20?   1.13 251.5   50 326 105  28
   2024 03 05 16:30  11 48 14.86    +03 17 35.8   0.0103 1.0022 169.0  m  20?   1.08 250.3   49 323 105  28
   2024 03 05 16:40  11 48 14.20    +03 17 32.1   0.0103 1.0022 169.1  m  20?   1.03 248.8   47 320 105  27
   2024 03 05 16:50  11 48 13.58    +03 17 28.4   0.0103 1.0022 169.1  m  20?   0.97 247.1   46 316 105  27
   2024 03 05 17:00  11 48 13.00    +03 17 24.6   0.0103 1.0022 169.1  m  20?   0.91 245.1   44 314 105  27
   2024 03 05 17:10  11 48 12.47    +03 17 20.7   0.0103 1.0022 169.1  m  20?   0.85 242.6   43 311 106  27
   2024 03 05 17:20  11 48 11.99    +03 17 16.7   0.0103 1.0022 169.1  m  20?   0.79 239.6   41 308 106  27
   2024 03 05 17:30  11 48 11.57    +03 17 12.7   0.0103 1.0022 169.1  m  20?   0.72 235.8   39 306 106  27
   2024 03 05 17:40  11 48 11.20    +03 17 08.7   0.0103 1.0022 169.1  m  20?   0.65 231.0   38 304 106  27
   2024 03 05 17:50  11 48 10.89    +03 17 04.6   0.0103 1.0022 169.1  m  20?   0.59 224.9   36 301 106  27
   2024 03 05 18:00  11 48 10.65    +03 17 00.4   0.0104 1.0022 169.1  m  20?   0.53 217.0   34 299 106  27
   2024 03 05 18:10  11 48 10.47    +03 16 56.2   0.0104 1.0022 169.1  m  20?   0.48 206.8   32 297 106  27
   2024 03 05 18:20  11 48 10.36    +03 16 51.9   0.0104 1.0022 169.1  m  20?   0.44 194.3   30 295 106  27
   2024 03 05 18:30  11 48 10.32    +03 16 47.6   0.0104 1.0022 169.1  m  20?   0.43 180.0   28 294 106  27
   2024 03 05 18:40  11 48 10.36    +03 16 43.3   0.0104 1.0022 169.2 Am  20?   0.45 165.5   26 292 106  27
   2024 03 05 18:50  11 48 10.48    +03 16 38.9   0.0104 1.0022 169.2 Am  20?   0.50 152.5   24 290 106  27
   2024 03 05 19:00  11 48 10.67    +03 16 34.4   0.0104 1.0022 169.2 Am  20?   0.57 141.9   22 289 106  27
   2024 03 05 19:10  11 48 10.94    +03 16 30.0   0.0104 1.0022 169.2 Nm  20?   0.65 133.6   20 287 106  27
   2024 03 05 19:20  11 48 11.30    +03 16 25.5   0.0104 1.0022 169.2 Nm  20?   0.75 127.1   18 285 107  27
   2024 03 05 19:30  11 48 11.74    +03 16 20.9   0.0104 1.0022 169.2 Nm  20?   0.85 122.1   16 284 107  27
   2024 03 05 19:40  11 48 12.26    +03 16 16.4   0.0104 1.0022 169.2 Cm  20?   0.97 118.1   14 283 107  27
   2024 03 05 19:50  11 48 12.88    +03 16 11.8   0.0104 1.0022 169.2 Cm  20?   1.09 114.9   12 281 107  26
   ................
   2024 03 06 09:10  11 51 28.17    +03 12 12.4   0.0104 1.0024 168.9 N   20?   1.71  93.8    0  85 113  22
   2024 03 06 09:20  11 51 29.27    +03 12 11.2   0.0104 1.0024 168.9 N   20?   1.57  94.2    3  84 113  21
   2024 03 06 09:30  11 51 30.27    +03 12 10.1   0.0104 1.0024 168.9 A   20?   1.43  94.6    5  83 113  21
   2024 03 06 09:40  11 51 31.18    +03 12 08.9   0.0104 1.0024 168.9 A   20?   1.30  95.2    7  81 113  21
   2024 03 06 09:50  11 51 31.99    +03 12 07.8   0.0104 1.0024 168.9 A   20?   1.16  95.8    9  80 114  21
   2024 03 06 10:00  11 51 32.72    +03 12 06.6   0.0104 1.0024 168.9     20?   1.03  96.7   11  79 114  21
   2024 03 06 10:10  11 51 33.36    +03 12 05.4   0.0104 1.0024 168.9     20?   0.90  97.8   13  77 114  21
   2024 03 06 10:20  11 51 33.91    +03 12 04.1   0.0104 1.0024 168.9     20?   0.77  99.3   15  76 114  21
   2024 03 06 10:30  11 51 34.37    +03 12 02.9   0.0104 1.0024 169.0     20?   0.64 101.4   17  74 114  21
   2024 03 06 10:40  11 51 34.75    +03 12 01.6   0.0104 1.0024 169.0     20?   0.52 104.5   19  73 114  21
   2024 03 06 10:50  11 51 35.04    +03 12 00.3   0.0104 1.0024 169.0     20?   0.40 109.4   21  71 114  21
   2024 03 06 11:00  11 51 35.25    +03 11 58.9   0.0104 1.0024 169.0     20?   0.29 118.1   23  70 115  21
   2024 03 06 11:10  11 51 35.39    +03 11 57.5   0.0104 1.0024 169.0     20?   0.20 135.5   25  68 115  20
   2024 03 06 11:20  11 51 35.44    +03 11 56.1   0.0104 1.0024 169.0     20?   0.15 170.9   27  66 115  20
   2024 03 06 11:30  11 51 35.42    +03 11 54.6   0.0104 1.0024 169.0     20?   0.17 210.6   29  65 115  20
   2024 03 06 11:40  11 51 35.32    +03 11 53.1   0.0104 1.0024 169.0     20?   0.25 231.8   31  63 115  20
   2024 03 06 11:50  11 51 35.16    +03 11 51.5   0.0104 1.0024 169.0     20?   0.34 242.1   33  61 115  20
   2024 03 06 12:00  11 51 34.92    +03 11 49.9   0.0104 1.0024 169.0     20?   0.43 247.7   35  59 115  20
   2024 03 06 12:10  11 51 34.62    +03 11 48.3   0.0104 1.0024 169.0     20?   0.52 251.1   37  57 115  20
   2024 03 06 12:20  11 51 34.26    +03 11 46.5   0.0104 1.0024 169.0     20?   0.61 253.4   39  54 116  20
   2024 03 06 12:30  11 51 33.84    +03 11 44.8   0.0104 1.0024 169.0     20?   0.70 254.9   40  52 116  20
   2024 03 06 12:40  11 51 33.36    +03 11 42.9   0.0104 1.0024 169.0     20?   0.78 256.1   42  50 116  20
   2024 03 06 12:50  11 51 32.83    +03 11 41.0   0.0104 1.0024 169.1     20?   0.85 256.9   44  47 116  20
   2024 03 06 13:00  11 51 32.25    +03 11 39.1   0.0104 1.0025 169.1     20?   0.92 257.5   45  44 116  19
   2024 03 06 13:10  11 51 31.63    +03 11 37.0   0.0104 1.0025 169.1     20?   0.99 258.0   47  41 116  19
   2024 03 06 13:20  11 51 30.96    +03 11 34.9   0.0104 1.0025 169.1     20?   1.05 258.3   48  38 116  19
   2024 03 06 13:30  11 51 30.26    +03 11 32.8   0.0104 1.0025 169.1     20?   1.11 258.5   49  35 116  19
   2024 03 06 13:40  11 51 29.52    +03 11 30.6   0.0104 1.0025 169.1     20?   1.16 258.7   51  31 117  19
   2024 03 06 13:50  11 51 28.75    +03 11 28.3   0.0104 1.0025 169.1     20?   1.20 258.8   52  28 117  19
   2024 03 06 14:00  11 51 27.95    +03 11 25.9   0.0104 1.0025 169.1     20?   1.24 258.8   53  24 117  19
   2024 03 06 14:10  11 51 27.13    +03 11 23.5   0.0104 1.0025 169.1     20?   1.27 258.7   53  20 117  19
   2024 03 06 14:20  11 51 26.28    +03 11 21.0   0.0104 1.0025 169.1     20?   1.30 258.7   54  16 117  19
   2024 03 06 14:30  11 51 25.43    +03 11 18.4   0.0104 1.0025 169.2     20?   1.32 258.5   55  11 117  19
   2024 03 06 14:40  11 51 24.56    +03 11 15.7   0.0104 1.0025 169.2     20?   1.33 258.3   55   7 117  19
   2024 03 06 14:50  11 51 23.69    +03 11 13.0   0.0104 1.0025 169.2     20?   1.34 258.1   55   3 117  19
   2024 03 06 15:00  11 51 22.81    +03 11 10.2   0.0104 1.0025 169.2  t  20?   1.34 257.8   55 358 118  19
   2024 03 06 15:10  11 51 21.93    +03 11 07.4   0.0104 1.0025 169.2     20?   1.34 257.5   55 354 118  18
   2024 03 06 15:20  11 51 21.06    +03 11 04.4   0.0104 1.0025 169.2     20?   1.33 257.0   55 349 118  18
   2024 03 06 15:30  11 51 20.20    +03 11 01.4   0.0104 1.0025 169.2     20?   1.32 256.6   54 345 118  18
   2024 03 06 15:40  11 51 19.35    +03 10 58.3   0.0104 1.0025 169.2  m  20?   1.30 256.0   54 341 118  18
   2024 03 06 15:50  11 51 18.52    +03 10 55.2   0.0104 1.0025 169.2  m  20?   1.27 255.4   53 337 118  18
   2024 03 06 16:00  11 51 17.71    +03 10 51.9   0.0104 1.0025 169.2  m  20?   1.24 254.7   52 333 118  18
   2024 03 06 16:10  11 51 16.92    +03 10 48.6   0.0104 1.0025 169.3  m  20?   1.20 253.9   51 329 118  18
   2024 03 06 16:20  11 51 16.16    +03 10 45.3   0.0104 1.0025 169.3  m  20?   1.16 252.9   50 326 118  18
   2024 03 06 16:30  11 51 15.44    +03 10 41.8   0.0104 1.0025 169.3  m  20?   1.11 251.8   49 322 119  18
   2024 03 06 16:40  11 51 14.75    +03 10 38.3   0.0104 1.0025 169.3  m  20?   1.06 250.5   47 319 119  18
   2024 03 06 16:50  11 51 14.11    +03 10 34.8   0.0104 1.0025 169.3  m  20?   1.00 248.9   46 316 119  18
   2024 03 06 17:00  11 51 13.51    +03 10 31.1   0.0104 1.0025 169.3  m  20?   0.94 247.1   44 313 119  18
   2024 03 06 17:10  11 51 12.95    +03 10 27.5   0.0104 1.0025 169.3  m  20?   0.88 244.9   43 311 119  18
   2024 03 06 17:20  11 51 12.45    +03 10 23.7   0.0104 1.0025 169.3  m  20?   0.81 242.1   41 308 119  18
   2024 03 06 17:30  11 51 12.00    +03 10 19.9   0.0104 1.0025 169.3  m  20?   0.74 238.7   39 306 119  18
   2024 03 06 17:40  11 51 11.61    +03 10 16.0   0.0104 1.0025 169.3  m  20?   0.67 234.3   38 303 119  18
   2024 03 06 17:50  11 51 11.27    +03 10 12.1   0.0104 1.0025 169.3  m  20?   0.60 228.7   36 301 119  17
   2024 03 06 18:00  11 51 11.01    +03 10 08.2   0.0104 1.0025 169.4  m  20?   0.53 221.4   34 299 119  17
   2024 03 06 18:10  11 51 10.80    +03 10 04.1   0.0104 1.0025 169.4  m  20?   0.48 211.7   32 297 120  17
   2024 03 06 18:20  11 51 10.67    +03 10 00.1   0.0104 1.0025 169.4  m  20?   0.43 199.5   30 295 120  17
   2024 03 06 18:30  11 51 10.61    +03 09 56.0   0.0104 1.0025 169.4  m  20?   0.41 184.8   28 293 120  17
   2024 03 06 18:40  11 51 10.63    +03 09 51.8   0.0104 1.0025 169.4 Am  20?   0.42 169.4   26 292 120  17
   2024 03 06 18:50  11 51 10.72    +03 09 47.6   0.0104 1.0025 169.4 Am  20?   0.46 155.2   24 290 120  17
   2024 03 06 19:00  11 51 10.89    +03 09 43.4   0.0104 1.0025 169.4 Am  20?   0.53 143.5   22 288 120  17
   2024 03 06 19:10  11 51 11.14    +03 09 39.2   0.0104 1.0025 169.4 Nm  20?   0.61 134.4   20 287 120  17
   2024 03 06 19:20  11 51 11.47    +03 09 34.9   0.0104 1.0025 169.4 Nm  20?   0.71 127.4   18 285 120  17
   2024 03 06 19:30  11 51 11.89    +03 09 30.6   0.0104 1.0025 169.4 Nm  20?   0.81 122.1   16 284 120  17
   2024 03 06 19:40  11 51 12.39    +03 09 26.2   0.0104 1.0025 169.4 Cm  20?   0.93 117.9   14 282 120  17
   2024 03 06 19:50  11 51 12.98    +03 09 21.9   0.0104 1.0025 169.4 Cm  20?   1.05 114.7   12 281 120  17
   ................
   2024 03 07 09:10  11 54 25.65    +03 05 35.2   0.0104 1.0027 169.2 N   20?   1.65  93.7    1  85 127  13
   2024 03 07 09:20  11 54 26.70    +03 05 34.2   0.0104 1.0027 169.2 N   20?   1.51  94.0    3  84 127  13
   2024 03 07 09:30  11 54 27.66    +03 05 33.1   0.0104 1.0027 169.2 A   20?   1.37  94.5    5  83 127  13
   2024 03 07 09:40  11 54 28.53    +03 05 32.0   0.0104 1.0027 169.2 A   20?   1.24  95.0    7  81 127  13
   2024 03 07 09:50  11 54 29.31    +03 05 30.9   0.0104 1.0027 169.2 A   20?   1.10  95.7    9  80 127  12
   2024 03 07 10:00  11 54 30.00    +03 05 29.8   0.0104 1.0027 169.2     20?   0.97  96.6   11  79 127  12
   2024 03 07 10:10  11 54 30.60    +03 05 28.7   0.0104 1.0027 169.2     20?   0.84  97.8   13  77 127  12
   2024 03 07 10:20  11 54 31.11    +03 05 27.6   0.0104 1.0027 169.2     20?   0.71  99.4   16  76 128  12
   2024 03 07 10:30  11 54 31.53    +03 05 26.4   0.0104 1.0027 169.2     20?   0.58 101.7   18  74 128  12
   2024 03 07 10:40  11 54 31.87    +03 05 25.2   0.0104 1.0027 169.2     20?   0.46 105.2   20  73 128  12
   2024 03 07 10:50  11 54 32.13    +03 05 24.0   0.0104 1.0027 169.2     20?   0.34 111.2   22  71 128  12
   2024 03 07 11:00  11 54 32.30    +03 05 22.7   0.0104 1.0027 169.2     20?   0.24 122.6   24  70 128  12
   2024 03 07 11:10  11 54 32.40    +03 05 21.4   0.0104 1.0027 169.2     20?   0.16 147.9   26  68 128  12
   2024 03 07 11:20  11 54 32.41    +03 05 20.1   0.0104 1.0027 169.2     20?   0.14 193.2   28  66 128  12
   2024 03 07 11:30  11 54 32.35    +03 05 18.7   0.0104 1.0027 169.2     20?   0.20 225.6   30  65 129  12
   2024 03 07 11:40  11 54 32.22    +03 05 17.3   0.0104 1.0027 169.2     20?   0.29 240.0   32  63 129  12
   2024 03 07 11:50  11 54 32.02    +03 05 15.8   0.0104 1.0027 169.2     20?   0.38 247.1   33  61 129  12
   2024 03 07 12:00  11 54 31.75    +03 05 14.3   0.0104 1.0027 169.2     20?   0.48 251.2   35  59 129  11
   2024 03 07 12:10  11 54 31.42    +03 05 12.7   0.0104 1.0027 169.3     20?   0.57 253.7   37  57 129  11
   2024 03 07 12:20  11 54 31.02    +03 05 11.1   0.0104 1.0027 169.3     20?   0.66 255.5   39  54 129  11
   2024 03 07 12:30  11 54 30.56    +03 05 09.4   0.0104 1.0027 169.3     20?   0.74 256.7   41  52 129  11
   2024 03 07 12:40  11 54 30.05    +03 05 07.7   0.0104 1.0027 169.3     20?   0.82 257.6   42  49 129  11
   2024 03 07 12:50  11 54 29.49    +03 05 05.9   0.0104 1.0027 169.3     20?   0.90 258.3   44  47 130  11
   2024 03 07 13:00  11 54 28.88    +03 05 04.0   0.0104 1.0027 169.3     20?   0.97 258.8   45  44 130  11
   2024 03 07 13:10  11 54 28.22    +03 05 02.1   0.0104 1.0027 169.3     20?   1.04 259.1   47  41 130  11
   2024 03 07 13:20  11 54 27.52    +03 05 00.1   0.0104 1.0027 169.3     20?   1.10 259.4   48  38 130  11
   2024 03 07 13:30  11 54 26.78    +03 04 58.1   0.0104 1.0027 169.3     20?   1.15 259.6   50  34 130  11
   2024 03 07 13:40  11 54 26.01    +03 04 56.0   0.0104 1.0027 169.3     20?   1.20 259.7   51  31 130  11
   2024 03 07 13:50  11 54 25.21    +03 04 53.8   0.0104 1.0027 169.4     20?   1.24 259.7   52  27 130  11
   2024 03 07 14:00  11 54 24.38    +03 04 51.6   0.0104 1.0027 169.4     20?   1.28 259.7   53  23 131  11
   2024 03 07 14:10  11 54 23.53    +03 04 49.3   0.0104 1.0027 169.4     20?   1.31 259.7   54  19 131  11
   2024 03 07 14:20  11 54 22.66    +03 04 46.9   0.0104 1.0027 169.4     20?   1.34 259.6   54  15 131  11
   2024 03 07 14:30  11 54 21.77    +03 04 44.4   0.0104 1.0028 169.4     20?   1.36 259.4   55  11 131  10
   2024 03 07 14:40  11 54 20.88    +03 04 41.9   0.0104 1.0028 169.4     20?   1.37 259.2   55   7 131  10
   2024 03 07 14:50  11 54 19.97    +03 04 39.3   0.0104 1.0028 169.4     20?   1.38 259.0   55   2 131  10
   2024 03 07 15:00  11 54 19.07    +03 04 36.7   0.0104 1.0028 169.4  t  20?   1.38 258.7   55 358 131  10
   2024 03 07 15:10  11 54 18.16    +03 04 33.9   0.0104 1.0028 169.4     20?   1.38 258.4   55 353 131  10
   2024 03 07 15:20  11 54 17.27    +03 04 31.1   0.0104 1.0028 169.4     20?   1.37 258.0   55 349 132  10
   2024 03 07 15:30  11 54 16.38    +03 04 28.3   0.0104 1.0028 169.5     20?   1.35 257.6   54 345 132  10
   2024 03 07 15:40  11 54 15.50    +03 04 25.3   0.0104 1.0028 169.5     20?   1.33 257.1   54 340 132  10
   2024 03 07 15:50  11 54 14.64    +03 04 22.3   0.0104 1.0028 169.5     20?   1.31 256.5   53 336 132  10
   2024 03 07 16:00  11 54 13.81    +03 04 19.2   0.0104 1.0028 169.5     20?   1.27 255.8   52 332 132  10
   2024 03 07 16:10  11 54 13.00    +03 04 16.1   0.0104 1.0028 169.5     20?   1.23 255.1   51 329 132  10
   2024 03 07 16:20  11 54 12.22    +03 04 12.9   0.0104 1.0028 169.5     20?   1.19 254.2   50 325 132  10
   2024 03 07 16:30  11 54 11.47    +03 04 09.6   0.0104 1.0028 169.5     20?   1.14 253.1   49 322 132  10
   2024 03 07 16:40  11 54 10.76    +03 04 06.3   0.0104 1.0028 169.5     20?   1.09 251.9   47 319 133  10
   2024 03 07 16:50  11 54 10.09    +03 04 02.9   0.0104 1.0028 169.5     20?   1.03 250.5   46 316 133  10
   2024 03 07 17:00  11 54 09.46    +03 03 59.4   0.0104 1.0028 169.5  m  20?   0.97 248.8   44 313 133  10
   2024 03 07 17:10  11 54 08.88    +03 03 55.9   0.0104 1.0028 169.6  m  20?   0.90 246.8   43 310 133  10
   2024 03 07 17:20  11 54 08.36    +03 03 52.3   0.0104 1.0028 169.6  m  20?   0.83 244.3   41 308 133   9
   2024 03 07 17:30  11 54 07.88    +03 03 48.7   0.0104 1.0028 169.6  m  20?   0.76 241.1   39 305 133   9
   2024 03 07 17:40  11 54 07.47    +03 03 45.0   0.0104 1.0028 169.6  m  20?   0.69 237.2   38 303 133   9
   2024 03 07 17:50  11 54 07.12    +03 03 41.3   0.0104 1.0028 169.6  m  20?   0.61 232.0   36 301 133   9
   2024 03 07 18:00  11 54 06.83    +03 03 37.5   0.0104 1.0028 169.6  m  20?   0.54 225.2   34 299 133   9
   2024 03 07 18:10  11 54 06.60    +03 03 33.7   0.0104 1.0028 169.6  m  20?   0.48 216.2   32 297 133   9
   2024 03 07 18:20  11 54 06.45    +03 03 29.8   0.0104 1.0028 169.6  m  20?   0.43 204.3   30 295 134   9
   2024 03 07 18:30  11 54 06.37    +03 03 25.9   0.0104 1.0028 169.6  m  20?   0.40 189.6   28 293 134   9
   2024 03 07 18:40  11 54 06.36    +03 03 21.9   0.0104 1.0028 169.6 Am  20?   0.40 173.3   26 291 134   9
   2024 03 07 18:50  11 54 06.43    +03 03 17.9   0.0104 1.0028 169.6 Am  20?   0.43 157.9   24 290 134   9
   2024 03 07 19:00  11 54 06.58    +03 03 13.9   0.0104 1.0028 169.6 Am  20?   0.49 145.0   22 288 134   9
   2024 03 07 19:10  11 54 06.81    +03 03 09.8   0.0104 1.0028 169.6 Nm  20?   0.57 135.1   20 286 134   9
   2024 03 07 19:20  11 54 07.12    +03 03 05.7   0.0104 1.0028 169.6 Nm  20?   0.67 127.7   18 285 134   9
   2024 03 07 19:30  11 54 07.52    +03 03 01.6   0.0104 1.0028 169.6 Nm  20?   0.78 122.1   16 283 134   9
   2024 03 07 19:40  11 54 08.00    +03 02 57.5   0.0104 1.0028 169.7 Cm  20?   0.89 117.8   14 282 134   9
   2024 03 07 19:50  11 54 08.57    +03 02 53.3   0.0104 1.0028 169.7 Cm  20?   1.01 114.4   12 281 134   9
   ................
   2024 03 08 09:10  11 57 18.77    +02 59 17.9   0.0104 1.0030 169.4 N   20?   1.59  93.6    1  85 141   6
   2024 03 08 09:20  11 57 19.78    +02 59 16.9   0.0104 1.0030 169.4 N   20?   1.45  93.9    3  84 141   6
   2024 03 08 09:30  11 57 20.70    +02 59 15.9   0.0104 1.0030 169.4 A   20?   1.32  94.4    5  83 141   6
   2024 03 08 09:40  11 57 21.53    +02 59 14.9   0.0104 1.0030 169.4 A   20?   1.18  95.0    7  81 141   6
   2024 03 08 09:50  11 57 22.27    +02 59 13.9   0.0104 1.0030 169.4 A   20?   1.05  95.7    9  80 141   6
   2024 03 08 10:00  11 57 22.92    +02 59 12.8   0.0104 1.0030 169.4     20?   0.91  96.6   12  79 141   5
   2024 03 08 10:10  11 57 23.48    +02 59 11.8   0.0104 1.0030 169.4     20?   0.78  97.9   14  77 141   5
   2024 03 08 10:20  11 57 23.96    +02 59 10.7   0.0104 1.0030 169.4     20?   0.65  99.6   16  76 142   5
   2024 03 08 10:30  11 57 24.34    +02 59 09.6   0.0104 1.0030 169.4     20?   0.53 102.2   18  74 142   5
   2024 03 08 10:40  11 57 24.65    +02 59 08.5   0.0104 1.0030 169.4     20?   0.41 106.3   20  73 142   5
   2024 03 08 10:50  11 57 24.87    +02 59 07.3   0.0104 1.0030 169.4     20?   0.29 113.7   22  71 142   5
   2024 03 08 11:00  11 57 25.00    +02 59 06.1   0.0104 1.0030 169.5     20?   0.19 129.5   24  70 142   5
   2024 03 08 11:10  11 57 25.06    +02 59 04.9   0.0104 1.0030 169.5     20?   0.13 166.7   26  68 142   5
   2024 03 08 11:20  11 57 25.04    +02 59 03.6   0.0104 1.0030 169.5     20?   0.15 213.3   28  66 142   5
   2024 03 08 11:30  11 57 24.95    +02 59 02.3   0.0104 1.0030 169.5     20?   0.24 235.7   30  64 143   5
   2024 03 08 11:40  11 57 24.78    +02 59 00.9   0.0104 1.0030 169.5     20?   0.33 245.5   32  63 143   5
   2024 03 08 11:50  11 57 24.55    +02 58 59.6   0.0104 1.0030 169.5     20?   0.43 250.7   34  61 143   5
   2024 03 08 12:00  11 57 24.24    +02 58 58.1   0.0104 1.0030 169.5     20?   0.52 253.7   36  59 143   5
   2024 03 08 12:10  11 57 23.88    +02 58 56.6   0.0104 1.0030 169.5     20?   0.62 255.7   37  56 143   5
   2024 03 08 12:20  11 57 23.45    +02 58 55.1   0.0104 1.0030 169.5     20?   0.71 257.1   39  54 143   5
   2024 03 08 12:30  11 57 22.96    +02 58 53.5   0.0104 1.0030 169.5     20?   0.79 258.1   41  52 143   5
   2024 03 08 12:40  11 57 22.42    +02 58 51.8   0.0104 1.0030 169.5     20?   0.87 258.8   43  49 143   5
   2024 03 08 12:50  11 57 21.82    +02 58 50.1   0.0104 1.0030 169.5     20?   0.94 259.4   44  46 144   5
   2024 03 08 13:00  11 57 21.18    +02 58 48.4   0.0104 1.0030 169.6     20?   1.01 259.8   46  44 144   5
   2024 03 08 13:10  11 57 20.49    +02 58 46.5   0.0104 1.0030 169.6     20?   1.08 260.1   47  41 144   5
   2024 03 08 13:20  11 57 19.76    +02 58 44.7   0.0104 1.0030 169.6     20?   1.14 260.3   49  38 144   4
   2024 03 08 13:30  11 57 18.99    +02 58 42.7   0.0104 1.0030 169.6     20?   1.19 260.4   50  34 144   4
   2024 03 08 13:40  11 57 18.19    +02 58 40.7   0.0104 1.0030 169.6     20?   1.24 260.5   51  31 144   4
   2024 03 08 13:50  11 57 17.36    +02 58 38.6   0.0104 1.0030 169.6     20?   1.28 260.5   52  27 144   4
   2024 03 08 14:00  11 57 16.50    +02 58 36.5   0.0104 1.0030 169.6     20?   1.32 260.5   53  23 145   4
   2024 03 08 14:10  11 57 15.63    +02 58 34.3   0.0104 1.0030 169.6     20?   1.35 260.4   54  19 145   4
   2024 03 08 14:20  11 57 14.73    +02 58 32.0   0.0104 1.0030 169.6     20?   1.38 260.3   54  15 145   4
   2024 03 08 14:30  11 57 13.81    +02 58 29.7   0.0104 1.0030 169.6     20?   1.40 260.2   55  11 145   4
   2024 03 08 14:40  11 57 12.89    +02 58 27.2   0.0104 1.0030 169.7     20?   1.41 260.0   55   6 145   4
   2024 03 08 14:50  11 57 11.96    +02 58 24.8   0.0104 1.0030 169.7     20?   1.42 259.7   55   2 145   4
   2024 03 08 15:00  11 57 11.03    +02 58 22.2   0.0104 1.0030 169.7  t  20?   1.42 259.5   55 357 145   4
   2024 03 08 15:10  11 57 10.10    +02 58 19.6   0.0104 1.0030 169.7     20?   1.41 259.2   55 353 146   4
   2024 03 08 15:20  11 57 09.18    +02 58 16.9   0.0104 1.0030 169.7     20?   1.40 258.8   55 348 146   4
   2024 03 08 15:30  11 57 08.27    +02 58 14.2   0.0104 1.0030 169.7     20?   1.39 258.4   54 344 146   4
   2024 03 08 15:40  11 57 07.37    +02 58 11.4   0.0104 1.0031 169.7     20?   1.36 257.9   54 340 146   4
   2024 03 08 15:50  11 57 06.49    +02 58 08.5   0.0104 1.0031 169.7     20?   1.34 257.4   53 336 146   4
   2024 03 08 16:00  11 57 05.63    +02 58 05.5   0.0104 1.0031 169.7     20?   1.30 256.7   52 332 146   4
   2024 03 08 16:10  11 57 04.79    +02 58 02.5   0.0104 1.0031 169.7     20?   1.26 256.0   51 328 146   4
   2024 03 08 16:20  11 57 03.99    +02 57 59.4   0.0104 1.0031 169.8     20?   1.22 255.2   50 325 146   4
   2024 03 08 16:30  11 57 03.22    +02 57 56.3   0.0104 1.0031 169.8     20?   1.17 254.2   49 321 147   4
   2024 03 08 16:40  11 57 02.49    +02 57 53.1   0.0104 1.0031 169.8     20?   1.11 253.1   47 318 147   4
   2024 03 08 16:50  11 57 01.80    +02 57 49.9   0.0104 1.0031 169.8     20?   1.06 251.8   46 315 147   4
   2024 03 08 17:00  11 57 01.15    +02 57 46.5   0.0104 1.0031 169.8     20?   0.99 250.2   44 312 147   4
   2024 03 08 17:10  11 57 00.55    +02 57 43.2   0.0104 1.0031 169.8     20?   0.92 248.3   43 310 147   3
   2024 03 08 17:20  11 57 00.01    +02 57 39.7   0.0104 1.0031 169.8     20?   0.85 246.0   41 307 147   3
   2024 03 08 17:30  11 56 59.51    +02 57 36.2   0.0104 1.0031 169.8     20?   0.78 243.1   39 305 147   3
   2024 03 08 17:40  11 56 59.08    +02 57 32.7   0.0104 1.0031 169.8     20?   0.70 239.5   37 303 147   3
   2024 03 08 17:50  11 56 58.71    +02 57 29.1   0.0104 1.0031 169.8     20?   0.63 234.7   36 300 148   3
   2024 03 08 18:00  11 56 58.40    +02 57 25.5   0.0104 1.0031 169.8     20?   0.55 228.4   34 298 148   3
   2024 03 08 18:10  11 56 58.16    +02 57 21.8   0.0104 1.0031 169.9  m  20?   0.48 220.0   32 296 148   3
   2024 03 08 18:20  11 56 57.99    +02 57 18.1   0.0104 1.0031 169.9  m  20?   0.43 208.6   30 295 148   3
   2024 03 08 18:30  11 56 57.89    +02 57 14.3   0.0104 1.0031 169.9  m  20?   0.39 194.0   28 293 148   3
   2024 03 08 18:40  11 56 57.86    +02 57 10.5   0.0104 1.0031 169.9 Am  20?   0.38 177.1   26 291 148   3
   2024 03 08 18:50  11 56 57.91    +02 57 06.7   0.0104 1.0031 169.9 Am  20?   0.41 160.5   24 289 148   3
   2024 03 08 19:00  11 56 58.04    +02 57 02.8   0.0104 1.0031 169.9 Am  20?   0.47 146.6   22 288 148   3
   2024 03 08 19:10  11 56 58.25    +02 56 58.9   0.0104 1.0031 169.9 Nm  20?   0.54 135.9   20 286 148   3
   2024 03 08 19:20  11 56 58.55    +02 56 55.0   0.0104 1.0031 169.9 Nm  20?   0.64 128.0   18 285 148   3
   2024 03 08 19:30  11 56 58.93    +02 56 51.1   0.0104 1.0031 169.9 Nm  20?   0.75 122.1   16 283 149   3
   2024 03 08 19:40  11 56 59.39    +02 56 47.1   0.0104 1.0031 169.9 Cm  20?   0.86 117.6   14 282 149   3
   2024 03 08 19:50  11 56 59.94    +02 56 43.1   0.0104 1.0031 169.9 Cm  20?   0.98 114.1   12 280 149   3
   ................
   2024 03 09 09:00  12 00 06.81    +02 53 17.7   0.0104 1.0033 169.7 Nr  20?   1.67  93.3    0  86 155   1
   2024 03 09 09:10  12 00 07.88    +02 53 16.8   0.0104 1.0033 169.7 N   20?   1.54  93.6    1  85 155   1
   2024 03 09 09:20  12 00 08.86    +02 53 15.8   0.0104 1.0033 169.7 N   20?   1.40  93.9    3  84 155   1
   2024 03 09 09:30  12 00 09.74    +02 53 14.8   0.0104 1.0033 169.7 A   20?   1.26  94.4    6  83 155   1
   2024 03 09 09:40  12 00 10.54    +02 53 13.9   0.0104 1.0033 169.7 A   20?   1.13  95.0    8  81 155   1
   2024 03 09 09:50  12 00 11.24    +02 53 12.9   0.0104 1.0033 169.7 A   20?   0.99  95.7   10  80 155   1
   2024 03 09 10:00  12 00 11.86    +02 53 11.9   0.0104 1.0033 169.7     20?   0.86  96.7   12  78 156   1
   2024 03 09 10:10  12 00 12.38    +02 53 10.9   0.0104 1.0033 169.7     20?   0.73  98.1   14  77 156   1
   2024 03 09 10:20  12 00 12.82    +02 53 09.8   0.0104 1.0033 169.7     20?   0.60 100.0   16  76 156   1
   2024 03 09 10:30  12 00 13.18    +02 53 08.8   0.0104 1.0033 169.7     20?   0.48 103.0   18  74 156   1
   2024 03 09 10:40  12 00 13.44    +02 53 07.7   0.0104 1.0033 169.7     20?   0.36 108.0   20  73 156   1
   2024 03 09 10:50  12 00 13.63    +02 53 06.6   0.0104 1.0033 169.7     20?   0.24 117.6   22  71 156   1
   2024 03 09 11:00  12 00 13.73    +02 53 05.4   0.0104 1.0033 169.7     20?   0.15 140.3   24  70 156   1
   2024 03 09 11:10  12 00 13.76    +02 53 04.2   0.0104 1.0033 169.7     20?   0.12 189.3   26  68 157   1
   2024 03 09 11:20  12 00 13.71    +02 53 03.0   0.0104 1.0033 169.7     20?   0.18 227.0   28  66 157   1
   2024 03 09 11:30  12 00 13.58    +02 53 01.7   0.0104 1.0033 169.7     20?   0.28 242.2   30  64 157   1
   2024 03 09 11:40  12 00 13.38    +02 53 00.4   0.0104 1.0033 169.7     20?   0.37 249.2   32  62 157   1
   2024 03 09 11:50  12 00 13.12    +02 52 59.1   0.0104 1.0033 169.8     20?   0.47 253.1   34  60 157   1
   2024 03 09 12:00  12 00 12.78    +02 52 57.7   0.0104 1.0033 169.8     20?   0.57 255.5   36  58 157   1
   2024 03 09 12:10  12 00 12.38    +02 52 56.2   0.0104 1.0033 169.8     20?   0.66 257.1   38  56 157   1
   2024 03 09 12:20  12 00 11.93    +02 52 54.8   0.0104 1.0033 169.8     20?   0.75 258.3   39  54 157   1
   2024 03 09 12:30  12 00 11.41    +02 52 53.2   0.0104 1.0033 169.8     20?   0.83 259.1   41  52 158   1
   2024 03 09 12:40  12 00 10.84    +02 52 51.6   0.0104 1.0033 169.8     20?   0.91 259.7   43  49 158   1
   2024 03 09 12:50  12 00 10.21    +02 52 50.0   0.0104 1.0033 169.8     20?   0.99 260.1   44  46 158   1
   2024 03 09 13:00  12 00 09.54    +02 52 48.3   0.0104 1.0033 169.8     20?   1.05 260.5   46  43 158   1
   2024 03 09 13:10  12 00 08.83    +02 52 46.5   0.0104 1.0033 169.8     20?   1.12 260.7   47  40 158   1
   2024 03 09 13:20  12 00 08.07    +02 52 44.7   0.0104 1.0033 169.8     20?   1.18 260.9   49  37 158   1
   2024 03 09 13:30  12 00 07.27    +02 52 42.8   0.0104 1.0033 169.8     20?   1.23 261.0   50  34 158   1
   2024 03 09 13:40  12 00 06.45    +02 52 40.8   0.0104 1.0033 169.9     20?   1.28 261.1   51  30 159   1
   2024 03 09 13:50  12 00 05.59    +02 52 38.8   0.0104 1.0033 169.9     20?   1.32 261.1   52  27 159   0
   2024 03 09 14:00  12 00 04.71    +02 52 36.8   0.0104 1.0033 169.9     20?   1.36 261.0   53  23 159   0
   2024 03 09 14:10  12 00 03.80    +02 52 34.6   0.0104 1.0033 169.9     20?   1.39 261.0   54  19 159   0
   2024 03 09 14:20  12 00 02.88    +02 52 32.4   0.0104 1.0033 169.9     20?   1.41 260.8   55  14 159   0
   2024 03 09 14:30  12 00 01.95    +02 52 30.2   0.0104 1.0033 169.9     20?   1.43 260.7   55  10 159   0
   2024 03 09 14:40  12 00 01.00    +02 52 27.8   0.0104 1.0033 169.9     20?   1.44 260.5   55   6 159   0
   2024 03 09 14:50  12 00 00.05    +02 52 25.4   0.0104 1.0033 169.9     20?   1.45 260.3   55   1 160   0
   2024 03 09 15:00  11 59 59.10    +02 52 23.0   0.0104 1.0033 169.9  t  20?   1.45 260.0   55 357 160   0
   2024 03 09 15:10  11 59 58.14    +02 52 20.4   0.0104 1.0033 169.9     20?   1.44 259.7   55 352 160   0
   2024 03 09 15:20  11 59 57.20    +02 52 17.8   0.0104 1.0033 170.0     20?   1.43 259.4   55 348 160   0
   2024 03 09 15:30  11 59 56.27    +02 52 15.2   0.0104 1.0033 170.0     20?   1.42 259.0   54 344 160   0
   2024 03 09 15:40  11 59 55.35    +02 52 12.5   0.0104 1.0033 170.0     20?   1.39 258.5   54 339 160   0
   2024 03 09 15:50  11 59 54.45    +02 52 09.7   0.0104 1.0033 170.0     20?   1.36 258.0   53 335 160   0
   2024 03 09 16:00  11 59 53.57    +02 52 06.8   0.0104 1.0033 170.0     20?   1.33 257.4   52 332 161   0
   2024 03 09 16:10  11 59 52.72    +02 52 03.9   0.0104 1.0033 170.0     20?   1.29 256.8   51 328 161   0
   2024 03 09 16:20  11 59 51.89    +02 52 00.9   0.0104 1.0033 170.0     20?   1.24 256.0   50 324 161   0
   2024 03 09 16:30  11 59 51.11    +02 51 57.9   0.0104 1.0033 170.0     20?   1.19 255.1   48 321 161   0
   2024 03 09 16:40  11 59 50.36    +02 51 54.8   0.0104 1.0033 170.0     20?   1.14 254.0   47 318 161   0
   2024 03 09 16:50  11 59 49.65    +02 51 51.7   0.0104 1.0034 170.0     20?   1.08 252.8   46 315 161   0
   2024 03 09 17:00  11 59 48.98    +02 51 48.5   0.0104 1.0034 170.1     20?   1.01 251.3   44 312 161   0
   2024 03 09 17:10  11 59 48.37    +02 51 45.2   0.0104 1.0034 170.1     20?   0.94 249.5   42 309 161   0
   2024 03 09 17:20  11 59 47.81    +02 51 41.9   0.0104 1.0034 170.1     20?   0.87 247.4   41 307 162   0
   2024 03 09 17:30  11 59 47.30    +02 51 38.5   0.0104 1.0034 170.1     20?   0.79 244.7   39 305 162   0
   2024 03 09 17:40  11 59 46.85    +02 51 35.1   0.0104 1.0034 170.1     20?   0.72 241.2   37 302 162   0
   2024 03 09 17:50  11 59 46.46    +02 51 31.6   0.0104 1.0034 170.1     20?   0.64 236.8   35 300 162   0
   2024 03 09 18:00  11 59 46.14    +02 51 28.1   0.0104 1.0034 170.1     20?   0.56 230.9   34 298 162   0
   2024 03 09 18:10  11 59 45.88    +02 51 24.6   0.0104 1.0034 170.1     20?   0.49 222.9   32 296 162   0
   2024 03 09 18:20  11 59 45.69    +02 51 21.0   0.0104 1.0034 170.1     20?   0.43 212.0   30 294 162   0
   2024 03 09 18:30  11 59 45.58    +02 51 17.3   0.0104 1.0034 170.1     20?   0.38 197.5   28 292 162   0
   2024 03 09 18:40  11 59 45.54    +02 51 13.7   0.0104 1.0034 170.1 A   20?   0.37 180.3   26 291 163   0
   2024 03 09 18:50  11 59 45.58    +02 51 09.9   0.0104 1.0034 170.1 A   20?   0.39 162.8   24 289 163   0
   2024 03 09 19:00  11 59 45.69    +02 51 06.2   0.0104 1.0034 170.2 A   20?   0.44 147.9   22 287 163   0
   2024 03 09 19:10  11 59 45.89    +02 51 02.4   0.0104 1.0034 170.2 N   20?   0.52 136.5   20 286 163   0
   2024 03 09 19:20  11 59 46.17    +02 50 58.6   0.0104 1.0034 170.2 Nm  20?   0.62 128.2   18 284 163   0
   2024 03 09 19:30  11 59 46.54    +02 50 54.8   0.0104 1.0034 170.2 Nm  20?   0.72 122.0   16 283 163   0
   2024 03 09 19:40  11 59 46.99    +02 50 51.0   0.0104 1.0034 170.2 Cm  20?   0.84 117.4   14 282 163   0
   2024 03 09 19:50  11 59 47.53    +02 50 47.1   0.0104 1.0034 170.2 Cm  20?   0.95 113.8   11 280 163   0
   ................
   2024 03 10 09:00  12 02 52.44    +02 47 28.1   0.0104 1.0035 169.9 Nr  20?   1.62  93.3    0  86 169   0
   2024 03 10 09:10  12 02 53.47    +02 47 27.2   0.0104 1.0035 169.9 N   20?   1.49  93.7    2  85 169   0
   2024 03 10 09:20  12 02 54.42    +02 47 26.2   0.0104 1.0035 169.9 N   20?   1.35  94.0    4  84 169   0
   2024 03 10 09:30  12 02 55.27    +02 47 25.3   0.0104 1.0036 169.9 A   20?   1.21  94.5    6  82 170   0
   2024 03 10 09:40  12 02 56.03    +02 47 24.3   0.0104 1.0036 169.9 A   20?   1.08  95.2    8  81 170   0
   2024 03 10 09:50  12 02 56.70    +02 47 23.3   0.0104 1.0036 169.9     20?   0.94  96.0   10  80 170   0
   2024 03 10 10:00  12 02 57.29    +02 47 22.3   0.0104 1.0036 169.9     20?   0.81  97.1   12  78 170   0
   2024 03 10 10:10  12 02 57.78    +02 47 21.3   0.0104 1.0036 170.0     20?   0.68  98.6   14  77 170   0
   2024 03 10 10:20  12 02 58.19    +02 47 20.3   0.0104 1.0036 170.0     20?   0.56 100.8   16  76 170   0
   2024 03 10 10:30  12 02 58.51    +02 47 19.2   0.0104 1.0036 170.0     20?   0.43 104.3   18  74 170   0
   2024 03 10 10:40  12 02 58.75    +02 47 18.1   0.0104 1.0036 170.0     20?   0.31 110.5   20  73 170   0
   2024 03 10 10:50  12 02 58.90    +02 47 17.0   0.0104 1.0036 170.0     20?   0.21 123.3   23  71 171   0
   2024 03 10 11:00  12 02 58.98    +02 47 15.9   0.0104 1.0036 170.0     20?   0.13 155.8   25  69 171   0
   2024 03 10 11:10  12 02 58.97    +02 47 14.7   0.0104 1.0036 170.0     20?   0.14 208.1   27  68 171   0
   2024 03 10 11:20  12 02 58.89    +02 47 13.5   0.0104 1.0036 170.0     20?   0.22 235.1   29  66 171   0
   2024 03 10 11:30  12 02 58.74    +02 47 12.2   0.0104 1.0036 170.0     20?   0.31 246.0   30  64 171   0
   2024 03 10 11:40  12 02 58.51    +02 47 10.9   0.0104 1.0036 170.0     20?   0.41 251.4   32  62 171   0
   2024 03 10 11:50  12 02 58.21    +02 47 09.6   0.0104 1.0036 170.0     20?   0.51 254.6   34  60 171   0
   2024 03 10 12:00  12 02 57.85    +02 47 08.2   0.0104 1.0036 170.0     20?   0.61 256.6   36  58 171   0
   2024 03 10 12:10  12 02 57.43    +02 47 06.8   0.0104 1.0036 170.0     20?   0.70 258.0   38  56 172   0
   2024 03 10 12:20  12 02 56.94    +02 47 05.3   0.0104 1.0036 170.0     20?   0.79 259.0   40  54 172   0
   2024 03 10 12:30  12 02 56.40    +02 47 03.8   0.0104 1.0036 170.1     20?   0.87 259.7   41  51 172   0
   2024 03 10 12:40  12 02 55.80    +02 47 02.2   0.0104 1.0036 170.1     20?   0.95 260.2   43  49 172   0
   2024 03 10 12:50  12 02 55.15    +02 47 00.6   0.0104 1.0036 170.1     20?   1.02 260.6   45  46 172   0
   2024 03 10 13:00  12 02 54.46    +02 46 58.9   0.0104 1.0036 170.1     20?   1.09 260.9   46  43 172   0
   2024 03 10 13:10  12 02 53.72    +02 46 57.2   0.0104 1.0036 170.1     20?   1.15 261.1   48  40 172   0
   2024 03 10 13:20  12 02 52.94    +02 46 55.4   0.0104 1.0036 170.1     20?   1.21 261.3   49  37 173   0
   2024 03 10 13:30  12 02 52.12    +02 46 53.5   0.0104 1.0036 170.1     20?   1.26 261.4   50  34 173   0
   2024 03 10 13:40  12 02 51.27    +02 46 51.6   0.0104 1.0036 170.1     20?   1.31 261.4   51  30 173   0
   2024 03 10 13:50  12 02 50.39    +02 46 49.6   0.0104 1.0036 170.1     20?   1.35 261.4   52  26 173   0
   2024 03 10 14:00  12 02 49.49    +02 46 47.6   0.0104 1.0036 170.1     20?   1.39 261.4   53  22 173   0
   2024 03 10 14:10  12 02 48.56    +02 46 45.5   0.0104 1.0036 170.2     20?   1.42 261.3   54  18 173   0
   2024 03 10 14:20  12 02 47.62    +02 46 43.3   0.0104 1.0036 170.2     20?   1.44 261.2   55  14 173   0
   2024 03 10 14:30  12 02 46.66    +02 46 41.1   0.0104 1.0036 170.2     20?   1.46 261.0   55  10 174   0
   2024 03 10 14:40  12 02 45.70    +02 46 38.8   0.0104 1.0036 170.2     20?   1.47 260.9   55   5 174   0
   2024 03 10 14:50  12 02 44.73    +02 46 36.5   0.0104 1.0036 170.2     20?   1.47 260.7   56   1 174   0
   2024 03 10 15:00  12 02 43.76    +02 46 34.1   0.0104 1.0036 170.2  t  20?   1.47 260.4   56 356 174   0
   2024 03 10 15:10  12 02 42.79    +02 46 31.6   0.0104 1.0036 170.2     20?   1.47 260.1   55 352 174   0
   2024 03 10 15:20  12 02 41.83    +02 46 29.0   0.0104 1.0036 170.2     20?   1.46 259.8   55 347 174   0
   2024 03 10 15:30  12 02 40.88    +02 46 26.4   0.0104 1.0036 170.2     20?   1.44 259.4   54 343 174   0
   2024 03 10 15:40  12 02 39.94    +02 46 23.8   0.0104 1.0036 170.2     20?   1.41 259.0   54 339 174   0
   2024 03 10 15:50  12 02 39.02    +02 46 21.0   0.0104 1.0036 170.3     20?   1.38 258.5   53 335 175   0
   2024 03 10 16:00  12 02 38.13    +02 46 18.3   0.0104 1.0036 170.3     20?   1.35 257.9   52 331 175   0
   2024 03 10 16:10  12 02 37.26    +02 46 15.4   0.0104 1.0036 170.3     20?   1.31 257.2   51 327 175   0
   2024 03 10 16:20  12 02 36.43    +02 46 12.5   0.0104 1.0036 170.3     20?   1.26 256.5   50 324 175   0
   2024 03 10 16:30  12 02 35.63    +02 46 09.5   0.0104 1.0036 170.3     20?   1.21 255.6   48 321 175   0
   2024 03 10 16:40  12 02 34.86    +02 46 06.5   0.0104 1.0036 170.3     20?   1.15 254.6   47 317 175   0
   2024 03 10 16:50  12 02 34.14    +02 46 03.4   0.0104 1.0036 170.3     20?   1.09 253.4   46 314 175   0
   2024 03 10 17:00  12 02 33.47    +02 46 00.3   0.0104 1.0036 170.3     20?   1.03 252.0   44 312 176   0
   2024 03 10 17:10  12 02 32.84    +02 45 57.1   0.0104 1.0036 170.3     20?   0.96 250.3   42 309 176   0
   2024 03 10 17:20  12 02 32.26    +02 45 53.9   0.0104 1.0036 170.3     20?   0.88 248.3   41 307 176   0
   2024 03 10 17:30  12 02 31.74    +02 45 50.6   0.0104 1.0036 170.4     20?   0.81 245.7   39 304 176   0
   2024 03 10 17:40  12 02 31.28    +02 45 47.2   0.0104 1.0037 170.4     20?   0.73 242.4   37 302 176   0
   2024 03 10 17:50  12 02 30.88    +02 45 43.8   0.0104 1.0037 170.4     20?   0.65 238.2   35 300 176   0
   2024 03 10 18:00  12 02 30.55    +02 45 40.4   0.0104 1.0037 170.4     20?   0.57 232.6   33 298 176   0
   2024 03 10 18:10  12 02 30.28    +02 45 36.9   0.0104 1.0037 170.4     20?   0.49 224.9   32 296 176   0
   2024 03 10 18:20  12 02 30.08    +02 45 33.4   0.0104 1.0037 170.4     20?   0.43 214.3   30 294 177   0
   2024 03 10 18:30  12 02 29.96    +02 45 29.9   0.0104 1.0037 170.4     20?   0.38 200.1   28 292 177   0
   2024 03 10 18:40  12 02 29.91    +02 45 26.3   0.0104 1.0037 170.4 A   20?   0.36 182.6   26 290 177   0
   2024 03 10 18:50  12 02 29.94    +02 45 22.7   0.0104 1.0037 170.4 A   20?   0.38 164.5   24 289 177   0
   2024 03 10 19:00  12 02 30.04    +02 45 19.0   0.0104 1.0037 170.4 A   20?   0.43 148.9   22 287 177   0
   2024 03 10 19:10  12 02 30.23    +02 45 15.4   0.0104 1.0037 170.4 N   20?   0.50 137.0   20 286 177   0
   2024 03 10 19:20  12 02 30.50    +02 45 11.7   0.0104 1.0037 170.4 N   20?   0.60 128.3   17 284 177   0
   2024 03 10 19:30  12 02 30.86    +02 45 07.9   0.0104 1.0037 170.4 N   20?   0.70 122.0   15 283 177   0
   2024 03 10 19:40  12 02 31.30    +02 45 04.2   0.0104 1.0037 170.4 C   20?   0.82 117.2   13 281 177   0
   2024 03 10 19:50  12 02 31.83    +02 45 00.4   0.0104 1.0037 170.4 C   20?   0.94 113.6   11 280 177   0
   ................
   2024 03 11 09:00  12 05 35.08    +02 41 44.8   0.0105 1.0038 170.2 Nr  20?   1.58  93.5    0  86 174   1
   2024 03 11 09:10  12 05 36.09    +02 41 43.8   0.0105 1.0038 170.2 N   20?   1.44  93.9    2  85 174   1
   2024 03 11 09:20  12 05 37.00    +02 41 42.9   0.0105 1.0038 170.2 A   20?   1.31  94.3    4  84 174   1
   2024 03 11 09:30  12 05 37.83    +02 41 41.9   0.0105 1.0038 170.2 A   20?   1.17  94.9    6  82 174   1
   2024 03 11 09:40  12 05 38.56    +02 41 40.9   0.0105 1.0038 170.2 A   20?   1.04  95.6    8  81 174   1
   2024 03 11 09:50  12 05 39.20    +02 41 39.9   0.0105 1.0038 170.2     20?   0.90  96.5   10  80 174   1
   2024 03 11 10:00  12 05 39.76    +02 41 38.8   0.0105 1.0038 170.2     20?   0.77  97.7   12  78 174   1
   2024 03 11 10:10  12 05 40.22    +02 41 37.8   0.0104 1.0038 170.2     20?   0.64  99.5   15  77 174   1
   2024 03 11 10:20  12 05 40.60    +02 41 36.7   0.0104 1.0039 170.2     20?   0.52 102.0   17  75 174   1
   2024 03 11 10:30  12 05 40.90    +02 41 35.6   0.0104 1.0039 170.2     20?   0.39 106.2   19  74 173   1
   2024 03 11 10:40  12 05 41.11    +02 41 34.5   0.0104 1.0039 170.2     20?   0.28 113.9   21  72 173   1
   2024 03 11 10:50  12 05 41.24    +02 41 33.4   0.0104 1.0039 170.2     20?   0.18 131.2   23  71 173   1
   2024 03 11 11:00  12 05 41.29    +02 41 32.2   0.0104 1.0039 170.3     20?   0.12 173.7   25  69 173   1
   2024 03 11 11:10  12 05 41.26    +02 41 31.0   0.0104 1.0039 170.3     20?   0.16 219.9   27  68 173   1
   2024 03 11 11:20  12 05 41.15    +02 41 29.8   0.0104 1.0039 170.3     20?   0.25 239.6   29  66 173   1
   2024 03 11 11:30  12 05 40.97    +02 41 28.5   0.0104 1.0039 170.3     20?   0.35 248.1   31  64 173   1
   2024 03 11 11:40  12 05 40.72    +02 41 27.2   0.0104 1.0039 170.3     20?   0.45 252.6   33  62 173   1
   2024 03 11 11:50  12 05 40.40    +02 41 25.8   0.0104 1.0039 170.3     20?   0.55 255.3   35  60 173   1
   2024 03 11 12:00  12 05 40.01    +02 41 24.4   0.0104 1.0039 170.3     20?   0.64 257.1   36  58 172   1
   2024 03 11 12:10  12 05 39.57    +02 41 23.0   0.0104 1.0039 170.3     20?   0.73 258.4   38  56 172   1
   2024 03 11 12:20  12 05 39.06    +02 41 21.5   0.0104 1.0039 170.3     20?   0.82 259.3   40  54 172   1
   2024 03 11 12:30  12 05 38.49    +02 41 19.9   0.0104 1.0039 170.3     20?   0.90 259.9   42  51 172   1
   2024 03 11 12:40  12 05 37.87    +02 41 18.3   0.0104 1.0039 170.3     20?   0.98 260.4   43  48 172   1
   2024 03 11 12:50  12 05 37.20    +02 41 16.7   0.0104 1.0039 170.3     20?   1.05 260.8   45  46 172   1
   2024 03 11 13:00  12 05 36.49    +02 41 15.0   0.0104 1.0039 170.4     20?   1.12 261.1   46  43 172   2
   2024 03 11 13:10  12 05 35.73    +02 41 13.2   0.0104 1.0039 170.4     20?   1.18 261.3   48  40 172   2
   2024 03 11 13:20  12 05 34.93    +02 41 11.4   0.0104 1.0039 170.4     20?   1.24 261.4   49  37 172   2
   2024 03 11 13:30  12 05 34.09    +02 41 09.6   0.0104 1.0039 170.4     20?   1.29 261.5   50  33 171   2
   2024 03 11 13:40  12 05 33.22    +02 41 07.6   0.0104 1.0039 170.4     20?   1.34 261.6   52  30 171   2
   2024 03 11 13:50  12 05 32.33    +02 41 05.7   0.0104 1.0039 170.4     20?   1.38 261.6   53  26 171   2
   2024 03 11 14:00  12 05 31.41    +02 41 03.6   0.0104 1.0039 170.4     20?   1.41 261.5   54  22 171   2
   2024 03 11 14:10  12 05 30.46    +02 41 01.5   0.0104 1.0039 170.4     20?   1.44 261.4   54  18 171   2
   2024 03 11 14:20  12 05 29.51    +02 40 59.4   0.0104 1.0039 170.4     20?   1.46 261.3   55  13 171   2
   2024 03 11 14:30  12 05 28.53    +02 40 57.1   0.0104 1.0039 170.4     20?   1.48 261.2   55   9 171   2
   2024 03 11 14:40  12 05 27.55    +02 40 54.9   0.0104 1.0039 170.5     20?   1.49 261.0   56   5 171   2
   2024 03 11 14:50  12 05 26.57    +02 40 52.5   0.0104 1.0039 170.5     20?   1.50 260.8   56   0 170   2
   2024 03 11 15:00  12 05 25.59    +02 40 50.1   0.0104 1.0039 170.5  t  20?   1.49 260.6   56 356 170   2
   2024 03 11 15:10  12 05 24.60    +02 40 47.6   0.0104 1.0039 170.5     20?   1.49 260.3   55 351 170   2
   2024 03 11 15:20  12 05 23.63    +02 40 45.1   0.0104 1.0039 170.5     20?   1.47 260.0   55 347 170   2
   2024 03 11 15:30  12 05 22.67    +02 40 42.5   0.0104 1.0039 170.5     20?   1.46 259.6   54 342 170   2
   2024 03 11 15:40  12 05 21.72    +02 40 39.9   0.0104 1.0039 170.5     20?   1.43 259.2   54 338 170   2
   2024 03 11 15:50  12 05 20.79    +02 40 37.2   0.0104 1.0039 170.5     20?   1.40 258.7   53 334 170   2
   2024 03 11 16:00  12 05 19.89    +02 40 34.4   0.0104 1.0039 170.5     20?   1.36 258.1   52 330 169   2
   2024 03 11 16:10  12 05 19.01    +02 40 31.6   0.0104 1.0039 170.5     20?   1.32 257.5   51 327 169   2
   2024 03 11 16:20  12 05 18.16    +02 40 28.7   0.0104 1.0039 170.6     20?   1.28 256.8   50 323 169   2
   2024 03 11 16:30  12 05 17.35    +02 40 25.7   0.0104 1.0039 170.6     20?   1.22 255.9   48 320 169   2
   2024 03 11 16:40  12 05 16.58    +02 40 22.8   0.0104 1.0039 170.6     20?   1.17 254.9   47 317 169   2
   2024 03 11 16:50  12 05 15.85    +02 40 19.7   0.0104 1.0039 170.6     20?   1.10 253.8   45 314 169   2
   2024 03 11 17:00  12 05 15.16    +02 40 16.6   0.0104 1.0039 170.6     20?   1.04 252.4   44 311 169   2
   2024 03 11 17:10  12 05 14.53    +02 40 13.5   0.0104 1.0039 170.6     20?   0.97 250.8   42 309 169   2
   2024 03 11 17:20  12 05 13.95    +02 40 10.3   0.0104 1.0039 170.6     20?   0.89 248.8   41 306 168   2
   2024 03 11 17:30  12 05 13.42    +02 40 07.0   0.0104 1.0039 170.6     20?   0.81 246.3   39 304 168   2
   2024 03 11 17:40  12 05 12.95    +02 40 03.7   0.0104 1.0039 170.6     20?   0.73 243.1   37 302 168   3
   2024 03 11 17:50  12 05 12.55    +02 40 00.4   0.0104 1.0039 170.6     20?   0.65 239.0   35 299 168   3
   2024 03 11 18:00  12 05 12.21    +02 39 57.0   0.0104 1.0039 170.6     20?   0.57 233.5   33 297 168   3
   2024 03 11 18:10  12 05 11.93    +02 39 53.6   0.0104 1.0039 170.7     20?   0.50 226.0   31 295 168   3
   2024 03 11 18:20  12 05 11.73    +02 39 50.1   0.0104 1.0039 170.7     20?   0.43 215.7   29 294 168   3
   2024 03 11 18:30  12 05 11.60    +02 39 46.6   0.0104 1.0040 170.7     20?   0.38 201.6   27 292 167   3
   2024 03 11 18:40  12 05 11.54    +02 39 43.1   0.0104 1.0040 170.7 A   20?   0.36 184.0   25 290 167   3
   2024 03 11 18:50  12 05 11.57    +02 39 39.5   0.0105 1.0040 170.7 A   20?   0.37 165.4   23 289 167   3
   2024 03 11 19:00  12 05 11.67    +02 39 35.9   0.0105 1.0040 170.7 A   20?   0.42 149.4   21 287 167   3
   2024 03 11 19:10  12 05 11.85    +02 39 32.3   0.0105 1.0040 170.7 N   20?   0.50 137.1   19 285 167   3
   2024 03 11 19:20  12 05 12.12    +02 39 28.7   0.0105 1.0040 170.7 N   20?   0.59 128.3   17 284 167   3
   2024 03 11 19:30  12 05 12.47    +02 39 25.0   0.0105 1.0040 170.7 N   20?   0.70 121.9   15 282 167   3
   2024 03 11 19:40  12 05 12.91    +02 39 21.3   0.0105 1.0040 170.7 C   20?   0.81 117.1   13 281 167   3
   2024 03 11 19:50  12 05 13.43    +02 39 17.6   0.0105 1.0040 170.7 C   20?   0.93 113.5   11 280 167   3
   ................
   2024 03 12 09:00  12 08 15.33    +02 36 02.4   0.0105 1.0041 170.5 Nm  20?   1.54  93.9    0  86 160   5
   2024 03 12 09:10  12 08 16.31    +02 36 01.3   0.0105 1.0041 170.5 Nm  20?   1.40  94.3    2  85 160   5
   2024 03 12 09:20  12 08 17.20    +02 36 00.3   0.0105 1.0041 170.5 Am  20?   1.27  94.8    4  84 160   5
   2024 03 12 09:30  12 08 18.00    +02 35 59.2   0.0105 1.0041 170.5 Am  20?   1.13  95.4    6  82 160   5
   2024 03 12 09:40  12 08 18.70    +02 35 58.2   0.0105 1.0041 170.5 Am  20?   1.00  96.2    9  81 160   5
   2024 03 12 09:50  12 08 19.32    +02 35 57.1   0.0105 1.0041 170.5     20?   0.87  97.2   11  80 160   5
   2024 03 12 10:00  12 08 19.85    +02 35 56.0   0.0105 1.0041 170.5     20?   0.74  98.6   13  78 160   5
   2024 03 12 10:10  12 08 20.29    +02 35 54.9   0.0105 1.0041 170.5     20?   0.61 100.6   15  77 160   6
   2024 03 12 10:20  12 08 20.65    +02 35 53.7   0.0105 1.0041 170.5     20?   0.48 103.7   17  75 160   6
   2024 03 12 10:30  12 08 20.92    +02 35 52.6   0.0105 1.0041 170.5     20?   0.36 108.8   19  74 159   6
   2024 03 12 10:40  12 08 21.11    +02 35 51.4   0.0105 1.0041 170.5     20?   0.25 118.6   21  72 159   6
   2024 03 12 10:50  12 08 21.21    +02 35 50.2   0.0105 1.0041 170.5     20?   0.16 141.3   23  71 159   6
   2024 03 12 11:00  12 08 21.24    +02 35 49.0   0.0105 1.0042 170.5     20?   0.13 189.2   25  69 159   6
   2024 03 12 11:10  12 08 21.19    +02 35 47.7   0.0105 1.0042 170.5     20?   0.19 226.4   27  67 159   6
   2024 03 12 11:20  12 08 21.06    +02 35 46.4   0.0105 1.0042 170.5     20?   0.28 241.8   29  66 159   6
   2024 03 12 11:30  12 08 20.86    +02 35 45.0   0.0105 1.0042 170.5     20?   0.38 249.0   31  64 159   6
   2024 03 12 11:40  12 08 20.59    +02 35 43.7   0.0105 1.0042 170.6     20?   0.48 253.0   33  62 159   6
   2024 03 12 11:50  12 08 20.25    +02 35 42.2   0.0105 1.0042 170.6     20?   0.58 255.5   35  60 159   6
   2024 03 12 12:00  12 08 19.84    +02 35 40.8   0.0105 1.0042 170.6     20?   0.67 257.2   37  58 158   6
   2024 03 12 12:10  12 08 19.37    +02 35 39.3   0.0105 1.0042 170.6     20?   0.76 258.4   39  56 158   6
   2024 03 12 12:20  12 08 18.85    +02 35 37.7   0.0105 1.0042 170.6     20?   0.85 259.2   40  53 158   6
   2024 03 12 12:30  12 08 18.26    +02 35 36.1   0.0105 1.0042 170.6     20?   0.93 259.9   42  51 158   6
   2024 03 12 12:40  12 08 17.63    +02 35 34.5   0.0105 1.0042 170.6     20?   1.01 260.4   44  48 158   6
   2024 03 12 12:50  12 08 16.94    +02 35 32.8   0.0105 1.0042 170.6     20?   1.08 260.8   45  45 158   6
   2024 03 12 13:00  12 08 16.21    +02 35 31.0   0.0105 1.0042 170.6     20?   1.14 261.0   47  43 158   6
   2024 03 12 13:10  12 08 15.43    +02 35 29.2   0.0104 1.0042 170.6     20?   1.21 261.2   48  39 158   6
   2024 03 12 13:20  12 08 14.62    +02 35 27.4   0.0104 1.0042 170.6     20?   1.26 261.4   49  36 158   6
   2024 03 12 13:30  12 08 13.77    +02 35 25.5   0.0104 1.0042 170.7     20?   1.31 261.5   51  33 157   6
   2024 03 12 13:40  12 08 12.88    +02 35 23.5   0.0104 1.0042 170.7     20?   1.36 261.5   52  29 157   6
   2024 03 12 13:50  12 08 11.97    +02 35 21.5   0.0104 1.0042 170.7     20?   1.40 261.5   53  25 157   7
   2024 03 12 14:00  12 08 11.04    +02 35 19.4   0.0104 1.0042 170.7     20?   1.43 261.5   54  21 157   7
   2024 03 12 14:10  12 08 10.09    +02 35 17.3   0.0104 1.0042 170.7     20?   1.46 261.4   54  17 157   7
   2024 03 12 14:20  12 08 09.12    +02 35 15.1   0.0104 1.0042 170.7     20?   1.48 261.3   55  13 157   7
   2024 03 12 14:30  12 08 08.13    +02 35 12.8   0.0104 1.0042 170.7     20?   1.50 261.2   55   9 157   7
   2024 03 12 14:40  12 08 07.14    +02 35 10.5   0.0104 1.0042 170.7     20?   1.51 261.0   56   4 156   7
   2024 03 12 14:50  12 08 06.15    +02 35 08.1   0.0104 1.0042 170.7     20?   1.51 260.8   56   0 156   7
   2024 03 12 15:00  12 08 05.15    +02 35 05.7   0.0104 1.0042 170.7  t  20?   1.51 260.6   56 355 156   7
   2024 03 12 15:10  12 08 04.16    +02 35 03.2   0.0104 1.0042 170.8     20?   1.50 260.3   55 351 156   7
   2024 03 12 15:20  12 08 03.18    +02 35 00.6   0.0104 1.0042 170.8     20?   1.49 260.0   55 346 156   7
   2024 03 12 15:30  12 08 02.21    +02 34 58.0   0.0104 1.0042 170.8     20?   1.47 259.6   54 342 156   7
   2024 03 12 15:40  12 08 01.25    +02 34 55.4   0.0104 1.0042 170.8     20?   1.44 259.2   54 338 156   7
   2024 03 12 15:50  12 08 00.32    +02 34 52.6   0.0104 1.0042 170.8     20?   1.41 258.7   53 334 156   7
   2024 03 12 16:00  12 07 59.41    +02 34 49.9   0.0105 1.0042 170.8     20?   1.37 258.2   52 330 155   7
   2024 03 12 16:10  12 07 58.52    +02 34 47.0   0.0105 1.0042 170.8     20?   1.33 257.5   51 326 155   7
   2024 03 12 16:20  12 07 57.67    +02 34 44.1   0.0105 1.0042 170.8     20?   1.28 256.8   50 323 155   7
   2024 03 12 16:30  12 07 56.86    +02 34 41.2   0.0105 1.0042 170.8     20?   1.23 256.0   48 320 155   7
   2024 03 12 16:40  12 07 56.08    +02 34 38.2   0.0105 1.0042 170.9     20?   1.17 255.0   47 316 155   8
   2024 03 12 16:50  12 07 55.34    +02 34 35.1   0.0105 1.0042 170.9     20?   1.11 253.9   45 314 155   8
   2024 03 12 17:00  12 07 54.65    +02 34 32.0   0.0105 1.0042 170.9     20?   1.04 252.5   44 311 155   8
   2024 03 12 17:10  12 07 54.02    +02 34 28.9   0.0105 1.0042 170.9     20?   0.97 250.9   42 308 154   8
   2024 03 12 17:20  12 07 53.43    +02 34 25.7   0.0105 1.0042 170.9     20?   0.90 248.9   40 306 154   8
   2024 03 12 17:30  12 07 52.90    +02 34 22.4   0.0105 1.0042 170.9     20?   0.82 246.4   39 303 154   8
   2024 03 12 17:40  12 07 52.43    +02 34 19.1   0.0105 1.0042 170.9     20?   0.74 243.3   37 301 154   8
   2024 03 12 17:50  12 07 52.02    +02 34 15.8   0.0105 1.0042 170.9     20?   0.66 239.2   35 299 154   8
   2024 03 12 18:00  12 07 51.68    +02 34 12.4   0.0105 1.0042 170.9     20?   0.57 233.8   33 297 154   8
   2024 03 12 18:10  12 07 51.40    +02 34 09.0   0.0105 1.0042 170.9     20?   0.50 226.3   31 295 154   8
   2024 03 12 18:20  12 07 51.20    +02 34 05.6   0.0105 1.0042 170.9     20?   0.43 216.0   29 293 154   8
   2024 03 12 18:30  12 07 51.07    +02 34 02.1   0.0105 1.0042 170.9     20?   0.38 201.9   27 292 153   8
   2024 03 12 18:40  12 07 51.01    +02 33 58.6   0.0105 1.0042 171.0     21?   0.35 184.3   25 290 153   8
   2024 03 12 18:50  12 07 51.03    +02 33 55.0   0.0105 1.0042 171.0 A   21?   0.37 165.6   23 288 153   8
   2024 03 12 19:00  12 07 51.13    +02 33 51.5   0.0105 1.0042 171.0 A   21?   0.42 149.4   21 287 153   8
   2024 03 12 19:10  12 07 51.32    +02 33 47.9   0.0105 1.0042 171.0 N   21?   0.49 137.1   19 285 153   8
   2024 03 12 19:20  12 07 51.58    +02 33 44.2   0.0105 1.0043 171.0 N   21?   0.59 128.2   17 284 153   9
   2024 03 12 19:30  12 07 51.93    +02 33 40.6   0.0105 1.0043 171.0 N   21?   0.69 121.8   15 282 153   9
   2024 03 12 19:40  12 07 52.37    +02 33 36.9   0.0105 1.0043 171.0 C   21?   0.81 117.0   13 281 153   9
   2024 03 12 19:50  12 07 52.89    +02 33 33.2   0.0105 1.0043 171.0 C   21?   0.93 113.4   11 279 152   9
   ................
   2024 03 13 09:00  12 10 53.72    +02 30 15.7   0.0105 1.0044 170.7 Nm  20?   1.51  94.3    0  86 146  12
   2024 03 13 09:10  12 10 54.68    +02 30 14.5   0.0105 1.0044 170.7 Nm  20?   1.37  94.8    3  85 146  12
   2024 03 13 09:20  12 10 55.55    +02 30 13.4   0.0105 1.0044 170.7 Am  20?   1.24  95.3    5  84 146  12
   2024 03 13 09:30  12 10 56.32    +02 30 12.2   0.0105 1.0044 170.7 Am  20?   1.10  96.1    7  82 146  12
   2024 03 13 09:40  12 10 57.01    +02 30 11.1   0.0105 1.0044 170.8 Am  21?   0.97  97.0    9  81 146  12
   2024 03 13 09:50  12 10 57.60    +02 30 09.9   0.0105 1.0044 170.8  m  21?   0.84  98.2   11  80 146  12
   2024 03 13 10:00  12 10 58.11    +02 30 08.7   0.0105 1.0044 170.8  m  21?   0.71  99.8   13  78 146  12
   2024 03 13 10:10  12 10 58.53    +02 30 07.5   0.0105 1.0044 170.8  m  21?   0.58 102.1   15  77 146  12
   2024 03 13 10:20  12 10 58.87    +02 30 06.2   0.0105 1.0044 170.8     20?   0.46 105.8   17  75 146  12
   2024 03 13 10:30  12 10 59.12    +02 30 05.0   0.0105 1.0044 170.8     20?   0.34 112.0   19  74 145  13
   2024 03 13 10:40  12 10 59.29    +02 30 03.7   0.0105 1.0044 170.8     20?   0.23 124.3   21  72 145  13
   2024 03 13 10:50  12 10 59.37    +02 30 02.4   0.0105 1.0044 170.8     20?   0.15 152.4   23  71 145  13
   2024 03 13 11:00  12 10 59.38    +02 30 01.0   0.0105 1.0044 170.8     20?   0.14 199.7   25  69 145  13
   2024 03 13 11:10  12 10 59.31    +02 29 59.7   0.0105 1.0044 170.8     20?   0.21 229.6   27  67 145  13
   2024 03 13 11:20  12 10 59.16    +02 29 58.3   0.0105 1.0044 170.8     20?   0.31 242.5   29  66 145  13
   2024 03 13 11:30  12 10 58.94    +02 29 56.8   0.0105 1.0044 170.8     20?   0.41 249.0   31  64 145  13
   2024 03 13 11:40  12 10 58.65    +02 29 55.4   0.0105 1.0045 170.8     20?   0.51 252.8   33  62 145  13
   2024 03 13 11:50  12 10 58.30    +02 29 53.9   0.0105 1.0045 170.8     20?   0.60 255.2   35  60 145  13
   2024 03 13 12:00  12 10 57.88    +02 29 52.3   0.0105 1.0045 170.8     20?   0.70 256.9   37  58 145  13
   2024 03 13 12:10  12 10 57.39    +02 29 50.7   0.0105 1.0045 170.8     20?   0.79 258.1   39  55 144  13
   2024 03 13 12:20  12 10 56.85    +02 29 49.1   0.0105 1.0045 170.9     21?   0.87 258.9   41  53 144  13
   2024 03 13 12:30  12 10 56.25    +02 29 47.4   0.0105 1.0045 170.9     21?   0.95 259.6   42  51 144  13
   2024 03 13 12:40  12 10 55.60    +02 29 45.6   0.0105 1.0045 170.9     21?   1.03 260.1   44  48 144  13
   2024 03 13 12:50  12 10 54.90    +02 29 43.9   0.0105 1.0045 170.9     21?   1.10 260.5   46  45 144  13
   2024 03 13 13:00  12 10 54.16    +02 29 42.0   0.0105 1.0045 170.9     21?   1.16 260.8   47  42 144  13
   2024 03 13 13:10  12 10 53.37    +02 29 40.1   0.0105 1.0045 170.9     21?   1.23 261.0   48  39 144  13
   2024 03 13 13:20  12 10 52.54    +02 29 38.2   0.0105 1.0045 170.9     21?   1.28 261.1   50  36 144  14
   2024 03 13 13:30  12 10 51.68    +02 29 36.2   0.0105 1.0045 170.9     21?   1.33 261.2   51  32 144  14
   2024 03 13 13:40  12 10 50.79    +02 29 34.2   0.0105 1.0045 170.9     21?   1.37 261.3   52  29 143  14
   2024 03 13 13:50  12 10 49.87    +02 29 32.1   0.0105 1.0045 170.9     21?   1.41 261.3   53  25 143  14
   2024 03 13 14:00  12 10 48.93    +02 29 29.9   0.0105 1.0045 171.0     21?   1.45 261.3   54  21 143  14
   2024 03 13 14:10  12 10 47.96    +02 29 27.7   0.0105 1.0045 171.0     21?   1.47 261.2   55  17 143  14
   2024 03 13 14:20  12 10 46.98    +02 29 25.5   0.0105 1.0045 171.0     21?   1.49 261.1   55  12 143  14
   2024 03 13 14:30  12 10 45.99    +02 29 23.1   0.0105 1.0045 171.0     21?   1.51 261.0   56   8 143  14
   2024 03 13 14:40  12 10 45.00    +02 29 20.8   0.0105 1.0045 171.0     21?   1.52 260.8   56   3 143  14
   2024 03 13 14:50  12 10 43.99    +02 29 18.3   0.0105 1.0045 171.0  t  21?   1.52 260.6   56 359 143  14
   2024 03 13 15:00  12 10 42.99    +02 29 15.8   0.0105 1.0045 171.0     21?   1.52 260.4   56 354 142  14
   2024 03 13 15:10  12 10 42.00    +02 29 13.3   0.0105 1.0045 171.0     21?   1.51 260.1   55 350 142  14
   2024 03 13 15:20  12 10 41.01    +02 29 10.7   0.0105 1.0045 171.0     21?   1.50 259.8   55 346 142  14
   2024 03 13 15:30  12 10 40.03    +02 29 08.0   0.0105 1.0045 171.0     21?   1.47 259.4   54 341 142  14
   2024 03 13 15:40  12 10 39.08    +02 29 05.3   0.0105 1.0045 171.1     21?   1.45 259.0   54 337 142  15
   2024 03 13 15:50  12 10 38.14    +02 29 02.5   0.0105 1.0045 171.1     21?   1.42 258.6   53 333 142  15
   2024 03 13 16:00  12 10 37.22    +02 28 59.7   0.0105 1.0045 171.1     21?   1.38 258.0   52 329 142  15
   2024 03 13 16:10  12 10 36.34    +02 28 56.8   0.0105 1.0045 171.1     21?   1.34 257.4   51 326 142  15
   2024 03 13 16:20  12 10 35.48    +02 28 53.9   0.0105 1.0045 171.1     21?   1.29 256.7   49 322 141  15
   2024 03 13 16:30  12 10 34.67    +02 28 50.9   0.0105 1.0045 171.1     21?   1.23 255.8   48 319 141  15
   2024 03 13 16:40  12 10 33.89    +02 28 47.9   0.0105 1.0045 171.1     21?   1.18 254.9   47 316 141  15
   2024 03 13 16:50  12 10 33.15    +02 28 44.8   0.0105 1.0045 171.1     21?   1.11 253.7   45 313 141  15
   2024 03 13 17:00  12 10 32.46    +02 28 41.7   0.0105 1.0045 171.1     21?   1.04 252.3   44 310 141  15
   2024 03 13 17:10  12 10 31.82    +02 28 38.5   0.0105 1.0045 171.1     21?   0.97 250.7   42 308 141  15
   2024 03 13 17:20  12 10 31.24    +02 28 35.3   0.0105 1.0045 171.2     21?   0.90 248.7   40 305 141  15
   2024 03 13 17:30  12 10 30.71    +02 28 32.0   0.0105 1.0045 171.2     21?   0.82 246.2   38 303 140  15
   2024 03 13 17:40  12 10 30.24    +02 28 28.7   0.0105 1.0045 171.2     21?   0.74 243.1   37 301 140  15
   2024 03 13 17:50  12 10 29.83    +02 28 25.3   0.0105 1.0045 171.2     21?   0.65 238.9   35 299 140  16
   2024 03 13 18:00  12 10 29.49    +02 28 21.9   0.0105 1.0045 171.2     21?   0.57 233.5   33 297 140  16
   2024 03 13 18:10  12 10 29.22    +02 28 18.5   0.0105 1.0045 171.2     21?   0.50 225.9   31 295 140  16
   2024 03 13 18:20  12 10 29.02    +02 28 15.0   0.0105 1.0045 171.2     21?   0.43 215.5   29 293 140  16
   2024 03 13 18:30  12 10 28.89    +02 28 11.5   0.0105 1.0045 171.2     21?   0.38 201.3   27 291 140  16
   2024 03 13 18:40  12 10 28.83    +02 28 08.0   0.0105 1.0045 171.2     21?   0.36 183.6   25 290 140  16
   2024 03 13 18:50  12 10 28.86    +02 28 04.4   0.0105 1.0045 171.2 A   21?   0.37 165.0   23 288 139  16
   2024 03 13 19:00  12 10 28.96    +02 28 00.9   0.0105 1.0045 171.2 A   21?   0.42 149.0   21 286 139  16
   2024 03 13 19:10  12 10 29.15    +02 27 57.2   0.0105 1.0045 171.2 A   21?   0.50 136.8   19 285 139  16
   2024 03 13 19:20  12 10 29.41    +02 27 53.6   0.0105 1.0045 171.2 N   21?   0.59 128.0   17 283 139  16
   2024 03 13 19:30  12 10 29.77    +02 27 50.0   0.0105 1.0045 171.2 N   21?   0.70 121.6   15 282 139  16
   2024 03 13 19:40  12 10 30.21    +02 27 46.3   0.0105 1.0045 171.3 C   21?   0.81 116.9   13 281 139  16
   2024 03 13 19:50  12 10 30.73    +02 27 42.6   0.0105 1.0045 171.3 C   21?   0.93 113.3   11 279 139  16
   ................
   2024 03 14 09:00  12 13 30.73    +02 24 20.4   0.0105 1.0047 171.0 Nm  21?   1.48  94.9    1  86 133  21
   2024 03 14 09:10  12 13 31.67    +02 24 19.1   0.0105 1.0047 171.0 Nm  21?   1.34  95.4    3  85 132  21
   2024 03 14 09:20  12 13 32.52    +02 24 17.8   0.0105 1.0047 171.0 Am  21?   1.21  96.1    5  83 132  21
   2024 03 14 09:30  12 13 33.27    +02 24 16.6   0.0105 1.0047 171.0 Am  21?   1.07  96.9    7  82 132  21
   2024 03 14 09:40  12 13 33.94    +02 24 15.3   0.0105 1.0047 171.0 Am  21?   0.94  98.0    9  81 132  21
   2024 03 14 09:50  12 13 34.52    +02 24 14.0   0.0105 1.0047 171.0  m  21?   0.81  99.3   11  79 132  21
   2024 03 14 10:00  12 13 35.01    +02 24 12.6   0.0105 1.0047 171.0  m  21?   0.68 101.2   13  78 132  21
   2024 03 14 10:10  12 13 35.41    +02 24 11.3   0.0105 1.0047 171.0  m  21?   0.56 104.0   16  77 132  21
   2024 03 14 10:20  12 13 35.73    +02 24 09.9   0.0105 1.0047 171.0  m  21?   0.43 108.4   18  75 132  21
   2024 03 14 10:30  12 13 35.96    +02 24 08.5   0.0105 1.0047 171.0  m  21?   0.32 115.9   20  74 132  21
   2024 03 14 10:40  12 13 36.11    +02 24 07.1   0.0105 1.0047 171.0  m  21?   0.22 130.8   22  72 132  21
   2024 03 14 10:50  12 13 36.18    +02 24 05.7   0.0105 1.0047 171.1  m  21?   0.15 162.9   24  71 132  21
   2024 03 14 11:00  12 13 36.17    +02 24 04.2   0.0105 1.0047 171.1     21?   0.16 206.0   26  69 132  21
   2024 03 14 11:10  12 13 36.08    +02 24 02.7   0.0105 1.0047 171.1     21?   0.24 230.9   28  67 131  21
   2024 03 14 11:20  12 13 35.92    +02 24 01.2   0.0105 1.0047 171.1     21?   0.33 242.4   30  65 131  22
   2024 03 14 11:30  12 13 35.69    +02 23 59.6   0.0105 1.0047 171.1     21?   0.43 248.5   32  64 131  22
   2024 03 14 11:40  12 13 35.39    +02 23 58.1   0.0105 1.0047 171.1     21?   0.53 252.2   34  62 131  22
   2024 03 14 11:50  12 13 35.02    +02 23 56.4   0.0105 1.0047 171.1     21?   0.63 254.6   36  60 131  22
   2024 03 14 12:00  12 13 34.58    +02 23 54.7   0.0105 1.0047 171.1     21?   0.72 256.3   37  57 131  22
   2024 03 14 12:10  12 13 34.09    +02 23 53.0   0.0105 1.0047 171.1     21?   0.81 257.5   39  55 131  22
   2024 03 14 12:20  12 13 33.53    +02 23 51.3   0.0105 1.0048 171.1     21?   0.89 258.4   41  53 131  22
   2024 03 14 12:30  12 13 32.92    +02 23 49.5   0.0105 1.0048 171.1     21?   0.97 259.1   43  50 131  22
   2024 03 14 12:40  12 13 32.26    +02 23 47.6   0.0105 1.0048 171.1     21?   1.05 259.6   44  48 131  22
   2024 03 14 12:50  12 13 31.55    +02 23 45.7   0.0105 1.0048 171.1     21?   1.12 260.1   46  45 131  22
   2024 03 14 13:00  12 13 30.79    +02 23 43.8   0.0105 1.0048 171.2     21?   1.18 260.4   47  42 130  22
   2024 03 14 13:10  12 13 30.00    +02 23 41.8   0.0105 1.0048 171.2     21?   1.24 260.6   49  39 130  22
   2024 03 14 13:20  12 13 29.16    +02 23 39.8   0.0105 1.0048 171.2     21?   1.29 260.8   50  35 130  22
   2024 03 14 13:30  12 13 28.29    +02 23 37.7   0.0105 1.0048 171.2     21?   1.34 260.9   51  32 130  22
   2024 03 14 13:40  12 13 27.39    +02 23 35.5   0.0105 1.0048 171.2     21?   1.39 260.9   52  28 130  22
   2024 03 14 13:50  12 13 26.47    +02 23 33.3   0.0105 1.0048 171.2     21?   1.42 261.0   53  24 130  23
   2024 03 14 14:00  12 13 25.52    +02 23 31.1   0.0105 1.0048 171.2     21?   1.46 261.0   54  20 130  23
   2024 03 14 14:10  12 13 24.55    +02 23 28.8   0.0105 1.0048 171.2     21?   1.48 260.9   55  16 130  23
   2024 03 14 14:20  12 13 23.56    +02 23 26.4   0.0105 1.0048 171.2     21?   1.50 260.8   55  12 130  23
   2024 03 14 14:30  12 13 22.57    +02 23 24.0   0.0105 1.0048 171.3     21?   1.52 260.7   56   7 129  23
   2024 03 14 14:40  12 13 21.57    +02 23 21.6   0.0105 1.0048 171.3     21?   1.53 260.5   56   3 129  23
   2024 03 14 14:50  12 13 20.56    +02 23 19.0   0.0105 1.0048 171.3  t  21?   1.53 260.3   56 358 129  23
   2024 03 14 15:00  12 13 19.56    +02 23 16.5   0.0105 1.0048 171.3     21?   1.52 260.1   56 354 129  23
   2024 03 14 15:10  12 13 18.56    +02 23 13.8   0.0105 1.0048 171.3     21?   1.51 259.8   56 349 129  23
   2024 03 14 15:20  12 13 17.57    +02 23 11.2   0.0105 1.0048 171.3     21?   1.50 259.5   55 345 129  23
   2024 03 14 15:30  12 13 16.59    +02 23 08.4   0.0105 1.0048 171.3     21?   1.48 259.2   54 341 129  23
   2024 03 14 15:40  12 13 15.63    +02 23 05.6   0.0105 1.0048 171.3     21?   1.45 258.8   54 337 129  23
   2024 03 14 15:50  12 13 14.69    +02 23 02.8   0.0105 1.0048 171.3     21?   1.42 258.3   53 333 128  24
   2024 03 14 16:00  12 13 13.78    +02 22 59.9   0.0105 1.0048 171.3     21?   1.38 257.7   52 329 128  24
   2024 03 14 16:10  12 13 12.89    +02 22 56.9   0.0105 1.0048 171.4     21?   1.34 257.1   51 325 128  24
   2024 03 14 16:20  12 13 12.04    +02 22 53.9   0.0105 1.0048 171.4     21?   1.29 256.4   49 322 128  24
   2024 03 14 16:30  12 13 11.23    +02 22 50.9   0.0105 1.0048 171.4     21?   1.23 255.5   48 319 128  24
   2024 03 14 16:40  12 13 10.45    +02 22 47.8   0.0105 1.0048 171.4     21?   1.17 254.5   47 316 128  24
   2024 03 14 16:50  12 13 09.72    +02 22 44.7   0.0105 1.0048 171.4     21?   1.11 253.4   45 313 128  24
   2024 03 14 17:00  12 13 09.03    +02 22 41.5   0.0105 1.0048 171.4     21?   1.04 252.0   43 310 128  24
   2024 03 14 17:10  12 13 08.39    +02 22 38.2   0.0105 1.0048 171.4     21?   0.97 250.3   42 307 127  24
   2024 03 14 17:20  12 13 07.81    +02 22 35.0   0.0105 1.0048 171.4     21?   0.89 248.3   40 305 127  24
   2024 03 14 17:30  12 13 07.29    +02 22 31.6   0.0105 1.0048 171.4     21?   0.81 245.7   38 303 127  24
   2024 03 14 17:40  12 13 06.82    +02 22 28.3   0.0105 1.0048 171.4     21?   0.73 242.5   36 300 127  25
   2024 03 14 17:50  12 13 06.42    +02 22 24.9   0.0105 1.0048 171.4     21?   0.65 238.3   35 298 127  25
   2024 03 14 18:00  12 13 06.08    +02 22 21.4   0.0105 1.0048 171.5     21?   0.57 232.7   33 296 127  25
   2024 03 14 18:10  12 13 05.81    +02 22 18.0   0.0105 1.0048 171.5     21?   0.49 225.0   31 294 127  25
   2024 03 14 18:20  12 13 05.62    +02 22 14.5   0.0105 1.0048 171.5     21?   0.43 214.4   29 293 127  25
   2024 03 14 18:30  12 13 05.49    +02 22 10.9   0.0105 1.0048 171.5     21?   0.38 200.0   27 291 126  25
   2024 03 14 18:40  12 13 05.44    +02 22 07.4   0.0105 1.0048 171.5     21?   0.36 182.3   25 289 126  25
   2024 03 14 18:50  12 13 05.47    +02 22 03.8   0.0105 1.0048 171.5 A   21?   0.38 163.9   23 288 126  25
   2024 03 14 19:00  12 13 05.58    +02 22 00.1   0.0105 1.0048 171.5 A   21?   0.43 148.2   21 286 126  25
   2024 03 14 19:10  12 13 05.77    +02 21 56.5   0.0105 1.0048 171.5 A   21?   0.50 136.3   19 285 126  25
   2024 03 14 19:20  12 13 06.05    +02 21 52.8   0.0105 1.0048 171.5 N   21?   0.60 127.7   17 283 126  25
   2024 03 14 19:30  12 13 06.41    +02 21 49.2   0.0105 1.0048 171.5 N   21?   0.71 121.5   15 282 126  26
   2024 03 14 19:40  12 13 06.85    +02 21 45.5   0.0105 1.0048 171.5 C   21?   0.82 116.8   12 280 126  26
   2024 03 14 19:50  12 13 07.38    +02 21 41.7   0.0105 1.0048 171.5 C   21?   0.94 113.2   10 279 125  26
   ................
   2024 03 15 08:50  12 16 05.72    +02 18 14.6   0.0105 1.0050 171.3 Nr  21?   1.59  95.1    0  87 119  31
   2024 03 15 09:00  12 16 06.74    +02 18 13.2   0.0105 1.0050 171.3 Nm  21?   1.45  95.6    1  86 119  31
   2024 03 15 09:10  12 16 07.65    +02 18 11.8   0.0105 1.0050 171.3 Nm  21?   1.32  96.2    3  85 119  31
   2024 03 15 09:20  12 16 08.48    +02 18 10.3   0.0105 1.0050 171.3 Am  21?   1.18  96.9    5  83 119  31
   2024 03 15 09:30  12 16 09.22    +02 18 08.9   0.0105 1.0050 171.3 Am  21?   1.05  97.9    7  82 119  31
   2024 03 15 09:40  12 16 09.87    +02 18 07.4   0.0105 1.0050 171.3 Am  21?   0.92  99.1   10  81 119  31
   2024 03 15 09:50  12 16 10.43    +02 18 06.0   0.0105 1.0050 171.3  m  21?   0.79 100.7   12  79 119  31
   2024 03 15 10:00  12 16 10.91    +02 18 04.5   0.0105 1.0050 171.3  m  21?   0.66 102.9   14  78 119  31
   2024 03 15 10:10  12 16 11.29    +02 18 03.0   0.0105 1.0050 171.3  m  21?   0.54 106.2   16  77 119  31
   2024 03 15 10:20  12 16 11.60    +02 18 01.5   0.0105 1.0050 171.3  m  21?   0.42 111.3   18  75 119  31
   2024 03 15 10:30  12 16 11.81    +02 18 00.0   0.0105 1.0050 171.3  m  21?   0.31 120.3   20  74 119  31
   2024 03 15 10:40  12 16 11.95    +02 17 58.4   0.0105 1.0050 171.3  m  21?   0.21 137.8   22  72 119  31
   2024 03 15 10:50  12 16 12.00    +02 17 56.8   0.0105 1.0050 171.3  m  21?   0.16 171.7   24  70 118  31
   2024 03 15 11:00  12 16 11.98    +02 17 55.2   0.0105 1.0050 171.3  m  21?   0.19 209.8   26  69 118  31
   2024 03 15 11:10  12 16 11.88    +02 17 53.6   0.0105 1.0050 171.3  m  21?   0.26 231.2   28  67 118  31
   2024 03 15 11:20  12 16 11.71    +02 17 51.9   0.0105 1.0050 171.3  m  21?   0.36 241.8   30  65 118  31
   2024 03 15 11:30  12 16 11.46    +02 17 50.2   0.0105 1.0050 171.3  m  21?   0.45 247.7   32  63 118  31
   2024 03 15 11:40  12 16 11.15    +02 17 48.5   0.0105 1.0050 171.3     21?   0.55 251.4   34  61 118  32
   2024 03 15 11:50  12 16 10.76    +02 17 46.7   0.0105 1.0050 171.4     21?   0.65 253.8   36  59 118  32
   2024 03 15 12:00  12 16 10.32    +02 17 44.9   0.0105 1.0050 171.4     21?   0.74 255.6   38  57 118  32
   2024 03 15 12:10  12 16 09.81    +02 17 43.0   0.0105 1.0050 171.4     21?   0.82 256.8   39  55 118  32
   2024 03 15 12:20  12 16 09.25    +02 17 41.1   0.0105 1.0050 171.4     21?   0.91 257.8   41  53 118  32
   2024 03 15 12:30  12 16 08.63    +02 17 39.2   0.0105 1.0050 171.4     21?   0.99 258.5   43  50 118  32
   2024 03 15 12:40  12 16 07.96    +02 17 37.2   0.0105 1.0050 171.4     21?   1.06 259.1   45  47 118  32
   2024 03 15 12:50  12 16 07.24    +02 17 35.2   0.0105 1.0051 171.4     21?   1.13 259.5   46  45 117  32
   2024 03 15 13:00  12 16 06.48    +02 17 33.1   0.0105 1.0051 171.4     21?   1.19 259.9   48  42 117  32
   2024 03 15 13:10  12 16 05.67    +02 17 31.0   0.0105 1.0051 171.4     21?   1.25 260.1   49  38 117  32
   2024 03 15 13:20  12 16 04.83    +02 17 28.9   0.0105 1.0051 171.4     21?   1.31 260.3   50  35 117  32
   2024 03 15 13:30  12 16 03.95    +02 17 26.6   0.0105 1.0051 171.4     21?   1.35 260.4   51  32 117  32
   2024 03 15 13:40  12 16 03.05    +02 17 24.4   0.0105 1.0051 171.5     21?   1.40 260.5   53  28 117  32
   2024 03 15 13:50  12 16 02.12    +02 17 22.1   0.0105 1.0051 171.5     21?   1.43 260.6   53  24 117  32
   2024 03 15 14:00  12 16 01.16    +02 17 19.7   0.0105 1.0051 171.5     21?   1.46 260.6   54  20 117  32
   2024 03 15 14:10  12 16 00.19    +02 17 17.3   0.0105 1.0051 171.5     21?   1.49 260.5   55  16 117  33
   2024 03 15 14:20  12 15 59.20    +02 17 14.8   0.0105 1.0051 171.5     21?   1.51 260.4   55  11 117  33
   2024 03 15 14:30  12 15 58.21    +02 17 12.3   0.0105 1.0051 171.5     21?   1.52 260.3   56   7 116  33
   2024 03 15 14:40  12 15 57.20    +02 17 09.7   0.0105 1.0051 171.5     21?   1.53 260.2   56   2 116  33
   2024 03 15 14:50  12 15 56.20    +02 17 07.1   0.0105 1.0051 171.5  t  21?   1.53 260.0   56 358 116  33
   2024 03 15 15:00  12 15 55.19    +02 17 04.4   0.0105 1.0051 171.5     21?   1.53 259.8   56 353 116  33
   2024 03 15 15:10  12 15 54.19    +02 17 01.7   0.0105 1.0051 171.6     21?   1.52 259.5   56 349 116  33
   2024 03 15 15:20  12 15 53.20    +02 16 58.9   0.0105 1.0051 171.6     21?   1.50 259.2   55 344 116  33
   2024 03 15 15:30  12 15 52.23    +02 16 56.1   0.0105 1.0051 171.6     21?   1.48 258.8   54 340 116  33
   2024 03 15 15:40  12 15 51.27    +02 16 53.2   0.0105 1.0051 171.6     21?   1.45 258.4   54 336 116  33
   2024 03 15 15:50  12 15 50.33    +02 16 50.3   0.0105 1.0051 171.6     21?   1.42 257.9   53 332 116  33
   2024 03 15 16:00  12 15 49.42    +02 16 47.3   0.0105 1.0051 171.6     21?   1.38 257.4   52 328 115  34
   2024 03 15 16:10  12 15 48.54    +02 16 44.3   0.0105 1.0051 171.6     21?   1.33 256.7   51 325 115  34
   2024 03 15 16:20  12 15 47.69    +02 16 41.2   0.0105 1.0051 171.6     21?   1.28 256.0   49 321 115  34
   2024 03 15 16:30  12 15 46.88    +02 16 38.1   0.0105 1.0051 171.6     21?   1.23 255.1   48 318 115  34
   2024 03 15 16:40  12 15 46.10    +02 16 34.9   0.0105 1.0051 171.6     21?   1.17 254.1   46 315 115  34
   2024 03 15 16:50  12 15 45.37    +02 16 31.7   0.0105 1.0051 171.7     21?   1.11 252.9   45 312 115  34
   2024 03 15 17:00  12 15 44.69    +02 16 28.4   0.0105 1.0051 171.7     21?   1.04 251.5   43 309 115  34
   2024 03 15 17:10  12 15 44.06    +02 16 25.1   0.0105 1.0051 171.7     21?   0.96 249.8   42 307 115  34
   2024 03 15 17:20  12 15 43.49    +02 16 21.8   0.0105 1.0051 171.7     21?   0.89 247.7   40 305 114  34
   2024 03 15 17:30  12 15 42.97    +02 16 18.4   0.0105 1.0051 171.7     21?   0.81 245.1   38 302 114  34
   2024 03 15 17:40  12 15 42.51    +02 16 15.0   0.0105 1.0051 171.7     21?   0.73 241.7   36 300 114  34
   2024 03 15 17:50  12 15 42.11    +02 16 11.5   0.0105 1.0051 171.7     21?   0.65 237.4   34 298 114  35
   2024 03 15 18:00  12 15 41.78    +02 16 08.0   0.0105 1.0051 171.7     21?   0.57 231.6   33 296 114  35
   2024 03 15 18:10  12 15 41.52    +02 16 04.5   0.0105 1.0051 171.7     21?   0.49 223.7   31 294 114  35
   2024 03 15 18:20  12 15 41.33    +02 16 00.9   0.0105 1.0051 171.7     21?   0.43 212.8   29 292 114  35
   2024 03 15 18:30  12 15 41.21    +02 15 57.4   0.0105 1.0051 171.7     21?   0.38 198.2   27 291 114  35
   2024 03 15 18:40  12 15 41.17    +02 15 53.7   0.0105 1.0051 171.7     21?   0.36 180.5   25 289 113  35
   2024 03 15 18:50  12 15 41.21    +02 15 50.1   0.0105 1.0051 171.7 A   21?   0.38 162.5   23 287 113  35
   2024 03 15 19:00  12 15 41.32    +02 15 46.4   0.0105 1.0051 171.7 A   21?   0.44 147.3   21 286 113  35
   2024 03 15 19:10  12 15 41.52    +02 15 42.7   0.0105 1.0051 171.8 A   21?   0.52 135.8   18 284 113  35
   2024 03 15 19:20  12 15 41.80    +02 15 39.0   0.0105 1.0051 171.8 N   21?   0.61 127.4   16 283 113  35
   2024 03 15 19:30  12 15 42.17    +02 15 35.3   0.0105 1.0051 171.8 N   21?   0.72 121.3   14 281 113  36
   2024 03 15 19:40  12 15 42.62    +02 15 31.5   0.0105 1.0051 171.8 N   21?   0.83 116.7   12 280 113  36
   2024 03 15 19:50  12 15 43.17    +02 15 27.8   0.0105 1.0051 171.8 C   21?   0.95 113.2   10 279 113  36
   ................
   2024 03 16 08:50  12 18 41.01    +02 11 53.3   0.0106 1.0053 171.5 Nr  21?   1.57  95.8    0  87 106  41
   2024 03 16 09:00  12 18 42.00    +02 11 51.7   0.0106 1.0053 171.5 Nm  21?   1.43  96.3    1  86 106  41
   2024 03 16 09:10  12 18 42.90    +02 11 50.1   0.0106 1.0053 171.5 Nm  21?   1.30  97.0    4  85 106  41
   2024 03 16 09:20  12 18 43.72    +02 11 48.5   0.0106 1.0053 171.5 Am  21?   1.16  97.9    6  83 106  41
   2024 03 16 09:30  12 18 44.44    +02 11 46.9   0.0106 1.0053 171.5 Am  21?   1.03  99.0    8  82 106  41
   2024 03 16 09:40  12 18 45.07    +02 11 45.3   0.0106 1.0053 171.5 Am  21?   0.90 100.3   10  81 106  41
   2024 03 16 09:50  12 18 45.62    +02 11 43.7   0.0106 1.0053 171.5  m  21?   0.77 102.2   12  79 106  41
   2024 03 16 10:00  12 18 46.08    +02 11 42.0   0.0105 1.0053 171.5  m  21?   0.64 104.8   14  78 106  41
   2024 03 16 10:10  12 18 46.45    +02 11 40.4   0.0105 1.0053 171.5  m  21?   0.52 108.6   16  76 106  41
   2024 03 16 10:20  12 18 46.74    +02 11 38.7   0.0105 1.0053 171.5  m  21?   0.40 114.6   18  75 106  41
   2024 03 16 10:30  12 18 46.94    +02 11 37.0   0.0105 1.0053 171.6  m  21?   0.30 124.9   20  73 106  42
   2024 03 16 10:40  12 18 47.06    +02 11 35.3   0.0105 1.0053 171.6  m  21?   0.21 144.7   22  72 106  42
   2024 03 16 10:50  12 18 47.11    +02 11 33.5   0.0105 1.0053 171.6  m  21?   0.18 178.6   24  70 106  42
   2024 03 16 11:00  12 18 47.07    +02 11 31.8   0.0105 1.0053 171.6  m  21?   0.21 211.9   26  69 106  42
   2024 03 16 11:10  12 18 46.96    +02 11 30.0   0.0105 1.0053 171.6  m  21?   0.29 230.9   28  67 106  42
   2024 03 16 11:20  12 18 46.77    +02 11 28.1   0.0105 1.0053 171.6  m  21?   0.38 240.9   30  65 106  42
   2024 03 16 11:30  12 18 46.51    +02 11 26.3   0.0105 1.0053 171.6  m  21?   0.48 246.7   32  63 105  42
   2024 03 16 11:40  12 18 46.19    +02 11 24.4   0.0105 1.0053 171.6  m  21?   0.57 250.4   34  61 105  42
   2024 03 16 11:50  12 18 45.80    +02 11 22.4   0.0105 1.0053 171.6  m  21?   0.66 252.9   36  59 105  42
   2024 03 16 12:00  12 18 45.34    +02 11 20.5   0.0105 1.0053 171.6  m  21?   0.75 254.7   38  57 105  42
   2024 03 16 12:10  12 18 44.83    +02 11 18.5   0.0105 1.0053 171.6  m  21?   0.84 256.0   40  55 105  42
   2024 03 16 12:20  12 18 44.25    +02 11 16.4   0.0105 1.0053 171.6  m  21?   0.92 257.0   42  52 105  42
   2024 03 16 12:30  12 18 43.63    +02 11 14.4   0.0105 1.0053 171.6     21?   1.00 257.8   43  50 105  42
   2024 03 16 12:40  12 18 42.95    +02 11 12.2   0.0105 1.0053 171.6     21?   1.07 258.4   45  47 105  42
   2024 03 16 12:50  12 18 42.22    +02 11 10.1   0.0105 1.0053 171.7     21?   1.14 258.9   46  44 105  42
   2024 03 16 13:00  12 18 41.45    +02 11 07.9   0.0105 1.0053 171.7     21?   1.21 259.3   48  41 105  42
   2024 03 16 13:10  12 18 40.64    +02 11 05.6   0.0105 1.0054 171.7     21?   1.26 259.6   49  38 105  42
   2024 03 16 13:20  12 18 39.80    +02 11 03.3   0.0105 1.0054 171.7     21?   1.32 259.8   51  35 105  43
   2024 03 16 13:30  12 18 38.92    +02 11 01.0   0.0105 1.0054 171.7     21?   1.36 259.9   52  31 104  43
   2024 03 16 13:40  12 18 38.01    +02 10 58.6   0.0105 1.0054 171.7     21?   1.40 260.0   53  27 104  43
   2024 03 16 13:50  12 18 37.07    +02 10 56.1   0.0105 1.0054 171.7     21?   1.44 260.1   54  23 104  43
   2024 03 16 14:00  12 18 36.12    +02 10 53.6   0.0105 1.0054 171.7     21?   1.47 260.1   55  19 104  43
   2024 03 16 14:10  12 18 35.14    +02 10 51.1   0.0105 1.0054 171.7     21?   1.49 260.1   55  15 104  43
   2024 03 16 14:20  12 18 34.15    +02 10 48.5   0.0105 1.0054 171.7     21?   1.51 260.0   56  11 104  43
   2024 03 16 14:30  12 18 33.16    +02 10 45.9   0.0105 1.0054 171.8     21?   1.53 259.9   56   6 104  43
   2024 03 16 14:40  12 18 32.15    +02 10 43.2   0.0105 1.0054 171.8     21?   1.53 259.7   56   2 104  43
   2024 03 16 14:50  12 18 31.14    +02 10 40.5   0.0105 1.0054 171.8  t  21?   1.53 259.6   56 357 104  43
   2024 03 16 15:00  12 18 30.14    +02 10 37.7   0.0105 1.0054 171.8     21?   1.53 259.3   56 353 104  43
   2024 03 16 15:10  12 18 29.14    +02 10 34.8   0.0105 1.0054 171.8     21?   1.52 259.1   56 348 104  43
   2024 03 16 15:20  12 18 28.15    +02 10 32.0   0.0105 1.0054 171.8     21?   1.50 258.8   55 344 103  43
   2024 03 16 15:30  12 18 27.18    +02 10 29.0   0.0105 1.0054 171.8     21?   1.48 258.4   54 339 103  44
   2024 03 16 15:40  12 18 26.23    +02 10 26.0   0.0105 1.0054 171.8     21?   1.45 258.0   54 335 103  44
   2024 03 16 15:50  12 18 25.29    +02 10 23.0   0.0105 1.0054 171.8     21?   1.41 257.5   53 331 103  44
   2024 03 16 16:00  12 18 24.38    +02 10 19.9   0.0105 1.0054 171.9     21?   1.38 256.9   52 328 103  44
   2024 03 16 16:10  12 18 23.51    +02 10 16.8   0.0105 1.0054 171.9     21?   1.33 256.3   50 324 103  44
   2024 03 16 16:20  12 18 22.66    +02 10 13.6   0.0105 1.0054 171.9     21?   1.28 255.5   49 321 103  44
   2024 03 16 16:30  12 18 21.85    +02 10 10.4   0.0105 1.0054 171.9     21?   1.22 254.6   48 318 103  44
   2024 03 16 16:40  12 18 21.09    +02 10 07.2   0.0105 1.0054 171.9     21?   1.16 253.6   46 315 103  44
   2024 03 16 16:50  12 18 20.36    +02 10 03.9   0.0105 1.0054 171.9     21?   1.10 252.4   45 312 102  44
   2024 03 16 17:00  12 18 19.69    +02 10 00.5   0.0105 1.0054 171.9     21?   1.03 250.9   43 309 102  44
   2024 03 16 17:10  12 18 19.06    +02 09 57.2   0.0105 1.0054 171.9     21?   0.96 249.1   41 307 102  44
   2024 03 16 17:20  12 18 18.49    +02 09 53.7   0.0105 1.0054 171.9     21?   0.88 247.0   40 304 102  45
   2024 03 16 17:30  12 18 17.98    +02 09 50.3   0.0105 1.0054 171.9     21?   0.80 244.3   38 302 102  45
   2024 03 16 17:40  12 18 17.53    +02 09 46.8   0.0105 1.0054 171.9     21?   0.72 240.8   36 300 102  45
   2024 03 16 17:50  12 18 17.14    +02 09 43.3   0.0105 1.0054 171.9     21?   0.64 236.3   34 298 102  45
   2024 03 16 18:00  12 18 16.82    +02 09 39.7   0.0105 1.0054 172.0     21?   0.56 230.3   32 296 102  45
   2024 03 16 18:10  12 18 16.57    +02 09 36.1   0.0105 1.0054 172.0     21?   0.49 222.1   30 294 101  45
   2024 03 16 18:20  12 18 16.38    +02 09 32.5   0.0105 1.0054 172.0     21?   0.42 210.9   28 292 101  45
   2024 03 16 18:30  12 18 16.27    +02 09 28.8   0.0105 1.0054 172.0     21?   0.38 196.1   26 290 101  45
   2024 03 16 18:40  12 18 16.24    +02 09 25.1   0.0105 1.0054 172.0     21?   0.37 178.5   24 289 101  45
   2024 03 16 18:50  12 18 16.29    +02 09 21.4   0.0106 1.0054 172.0 A   21?   0.39 160.9   22 287 101  45
   2024 03 16 19:00  12 18 16.41    +02 09 17.7   0.0106 1.0054 172.0 A   21?   0.45 146.2   20 285 101  46
   2024 03 16 19:10  12 18 16.62    +02 09 14.0   0.0106 1.0054 172.0 A   21?   0.53 135.1   18 284 101  46
   2024 03 16 19:20  12 18 16.91    +02 09 10.2   0.0106 1.0054 172.0 N   21?   0.63 127.0   16 283 101  46
   2024 03 16 19:30  12 18 17.29    +02 09 06.4   0.0106 1.0054 172.0 N   21?   0.73 121.1   14 281 101  46
   2024 03 16 19:40  12 18 17.75    +02 09 02.6   0.0106 1.0054 172.0 N   21?   0.85 116.6   12 280 100  46
   2024 03 16 19:50  12 18 18.30    +02 08 58.8   0.0106 1.0054 172.0 C   21?   0.97 113.2   10 278 100  46
   ................
   2024 03 17 08:50  12 21 15.72    +02 05 16.2   0.0106 1.0056 171.8 Nr  21?   1.54  96.5    0  87  94  52
   2024 03 17 09:00  12 21 16.70    +02 05 14.5   0.0106 1.0056 171.8 Nm  21?   1.41  97.2    2  86  94  52
   2024 03 17 09:10  12 21 17.59    +02 05 12.7   0.0106 1.0056 171.8 Nm  21?   1.28  97.9    4  85  94  52
   2024 03 17 09:20  12 21 18.38    +02 05 10.9   0.0106 1.0056 171.8 Am  21?   1.14  98.9    6  83  94  52
   2024 03 17 09:30  12 21 19.09    +02 05 09.2   0.0106 1.0056 171.8 Am  21?   1.01 100.1    8  82  94  52
   2024 03 17 09:40  12 21 19.71    +02 05 07.4   0.0106 1.0056 171.8  m  21?   0.88 101.7   10  81  94  52
   2024 03 17 09:50  12 21 20.24    +02 05 05.6   0.0106 1.0056 171.8  m  21?   0.75 103.8   12  79  94  52
   2024 03 17 10:00  12 21 20.69    +02 05 03.8   0.0106 1.0056 171.8  m  21?   0.63 106.8   15  78  94  52
   2024 03 17 10:10  12 21 21.05    +02 05 01.9   0.0106 1.0056 171.8  m  21?   0.51 111.1   17  76  94  52
   2024 03 17 10:20  12 21 21.32    +02 05 00.1   0.0106 1.0056 171.8  m  21?   0.39 118.0   19  75  94  52
   2024 03 17 10:30  12 21 21.51    +02 04 58.2   0.0106 1.0056 171.8  m  21?   0.29 129.8   21  73  94  52
   2024 03 17 10:40  12 21 21.62    +02 04 56.3   0.0106 1.0056 171.8  m  21?   0.22 151.2   23  72  93  52
   2024 03 17 10:50  12 21 21.65    +02 04 54.4   0.0106 1.0056 171.8  m  21?   0.19 184.1   25  70  93  52
   2024 03 17 11:00  12 21 21.60    +02 04 52.5   0.0106 1.0056 171.8  m  21?   0.23 213.3   27  68  93  52
   2024 03 17 11:10  12 21 21.48    +02 04 50.5   0.0106 1.0056 171.8  m  21?   0.31 230.5   29  67  93  52
   2024 03 17 11:20  12 21 21.28    +02 04 48.5   0.0106 1.0056 171.8  m  21?   0.40 240.0   31  65  93  52
   2024 03 17 11:30  12 21 21.02    +02 04 46.5   0.0106 1.0056 171.8  m  21?   0.50 245.7   33  63  93  52
   2024 03 17 11:40  12 21 20.68    +02 04 44.4   0.0106 1.0056 171.8  m  21?   0.59 249.4   35  61  93  52
   2024 03 17 11:50  12 21 20.28    +02 04 42.3   0.0106 1.0056 171.8  m  21?   0.68 252.0   36  59  93  52
   2024 03 17 12:00  12 21 19.82    +02 04 40.2   0.0106 1.0056 171.9  m  21?   0.77 253.8   38  57  93  52
   2024 03 17 12:10  12 21 19.29    +02 04 38.1   0.0106 1.0056 171.9  m  21?   0.86 255.2   40  55  93  52
   2024 03 17 12:20  12 21 18.71    +02 04 35.9   0.0106 1.0056 171.9  m  21?   0.94 256.3   42  52  93  53
   2024 03 17 12:30  12 21 18.08    +02 04 33.6   0.0106 1.0056 171.9  m  21?   1.01 257.1   44  50  93  53
   2024 03 17 12:40  12 21 17.39    +02 04 31.4   0.0106 1.0056 171.9  m  21?   1.09 257.8   45  47  93  53
   2024 03 17 12:50  12 21 16.66    +02 04 29.0   0.0106 1.0056 171.9  m  21?   1.15 258.3   47  44  93  53
   2024 03 17 13:00  12 21 15.89    +02 04 26.7   0.0106 1.0056 171.9  m  21?   1.22 258.7   48  41  93  53
   2024 03 17 13:10  12 21 15.07    +02 04 24.3   0.0106 1.0056 171.9  m  21?   1.27 259.0   50  38  92  53
   2024 03 17 13:20  12 21 14.22    +02 04 21.9   0.0106 1.0056 171.9     21?   1.32 259.2   51  34  92  53
   2024 03 17 13:30  12 21 13.34    +02 04 19.4   0.0105 1.0056 171.9     21?   1.37 259.4   52  31  92  53
   2024 03 17 13:40  12 21 12.43    +02 04 16.8   0.0105 1.0057 171.9     21?   1.41 259.5   53  27  92  53
   2024 03 17 13:50  12 21 11.49    +02 04 14.3   0.0105 1.0057 172.0     21?   1.45 259.6   54  23  92  53
   2024 03 17 14:00  12 21 10.53    +02 04 11.6   0.0105 1.0057 172.0     21?   1.48 259.6   55  19  92  53
   2024 03 17 14:10  12 21 09.55    +02 04 09.0   0.0105 1.0057 172.0     21?   1.50 259.6   55  15  92  53
   2024 03 17 14:20  12 21 08.56    +02 04 06.3   0.0105 1.0057 172.0     21?   1.52 259.5   56  10  92  53
   2024 03 17 14:30  12 21 07.57    +02 04 03.5   0.0105 1.0057 172.0     21?   1.53 259.4   56   6  92  53
   2024 03 17 14:40  12 21 06.56    +02 04 00.7   0.0105 1.0057 172.0     21?   1.53 259.3   56   1  92  53
   2024 03 17 14:50  12 21 05.56    +02 03 57.8   0.0105 1.0057 172.0  t  21?   1.53 259.1   56 356  92  53
   2024 03 17 15:00  12 21 04.55    +02 03 54.9   0.0105 1.0057 172.0     21?   1.53 258.9   56 352  91  54
   2024 03 17 15:10  12 21 03.56    +02 03 52.0   0.0105 1.0057 172.0     21?   1.52 258.6   56 347  91  54
   2024 03 17 15:20  12 21 02.57    +02 03 49.0   0.0106 1.0057 172.0     21?   1.50 258.3   55 343  91  54
   2024 03 17 15:30  12 21 01.60    +02 03 46.0   0.0106 1.0057 172.1     21?   1.47 258.0   54 339  91  54
   2024 03 17 15:40  12 21 00.65    +02 03 42.9   0.0106 1.0057 172.1     21?   1.45 257.5   54 335  91  54
   2024 03 17 15:50  12 20 59.72    +02 03 39.7   0.0106 1.0057 172.1     21?   1.41 257.0   53 331  91  54
   2024 03 17 16:00  12 20 58.82    +02 03 36.6   0.0106 1.0057 172.1     21?   1.37 256.5   52 327  91  54
   2024 03 17 16:10  12 20 57.94    +02 03 33.3   0.0106 1.0057 172.1     21?   1.33 255.8   50 324  91  54
   2024 03 17 16:20  12 20 57.10    +02 03 30.1   0.0106 1.0057 172.1     21?   1.27 255.0   49 320  91  54
   2024 03 17 16:30  12 20 56.30    +02 03 26.8   0.0106 1.0057 172.1     21?   1.22 254.1   48 317  91  54
   2024 03 17 16:40  12 20 55.54    +02 03 23.4   0.0106 1.0057 172.1     21?   1.16 253.0   46 314  90  54
   2024 03 17 16:50  12 20 54.82    +02 03 20.0   0.0106 1.0057 172.1     21?   1.09 251.8   45 311  90  54
   2024 03 17 17:00  12 20 54.16    +02 03 16.6   0.0106 1.0057 172.1     21?   1.02 250.3   43 309  90  55
   2024 03 17 17:10  12 20 53.54    +02 03 13.2   0.0106 1.0057 172.2     21?   0.95 248.5   41 306  90  55
   2024 03 17 17:20  12 20 52.98    +02 03 09.7   0.0106 1.0057 172.2     21?   0.87 246.2   40 304  90  55
   2024 03 17 17:30  12 20 52.47    +02 03 06.1   0.0106 1.0057 172.2     21?   0.80 243.4   38 301  90  55
   2024 03 17 17:40  12 20 52.03    +02 03 02.6   0.0106 1.0057 172.2     21?   0.71 239.8   36 299  90  55
   2024 03 17 17:50  12 20 51.65    +02 02 59.0   0.0106 1.0057 172.2     21?   0.63 235.1   34 297  90  55
   2024 03 17 18:00  12 20 51.33    +02 02 55.3   0.0106 1.0057 172.2     21?   0.56 228.9   32 295  90  55
   2024 03 17 18:10  12 20 51.09    +02 02 51.7   0.0106 1.0057 172.2     21?   0.48 220.4   30 293  89  55
   2024 03 17 18:20  12 20 50.92    +02 02 48.0   0.0106 1.0057 172.2     21?   0.42 208.8   28 292  89  55
   2024 03 17 18:30  12 20 50.82    +02 02 44.2   0.0106 1.0057 172.2     21?   0.38 193.8   26 290  89  55
   2024 03 17 18:40  12 20 50.80    +02 02 40.5   0.0106 1.0057 172.2     21?   0.38 176.3   24 288  89  55
   2024 03 17 18:50  12 20 50.85    +02 02 36.7   0.0106 1.0057 172.2 A   21?   0.40 159.3   22 287  89  56
   2024 03 17 19:00  12 20 50.99    +02 02 33.0   0.0106 1.0057 172.2 A   21?   0.46 145.1   20 285  89  56
   2024 03 17 19:10  12 20 51.20    +02 02 29.1   0.0106 1.0057 172.2 A   21?   0.54 134.5   18 284  89  56
   2024 03 17 19:20  12 20 51.50    +02 02 25.3   0.0106 1.0057 172.2 N   21?   0.64 126.6   16 282  89  56
   2024 03 17 19:30  12 20 51.89    +02 02 21.5   0.0106 1.0057 172.2 N   21?   0.75 120.9   14 281  89  56
   2024 03 17 19:40  12 20 52.36    +02 02 17.6   0.0106 1.0057 172.3 N   21?   0.86 116.5   12 279  88  56
   2024 03 17 19:50  12 20 52.92    +02 02 13.8   0.0106 1.0057 172.3 C   21?   0.98 113.1   10 278  88  56
   2024 03 17 20:00  12 20 53.57    +02 02 09.9   0.0106 1.0057 172.3 C   21?   1.11 110.5    8 277  88  56
   ................
   

MMS-1 (JPL-ID: -140482)

   Date (UTC) HH:MM   RA              Dec         delta   r     elong SM  mag  '/hr    PA   alt  az moo ill
   ---- -- -- -----  -------------   -----------  ------ ------ ----- --  --- ------ ------ --- --- --- ---
   2024 03 04 08:40  23 14 09.62    -22 48 01.1   181910 0.9905  16.7 C   16?  36.53  42.1    9 249  77  42
   2024 03 04 08:50  23 14 27.73    -22 43 30.0   181926 0.9905  16.7 C   16?  37.30  43.4    7 247  77  42
   2024 03 04 09:00  23 14 46.66    -22 38 59.1   181936 0.9905  16.6 N   16?  38.07  44.7    5 246  77  42
   2024 03 04 09:10  23 15 06.40    -22 34 28.5   181942 0.9905  16.6 N   16?  38.85  46.0    3 245  77  42
   2024 03 04 09:20  23 15 26.96    -22 29 58.6   181942 0.9905  16.5 N   16?  39.63  47.2    1 244  77  42
   2024 03 04 09:30  23 15 48.31    -22 25 29.3   181937 0.9905  16.5 A   16?  40.41  48.3    0 243  77  42
   ................
   2024 03 05 08:40  00 08 31.38    -11 14 48.0   101520 0.9913  16.6 C   15?  89.61  35.0   14 265  80  32
   2024 03 05 08:50  00 09 07.12    -11 02 27.2   100679 0.9913  16.7 C   15?  92.38  35.9   11 264  80  32
   2024 03 05 09:00  00 09 44.77    -10 49 52.2    99828 0.9913  16.8 N   15?  95.26  36.8    9 263  81  32
   2024 03 05 09:10  00 10 24.39    -10 37 02.5    98966 0.9913  16.9 N   15?  98.25  37.7    7 262  81  31
   2024 03 05 09:20  00 11 06.02    -10 23 57.7    98092 0.9913  17.0 N   15? 101.35  38.5    5 261  81  31
   2024 03 05 09:30  00 11 49.74    -10 10 37.3    97206 0.9913  17.1 A   15? 104.58  39.4    3 260  81  31
   2024 03 05 09:40  00 12 35.60    -09 57 00.8    96307 0.9913  17.2 A   15? 107.93  40.1    1 259  81  31
   2024 03 05 09:50  00 13 23.67    -09 43 07.4    95395 0.9914  17.4 A   15? 111.41  40.9    0 258  81  31
   ................
   2024 03 05 18:30  13 15 59.20    +10 55 16.1     5073 0.9921 147.4  r   8?  20381 133.8   38 319  90  27
   2024 03 05 18:40  15 25 56.18    -19 21 57.2     6729 0.9921 111.3 Am   7?  10877 129.9   78 354  48  27
   2024 03 05 18:50  16 42 46.20    -31 49 21.7     9621 0.9921  91.8 At   7? 5336.6 120.6   76  96  29  27
   2024 03 05 19:00  17 31 51.73    -36 59 59.5    12652 0.9920  81.3 Am   8? 3149.3 113.0   68 112  20  27
   2024 03 05 19:10  18 06 04.30    -39 29 40.4    15590 0.9920  74.7 Nm   9? 2121.4 107.2   63 116  15  27
   2024 03 05 19:20  18 31 30.01    -40 49 18.1    18392 0.9920  70.1 Nm   9? 1555.0 102.8   60 118  14  27
   2024 03 05 19:30  18 51 18.15    -41 33 55.3    21059 0.9920  66.6 Nm  10? 1205.8  99.3   58 119  13  27
   2024 03 05 19:40  19 07 15.75    -41 59 13.6    23604 0.9920  63.9 Cm  10? 972.61  96.4   57 120  14  27
   2024 03 05 19:50  19 20 27.96    -42 13 04.9    26039 0.9920  61.6 Cm  10? 807.48  94.0   56 120  15  26
   ................
   2024 03 06 18:30  22 41 25.82    -29 19 45.3   165368 0.9913  24.8  m  16?  38.16  85.8    0 124  35  17
   2024 03 06 18:40  22 41 54.48    -29 19 17.7   165617 0.9913  24.8 Am  16?  36.82  85.8    2 123  35  17
   2024 03 06 18:50  22 42 22.12    -29 18 51.6   165859 0.9913  24.7 Am  16?  35.47  85.9    3 122  35  17
   2024 03 06 19:00  22 42 48.73    -29 18 26.6   166093 0.9913  24.7 Am  16?  34.12  85.9    5 120  36  17
   2024 03 06 19:10  22 43 14.30    -29 18 02.4   166321 0.9913  24.7 Nm  16?  32.76  85.9    7 119  36  17
   2024 03 06 19:20  22 43 38.84    -29 17 39.0   166542 0.9913  24.7 Nm  16?  31.41  85.8    9 118  36  17
   2024 03 06 19:30  22 44 02.34    -29 17 16.1   166758 0.9913  24.6 Nm  16?  30.06  85.7   11 117  36  17
   2024 03 06 19:40  22 44 24.81    -29 16 53.3   166968 0.9913  24.6 Cm  16?  28.72  85.5   12 116  36  17
   2024 03 06 19:50  22 44 46.25    -29 16 30.5   167173 0.9913  24.6 Cm  16?  27.38  85.2   14 115  36  17
   ................
   2024 03 07 08:40  22 53 21.99    -25 52 41.0   186716 0.9913  21.1 C   16?  38.26  47.8    4 242  32  13
   2024 03 07 08:50  22 53 43.42    -25 48 24.6   187009 0.9913  21.1 C   16?  38.91  49.0    2 241  32  13
   2024 03 07 09:00  22 54 05.58    -25 44 09.9   187295 0.9913  21.0 N   16?  39.56  50.1    0 240  32  13
   ................
   2024 03 07 19:30  23 25 57.19    -23 03 54.9   184866 0.9914  18.3 Nm  16?  30.38  77.5    0 116  32   9
   2024 03 07 19:40  23 26 18.32    -23 02 49.1   184499 0.9914  18.3 Cm  16?  29.38  77.2    2 115  32   9
   2024 03 07 19:50  23 26 38.72    -23 01 43.6   184127 0.9914  18.3 Cm  16?  28.37  76.8    4 114  32   9
   ................
   2024 03 08 08:40  23 34 24.63    -18 55 35.5   158514 0.9917  14.8 C   16?  44.50  40.4    8 252  29   6
   2024 03 08 08:50  23 34 45.45    -18 49 55.4   158232 0.9917  14.8 C   16?  45.53  41.7    6 251  29   6
   2024 03 08 09:00  23 35 07.26    -18 44 14.1   157943 0.9917  14.7 N   16?  46.58  42.9    4 250  29   6
   2024 03 08 09:10  23 35 30.07    -18 38 31.7   157649 0.9917  14.7 N   16?  47.64  44.1    2 249  29   6
   2024 03 08 09:20  23 35 53.87    -18 32 48.4   157348 0.9917  14.6 N   16?  48.71  45.2    0 248  29   6
   ................
   2024 03 09 17:20  21 57 59.61    -33 43 27.3   108806 0.9925  35.2     14?  81.45  86.9    0 129  26   0
   2024 03 09 17:30  21 59 03.58    -33 42 46.7   109634 0.9925  35.0     14?  78.49  86.9    2 128  26   0
   2024 03 09 17:40  22 00 05.21    -33 42 07.8   110449 0.9925  34.9     14?  75.59  86.9    3 127  26   0
   2024 03 09 17:50  22 01 04.53    -33 41 30.2   111251 0.9925  34.8     14?  72.75  86.9    5 126  26   0
   2024 03 09 18:00  22 02 01.59    -33 40 53.8   112041 0.9925  34.6     14?  69.96  86.9    6 125  26   0
   2024 03 09 18:10  22 02 56.44    -33 40 18.1   112818 0.9925  34.5     14?  67.23  86.8    8 124  26   0
   2024 03 09 18:20  22 03 49.11    -33 39 42.9   113584 0.9925  34.4     14?  64.55  86.7    9 123  26   0
   2024 03 09 18:30  22 04 39.65    -33 39 08.0   114339 0.9925  34.3     14?  61.92  86.6   11 122  26   0
   2024 03 09 18:40  22 05 28.10    -33 38 33.0   115083 0.9925  34.2 A   14?  59.35  86.4   13 121  26   0
   2024 03 09 18:50  22 06 14.51    -33 37 57.7   115816 0.9925  34.1 A   14?  56.84  86.2   14 120  26   0
   2024 03 09 19:00  22 06 58.92    -33 37 21.7   116540 0.9925  34.0 A   15?  54.38  86.0   16 119  26   0
   2024 03 09 19:10  22 07 41.36    -33 36 44.7   117254 0.9925  33.9 N   15?  51.97  85.7   18 118  26   0
   2024 03 09 19:20  22 08 21.88    -33 36 06.5   117959 0.9925  33.9 Nm  15?  49.62  85.3   20 117  26   0
   2024 03 09 19:30  22 09 00.52    -33 35 26.8   118656 0.9925  33.8 Nm  15?  47.33  84.9   21 116  26   0
   2024 03 09 19:40  22 09 37.33    -33 34 45.2   119345 0.9925  33.7 Cm  15?  45.10  84.4   23 115  26   0
   2024 03 09 19:50  22 10 12.35    -33 34 01.5   120026 0.9924  33.6 Cm  15?  42.93  83.8   25 115  26   0
   ................
   2024 03 10 08:40  22 29 21.68    -28 50 00.7   169278 0.9923  27.9 C   15?  49.41  54.6    0 235  26   0
   ................
   2024 03 10 18:50  23 04 23.61    -26 18 46.1   185369 0.9922  23.0 A   16?  30.10  82.6    1 120  26   0
   2024 03 10 19:00  23 04 45.43    -26 18 07.6   185312 0.9922  22.9 A   16?  29.00  82.5    2 119  26   0
   2024 03 10 19:10  23 05 06.43    -26 17 30.0   185248 0.9922  22.9 N   16?  27.89  82.4    4 117  26   0
   2024 03 10 19:20  23 05 26.59    -26 16 53.1   185179 0.9922  22.9 N   16?  26.78  82.2    6 116  26   0
   2024 03 10 19:30  23 05 45.93    -26 16 16.6   185104 0.9922  22.9 N   16?  25.66  81.9    8 115  26   0
   2024 03 10 19:40  23 06 04.42    -26 15 40.4   185025 0.9922  22.8 C   16?  24.54  81.6   10 114  26   0
   2024 03 10 19:50  23 06 22.07    -26 15 04.3   184941 0.9922  22.8 C   16?  23.42  81.2   12 113  26   0
   ................
   2024 03 11 08:40  23 12 48.59    -22 47 59.6   183977 0.9924  19.4 Cm  16?  38.12  45.5    3 245  28   1
   2024 03 11 08:50  23 13 08.71    -22 43 32.2   184018 0.9924  19.4 Cm  16?  38.87  46.8    1 244  28   1
   2024 03 11 09:00  23 13 29.62    -22 39 05.7   184053 0.9924  19.3 Nm  16?  39.62  48.0    0 243  28   1
   ................
   2024 03 11 19:50  23 48 15.49    -19 10 26.7   163538 0.9926  16.4 C   16?  38.17  69.0    0 111  28   3
   ................
   2024 03 12 08:30  00 03 08.70    -12 05 50.0   110634 0.9931  12.0 Cm  15?  79.65  36.9    9 261  26   5
   2024 03 12 08:40  00 03 42.22    -11 55 06.0   109889 0.9931  12.0 Cm  15?  81.94  37.9    7 260  26   5
   ................
   2024 03 12 19:50  13 07 04.51    -04 56 41.3     7069 0.9939 154.9 Cr   9?  13838 132.5   27 281 169   9
   ................
   2024 03 13 18:00  22 38 22.32    -29 45 43.9   160294 0.9932  30.3     15?  40.21  85.0    0 124  72  16
   2024 03 13 18:10  22 38 52.49    -29 45 10.4   160595 0.9932  30.2     15?  38.79  85.0    2 123  72  16
   2024 03 13 18:20  22 39 21.57    -29 44 38.4   160889 0.9932  30.1     15?  37.37  85.1    4 122  72  16
   2024 03 13 18:30  22 39 49.56    -29 44 07.5   161176 0.9932  30.1     15?  35.95  85.0    5 121  72  16
   2024 03 13 18:40  22 40 16.46    -29 43 37.6   161456 0.9932  30.0     15?  34.53  85.0    7 120  72  16
   2024 03 13 18:50  22 40 42.28    -29 43 08.3   161729 0.9932  30.0 A   15?  33.11  84.9    9 118  73  16
   2024 03 13 19:00  22 41 07.00    -29 42 39.5   161996 0.9932  30.0 A   15?  31.70  84.7   11 117  73  16
   2024 03 13 19:10  22 41 30.64    -29 42 10.9   162258 0.9932  29.9 A   15?  30.30  84.5   13 116  73  16
   2024 03 13 19:20  22 41 53.20    -29 41 42.3   162514 0.9932  29.9 N   15?  28.91  84.2   14 115  73  16
   2024 03 13 19:30  22 42 14.69    -29 41 13.3   162765 0.9932  29.8 N   15?  27.52  83.8   16 114  73  16
   2024 03 13 19:40  22 42 35.11    -29 40 43.8   163011 0.9932  29.8 C   15?  26.16  83.3   18 113  73  16
   2024 03 13 19:50  22 42 54.47    -29 40 13.5   163253 0.9932  29.8 C   15?  24.81  82.7   20 112  73  16
   ................
   2024 03 14 08:30  22 51 51.29    -25 59 03.3   186040 0.9932  26.0 Cm  16?  40.47  50.0    1 240  76  21
   ................
   2024 03 14 19:00  23 23 53.15    -23 15 38.2   186049 0.9933  21.3 A   16?  30.19  77.2    0 116  74  25
   2024 03 14 19:10  23 24 14.15    -23 14 31.4   185722 0.9933  21.3 A   16?  29.18  76.9    2 115  74  25
   2024 03 14 19:20  23 24 34.40    -23 13 25.1   185388 0.9933  21.2 N   16?  28.17  76.5    4 114  74  25
   2024 03 14 19:30  23 24 53.89    -23 12 19.1   185050 0.9933  21.2 N   16?  27.15  76.0    6 113  75  26
   2024 03 14 19:40  23 25 12.61    -23 11 13.1   184706 0.9933  21.2 C   16?  26.13  75.4    8 112  75  26
   2024 03 14 19:50  23 25 30.57    -23 10 07.0   184357 0.9933  21.2 C   16?  25.10  74.8    9 110  75  26
   ................
   2024 03 15 08:30  23 32 46.83    -19 00 02.2   162569 0.9935  17.1 Cm  16?  45.00  42.8    4 250  78  31
   2024 03 15 08:40  23 33 08.86    -18 54 30.9   162325 0.9935  17.0 Cm  16?  46.00  43.9    2 249  78  31
   2024 03 15 08:50  23 33 31.84    -18 48 58.9   162074 0.9935  16.9 Nm  16?  47.00  45.1    0 248  77  31
   ................
   2024 03 16 16:30  21 45 04.48    -34 45 18.0    96324 0.9945  43.6     14? 104.69  86.8    0 131 122  44
   2024 03 16 16:40  21 46 27.71    -34 44 22.2    97300 0.9945  43.3     14? 100.73  86.8    1 130 122  44
   2024 03 16 16:50  21 47 47.77    -34 43 27.8    98260 0.9945  43.1     14?  96.89  86.7    2 129 122  44
   2024 03 16 17:00  21 49 04.74    -34 42 34.6    99204 0.9945  42.9     14?  93.16  86.7    3 128 122  44
   2024 03 16 17:10  21 50 18.72    -34 41 42.2   100133 0.9945  42.8     14?  89.53  86.6    5 127 122  44
   2024 03 16 17:20  21 51 29.78    -34 40 50.5   101048 0.9945  42.6     14?  86.01  86.5    6 126 122  45
   2024 03 16 17:30  21 52 38.01    -34 39 59.3   101947 0.9945  42.4     14?  82.58  86.4    8 125 121  45
   2024 03 16 17:40  21 53 43.48    -34 39 08.2   102834 0.9945  42.3     14?  79.24  86.2    9 124 121  45
   2024 03 16 17:50  21 54 46.27    -34 38 17.1   103707 0.9945  42.1     14?  76.00  86.0   11 123 121  45
   2024 03 16 18:00  21 55 46.44    -34 37 25.8   104567 0.9944  42.0     14?  72.84  85.8   13 122 121  45
   2024 03 16 18:10  21 56 44.07    -34 36 33.8   105414 0.9944  41.8     14?  69.77  85.6   14 121 121  45
   2024 03 16 18:20  21 57 39.23    -34 35 41.0   106250 0.9944  41.7     14?  66.78  85.3   16 120 121  45
   2024 03 16 18:30  21 58 31.97    -34 34 47.0   107075 0.9944  41.5     14?  63.87  85.0   18 119 121  45
   2024 03 16 18:40  21 59 22.37    -34 33 51.7   107889 0.9944  41.4     14?  61.05  84.6   19 118 121  45
   2024 03 16 18:50  22 00 10.48    -34 32 54.7   108692 0.9944  41.3 A   14?  58.31  84.2   21 118 121  45
   2024 03 16 19:00  22 00 56.38    -34 31 55.7   109485 0.9944  41.2 A   14?  55.65  83.7   23 117 121  46
   2024 03 16 19:10  22 01 40.11    -34 30 54.4   110269 0.9944  41.1 A   14?  53.08  83.2   25 116 121  46
   2024 03 16 19:20  22 02 21.75    -34 29 50.7   111044 0.9944  41.0 N   14?  50.59  82.5   26 115 121  46
   2024 03 16 19:30  22 03 01.35    -34 28 44.1   111811 0.9944  40.9 N   14?  48.18  81.8   28 114 121  46
   2024 03 16 19:40  22 03 38.98    -34 27 34.4   112569 0.9944  40.8 N   14?  45.86  81.0   30 114 121  46
   2024 03 16 19:50  22 04 14.69    -34 26 21.4   113320 0.9944  40.7 C   14?  43.63  80.1   32 113 121  46
   ................
   2024 03 17 18:10  23 01 23.52    -26 38 28.6   183630 0.9942  28.1  r  16?  31.91  82.3    0 121 117  55
   2024 03 17 18:20  23 01 46.70    -26 37 46.4   183616 0.9942  28.0     16?  30.79  82.3    1 120 117  55
   2024 03 17 18:30  23 02 09.05    -26 37 05.3   183596 0.9942  28.0     16?  29.67  82.2    3 119 118  55
   2024 03 17 18:40  23 02 30.55    -26 36 25.1   183569 0.9942  28.0     16?  28.54  82.0    4 118 118  55
   2024 03 17 18:50  23 02 51.21    -26 35 45.6   183537 0.9942  27.9 A   16?  27.40  81.8    6 116 118  56
   2024 03 17 19:00  23 03 11.01    -26 35 06.7   183500 0.9942  27.9 A   16?  26.26  81.5    8 115 118  56
   2024 03 17 19:10  23 03 29.95    -26 34 28.0   183457 0.9942  27.8 A   16?  25.12  81.2   10 114 118  56
   2024 03 17 19:20  23 03 48.04    -26 33 49.3   183410 0.9942  27.8 N   16?  23.98  80.8   12 113 118  56
   2024 03 17 19:30  23 04 05.26    -26 33 10.6   183359 0.9942  27.8 N   16?  22.85  80.3   14 112 118  56
   2024 03 17 19:40  23 04 21.62    -26 32 31.6   183304 0.9942  27.7 N   16?  21.72  79.6   16 111 118  56
   2024 03 17 19:50  23 04 37.12    -26 31 52.0   183246 0.9942  27.7 C   16?  20.60  78.9   18 110 118  56
   2024 03 17 20:00  23 04 51.77    -26 31 11.6   183184 0.9942  27.7 C   16?  19.50  78.0   20 109 118  56
   ................
   

MMS-2 (JPL-ID: -140483)

   Date (UTC) HH:MM   RA              Dec         delta   r     elong SM  mag  '/hr    PA   alt  az moo ill
   ---- -- -- -----  -------------   -----------  ------ ------ ----- --  --- ------ ------ --- --- --- ---
   2024 03 04 08:40  23 14 10.90    -22 48 29.7   181895 0.9905  16.8 C   16?  36.54  42.1    9 249  77  42
   2024 03 04 08:50  23 14 29.03    -22 43 58.5   181910 0.9905  16.7 C   16?  37.32  43.4    7 247  77  42
   2024 03 04 09:00  23 14 47.97    -22 39 27.5   181921 0.9905  16.6 N   16?  38.09  44.7    5 246  77  42
   2024 03 04 09:10  23 15 07.73    -22 34 56.9   181926 0.9905  16.6 N   16?  38.87  46.0    3 245  77  42
   2024 03 04 09:20  23 15 28.30    -22 30 26.9   181926 0.9905  16.5 N   16?  39.65  47.2    1 244  77  42
   2024 03 04 09:30  23 15 49.67    -22 25 57.6   181921 0.9905  16.5 A   16?  40.43  48.3    0 243  77  42
   ................
   2024 03 05 08:40  00 08 36.46    -11 14 54.9   101479 0.9913  16.7 C   15?  89.70  35.0   14 265  80  32
   2024 03 05 08:50  00 09 12.25    -11 02 33.4   100639 0.9913  16.7 C   15?  92.48  35.9   11 264  80  32
   2024 03 05 09:00  00 09 49.95    -10 49 57.7    99787 0.9913  16.8 N   15?  95.36  36.8    9 263  81  32
   2024 03 05 09:10  00 10 29.61    -10 37 07.2    98925 0.9913  16.9 N   15?  98.35  37.7    7 262  81  31
   2024 03 05 09:20  00 11 11.30    -10 24 01.7    98051 0.9913  17.0 N   15? 101.46  38.5    5 261  81  31
   2024 03 05 09:30  00 11 55.07    -10 10 40.5    97164 0.9913  17.1 A   15? 104.69  39.4    3 260  81  31
   2024 03 05 09:40  00 12 40.99    -09 57 03.1    96265 0.9913  17.3 A   15? 108.05  40.1    1 259  81  31
   2024 03 05 09:50  00 13 29.12    -09 43 09.0    95352 0.9914  17.4 A   15? 111.53  40.9    0 258  81  31
   ................
   2024 03 05 18:30  13 20 46.80    +09 53 54.8     5087 0.9921 146.3  r   8?  20215 133.9   39 319  89  27
   2024 03 05 18:40  15 28 37.52    -19 48 28.0     6807 0.9921 110.6 Am   7?  10636 129.6   78 357  47  27
   2024 03 05 18:50  16 44 17.89    -31 57 24.2     9708 0.9921  91.5 At   7? 5248.5 120.4   76  97  29  27
   2024 03 05 19:00  17 32 48.09    -37 02 12.9    12737 0.9920  81.2 Am   8? 3112.3 112.9   68 112  20  27
   2024 03 05 19:10  18 06 41.17    -39 29 50.3    15670 0.9920  74.6 Nm   9? 2102.8 107.2   63 116  15  27
   2024 03 05 19:20  18 31 55.16    -40 48 39.7    18467 0.9920  70.0 Nm   9? 1544.4 102.8   60 118  14  27
   2024 03 05 19:30  18 51 35.76    -41 32 57.9    21131 0.9920  66.6 Nm  10? 1199.1  99.3   58 119  13  27
   2024 03 05 19:40  19 07 28.24    -41 58 09.7    23672 0.9920  63.8 Cm  10? 968.13  96.4   57 120  14  27
   2024 03 05 19:50  19 20 36.84    -42 12 00.1    26104 0.9920  61.6 Cm  10? 804.32  94.0   56 120  14  26
   ................
   2024 03 06 18:30  22 41 24.79    -29 20 12.5   165372 0.9913  24.8  m  16?  38.18  85.8    0 124  35  17
   2024 03 06 18:40  22 41 53.47    -29 19 45.0   165621 0.9913  24.8 Am  16?  36.84  85.8    2 123  35  17
   2024 03 06 18:50  22 42 21.13    -29 19 19.0   165862 0.9913  24.8 Am  16?  35.49  85.9    3 122  35  17
   2024 03 06 19:00  22 42 47.75    -29 18 54.0   166096 0.9913  24.7 Am  16?  34.13  85.9    5 120  36  17
   2024 03 06 19:10  22 43 13.34    -29 18 30.0   166324 0.9913  24.7 Nm  16?  32.78  85.9    7 119  36  17
   2024 03 06 19:20  22 43 37.90    -29 18 06.7   166545 0.9913  24.7 Nm  16?  31.43  85.8    9 118  36  17
   2024 03 06 19:30  22 44 01.42    -29 17 43.8   166761 0.9913  24.6 Nm  16?  30.08  85.7   11 117  36  17
   2024 03 06 19:40  22 44 23.90    -29 17 21.1   166971 0.9913  24.6 Cm  16?  28.74  85.5   12 116  36  17
   2024 03 06 19:50  22 44 45.36    -29 16 58.3   167176 0.9913  24.6 Cm  16?  27.40  85.3   14 115  36  17
   ................
   2024 03 07 08:40  22 53 22.24    -25 53 10.4   186709 0.9913  21.1 C   16?  38.28  47.8    4 242  32  13
   2024 03 07 08:50  22 53 43.69    -25 48 53.9   187002 0.9913  21.1 C   16?  38.93  49.0    2 241  32  13
   2024 03 07 09:00  22 54 05.86    -25 44 39.2   187288 0.9913  21.0 N   16?  39.57  50.2    0 240  32  13
   ................
   2024 03 07 19:30  23 25 58.51    -23 04 23.2   184852 0.9914  18.3 Nm  16?  30.40  77.6    0 116  32   9
   2024 03 07 19:40  23 26 19.67    -23 03 17.4   184485 0.9914  18.3 Cm  16?  29.40  77.2    2 115  32   9
   2024 03 07 19:50  23 26 40.08    -23 02 12.0   184113 0.9914  18.3 Cm  16?  28.39  76.8    4 114  32   9
   ................
   2024 03 08 08:40  23 34 27.24    -18 56 00.2   158488 0.9917  14.8 C   16?  44.53  40.4    8 252  29   6
   2024 03 08 08:50  23 34 48.08    -18 50 20.0   158206 0.9917  14.8 C   16?  45.56  41.7    6 251  29   6
   2024 03 08 09:00  23 35 09.91    -18 44 38.5   157917 0.9917  14.7 N   16?  46.61  42.9    4 250  29   6
   2024 03 08 09:10  23 35 32.74    -18 38 56.0   157623 0.9917  14.7 N   16?  47.67  44.1    2 249  29   6
   2024 03 08 09:20  23 35 56.56    -18 33 12.5   157322 0.9917  14.6 N   16?  48.74  45.2    0 248  29   6
   ................
   2024 03 09 17:20  21 57 56.92    -33 43 44.2   108830 0.9925  35.2     14?  81.47  86.9    0 129  26   0
   2024 03 09 17:30  21 59 00.92    -33 43 04.0   109658 0.9925  35.0     14?  78.51  87.0    2 128  26   0
   2024 03 09 17:40  22 00 02.56    -33 42 25.3   110472 0.9925  34.9     14?  75.61  87.0    3 127  26   0
   2024 03 09 17:50  22 01 01.90    -33 41 48.1   111274 0.9925  34.8     14?  72.76  86.9    5 126  26   0
   2024 03 09 18:00  22 01 58.98    -33 41 11.9   112063 0.9925  34.6     14?  69.98  86.9    6 125  26   0
   2024 03 09 18:10  22 02 53.84    -33 40 36.5   112840 0.9925  34.5     14?  67.24  86.8    8 124  26   0
   2024 03 09 18:20  22 03 46.53    -33 40 01.6   113606 0.9925  34.4     14?  64.57  86.7    9 123  26   0
   2024 03 09 18:30  22 04 37.09    -33 39 26.9   114360 0.9925  34.3     14?  61.94  86.6   11 122  26   0
   2024 03 09 18:40  22 05 25.56    -33 38 52.2   115104 0.9925  34.2 A   14?  59.37  86.5   13 121  26   0
   2024 03 09 18:50  22 06 11.99    -33 38 17.1   115837 0.9925  34.1 A   14?  56.86  86.2   14 120  26   0
   2024 03 09 19:00  22 06 56.41    -33 37 41.3   116561 0.9925  34.0 A   15?  54.40  86.0   16 119  26   0
   2024 03 09 19:10  22 07 38.88    -33 37 04.6   117275 0.9925  34.0 N   15?  51.99  85.7   18 118  26   0
   2024 03 09 19:20  22 08 19.42    -33 36 26.6   117979 0.9925  33.9 Nm  15?  49.64  85.3   20 117  26   0
   2024 03 09 19:30  22 08 58.08    -33 35 47.1   118676 0.9925  33.8 Nm  15?  47.35  84.9   21 116  26   0
   2024 03 09 19:40  22 09 34.91    -33 35 05.7   119364 0.9925  33.7 Cm  15?  45.12  84.4   23 115  26   0
   2024 03 09 19:50  22 10 09.95    -33 34 22.3   120045 0.9924  33.6 Cm  15?  42.95  83.8   25 115  26   0
   ................
   2024 03 10 08:40  22 29 20.88    -28 50 28.7   169282 0.9923  27.9 C   15?  49.42  54.6    0 235  26   0
   ................
   2024 03 10 18:50  23 04 23.83    -26 19 15.8   185365 0.9922  23.0 A   16?  30.12  82.6    1 120  26   0
   2024 03 10 19:00  23 04 45.67    -26 18 37.3   185307 0.9922  22.9 A   16?  29.02  82.5    2 119  26   0
   2024 03 10 19:10  23 05 06.68    -26 17 59.7   185243 0.9922  22.9 N   16?  27.91  82.4    4 117  26   0
   2024 03 10 19:20  23 05 26.87    -26 17 22.8   185174 0.9922  22.9 N   16?  26.79  82.2    6 116  26   0
   2024 03 10 19:30  23 05 46.22    -26 16 46.4   185099 0.9922  22.9 N   16?  25.68  81.9    8 115  26   0
   2024 03 10 19:40  23 06 04.73    -26 16 10.3   185020 0.9922  22.9 C   16?  24.55  81.6   10 114  26   0
   2024 03 10 19:50  23 06 22.39    -26 15 34.2   184935 0.9922  22.8 C   16?  23.43  81.2   12 113  26   0
   ................
   2024 03 11 08:40  23 12 49.97    -22 48 28.6   183961 0.9924  19.5 Cm  16?  38.14  45.6    3 245  28   1
   2024 03 11 08:50  23 13 10.11    -22 44 01.2   184001 0.9924  19.4 Cm  16?  38.89  46.8    1 244  28   1
   2024 03 11 09:00  23 13 31.03    -22 39 34.6   184036 0.9924  19.3 Nm  16?  39.64  48.0    0 243  28   1
   ................
   2024 03 11 19:50  23 48 18.24    -19 10 51.0   163513 0.9926  16.5 C   16?  38.21  69.0    0 111  28   3
   ................
   2024 03 12 08:30  00 03 13.70    -12 05 57.6   110588 0.9931  12.0 Cm  15?  79.74  36.9    9 261  26   5
   2024 03 12 08:40  00 03 47.26    -11 55 13.0   109843 0.9931  12.0 Cm  15?  82.02  37.9    7 260  26   5
   ................
   2024 03 12 19:50  13 11 15.80    -05 48 49.4     7094 0.9939 153.6 Cr   9?  13686 132.5   29 281 170   9
   ................
   2024 03 13 18:00  22 38 21.31    -29 46 11.3   160303 0.9932  30.3     15?  40.22  85.0    0 124  72  16
   2024 03 13 18:10  22 38 51.50    -29 45 37.9   160604 0.9932  30.2     15?  38.81  85.1    2 123  72  16
   2024 03 13 18:20  22 39 20.60    -29 45 05.9   160898 0.9932  30.2     15?  37.39  85.1    4 122  72  16
   2024 03 13 18:30  22 39 48.60    -29 44 35.1   161185 0.9932  30.1     15?  35.97  85.1    5 121  72  16
   2024 03 13 18:40  22 40 15.52    -29 44 05.3   161464 0.9932  30.1     15?  34.55  85.0    7 120  72  16
   2024 03 13 18:50  22 40 41.35    -29 43 36.1   161738 0.9932  30.0 A   15?  33.13  84.9    9 118  73  16
   2024 03 13 19:00  22 41 06.09    -29 43 07.4   162005 0.9932  30.0 A   15?  31.72  84.7   11 117  73  16
   2024 03 13 19:10  22 41 29.75    -29 42 38.9   162266 0.9932  29.9 A   15?  30.32  84.5   13 116  73  16
   2024 03 13 19:20  22 41 52.33    -29 42 10.3   162522 0.9932  29.9 N   15?  28.92  84.2   14 115  73  16
   2024 03 13 19:30  22 42 13.83    -29 41 41.5   162773 0.9932  29.8 N   15?  27.54  83.8   16 114  73  16
   2024 03 13 19:40  22 42 34.27    -29 41 12.0   163019 0.9932  29.8 C   15?  26.17  83.3   18 113  73  16
   2024 03 13 19:50  22 42 53.65    -29 40 41.8   163261 0.9932  29.8 C   15?  24.82  82.8   20 112  73  16
   ................
   2024 03 14 08:30  22 51 51.62    -25 59 33.3   186035 0.9932  26.0 Cm  16?  40.49  50.0    1 240  76  21
   ................
   2024 03 14 19:00  23 23 54.53    -23 16 07.3   186035 0.9933  21.3 A   16?  30.21  77.2    0 117  74  25
   2024 03 14 19:10  23 24 15.54    -23 15 00.5   185708 0.9933  21.3 A   16?  29.21  76.9    2 115  74  25
   2024 03 14 19:20  23 24 35.81    -23 13 54.2   185374 0.9933  21.2 N   16?  28.19  76.5    4 114  74  25
   2024 03 14 19:30  23 24 55.32    -23 12 48.2   185035 0.9933  21.2 N   16?  27.17  76.0    6 113  75  26
   2024 03 14 19:40  23 25 14.06    -23 11 42.2   184691 0.9933  21.2 C   16?  26.15  75.4    8 112  75  26
   2024 03 14 19:50  23 25 32.03    -23 10 36.2   184343 0.9933  21.2 C   16?  25.13  74.8    9 111  75  26
   ................
   2024 03 15 08:30  23 32 49.51    -19 00 27.3   162541 0.9935  17.1 Cm  16?  45.03  42.8    4 250  78  31
   2024 03 15 08:40  23 33 11.56    -18 54 55.8   162296 0.9935  17.0 Cm  16?  46.02  44.0    2 249  77  31
   2024 03 15 08:50  23 33 34.56    -18 49 23.7   162044 0.9935  16.9 Nm  16?  47.03  45.1    0 248  77  31
   ................
   2024 03 16 16:30  21 45 02.12    -34 45 28.5    96363 0.9945  43.6     14? 104.67  86.8    0 131 122  44
   2024 03 16 16:40  21 46 25.35    -34 44 33.2    97338 0.9945  43.4     14? 100.72  86.8    1 130 122  44
   2024 03 16 16:50  21 47 45.40    -34 43 39.2    98298 0.9945  43.2     14?  96.88  86.7    2 129 122  44
   2024 03 16 17:00  21 49 02.37    -34 42 46.3    99241 0.9945  43.0     14?  93.15  86.7    3 128 122  44
   2024 03 16 17:10  21 50 16.35    -34 41 54.3   100170 0.9945  42.8     14?  89.53  86.6    5 127 122  44
   2024 03 16 17:20  21 51 27.42    -34 41 03.0   101084 0.9945  42.6     14?  86.01  86.5    6 126 122  45
   2024 03 16 17:30  21 52 35.65    -34 40 12.1   101983 0.9945  42.4     14?  82.58  86.4    8 125 121  45
   2024 03 16 17:40  21 53 41.13    -34 39 21.5   102869 0.9945  42.3     14?  79.24  86.2    9 124 121  45
   2024 03 16 17:50  21 54 43.92    -34 38 30.7   103741 0.9945  42.1     14?  76.00  86.1   11 123 121  45
   2024 03 16 18:00  21 55 44.10    -34 37 39.7   104601 0.9944  42.0     14?  72.84  85.9   13 122 121  45
   2024 03 16 18:10  21 56 41.74    -34 36 48.1   105448 0.9944  41.8     14?  69.77  85.6   14 121 121  45
   2024 03 16 18:20  21 57 36.91    -34 35 55.6   106283 0.9944  41.7     14?  66.79  85.4   16 120 121  45
   2024 03 16 18:30  21 58 29.66    -34 35 02.0   107108 0.9944  41.6     14?  63.88  85.0   18 119 121  45
   2024 03 16 18:40  21 59 20.07    -34 34 07.0   107921 0.9944  41.4     14?  61.06  84.7   19 118 121  45
   2024 03 16 18:50  22 00 08.20    -34 33 10.2   108724 0.9944  41.3 A   14?  58.32  84.2   21 118 121  45
   2024 03 16 19:00  22 00 54.11    -34 32 11.6   109517 0.9944  41.2 A   14?  55.66  83.8   23 117 121  46
   2024 03 16 19:10  22 01 37.86    -34 31 10.6   110300 0.9944  41.1 A   14?  53.09  83.2   25 116 121  46
   2024 03 16 19:20  22 02 19.51    -34 30 07.1   111075 0.9944  41.0 N   14?  50.60  82.6   26 115 121  46
   2024 03 16 19:30  22 02 59.13    -34 29 00.9   111841 0.9944  40.9 N   14?  48.19  81.8   28 114 121  46
   2024 03 16 19:40  22 03 36.77    -34 27 51.5   112599 0.9944  40.8 N   14?  45.87  81.0   30 114 121  46
   2024 03 16 19:50  22 04 12.50    -34 26 38.7   113350 0.9944  40.7 C   14?  43.64  80.1   32 113 121  46
   ................
   2024 03 17 18:10  23 01 23.75    -26 38 58.4   183628 0.9942  28.1  r  16?  31.93  82.3    0 121 117  55
   2024 03 17 18:20  23 01 46.95    -26 38 16.2   183614 0.9942  28.0     16?  30.81  82.3    1 120 117  55
   2024 03 17 18:30  23 02 09.31    -26 37 35.2   183594 0.9942  28.0     16?  29.69  82.2    3 119 118  55
   2024 03 17 18:40  23 02 30.83    -26 36 55.0   183567 0.9942  28.0     16?  28.55  82.0    4 118 118  55
   2024 03 17 18:50  23 02 51.50    -26 36 15.6   183535 0.9942  27.9 A   16?  27.42  81.8    6 116 118  56
   2024 03 17 19:00  23 03 11.32    -26 35 36.6   183497 0.9942  27.9 A   16?  26.28  81.6    8 115 118  56
   2024 03 17 19:10  23 03 30.28    -26 34 58.0   183455 0.9942  27.8 A   16?  25.14  81.2   10 114 118  56
   2024 03 17 19:20  23 03 48.38    -26 34 19.4   183408 0.9942  27.8 N   16?  24.00  80.8   12 113 118  56
   2024 03 17 19:30  23 04 05.62    -26 33 40.7   183356 0.9942  27.8 N   16?  22.87  80.3   14 112 118  56
   2024 03 17 19:40  23 04 21.99    -26 33 01.7   183301 0.9942  27.7 N   16?  21.74  79.7   16 111 118  56
   2024 03 17 19:50  23 04 37.51    -26 32 22.2   183243 0.9942  27.7 C   16?  20.62  78.9   18 110 118  56
   2024 03 17 20:00  23 04 52.17    -26 31 41.9   183181 0.9942  27.7 C   16?  19.52  78.0   20 109 118  56
   ................
   

MMS-3 (JPL-ID: -140484)

   Date (UTC) HH:MM   RA              Dec         delta   r     elong SM  mag  '/hr    PA   alt  az moo ill
   ---- -- -- -----  -------------   -----------  ------ ------ ----- --  --- ------ ------ --- --- --- ---
   2024 03 04 08:40  23 14 10.81    -22 48 07.0   181893 0.9905  16.7 C   16?  36.55  42.1    9 249  77  42
   2024 03 04 08:50  23 14 28.93    -22 43 35.7   181909 0.9905  16.7 C   16?  37.32  43.4    7 247  77  42
   2024 03 04 09:00  23 14 47.88    -22 39 04.7   181919 0.9905  16.6 N   16?  38.10  44.7    5 246  77  42
   2024 03 04 09:10  23 15 07.64    -22 34 34.1   181925 0.9905  16.6 N   16?  38.88  46.0    3 245  77  42
   2024 03 04 09:20  23 15 28.21    -22 30 04.0   181925 0.9905  16.5 N   16?  39.66  47.2    1 244  77  42
   2024 03 04 09:30  23 15 49.59    -22 25 34.7   181919 0.9905  16.5 A   16?  40.44  48.3    0 243  77  42
   ................
   2024 03 05 08:40  00 08 36.64    -11 14 22.7   101488 0.9913  16.7 C   15?  89.70  35.0   14 265  80  32
   2024 03 05 08:50  00 09 12.44    -11 02 01.2   100647 0.9913  16.7 C   15?  92.48  35.9   11 264  80  32
   2024 03 05 09:00  00 09 50.14    -10 49 25.5    99796 0.9913  16.8 N   15?  95.36  36.8    9 263  81  32
   2024 03 05 09:10  00 10 29.80    -10 36 35.1    98934 0.9913  16.9 N   15?  98.35  37.7    7 262  81  31
   2024 03 05 09:20  00 11 11.49    -10 23 29.6    98060 0.9913  17.0 N   15? 101.46  38.5    5 261  81  31
   2024 03 05 09:30  00 11 55.26    -10 10 08.5    97173 0.9913  17.1 A   15? 104.69  39.4    3 260  81  31
   2024 03 05 09:40  00 12 41.18    -09 56 31.2    96274 0.9913  17.3 A   15? 108.04  40.1    1 259  81  31
   2024 03 05 09:50  00 13 29.30    -09 42 37.0    95361 0.9914  17.4 A   15? 111.53  40.9    0 258  81  31
   ................
   2024 03 05 18:30  13 18 47.52    +10 18 58.7     5089 0.9921 146.8  r   8?  20249 133.9   39 319  90  27
   2024 03 05 18:40  15 27 19.64    -19 35 29.7     6780 0.9921 110.9 Am   7?  10730 129.7   78 355  48  27
   2024 03 05 18:50  16 43 26.38    -31 52 21.8     9675 0.9921  91.7 At   7? 5287.0 120.5   76  96  29  27
   2024 03 05 19:00  17 32 11.29    -37 00 03.9    12703 0.9920  81.3 Am   8? 3129.9 113.0   68 112  20  27
   2024 03 05 19:10  18 06 13.14    -39 28 52.9    15637 0.9920  74.7 Nm   9? 2112.2 107.2   63 116  15  27
   2024 03 05 19:20  18 31 32.78    -40 48 16.1    18435 0.9920  70.1 Nm   9? 1550.1 102.8   60 118  14  27
   2024 03 05 19:30  18 51 17.24    -41 32 51.7    21100 0.9920  66.6 Nm  10? 1203.0  99.3   58 119  13  27
   2024 03 05 19:40  19 07 12.52    -41 58 13.1    23642 0.9920  63.9 Cm  10? 970.85  96.5   57 120  14  27
   2024 03 05 19:50  19 20 23.21    -42 12 09.0    26075 0.9920  61.6 Cm  10? 806.35  94.0   56 120  14  26
   ................
   2024 03 06 18:30  22 41 24.27    -29 19 59.2   165363 0.9913  24.8  m  16?  38.19  85.8    0 124  35  17
   2024 03 06 18:40  22 41 52.96    -29 19 31.6   165612 0.9913  24.8 Am  16?  36.84  85.8    2 123  35  17
   2024 03 06 18:50  22 42 20.62    -29 19 05.4   165854 0.9913  24.7 Am  16?  35.49  85.9    3 122  35  17
   2024 03 06 19:00  22 42 47.25    -29 18 40.4   166088 0.9913  24.7 Am  16?  34.14  85.9    5 120  35  17
   2024 03 06 19:10  22 43 12.84    -29 18 16.3   166316 0.9913  24.7 Nm  16?  32.79  85.9    7 119  36  17
   2024 03 06 19:20  22 43 37.40    -29 17 52.9   166537 0.9913  24.7 Nm  16?  31.44  85.8    9 118  36  17
   2024 03 06 19:30  22 44 00.92    -29 17 29.9   166753 0.9913  24.6 Nm  16?  30.09  85.7   11 117  36  17
   2024 03 06 19:40  22 44 23.41    -29 17 07.1   166963 0.9913  24.6 Cm  16?  28.74  85.5   12 116  36  17
   2024 03 06 19:50  22 44 44.87    -29 16 44.3   167168 0.9913  24.6 Cm  16?  27.40  85.2   14 115  36  17
   ................
   2024 03 07 08:40  22 53 22.03    -25 52 51.3   186705 0.9913  21.1 C   16?  38.29  47.8    4 242  32  13
   2024 03 07 08:50  22 53 43.49    -25 48 34.8   186997 0.9913  21.1 C   16?  38.94  49.0    2 241  32  13
   2024 03 07 09:00  22 54 05.66    -25 44 20.0   187283 0.9913  21.0 N   16?  39.58  50.2    0 240  32  13
   ................
   2024 03 07 19:30  23 25 58.45    -23 04 00.6   184849 0.9914  18.3 Nm  16?  30.41  77.5    0 116  32   9
   2024 03 07 19:40  23 26 19.61    -23 02 54.6   184482 0.9914  18.3 Cm  16?  29.41  77.2    2 115  32   9
   2024 03 07 19:50  23 26 40.02    -23 01 49.1   184110 0.9914  18.3 Cm  16?  28.40  76.8    4 114  32   9
   ................
   2024 03 08 08:40  23 34 27.39    -18 55 32.4   158488 0.9917  14.8 C   16?  44.53  40.4    8 252  29   6
   2024 03 08 08:50  23 34 48.23    -18 49 52.2   158205 0.9917  14.8 C   16?  45.57  41.7    6 251  29   6
   2024 03 08 09:00  23 35 10.07    -18 44 10.7   157917 0.9917  14.7 N   16?  46.61  42.9    4 250  29   6
   2024 03 08 09:10  23 35 32.90    -18 38 28.1   157622 0.9917  14.7 N   16?  47.68  44.1    2 249  29   6
   2024 03 08 09:20  23 35 56.72    -18 32 44.6   157321 0.9917  14.6 N   16?  48.75  45.2    0 248  29   6
   ................
   2024 03 09 17:20  21 57 55.83    -33 43 38.7   108820 0.9925  35.2     14?  81.49  86.9    0 129  26   0
   2024 03 09 17:30  21 58 59.84    -33 42 58.3   109648 0.9925  35.0     14?  78.53  86.9    2 128  26   0
   2024 03 09 17:40  22 00 01.50    -33 42 19.5   110463 0.9925  34.9     14?  75.63  86.9    3 127  26   0
   2024 03 09 17:50  22 01 00.85    -33 41 42.1   111265 0.9925  34.8     14?  72.78  86.9    5 126  26   0
   2024 03 09 18:00  22 01 57.95    -33 41 05.8   112054 0.9925  34.6     14?  70.00  86.9    6 125  26   0
   2024 03 09 18:10  22 02 52.82    -33 40 30.2   112832 0.9925  34.5     14?  67.26  86.8    8 124  26   0
   2024 03 09 18:20  22 03 45.53    -33 39 55.2   113597 0.9925  34.4     14?  64.58  86.7    9 123  26   0
   2024 03 09 18:30  22 04 36.10    -33 39 20.4   114351 0.9925  34.3     14?  61.96  86.6   11 122  26   0
   2024 03 09 18:40  22 05 24.58    -33 38 45.5   115095 0.9925  34.2 A   14?  59.39  86.4   13 121  26   0
   2024 03 09 18:50  22 06 11.02    -33 38 10.3   115828 0.9925  34.1 A   14?  56.87  86.2   14 120  26   0
   2024 03 09 19:00  22 06 55.46    -33 37 34.4   116552 0.9925  34.0 A   15?  54.41  86.0   16 119  26   0
   2024 03 09 19:10  22 07 37.93    -33 36 57.5   117266 0.9925  34.0 N   15?  52.01  85.7   18 118  26   0
   2024 03 09 19:20  22 08 18.48    -33 36 19.4   117971 0.9925  33.9 Nm  15?  49.66  85.3   20 117  26   0
   2024 03 09 19:30  22 08 57.16    -33 35 39.7   118667 0.9925  33.8 Nm  15?  47.37  84.9   21 116  26   0
   2024 03 09 19:40  22 09 34.00    -33 34 58.3   119356 0.9925  33.7 Cm  15?  45.13  84.4   23 115  26   0
   2024 03 09 19:50  22 10 09.05    -33 34 14.6   120036 0.9924  33.6 Cm  15?  42.96  83.8   25 115  26   0
   ................
   2024 03 10 08:40  22 29 20.51    -28 50 13.6   169276 0.9923  27.9 C   15?  49.43  54.6    0 235  26   0
   ................
   2024 03 10 18:50  23 04 23.66    -26 18 57.0   185360 0.9922  23.0 A   16?  30.13  82.6    1 120  26   0
   2024 03 10 19:00  23 04 45.49    -26 18 18.5   185302 0.9922  22.9 A   16?  29.03  82.5    2 119  26   0
   2024 03 10 19:10  23 05 06.51    -26 17 40.8   185239 0.9922  22.9 N   16?  27.92  82.4    4 117  26   0
   2024 03 10 19:20  23 05 26.70    -26 17 03.8   185169 0.9922  22.9 N   16?  26.80  82.2    6 116  26   0
   2024 03 10 19:30  23 05 46.05    -26 16 27.3   185094 0.9922  22.9 N   16?  25.68  81.9    8 115  26   0
   2024 03 10 19:40  23 06 04.56    -26 15 51.1   185015 0.9922  22.8 C   16?  24.56  81.6   10 114  26   0
   2024 03 10 19:50  23 06 22.23    -26 15 14.9   184931 0.9922  22.8 C   16?  23.44  81.2   12 113  26   0
   ................
   2024 03 11 08:40  23 12 50.02    -22 48 05.0   183957 0.9924  19.4 Cm  16?  38.14  45.6    3 245  28   1
   2024 03 11 08:50  23 13 10.16    -22 43 37.5   183998 0.9924  19.4 Cm  16?  38.89  46.8    1 244  28   1
   2024 03 11 09:00  23 13 31.09    -22 39 10.9   184033 0.9924  19.3 Nm  16?  39.64  48.0    0 243  28   1
   ................
   2024 03 11 19:50  23 48 18.44    -19 10 23.0   163511 0.9926  16.4 C   16?  38.22  69.0    0 111  28   3
   ................
   2024 03 12 08:30  00 03 14.23    -12 05 21.4   110586 0.9931  12.0 Cm  15?  79.75  36.9    9 261  26   5
   2024 03 12 08:40  00 03 47.79    -11 54 36.7   109841 0.9931  12.0 Cm  15?  82.04  37.9    7 260  26   5
   ................
   2024 03 12 19:50  13 11 02.16    -05 46 22.0     7097 0.9939 153.7 Cr   9?  13683 132.5   29 281 170   9
   ................
   2024 03 13 18:00  22 38 20.97    -29 45 57.0   160299 0.9932  30.3     15?  40.23  85.0    0 124  72  16
   2024 03 13 18:10  22 38 51.15    -29 45 23.5   160600 0.9932  30.2     15?  38.81  85.1    2 123  72  16
   2024 03 13 18:20  22 39 20.25    -29 44 51.5   160894 0.9932  30.2     15?  37.39  85.1    4 122  72  16
   2024 03 13 18:30  22 39 48.27    -29 44 20.6   161181 0.9932  30.1     15?  35.97  85.0    5 121  72  16
   2024 03 13 18:40  22 40 15.19    -29 43 50.7   161460 0.9932  30.1     15?  34.55  85.0    7 120  72  16
   2024 03 13 18:50  22 40 41.02    -29 43 21.4   161733 0.9932  30.0 A   15?  33.14  84.9    9 118  73  16
   2024 03 13 19:00  22 41 05.77    -29 42 52.6   162000 0.9932  30.0 A   15?  31.73  84.7   11 117  73  16
   2024 03 13 19:10  22 41 29.43    -29 42 24.0   162262 0.9932  29.9 A   15?  30.32  84.5   13 116  73  16
   2024 03 13 19:20  22 41 52.01    -29 41 55.4   162518 0.9932  29.9 N   15?  28.93  84.2   14 115  73  16
   2024 03 13 19:30  22 42 13.51    -29 41 26.4   162768 0.9932  29.8 N   15?  27.55  83.8   16 114  73  16
   2024 03 13 19:40  22 42 33.95    -29 40 56.9   163015 0.9932  29.8 C   15?  26.18  83.3   18 113  73  16
   2024 03 13 19:50  22 42 53.33    -29 40 26.6   163257 0.9932  29.8 C   15?  24.83  82.7   20 112  73  16
   ................
   2024 03 14 08:30  22 51 51.56    -25 59 13.4   186031 0.9932  26.0 Cm  16?  40.49  50.0    1 240  76  21
   ................
   2024 03 14 19:00  23 23 54.61    -23 15 43.7   186031 0.9933  21.3 A   16?  30.22  77.2    0 117  74  25
   2024 03 14 19:10  23 24 15.62    -23 14 36.9   185703 0.9933  21.3 A   16?  29.21  76.9    2 115  74  25
   2024 03 14 19:20  23 24 35.89    -23 13 30.5   185370 0.9933  21.2 N   16?  28.20  76.5    4 114  74  25
   2024 03 14 19:30  23 24 55.40    -23 12 24.4   185031 0.9933  21.2 N   16?  27.18  76.0    6 113  75  26
   2024 03 14 19:40  23 25 14.15    -23 11 18.4   184687 0.9933  21.2 C   16?  26.16  75.4    8 112  75  26
   2024 03 14 19:50  23 25 32.12    -23 10 12.2   184338 0.9933  21.2 C   16?  25.13  74.8    9 110  75  26
   ................
   2024 03 15 08:30  23 32 49.83    -18 59 58.3   162535 0.9935  17.1 Cm  16?  45.04  42.8    4 250  78  31
   2024 03 15 08:40  23 33 11.88    -18 54 26.7   162290 0.9935  17.0 Cm  16?  46.03  44.0    2 249  77  31
   2024 03 15 08:50  23 33 34.88    -18 48 54.6   162039 0.9935  16.9 Nm  16?  47.04  45.1    0 248  77  31
   ................
   2024 03 16 16:30  21 45 01.40    -34 45 22.0    96364 0.9945  43.6     14? 104.69  86.8    0 131 122  44
   2024 03 16 16:40  21 46 24.64    -34 44 26.5    97339 0.9945  43.4     14? 100.73  86.8    1 130 122  44
   2024 03 16 16:50  21 47 44.70    -34 43 32.3    98299 0.9945  43.2     14?  96.89  86.7    2 129 122  44
   2024 03 16 17:00  21 49 01.68    -34 42 39.3    99242 0.9945  43.0     14?  93.17  86.7    3 128 122  44
   2024 03 16 17:10  21 50 15.67    -34 41 47.2   100171 0.9945  42.8     14?  89.54  86.6    5 127 122  44
   2024 03 16 17:20  21 51 26.74    -34 40 55.7   101084 0.9945  42.6     14?  86.02  86.5    6 126 122  45
   2024 03 16 17:30  21 52 34.98    -34 40 04.7   101984 0.9945  42.4     14?  82.59  86.4    8 125 122  45
   2024 03 16 17:40  21 53 40.46    -34 39 13.8   102869 0.9945  42.3     14?  79.26  86.2    9 124 121  45
   2024 03 16 17:50  21 54 43.27    -34 38 23.0   103742 0.9945  42.1     14?  76.01  86.1   11 123 121  45
   2024 03 16 18:00  21 55 43.46    -34 37 31.8   104601 0.9944  42.0     14?  72.85  85.9   13 122 121  45
   2024 03 16 18:10  21 56 41.10    -34 36 40.0   105448 0.9944  41.8     14?  69.78  85.6   14 121 121  45
   2024 03 16 18:20  21 57 36.27    -34 35 47.4   106284 0.9944  41.7     14?  66.80  85.3   16 120 121  45
   2024 03 16 18:30  21 58 29.04    -34 34 53.6   107108 0.9944  41.6     14?  63.89  85.0   18 119 121  45
   2024 03 16 18:40  21 59 19.45    -34 33 58.4   107921 0.9944  41.4     14?  61.07  84.7   19 118 121  45
   2024 03 16 18:50  22 00 07.59    -34 33 01.6   108724 0.9944  41.3 A   14?  58.33  84.2   21 118 121  45
   2024 03 16 19:00  22 00 53.50    -34 32 02.7   109517 0.9944  41.2 A   14?  55.68  83.7   23 117 121  46
   2024 03 16 19:10  22 01 37.26    -34 31 01.7   110300 0.9944  41.1 A   14?  53.10  83.2   25 116 121  46
   2024 03 16 19:20  22 02 18.92    -34 29 58.0   111075 0.9944  41.0 N   14?  50.61  82.5   26 115 121  46
   2024 03 16 19:30  22 02 58.55    -34 28 51.6   111841 0.9944  40.9 N   14?  48.20  81.8   28 114 121  46
   2024 03 16 19:40  22 03 36.20    -34 27 42.1   112599 0.9944  40.8 N   14?  45.88  81.0   30 114 121  46
   2024 03 16 19:50  22 04 11.93    -34 26 29.2   113350 0.9944  40.7 C   14?  43.65  80.1   32 113 121  46
   ................
   2024 03 17 18:10  23 01 23.71    -26 38 38.9   183625 0.9942  28.1  r  16?  31.93  82.3    0 121 117  55
   2024 03 17 18:20  23 01 46.91    -26 37 56.7   183611 0.9942  28.0     16?  30.82  82.3    1 120 117  55
   2024 03 17 18:30  23 02 09.27    -26 37 15.6   183591 0.9942  28.0     16?  29.69  82.2    3 119 118  55
   2024 03 17 18:40  23 02 30.79    -26 36 35.3   183564 0.9942  28.0     16?  28.56  82.0    4 118 118  55
   2024 03 17 18:50  23 02 51.47    -26 35 55.8   183532 0.9942  27.9 A   16?  27.42  81.8    6 116 118  56
   2024 03 17 19:00  23 03 11.29    -26 35 16.8   183494 0.9942  27.9 A   16?  26.28  81.5    8 115 118  56
   2024 03 17 19:10  23 03 30.25    -26 34 38.0   183452 0.9942  27.8 A   16?  25.14  81.2   10 114 118  56
   2024 03 17 19:20  23 03 48.35    -26 33 59.4   183404 0.9942  27.8 N   16?  24.01  80.8   12 113 118  56
   2024 03 17 19:30  23 04 05.59    -26 33 20.6   183353 0.9942  27.8 N   16?  22.87  80.3   14 112 118  56
   2024 03 17 19:40  23 04 21.97    -26 32 41.5   183298 0.9942  27.7 N   16?  21.74  79.6   16 111 118  56
   2024 03 17 19:50  23 04 37.49    -26 32 01.9   183239 0.9942  27.7 C   16?  20.63  78.9   18 110 118  56
   2024 03 17 20:00  23 04 52.15    -26 31 21.5   183177 0.9942  27.7 C   16?  19.52  78.0   20 109 118  56
   ................
   

MMS-4 (JPL-ID: -140485)

   Date (UTC) HH:MM   RA              Dec         delta   r     elong SM  mag  '/hr    PA   alt  az moo ill
   ---- -- -- -----  -------------   -----------  ------ ------ ----- --  --- ------ ------ --- --- --- ---
   2024 03 04 08:40  23 14 09.90    -22 48 11.1   181893 0.9905  16.7 C   16?  36.54  42.1    9 249  77  42
   2024 03 04 08:50  23 14 28.03    -22 43 39.9   181908 0.9905  16.7 C   16?  37.32  43.4    7 247  77  42
   2024 03 04 09:00  23 14 46.97    -22 39 08.9   181918 0.9905  16.6 N   16?  38.09  44.7    5 246  77  42
   2024 03 04 09:10  23 15 06.73    -22 34 38.4   181923 0.9905  16.6 N   16?  38.87  46.0    3 245  77  42
   2024 03 04 09:20  23 15 27.30    -22 30 08.4   181924 0.9905  16.5 N   16?  39.65  47.2    1 244  77  42
   2024 03 04 09:30  23 15 48.68    -22 25 39.1   181918 0.9905  16.5 A   16?  40.43  48.3    0 243  77  42
   ................
   2024 03 05 08:40  00 08 35.99    -11 14 34.3   101462 0.9913  16.7 C   15?  89.73  35.0   14 265  80  32
   2024 03 05 08:50  00 09 11.80    -11 02 12.7   100621 0.9913  16.7 C   15?  92.50  35.9   11 264  80  32
   2024 03 05 09:00  00 09 49.51    -10 49 36.8    99770 0.9913  16.8 N   15?  95.39  36.8    9 263  81  32
   2024 03 05 09:10  00 10 29.19    -10 36 46.2    98907 0.9913  16.9 N   15?  98.38  37.7    7 262  81  31
   2024 03 05 09:20  00 11 10.90    -10 23 40.6    98033 0.9913  17.0 N   15? 101.49  38.6    5 261  81  31
   2024 03 05 09:30  00 11 54.69    -10 10 19.2    97146 0.9913  17.1 A   15? 104.72  39.4    3 260  81  31
   2024 03 05 09:40  00 12 40.63    -09 56 41.7    96247 0.9913  17.3 A   15? 108.08  40.1    1 259  81  31
   2024 03 05 09:50  00 13 28.77    -09 42 47.3    95334 0.9914  17.4 A   15? 111.57  40.9    0 258  81  31
   ................
   2024 03 05 18:30  13 23 40.03    +09 15 01.5     5091 0.9921 145.7  r   8?  20134 134.0   40 320  88  27
   2024 03 05 18:40  15 30 23.12    -20 07 06.2     6851 0.9921 110.1 Am   7?  10493 129.5   78 359  47  27
   2024 03 05 18:50  16 45 24.18    -32 04 16.4     9760 0.9921  91.2 At   7? 5193.0 120.2   76  97  28  27
   2024 03 05 19:00  17 33 33.42    -37 04 56.3    12789 0.9920  81.0 Am   8? 3087.8 112.8   68 112  19  27
   2024 03 05 19:10  18 07 14.37    -39 30 52.7    15720 0.9920  74.5 Nm   9? 2089.9 107.1   63 116  15  27
   2024 03 05 19:20  18 32 20.72    -40 48 54.7    18515 0.9920  69.9 Nm   9? 1536.7 102.7   60 118  14  27
   2024 03 05 19:30  18 51 56.17    -41 32 48.3    21176 0.9920  66.5 Nm  10? 1194.1  99.3   58 119  13  27
   2024 03 05 19:40  19 07 45.00    -41 57 46.3    23716 0.9920  63.8 Cm  10? 964.66  96.4   57 120  14  27
   2024 03 05 19:50  19 20 50.90    -42 11 28.7    26146 0.9920  61.5 Cm  10? 801.80  94.0   56 120  15  26
   ................
   2024 03 06 18:30  22 41 23.86    -29 19 50.4   165379 0.9913  24.8  m  16?  38.18  85.8    0 124  35  17
   2024 03 06 18:40  22 41 52.54    -29 19 23.0   165628 0.9913  24.8 Am  16?  36.83  85.8    2 123  35  17
   2024 03 06 18:50  22 42 20.19    -29 18 56.9   165869 0.9913  24.7 Am  16?  35.48  85.9    3 122  35  17
   2024 03 06 19:00  22 42 46.81    -29 18 31.9   166104 0.9913  24.7 Am  16?  34.13  85.9    5 120  35  17
   2024 03 06 19:10  22 43 12.39    -29 18 07.9   166331 0.9913  24.7 Nm  16?  32.78  85.9    7 119  36  17
   2024 03 06 19:20  22 43 36.94    -29 17 44.6   166553 0.9913  24.7 Nm  16?  31.43  85.8    9 118  36  17
   2024 03 06 19:30  22 44 00.46    -29 17 21.7   166768 0.9913  24.6 Nm  16?  30.08  85.7   11 117  36  17
   2024 03 06 19:40  22 44 22.94    -29 16 59.0   166978 0.9913  24.6 Cm  16?  28.73  85.5   12 116  36  17
   2024 03 06 19:50  22 44 44.39    -29 16 36.3   167183 0.9913  24.6 Cm  16?  27.39  85.3   14 115  36  17
   ................
   2024 03 07 08:40  22 53 21.26    -25 52 50.2   186712 0.9913  21.1 C   16?  38.28  47.9    4 242  32  13
   2024 03 07 08:50  22 53 42.70    -25 48 33.8   187004 0.9913  21.1 C   16?  38.93  49.0    2 241  32  13
   2024 03 07 09:00  22 54 04.88    -25 44 19.1   187290 0.9913  21.0 N   16?  39.57  50.2    0 240  32  13
   ................
   2024 03 07 19:30  23 25 57.50    -23 04 04.8   184849 0.9914  18.3 Nm  16?  30.40  77.6    0 116  32   9
   2024 03 07 19:40  23 26 18.66    -23 02 58.9   184483 0.9914  18.3 Cm  16?  29.40  77.2    2 115  32   9
   2024 03 07 19:50  23 26 39.07    -23 01 53.5   184110 0.9914  18.3 Cm  16?  28.39  76.8    4 114  32   9
   ................
   2024 03 08 08:40  23 34 26.35    -18 55 42.3   158480 0.9917  14.8 C   16?  44.53  40.5    8 252  29   6
   2024 03 08 08:50  23 34 47.19    -18 50 02.1   158198 0.9917  14.8 C   16?  45.56  41.7    6 251  29   6
   2024 03 08 09:00  23 35 09.02    -18 44 20.7   157909 0.9917  14.7 N   16?  46.61  42.9    4 250  29   6
   2024 03 08 09:10  23 35 31.86    -18 38 38.2   157615 0.9917  14.7 N   16?  47.67  44.1    2 249  29   6
   2024 03 08 09:20  23 35 55.68    -18 32 54.7   157314 0.9917  14.6 N   16?  48.75  45.2    0 248  29   6
   ................
   2024 03 09 17:20  21 57 56.62    -33 43 17.2   108847 0.9925  35.2     14?  81.45  86.9    0 129  26   0
   2024 03 09 17:30  21 59 00.59    -33 42 37.0   109675 0.9925  35.0     14?  78.49  87.0    2 128  26   0
   2024 03 09 17:40  22 00 02.21    -33 41 58.4   110490 0.9925  34.9     14?  75.59  87.0    3 127  26   0
   2024 03 09 17:50  22 01 01.53    -33 41 21.1   111291 0.9925  34.8     14?  72.74  86.9    5 126  26   0
   2024 03 09 18:00  22 01 58.59    -33 40 44.9   112080 0.9925  34.6     14?  69.96  86.9    6 125  26   0
   2024 03 09 18:10  22 02 53.43    -33 40 09.6   112857 0.9925  34.5     14?  67.23  86.8    8 124  26   0
   2024 03 09 18:20  22 03 46.11    -33 39 34.7   113623 0.9925  34.4     14?  64.55  86.7    9 123  26   0
   2024 03 09 18:30  22 04 36.65    -33 39 00.0   114377 0.9925  34.3     14?  61.93  86.6   11 122  26   0
   2024 03 09 18:40  22 05 25.10    -33 38 25.3   115120 0.9925  34.2 A   14?  59.36  86.5   13 121  26   0
   2024 03 09 18:50  22 06 11.51    -33 37 50.2   115853 0.9925  34.1 A   14?  56.84  86.3   14 120  26   0
   2024 03 09 19:00  22 06 55.92    -33 37 14.5   116576 0.9925  34.0 A   15?  54.38  86.0   16 119  26   0
   2024 03 09 19:10  22 07 38.37    -33 36 37.8   117290 0.9925  33.9 N   15?  51.98  85.7   18 118  26   0
   2024 03 09 19:20  22 08 18.90    -33 35 59.9   117995 0.9925  33.9 Nm  15?  49.63  85.3   20 117  26   0
   2024 03 09 19:30  22 08 57.55    -33 35 20.4   118691 0.9925  33.8 Nm  15?  47.34  84.9   21 116  26   0
   2024 03 09 19:40  22 09 34.37    -33 34 39.0   119379 0.9925  33.7 Cm  15?  45.11  84.4   23 115  26   0
   2024 03 09 19:50  22 10 09.39    -33 33 55.6   120060 0.9924  33.6 Cm  15?  42.93  83.8   25 115  26   0
   ................
   2024 03 10 08:40  22 29 20.03    -28 50 06.3   169290 0.9923  27.9 C   15?  49.42  54.6    0 235  26   0
   ................
   2024 03 10 18:50  23 04 22.82    -26 18 55.5   185368 0.9922  23.0 A   16?  30.12  82.6    1 120  26   0
   2024 03 10 19:00  23 04 44.65    -26 18 17.1   185310 0.9922  22.9 A   16?  29.02  82.5    2 119  26   0
   2024 03 10 19:10  23 05 05.67    -26 17 39.5   185246 0.9922  22.9 N   16?  27.91  82.4    4 117  26   0
   2024 03 10 19:20  23 05 25.85    -26 17 02.6   185176 0.9922  22.9 N   16?  26.79  82.2    6 116  26   0
   2024 03 10 19:30  23 05 45.20    -26 16 26.2   185101 0.9922  22.9 N   16?  25.67  81.9    8 115  26   0
   2024 03 10 19:40  23 06 03.70    -26 15 50.1   185022 0.9922  22.8 C   16?  24.55  81.6   10 114  26   0
   2024 03 10 19:50  23 06 21.37    -26 15 14.0   184938 0.9922  22.8 C   16?  23.43  81.2   12 113  26   0
   ................
   2024 03 11 08:40  23 12 49.00    -22 48 09.7   183959 0.9924  19.5 Cm  16?  38.14  45.6    3 245  28   1
   2024 03 11 08:50  23 13 09.14    -22 43 42.3   183999 0.9924  19.4 Cm  16?  38.89  46.8    1 244  28   1
   2024 03 11 09:00  23 13 30.06    -22 39 15.8   184034 0.9924  19.3 Nm  16?  39.64  48.0    0 243  28   1
   ................
   2024 03 11 19:50  23 48 17.37    -19 10 33.3   163505 0.9926  16.4 C   16?  38.21  69.0    0 111  28   3
   ................
   2024 03 12 08:30  00 03 13.19    -12 05 37.7   110572 0.9931  12.0 Cm  15?  79.76  36.9    9 261  26   5
   2024 03 12 08:40  00 03 46.76    -11 54 53.0   109826 0.9931  12.0 Cm  15?  82.04  37.9    7 260  26   5
   ................
   2024 03 12 19:50  13 13 18.42    -06 15 52.5     7103 0.9939 153.0 Cr   9?  13619 132.4   29 281 171   9
   ................
   2024 03 13 18:00  22 38 20.44    -29 45 48.3   160312 0.9932  30.3     15?  40.22  85.0    0 124  72  16
   2024 03 13 18:10  22 38 50.61    -29 45 15.0   160613 0.9932  30.2     15?  38.80  85.1    2 123  72  16
   2024 03 13 18:20  22 39 19.71    -29 44 43.0   160907 0.9932  30.1     15?  37.38  85.1    4 122  72  16
   2024 03 13 18:30  22 39 47.71    -29 44 12.2   161193 0.9932  30.1     15?  35.96  85.1    5 121  72  16
   2024 03 13 18:40  22 40 14.62    -29 43 42.4   161473 0.9932  30.0     15?  34.54  85.0    7 120  72  16
   2024 03 13 18:50  22 40 40.45    -29 43 13.2   161746 0.9932  30.0 A   15?  33.13  84.9    9 118  73  16
   2024 03 13 19:00  22 41 05.19    -29 42 44.5   162013 0.9932  30.0 A   15?  31.72  84.7   11 117  73  16
   2024 03 13 19:10  22 41 28.84    -29 42 16.0   162274 0.9932  29.9 A   15?  30.31  84.5   13 116  73  16
   2024 03 13 19:20  22 41 51.41    -29 41 47.5   162530 0.9932  29.9 N   15?  28.92  84.2   14 115  73  16
   2024 03 13 19:30  22 42 12.91    -29 41 18.6   162781 0.9932  29.8 N   15?  27.54  83.8   16 114  73  16
   2024 03 13 19:40  22 42 33.34    -29 40 49.2   163027 0.9932  29.8 C   15?  26.17  83.3   18 113  73  16
   2024 03 13 19:50  22 42 52.72    -29 40 19.0   163269 0.9932  29.8 C   15?  24.82  82.8   20 112  73  16
   ................
   2024 03 14 08:30  22 51 50.67    -25 59 12.7   186038 0.9932  26.0 Cm  16?  40.48  50.0    1 240  76  21
   ................
   2024 03 14 19:00  23 23 53.54    -23 15 48.4   186033 0.9933  21.3 A   16?  30.21  77.2    0 117  74  25
   2024 03 14 19:10  23 24 14.56    -23 14 41.6   185705 0.9933  21.3 A   16?  29.21  76.9    2 115  74  25
   2024 03 14 19:20  23 24 34.82    -23 13 35.3   185372 0.9933  21.2 N   16?  28.19  76.5    4 114  74  25
   2024 03 14 19:30  23 24 54.33    -23 12 29.3   185033 0.9933  21.2 N   16?  27.17  76.0    6 113  75  26
   2024 03 14 19:40  23 25 13.07    -23 11 23.3   184689 0.9933  21.2 C   16?  26.15  75.4    8 112  75  26
   2024 03 14 19:50  23 25 31.05    -23 10 17.2   184340 0.9933  21.2 C   16?  25.13  74.8    9 110  75  26
   ................
   2024 03 15 08:30  23 32 48.64    -19 00 09.2   162533 0.9935  17.1 Cm  16?  45.03  42.8    4 250  78  31
   2024 03 15 08:40  23 33 10.69    -18 54 37.7   162288 0.9935  17.0 Cm  16?  46.03  44.0    2 249  77  31
   2024 03 15 08:50  23 33 33.70    -18 49 05.6   162037 0.9935  16.9 Nm  16?  47.03  45.1    0 248  77  31
   ................
   2024 03 16 16:30  21 45 02.21    -34 44 59.5    96384 0.9945  43.6     14? 104.64  86.8    0 131 122  44
   2024 03 16 16:40  21 46 25.40    -34 44 04.2    97359 0.9945  43.3     14? 100.68  86.8    1 130 122  44
   2024 03 16 16:50  21 47 45.42    -34 43 10.3    98318 0.9945  43.1     14?  96.85  86.7    2 129 122  44
   2024 03 16 17:00  21 49 02.36    -34 42 17.4    99262 0.9945  43.0     14?  93.12  86.7    3 128 122  44
   2024 03 16 17:10  21 50 16.30    -34 41 25.4   100190 0.9945  42.8     14?  89.50  86.6    5 127 122  44
   2024 03 16 17:20  21 51 27.34    -34 40 34.2   101104 0.9945  42.6     14?  85.98  86.5    6 126 122  45
   2024 03 16 17:30  21 52 35.54    -34 39 43.3   102003 0.9945  42.4     14?  82.55  86.4    8 125 121  45
   2024 03 16 17:40  21 53 40.99    -34 38 52.7   102888 0.9945  42.3     14?  79.22  86.2    9 124 121  45
   2024 03 16 17:50  21 54 43.75    -34 38 02.0   103760 0.9945  42.1     14?  75.97  86.1   11 123 121  45
   2024 03 16 18:00  21 55 43.91    -34 37 11.0   104620 0.9944  42.0     14?  72.82  85.9   13 122 121  45
   2024 03 16 18:10  21 56 41.53    -34 36 19.4   105467 0.9944  41.8     14?  69.75  85.6   14 121 121  45
   2024 03 16 18:20  21 57 36.67    -34 35 26.9   106302 0.9944  41.7     14?  66.76  85.4   16 120 121  45
   2024 03 16 18:30  21 58 29.40    -34 34 33.4   107126 0.9944  41.6     14?  63.86  85.0   18 119 121  45
   2024 03 16 18:40  21 59 19.79    -34 33 38.4   107939 0.9944  41.4     14?  61.04  84.7   19 118 121  45
   2024 03 16 18:50  22 00 07.90    -34 32 41.7   108742 0.9944  41.3 A   14?  58.30  84.2   21 118 121  45
   2024 03 16 19:00  22 00 53.79    -34 31 43.0   109534 0.9944  41.2 A   14?  55.65  83.8   23 117 121  46
   2024 03 16 19:10  22 01 37.52    -34 30 42.1   110318 0.9944  41.1 A   14?  53.07  83.2   25 116 121  46
   2024 03 16 19:20  22 02 19.16    -34 29 38.7   111092 0.9944  41.0 N   14?  50.58  82.6   26 115 121  46
   2024 03 16 19:30  22 02 58.76    -34 28 32.4   111858 0.9944  40.9 N   14?  48.18  81.8   28 114 121  46
   2024 03 16 19:40  22 03 36.39    -34 27 23.1   112616 0.9944  40.8 N   14?  45.86  81.0   30 114 121  46
   2024 03 16 19:50  22 04 12.10    -34 26 10.4   113366 0.9944  40.7 C   14?  43.63  80.1   32 113 121  46
   ................
   2024 03 17 18:10  23 01 22.77    -26 38 37.6   183632 0.9942  28.1  r  16?  31.92  82.3    0 121 117  55
   2024 03 17 18:20  23 01 45.97    -26 37 55.4   183618 0.9942  28.0     16?  30.81  82.3    1 120 117  55
   2024 03 17 18:30  23 02 08.33    -26 37 14.4   183597 0.9942  28.0     16?  29.68  82.2    3 119 118  55
   2024 03 17 18:40  23 02 29.85    -26 36 34.2   183571 0.9942  28.0     16?  28.55  82.0    4 118 118  55
   2024 03 17 18:50  23 02 50.52    -26 35 54.8   183538 0.9942  27.9 A   16?  27.42  81.8    6 116 118  56
   2024 03 17 19:00  23 03 10.33    -26 35 15.9   183501 0.9942  27.9 A   16?  26.28  81.6    8 115 118  56
   2024 03 17 19:10  23 03 29.29    -26 34 37.2   183458 0.9942  27.8 A   16?  25.14  81.2   10 114 118  56
   2024 03 17 19:20  23 03 47.39    -26 33 58.6   183411 0.9942  27.8 N   16?  24.00  80.8   12 113 118  56
   2024 03 17 19:30  23 04 04.62    -26 33 20.0   183359 0.9942  27.8 N   16?  22.87  80.3   14 112 118  56
   2024 03 17 19:40  23 04 21.00    -26 32 40.9   183304 0.9942  27.7 N   16?  21.74  79.7   16 111 118  56
   2024 03 17 19:50  23 04 36.51    -26 32 01.4   183245 0.9942  27.7 C   16?  20.62  78.9   18 110 118  56
   2024 03 17 20:00  23 04 51.17    -26 31 21.1   183184 0.9942  27.7 C   16?  19.51  78.0   20 109 118  56
   ................
   

Website generated with AmrumHtml. Date: 03-04-2024